<?xml version="1.0" encoding="UTF-8"?>
<gpx creator="StravaGPX Android" version="1.1" xmlns="http://www.topografix.com/GPX/1/1" xmlns:xsi="http://www.w3.org/2001/XMLSchema-instance" xsi:schemaLocation="http://www.topografix.com/GPX/1/1 http://www.topografix.com/GPX/1/1/gpx.xsd">
  <metadata>
    <name>Gleich geschafft</name>
    <link href="https://www.strava.com/activities/19966493138"></link>
    <bounds minlat="48.822085" minlon="10.097616" maxlat="48.853440" maxlon="10.199667"></bounds>
    <keywords>activities:19966493138</keywords>
    <time>2026-08-30T15:52:33Z</time>
  </metadata>
  <trk>
    <name>Gleich geschafft</name>
    <trkseg>
      <trkpt lat="48.841349" lon="10.097616">
        <ele>434.2</ele>
        <time>2026-08-30T15:55:59Z</time>
      </trkpt>
      <trkpt lat="48.841377" lon="10.097639">
        <ele>434.2</ele>
        <time>2026-08-30T15:56:00Z</time>
      </trkpt>
      <trkpt lat="48.841408" lon="10.097665">
        <ele>434.2</ele>
        <time>2026-08-30T15:56:01Z</time>
      </trkpt>
      <trkpt lat="48.841441" lon="10.097689">
        <ele>434.2</ele>
        <time>2026-08-30T15:56:02Z</time>
      </trkpt>
      <trkpt lat="48.841474" lon="10.097711">
        <ele>434</ele>
        <time>2026-08-30T15:56:03Z</time>
      </trkpt>
      <trkpt lat="48.841506" lon="10.097744">
        <ele>434.2</ele>
        <time>2026-08-30T15:56:04Z</time>
      </trkpt>
      <trkpt lat="48.841535" lon="10.097779">
        <ele>434.2</ele>
        <time>2026-08-30T15:56:05Z</time>
      </trkpt>
      <trkpt lat="48.841562" lon="10.097811">
        <ele>434.2</ele>
        <time>2026-08-30T15:56:06Z</time>
      </trkpt>
      <trkpt lat="48.841589" lon="10.097849">
        <ele>434.2</ele>
        <time>2026-08-30T15:56:07Z</time>
      </trkpt>
      <trkpt lat="48.841613" lon="10.097884">
        <ele>434.2</ele>
        <time>2026-08-30T15:56:08Z</time>
      </trkpt>
      <trkpt lat="48.841635" lon="10.097921">
        <ele>434.2</ele>
        <time>2026-08-30T15:56:09Z</time>
      </trkpt>
      <trkpt lat="48.841660" lon="10.097956">
        <ele>434.2</ele>
        <time>2026-08-30T15:56:10Z</time>
      </trkpt>
      <trkpt lat="48.841685" lon="10.097991">
        <ele>434.2</ele>
        <time>2026-08-30T15:56:11Z</time>
      </trkpt>
      <trkpt lat="48.841709" lon="10.098027">
        <ele>434.2</ele>
        <time>2026-08-30T15:56:12Z</time>
      </trkpt>
      <trkpt lat="48.841734" lon="10.098066">
        <ele>434.2</ele>
        <time>2026-08-30T15:56:13Z</time>
      </trkpt>
      <trkpt lat="48.841758" lon="10.098107">
        <ele>434</ele>
        <time>2026-08-30T15:56:14Z</time>
      </trkpt>
      <trkpt lat="48.841786" lon="10.098149">
        <ele>434</ele>
        <time>2026-08-30T15:56:15Z</time>
      </trkpt>
      <trkpt lat="48.841808" lon="10.098191">
        <ele>434</ele>
        <time>2026-08-30T15:56:16Z</time>
      </trkpt>
      <trkpt lat="48.841815" lon="10.098240">
        <ele>434</ele>
        <time>2026-08-30T15:56:17Z</time>
      </trkpt>
      <trkpt lat="48.841811" lon="10.098292">
        <ele>434.2</ele>
        <time>2026-08-30T15:56:18Z</time>
      </trkpt>
      <trkpt lat="48.841805" lon="10.098347">
        <ele>434.2</ele>
        <time>2026-08-30T15:56:19Z</time>
      </trkpt>
      <trkpt lat="48.841798" lon="10.098405">
        <ele>434.2</ele>
        <time>2026-08-30T15:56:20Z</time>
      </trkpt>
      <trkpt lat="48.841801" lon="10.098466">
        <ele>434.2</ele>
        <time>2026-08-30T15:56:21Z</time>
      </trkpt>
      <trkpt lat="48.841810" lon="10.098525">
        <ele>434.2</ele>
        <time>2026-08-30T15:56:22Z</time>
      </trkpt>
      <trkpt lat="48.841828" lon="10.098577">
        <ele>434.2</ele>
        <time>2026-08-30T15:56:23Z</time>
      </trkpt>
      <trkpt lat="48.841853" lon="10.098630">
        <ele>434.2</ele>
        <time>2026-08-30T15:56:24Z</time>
      </trkpt>
      <trkpt lat="48.841873" lon="10.098687">
        <ele>434.4</ele>
        <time>2026-08-30T15:56:25Z</time>
      </trkpt>
      <trkpt lat="48.841877" lon="10.098746">
        <ele>434.4</ele>
        <time>2026-08-30T15:56:26Z</time>
      </trkpt>
      <trkpt lat="48.841875" lon="10.098810">
        <ele>434.6</ele>
        <time>2026-08-30T15:56:27Z</time>
      </trkpt>
      <trkpt lat="48.841871" lon="10.098879">
        <ele>434.6</ele>
        <time>2026-08-30T15:56:28Z</time>
      </trkpt>
      <trkpt lat="48.841875" lon="10.098946">
        <ele>434.6</ele>
        <time>2026-08-30T15:56:29Z</time>
      </trkpt>
      <trkpt lat="48.841881" lon="10.099007">
        <ele>434.8</ele>
        <time>2026-08-30T15:56:30Z</time>
      </trkpt>
      <trkpt lat="48.841889" lon="10.099070">
        <ele>435</ele>
        <time>2026-08-30T15:56:31Z</time>
      </trkpt>
      <trkpt lat="48.841901" lon="10.099128">
        <ele>435</ele>
        <time>2026-08-30T15:56:32Z</time>
      </trkpt>
      <trkpt lat="48.841914" lon="10.099191">
        <ele>435.2</ele>
        <time>2026-08-30T15:56:33Z</time>
      </trkpt>
      <trkpt lat="48.841927" lon="10.099252">
        <ele>435.4</ele>
        <time>2026-08-30T15:56:34Z</time>
      </trkpt>
      <trkpt lat="48.841940" lon="10.099318">
        <ele>435.6</ele>
        <time>2026-08-30T15:56:35Z</time>
      </trkpt>
      <trkpt lat="48.841951" lon="10.099386">
        <ele>435.8</ele>
        <time>2026-08-30T15:56:36Z</time>
      </trkpt>
      <trkpt lat="48.841960" lon="10.099448">
        <ele>436</ele>
        <time>2026-08-30T15:56:37Z</time>
      </trkpt>
      <trkpt lat="48.841967" lon="10.099515">
        <ele>436</ele>
        <time>2026-08-30T15:56:38Z</time>
      </trkpt>
      <trkpt lat="48.841978" lon="10.099583">
        <ele>436.2</ele>
        <time>2026-08-30T15:56:39Z</time>
      </trkpt>
      <trkpt lat="48.841991" lon="10.099647">
        <ele>436.4</ele>
        <time>2026-08-30T15:56:40Z</time>
      </trkpt>
      <trkpt lat="48.842003" lon="10.099711">
        <ele>436.6</ele>
        <time>2026-08-30T15:56:41Z</time>
      </trkpt>
      <trkpt lat="48.842015" lon="10.099776">
        <ele>436.8</ele>
        <time>2026-08-30T15:56:42Z</time>
      </trkpt>
      <trkpt lat="48.842027" lon="10.099840">
        <ele>436.8</ele>
        <time>2026-08-30T15:56:43Z</time>
      </trkpt>
      <trkpt lat="48.842038" lon="10.099907">
        <ele>437</ele>
        <time>2026-08-30T15:56:44Z</time>
      </trkpt>
      <trkpt lat="48.842047" lon="10.099974">
        <ele>437.2</ele>
        <time>2026-08-30T15:56:45Z</time>
      </trkpt>
      <trkpt lat="48.842054" lon="10.100035">
        <ele>437.2</ele>
        <time>2026-08-30T15:56:46Z</time>
      </trkpt>
      <trkpt lat="48.842064" lon="10.100100">
        <ele>437.4</ele>
        <time>2026-08-30T15:56:47Z</time>
      </trkpt>
      <trkpt lat="48.842078" lon="10.100166">
        <ele>437.4</ele>
        <time>2026-08-30T15:56:48Z</time>
      </trkpt>
      <trkpt lat="48.842096" lon="10.100232">
        <ele>437.6</ele>
        <time>2026-08-30T15:56:49Z</time>
      </trkpt>
      <trkpt lat="48.842111" lon="10.100301">
        <ele>437.6</ele>
        <time>2026-08-30T15:56:50Z</time>
      </trkpt>
      <trkpt lat="48.842124" lon="10.100366">
        <ele>437.8</ele>
        <time>2026-08-30T15:56:51Z</time>
      </trkpt>
      <trkpt lat="48.842137" lon="10.100431">
        <ele>437.8</ele>
        <time>2026-08-30T15:56:52Z</time>
      </trkpt>
      <trkpt lat="48.842148" lon="10.100494">
        <ele>438</ele>
        <time>2026-08-30T15:56:53Z</time>
      </trkpt>
      <trkpt lat="48.842159" lon="10.100561">
        <ele>438</ele>
        <time>2026-08-30T15:56:54Z</time>
      </trkpt>
      <trkpt lat="48.842168" lon="10.100628">
        <ele>438.2</ele>
        <time>2026-08-30T15:56:55Z</time>
      </trkpt>
      <trkpt lat="48.842175" lon="10.100690">
        <ele>438.2</ele>
        <time>2026-08-30T15:56:56Z</time>
      </trkpt>
      <trkpt lat="48.842183" lon="10.100755">
        <ele>438.4</ele>
        <time>2026-08-30T15:56:57Z</time>
      </trkpt>
      <trkpt lat="48.842191" lon="10.100818">
        <ele>438.6</ele>
        <time>2026-08-30T15:56:58Z</time>
      </trkpt>
      <trkpt lat="48.842204" lon="10.100876">
        <ele>438.6</ele>
        <time>2026-08-30T15:56:59Z</time>
      </trkpt>
      <trkpt lat="48.842216" lon="10.100935">
        <ele>438.8</ele>
        <time>2026-08-30T15:57:00Z</time>
      </trkpt>
      <trkpt lat="48.842223" lon="10.100994">
        <ele>438.8</ele>
        <time>2026-08-30T15:57:01Z</time>
      </trkpt>
      <trkpt lat="48.842227" lon="10.101057">
        <ele>439</ele>
        <time>2026-08-30T15:57:02Z</time>
      </trkpt>
      <trkpt lat="48.842232" lon="10.101126">
        <ele>439</ele>
        <time>2026-08-30T15:57:03Z</time>
      </trkpt>
      <trkpt lat="48.842242" lon="10.101188">
        <ele>439</ele>
        <time>2026-08-30T15:57:04Z</time>
      </trkpt>
      <trkpt lat="48.842252" lon="10.101250">
        <ele>439.2</ele>
        <time>2026-08-30T15:57:05Z</time>
      </trkpt>
      <trkpt lat="48.842266" lon="10.101309">
        <ele>439.2</ele>
        <time>2026-08-30T15:57:06Z</time>
      </trkpt>
      <trkpt lat="48.842280" lon="10.101366">
        <ele>439.4</ele>
        <time>2026-08-30T15:57:07Z</time>
      </trkpt>
      <trkpt lat="48.842297" lon="10.101420">
        <ele>439.6</ele>
        <time>2026-08-30T15:57:08Z</time>
      </trkpt>
      <trkpt lat="48.842316" lon="10.101470">
        <ele>439.6</ele>
        <time>2026-08-30T15:57:09Z</time>
      </trkpt>
      <trkpt lat="48.842338" lon="10.101521">
        <ele>439.8</ele>
        <time>2026-08-30T15:57:10Z</time>
      </trkpt>
      <trkpt lat="48.842365" lon="10.101568">
        <ele>439.8</ele>
        <time>2026-08-30T15:57:11Z</time>
      </trkpt>
      <trkpt lat="48.842394" lon="10.101614">
        <ele>439.8</ele>
        <time>2026-08-30T15:57:12Z</time>
      </trkpt>
      <trkpt lat="48.842423" lon="10.101661">
        <ele>439.8</ele>
        <time>2026-08-30T15:57:13Z</time>
      </trkpt>
      <trkpt lat="48.842452" lon="10.101707">
        <ele>439.8</ele>
        <time>2026-08-30T15:57:14Z</time>
      </trkpt>
      <trkpt lat="48.842477" lon="10.101756">
        <ele>439.8</ele>
        <time>2026-08-30T15:57:15Z</time>
      </trkpt>
      <trkpt lat="48.842494" lon="10.101812">
        <ele>440</ele>
        <time>2026-08-30T15:57:16Z</time>
      </trkpt>
      <trkpt lat="48.842510" lon="10.101874">
        <ele>440</ele>
        <time>2026-08-30T15:57:17Z</time>
      </trkpt>
      <trkpt lat="48.842521" lon="10.101933">
        <ele>440.2</ele>
        <time>2026-08-30T15:57:18Z</time>
      </trkpt>
      <trkpt lat="48.842534" lon="10.101989">
        <ele>440.2</ele>
        <time>2026-08-30T15:57:19Z</time>
      </trkpt>
      <trkpt lat="48.842551" lon="10.102042">
        <ele>440.4</ele>
        <time>2026-08-30T15:57:20Z</time>
      </trkpt>
      <trkpt lat="48.842568" lon="10.102095">
        <ele>440.6</ele>
        <time>2026-08-30T15:57:21Z</time>
      </trkpt>
      <trkpt lat="48.842583" lon="10.102145">
        <ele>440.8</ele>
        <time>2026-08-30T15:57:22Z</time>
      </trkpt>
      <trkpt lat="48.842599" lon="10.102196">
        <ele>440.8</ele>
        <time>2026-08-30T15:57:23Z</time>
      </trkpt>
      <trkpt lat="48.842611" lon="10.102248">
        <ele>441</ele>
        <time>2026-08-30T15:57:24Z</time>
      </trkpt>
      <trkpt lat="48.842626" lon="10.102289">
        <ele>441.2</ele>
        <time>2026-08-30T15:57:25Z</time>
      </trkpt>
      <trkpt lat="48.842632" lon="10.102333">
        <ele>441.4</ele>
        <time>2026-08-30T15:57:26Z</time>
      </trkpt>
      <trkpt lat="48.842642" lon="10.102375">
        <ele>441.6</ele>
        <time>2026-08-30T15:57:27Z</time>
      </trkpt>
      <trkpt lat="48.842659" lon="10.102418">
        <ele>441.8</ele>
        <time>2026-08-30T15:57:28Z</time>
      </trkpt>
      <trkpt lat="48.842677" lon="10.102468">
        <ele>442</ele>
        <time>2026-08-30T15:57:29Z</time>
      </trkpt>
      <trkpt lat="48.842695" lon="10.102514">
        <ele>442.2</ele>
        <time>2026-08-30T15:57:30Z</time>
      </trkpt>
      <trkpt lat="48.842714" lon="10.102559">
        <ele>442.4</ele>
        <time>2026-08-30T15:57:31Z</time>
      </trkpt>
      <trkpt lat="48.842732" lon="10.102603">
        <ele>442.6</ele>
        <time>2026-08-30T15:57:32Z</time>
      </trkpt>
      <trkpt lat="48.842753" lon="10.102646">
        <ele>442.6</ele>
        <time>2026-08-30T15:57:33Z</time>
      </trkpt>
      <trkpt lat="48.842773" lon="10.102690">
        <ele>442.8</ele>
        <time>2026-08-30T15:57:34Z</time>
      </trkpt>
      <trkpt lat="48.842793" lon="10.102739">
        <ele>442.8</ele>
        <time>2026-08-30T15:57:35Z</time>
      </trkpt>
      <trkpt lat="48.842811" lon="10.102790">
        <ele>443</ele>
        <time>2026-08-30T15:57:36Z</time>
      </trkpt>
      <trkpt lat="48.842829" lon="10.102842">
        <ele>443</ele>
        <time>2026-08-30T15:57:37Z</time>
      </trkpt>
      <trkpt lat="48.842852" lon="10.102890">
        <ele>443.2</ele>
        <time>2026-08-30T15:57:38Z</time>
      </trkpt>
      <trkpt lat="48.842878" lon="10.102929">
        <ele>443.2</ele>
        <time>2026-08-30T15:57:39Z</time>
      </trkpt>
      <trkpt lat="48.842914" lon="10.102949">
        <ele>443.4</ele>
        <time>2026-08-30T15:57:40Z</time>
      </trkpt>
      <trkpt lat="48.842958" lon="10.102943">
        <ele>443.4</ele>
        <time>2026-08-30T15:57:41Z</time>
      </trkpt>
      <trkpt lat="48.843003" lon="10.102917">
        <ele>443.4</ele>
        <time>2026-08-30T15:57:42Z</time>
      </trkpt>
      <trkpt lat="48.843053" lon="10.102879">
        <ele>443.2</ele>
        <time>2026-08-30T15:57:43Z</time>
      </trkpt>
      <trkpt lat="48.843102" lon="10.102847">
        <ele>443</ele>
        <time>2026-08-30T15:57:44Z</time>
      </trkpt>
      <trkpt lat="48.843146" lon="10.102823">
        <ele>442.8</ele>
        <time>2026-08-30T15:57:45Z</time>
      </trkpt>
      <trkpt lat="48.843185" lon="10.102822">
        <ele>442.6</ele>
        <time>2026-08-30T15:57:46Z</time>
      </trkpt>
      <trkpt lat="48.843208" lon="10.102849">
        <ele>442.4</ele>
        <time>2026-08-30T15:57:47Z</time>
      </trkpt>
      <trkpt lat="48.843225" lon="10.102892">
        <ele>442.4</ele>
        <time>2026-08-30T15:57:48Z</time>
      </trkpt>
      <trkpt lat="48.843238" lon="10.102937">
        <ele>442.2</ele>
        <time>2026-08-30T15:57:49Z</time>
      </trkpt>
      <trkpt lat="48.843252" lon="10.102984">
        <ele>442.2</ele>
        <time>2026-08-30T15:57:50Z</time>
      </trkpt>
      <trkpt lat="48.843274" lon="10.103031">
        <ele>442.2</ele>
        <time>2026-08-30T15:57:51Z</time>
      </trkpt>
      <trkpt lat="48.843294" lon="10.103080">
        <ele>442.2</ele>
        <time>2026-08-30T15:57:52Z</time>
      </trkpt>
      <trkpt lat="48.843317" lon="10.103125">
        <ele>442.2</ele>
        <time>2026-08-30T15:57:53Z</time>
      </trkpt>
      <trkpt lat="48.843336" lon="10.103173">
        <ele>442.4</ele>
        <time>2026-08-30T15:57:54Z</time>
      </trkpt>
      <trkpt lat="48.843353" lon="10.103221">
        <ele>442.4</ele>
        <time>2026-08-30T15:57:55Z</time>
      </trkpt>
      <trkpt lat="48.843375" lon="10.103269">
        <ele>442.6</ele>
        <time>2026-08-30T15:57:56Z</time>
      </trkpt>
      <trkpt lat="48.843395" lon="10.103319">
        <ele>442.6</ele>
        <time>2026-08-30T15:57:57Z</time>
      </trkpt>
      <trkpt lat="48.843418" lon="10.103374">
        <ele>442.8</ele>
        <time>2026-08-30T15:57:58Z</time>
      </trkpt>
      <trkpt lat="48.843440" lon="10.103430">
        <ele>442.8</ele>
        <time>2026-08-30T15:57:59Z</time>
      </trkpt>
      <trkpt lat="48.843456" lon="10.103488">
        <ele>443</ele>
        <time>2026-08-30T15:58:00Z</time>
      </trkpt>
      <trkpt lat="48.843474" lon="10.103543">
        <ele>443</ele>
        <time>2026-08-30T15:58:01Z</time>
      </trkpt>
      <trkpt lat="48.843487" lon="10.103601">
        <ele>443</ele>
        <time>2026-08-30T15:58:02Z</time>
      </trkpt>
      <trkpt lat="48.843500" lon="10.103653">
        <ele>443.2</ele>
        <time>2026-08-30T15:58:03Z</time>
      </trkpt>
      <trkpt lat="48.843517" lon="10.103704">
        <ele>443.4</ele>
        <time>2026-08-30T15:58:04Z</time>
      </trkpt>
      <trkpt lat="48.843537" lon="10.103757">
        <ele>443.4</ele>
        <time>2026-08-30T15:58:05Z</time>
      </trkpt>
      <trkpt lat="48.843559" lon="10.103801">
        <ele>443.6</ele>
        <time>2026-08-30T15:58:06Z</time>
      </trkpt>
      <trkpt lat="48.843575" lon="10.103855">
        <ele>443.8</ele>
        <time>2026-08-30T15:58:07Z</time>
      </trkpt>
      <trkpt lat="48.843591" lon="10.103910">
        <ele>444</ele>
        <time>2026-08-30T15:58:08Z</time>
      </trkpt>
      <trkpt lat="48.843610" lon="10.103965">
        <ele>444</ele>
        <time>2026-08-30T15:58:09Z</time>
      </trkpt>
      <trkpt lat="48.843631" lon="10.104017">
        <ele>444.2</ele>
        <time>2026-08-30T15:58:10Z</time>
      </trkpt>
      <trkpt lat="48.843654" lon="10.104074">
        <ele>444.2</ele>
        <time>2026-08-30T15:58:11Z</time>
      </trkpt>
      <trkpt lat="48.843675" lon="10.104126">
        <ele>444.4</ele>
        <time>2026-08-30T15:58:12Z</time>
      </trkpt>
      <trkpt lat="48.843695" lon="10.104180">
        <ele>444.6</ele>
        <time>2026-08-30T15:58:13Z</time>
      </trkpt>
      <trkpt lat="48.843715" lon="10.104230">
        <ele>444.6</ele>
        <time>2026-08-30T15:58:14Z</time>
      </trkpt>
      <trkpt lat="48.843734" lon="10.104275">
        <ele>444.8</ele>
        <time>2026-08-30T15:58:15Z</time>
      </trkpt>
      <trkpt lat="48.843748" lon="10.104327">
        <ele>444.8</ele>
        <time>2026-08-30T15:58:16Z</time>
      </trkpt>
      <trkpt lat="48.843767" lon="10.104372">
        <ele>445</ele>
        <time>2026-08-30T15:58:17Z</time>
      </trkpt>
      <trkpt lat="48.843786" lon="10.104406">
        <ele>445.2</ele>
        <time>2026-08-30T15:58:18Z</time>
      </trkpt>
      <trkpt lat="48.843804" lon="10.104436">
        <ele>445.4</ele>
        <time>2026-08-30T15:58:19Z</time>
      </trkpt>
      <trkpt lat="48.843828" lon="10.104460">
        <ele>445.4</ele>
        <time>2026-08-30T15:58:20Z</time>
      </trkpt>
      <trkpt lat="48.843858" lon="10.104468">
        <ele>445.6</ele>
        <time>2026-08-30T15:58:21Z</time>
      </trkpt>
      <trkpt lat="48.843890" lon="10.104465">
        <ele>445.8</ele>
        <time>2026-08-30T15:58:22Z</time>
      </trkpt>
      <trkpt lat="48.843922" lon="10.104453">
        <ele>445.8</ele>
        <time>2026-08-30T15:58:23Z</time>
      </trkpt>
      <trkpt lat="48.843956" lon="10.104442">
        <ele>446</ele>
        <time>2026-08-30T15:58:24Z</time>
      </trkpt>
      <trkpt lat="48.843988" lon="10.104426">
        <ele>446</ele>
        <time>2026-08-30T15:58:25Z</time>
      </trkpt>
      <trkpt lat="48.844019" lon="10.104407">
        <ele>446.2</ele>
        <time>2026-08-30T15:58:26Z</time>
      </trkpt>
      <trkpt lat="48.844050" lon="10.104387">
        <ele>446.2</ele>
        <time>2026-08-30T15:58:27Z</time>
      </trkpt>
      <trkpt lat="48.844081" lon="10.104365">
        <ele>446.2</ele>
        <time>2026-08-30T15:58:28Z</time>
      </trkpt>
      <trkpt lat="48.844113" lon="10.104343">
        <ele>446.4</ele>
        <time>2026-08-30T15:58:29Z</time>
      </trkpt>
      <trkpt lat="48.844147" lon="10.104326">
        <ele>446.4</ele>
        <time>2026-08-30T15:58:30Z</time>
      </trkpt>
      <trkpt lat="48.844184" lon="10.104307">
        <ele>446.4</ele>
        <time>2026-08-30T15:58:31Z</time>
      </trkpt>
      <trkpt lat="48.844216" lon="10.104285">
        <ele>446.4</ele>
        <time>2026-08-30T15:58:32Z</time>
      </trkpt>
      <trkpt lat="48.844245" lon="10.104260">
        <ele>446.4</ele>
        <time>2026-08-30T15:58:33Z</time>
      </trkpt>
      <trkpt lat="48.844269" lon="10.104230">
        <ele>446.6</ele>
        <time>2026-08-30T15:58:34Z</time>
      </trkpt>
      <trkpt lat="48.844292" lon="10.104204">
        <ele>446.6</ele>
        <time>2026-08-30T15:58:35Z</time>
      </trkpt>
      <trkpt lat="48.844321" lon="10.104192">
        <ele>446.6</ele>
        <time>2026-08-30T15:58:36Z</time>
      </trkpt>
      <trkpt lat="48.844351" lon="10.104193">
        <ele>446.6</ele>
        <time>2026-08-30T15:58:37Z</time>
      </trkpt>
      <trkpt lat="48.844378" lon="10.104206">
        <ele>446.6</ele>
        <time>2026-08-30T15:58:38Z</time>
      </trkpt>
      <trkpt lat="48.844402" lon="10.104233">
        <ele>446.6</ele>
        <time>2026-08-30T15:58:39Z</time>
      </trkpt>
      <trkpt lat="48.844418" lon="10.104273">
        <ele>446.6</ele>
        <time>2026-08-30T15:58:40Z</time>
      </trkpt>
      <trkpt lat="48.844434" lon="10.104317">
        <ele>446.6</ele>
        <time>2026-08-30T15:58:41Z</time>
      </trkpt>
      <trkpt lat="48.844449" lon="10.104356">
        <ele>446.8</ele>
        <time>2026-08-30T15:58:42Z</time>
      </trkpt>
      <trkpt lat="48.844465" lon="10.104398">
        <ele>446.8</ele>
        <time>2026-08-30T15:58:43Z</time>
      </trkpt>
      <trkpt lat="48.844479" lon="10.104440">
        <ele>447</ele>
        <time>2026-08-30T15:58:44Z</time>
      </trkpt>
      <trkpt lat="48.844493" lon="10.104477">
        <ele>447.2</ele>
        <time>2026-08-30T15:58:45Z</time>
      </trkpt>
      <trkpt lat="48.844511" lon="10.104518">
        <ele>447.4</ele>
        <time>2026-08-30T15:58:46Z</time>
      </trkpt>
      <trkpt lat="48.844530" lon="10.104555">
        <ele>447.4</ele>
        <time>2026-08-30T15:58:47Z</time>
      </trkpt>
      <trkpt lat="48.844547" lon="10.104591">
        <ele>447.6</ele>
        <time>2026-08-30T15:58:48Z</time>
      </trkpt>
      <trkpt lat="48.844568" lon="10.104628">
        <ele>447.8</ele>
        <time>2026-08-30T15:58:49Z</time>
      </trkpt>
      <trkpt lat="48.844588" lon="10.104658">
        <ele>447.8</ele>
        <time>2026-08-30T15:58:50Z</time>
      </trkpt>
      <trkpt lat="48.844607" lon="10.104688">
        <ele>448</ele>
        <time>2026-08-30T15:58:51Z</time>
      </trkpt>
      <trkpt lat="48.844620" lon="10.104721">
        <ele>448</ele>
        <time>2026-08-30T15:58:52Z</time>
      </trkpt>
      <trkpt lat="48.844626" lon="10.104755">
        <ele>448.2</ele>
        <time>2026-08-30T15:58:53Z</time>
      </trkpt>
      <trkpt lat="48.844629" lon="10.104792">
        <ele>448.4</ele>
        <time>2026-08-30T15:58:54Z</time>
      </trkpt>
      <trkpt lat="48.844632" lon="10.104831">
        <ele>448.6</ele>
        <time>2026-08-30T15:58:55Z</time>
      </trkpt>
      <trkpt lat="48.844637" lon="10.104874">
        <ele>448.8</ele>
        <time>2026-08-30T15:58:56Z</time>
      </trkpt>
      <trkpt lat="48.844646" lon="10.104921">
        <ele>448.8</ele>
        <time>2026-08-30T15:58:57Z</time>
      </trkpt>
      <trkpt lat="48.844661" lon="10.104968">
        <ele>449</ele>
        <time>2026-08-30T15:58:58Z</time>
      </trkpt>
      <trkpt lat="48.844679" lon="10.105020">
        <ele>449.2</ele>
        <time>2026-08-30T15:58:59Z</time>
      </trkpt>
      <trkpt lat="48.844701" lon="10.105075">
        <ele>449.2</ele>
        <time>2026-08-30T15:59:00Z</time>
      </trkpt>
      <trkpt lat="48.844724" lon="10.105135">
        <ele>449.2</ele>
        <time>2026-08-30T15:59:01Z</time>
      </trkpt>
      <trkpt lat="48.844749" lon="10.105202">
        <ele>449.2</ele>
        <time>2026-08-30T15:59:02Z</time>
      </trkpt>
      <trkpt lat="48.844781" lon="10.105269">
        <ele>449</ele>
        <time>2026-08-30T15:59:03Z</time>
      </trkpt>
      <trkpt lat="48.844820" lon="10.105330">
        <ele>449</ele>
        <time>2026-08-30T15:59:04Z</time>
      </trkpt>
      <trkpt lat="48.844861" lon="10.105380">
        <ele>448.8</ele>
        <time>2026-08-30T15:59:05Z</time>
      </trkpt>
      <trkpt lat="48.844895" lon="10.105431">
        <ele>448.6</ele>
        <time>2026-08-30T15:59:06Z</time>
      </trkpt>
      <trkpt lat="48.844921" lon="10.105487">
        <ele>448.6</ele>
        <time>2026-08-30T15:59:07Z</time>
      </trkpt>
      <trkpt lat="48.844943" lon="10.105549">
        <ele>448.4</ele>
        <time>2026-08-30T15:59:08Z</time>
      </trkpt>
      <trkpt lat="48.844962" lon="10.105613">
        <ele>448.4</ele>
        <time>2026-08-30T15:59:09Z</time>
      </trkpt>
      <trkpt lat="48.844982" lon="10.105677">
        <ele>448.4</ele>
        <time>2026-08-30T15:59:10Z</time>
      </trkpt>
      <trkpt lat="48.845003" lon="10.105739">
        <ele>448.4</ele>
        <time>2026-08-30T15:59:11Z</time>
      </trkpt>
      <trkpt lat="48.845029" lon="10.105795">
        <ele>448.4</ele>
        <time>2026-08-30T15:59:12Z</time>
      </trkpt>
      <trkpt lat="48.845052" lon="10.105851">
        <ele>448.4</ele>
        <time>2026-08-30T15:59:13Z</time>
      </trkpt>
      <trkpt lat="48.845074" lon="10.105909">
        <ele>448.4</ele>
        <time>2026-08-30T15:59:14Z</time>
      </trkpt>
      <trkpt lat="48.845090" lon="10.105966">
        <ele>448.6</ele>
        <time>2026-08-30T15:59:15Z</time>
      </trkpt>
      <trkpt lat="48.845113" lon="10.106019">
        <ele>448.6</ele>
        <time>2026-08-30T15:59:16Z</time>
      </trkpt>
      <trkpt lat="48.845137" lon="10.106067">
        <ele>448.6</ele>
        <time>2026-08-30T15:59:17Z</time>
      </trkpt>
      <trkpt lat="48.845156" lon="10.106121">
        <ele>448.6</ele>
        <time>2026-08-30T15:59:18Z</time>
      </trkpt>
      <trkpt lat="48.845173" lon="10.106177">
        <ele>448.8</ele>
        <time>2026-08-30T15:59:19Z</time>
      </trkpt>
      <trkpt lat="48.845189" lon="10.106231">
        <ele>449</ele>
        <time>2026-08-30T15:59:20Z</time>
      </trkpt>
      <trkpt lat="48.845206" lon="10.106286">
        <ele>449.2</ele>
        <time>2026-08-30T15:59:21Z</time>
      </trkpt>
      <trkpt lat="48.845223" lon="10.106343">
        <ele>449.4</ele>
        <time>2026-08-30T15:59:22Z</time>
      </trkpt>
      <trkpt lat="48.845239" lon="10.106399">
        <ele>449.6</ele>
        <time>2026-08-30T15:59:23Z</time>
      </trkpt>
      <trkpt lat="48.845253" lon="10.106459">
        <ele>449.6</ele>
        <time>2026-08-30T15:59:24Z</time>
      </trkpt>
      <trkpt lat="48.845270" lon="10.106520">
        <ele>449.8</ele>
        <time>2026-08-30T15:59:25Z</time>
      </trkpt>
      <trkpt lat="48.845288" lon="10.106585">
        <ele>450</ele>
        <time>2026-08-30T15:59:26Z</time>
      </trkpt>
      <trkpt lat="48.845307" lon="10.106650">
        <ele>450</ele>
        <time>2026-08-30T15:59:27Z</time>
      </trkpt>
      <trkpt lat="48.845327" lon="10.106710">
        <ele>450.2</ele>
        <time>2026-08-30T15:59:28Z</time>
      </trkpt>
      <trkpt lat="48.845339" lon="10.106765">
        <ele>450.2</ele>
        <time>2026-08-30T15:59:29Z</time>
      </trkpt>
      <trkpt lat="48.845353" lon="10.106807">
        <ele>450.4</ele>
        <time>2026-08-30T15:59:30Z</time>
      </trkpt>
      <trkpt lat="48.845364" lon="10.106846">
        <ele>450.6</ele>
        <time>2026-08-30T15:59:31Z</time>
      </trkpt>
      <trkpt lat="48.845378" lon="10.106890">
        <ele>450.6</ele>
        <time>2026-08-30T15:59:32Z</time>
      </trkpt>
      <trkpt lat="48.845387" lon="10.106933">
        <ele>450.8</ele>
        <time>2026-08-30T15:59:33Z</time>
      </trkpt>
      <trkpt lat="48.845399" lon="10.106984">
        <ele>451</ele>
        <time>2026-08-30T15:59:34Z</time>
      </trkpt>
      <trkpt lat="48.845410" lon="10.107044">
        <ele>451</ele>
        <time>2026-08-30T15:59:35Z</time>
      </trkpt>
      <trkpt lat="48.845423" lon="10.107107">
        <ele>451</ele>
        <time>2026-08-30T15:59:36Z</time>
      </trkpt>
      <trkpt lat="48.845438" lon="10.107172">
        <ele>451</ele>
        <time>2026-08-30T15:59:37Z</time>
      </trkpt>
      <trkpt lat="48.845453" lon="10.107243">
        <ele>451</ele>
        <time>2026-08-30T15:59:38Z</time>
      </trkpt>
      <trkpt lat="48.845468" lon="10.107310">
        <ele>451</ele>
        <time>2026-08-30T15:59:39Z</time>
      </trkpt>
      <trkpt lat="48.845483" lon="10.107377">
        <ele>451</ele>
        <time>2026-08-30T15:59:40Z</time>
      </trkpt>
      <trkpt lat="48.845496" lon="10.107444">
        <ele>451.2</ele>
        <time>2026-08-30T15:59:41Z</time>
      </trkpt>
      <trkpt lat="48.845512" lon="10.107509">
        <ele>451.2</ele>
        <time>2026-08-30T15:59:42Z</time>
      </trkpt>
      <trkpt lat="48.845528" lon="10.107568">
        <ele>451.2</ele>
        <time>2026-08-30T15:59:43Z</time>
      </trkpt>
      <trkpt lat="48.845542" lon="10.107630">
        <ele>451.2</ele>
        <time>2026-08-30T15:59:44Z</time>
      </trkpt>
      <trkpt lat="48.845555" lon="10.107692">
        <ele>451.2</ele>
        <time>2026-08-30T15:59:45Z</time>
      </trkpt>
      <trkpt lat="48.845572" lon="10.107754">
        <ele>451.4</ele>
        <time>2026-08-30T15:59:46Z</time>
      </trkpt>
      <trkpt lat="48.845589" lon="10.107814">
        <ele>451.4</ele>
        <time>2026-08-30T15:59:47Z</time>
      </trkpt>
      <trkpt lat="48.845604" lon="10.107873">
        <ele>451.6</ele>
        <time>2026-08-30T15:59:48Z</time>
      </trkpt>
      <trkpt lat="48.845617" lon="10.107932">
        <ele>451.6</ele>
        <time>2026-08-30T15:59:49Z</time>
      </trkpt>
      <trkpt lat="48.845635" lon="10.107989">
        <ele>451.8</ele>
        <time>2026-08-30T15:59:50Z</time>
      </trkpt>
      <trkpt lat="48.845651" lon="10.108049">
        <ele>451.8</ele>
        <time>2026-08-30T15:59:51Z</time>
      </trkpt>
      <trkpt lat="48.845660" lon="10.108110">
        <ele>451.8</ele>
        <time>2026-08-30T15:59:52Z</time>
      </trkpt>
      <trkpt lat="48.845670" lon="10.108175">
        <ele>452</ele>
        <time>2026-08-30T15:59:53Z</time>
      </trkpt>
      <trkpt lat="48.845682" lon="10.108232">
        <ele>452</ele>
        <time>2026-08-30T15:59:54Z</time>
      </trkpt>
      <trkpt lat="48.845697" lon="10.108286">
        <ele>452.2</ele>
        <time>2026-08-30T15:59:55Z</time>
      </trkpt>
      <trkpt lat="48.845709" lon="10.108342">
        <ele>452.4</ele>
        <time>2026-08-30T15:59:56Z</time>
      </trkpt>
      <trkpt lat="48.845723" lon="10.108396">
        <ele>452.4</ele>
        <time>2026-08-30T15:59:57Z</time>
      </trkpt>
      <trkpt lat="48.845739" lon="10.108449">
        <ele>452.6</ele>
        <time>2026-08-30T15:59:58Z</time>
      </trkpt>
      <trkpt lat="48.845752" lon="10.108503">
        <ele>452.8</ele>
        <time>2026-08-30T15:59:59Z</time>
      </trkpt>
      <trkpt lat="48.845767" lon="10.108557">
        <ele>452.8</ele>
        <time>2026-08-30T16:00:00Z</time>
      </trkpt>
      <trkpt lat="48.845778" lon="10.108614">
        <ele>453</ele>
        <time>2026-08-30T16:00:01Z</time>
      </trkpt>
      <trkpt lat="48.845792" lon="10.108672">
        <ele>453</ele>
        <time>2026-08-30T16:00:02Z</time>
      </trkpt>
      <trkpt lat="48.845808" lon="10.108728">
        <ele>453.2</ele>
        <time>2026-08-30T16:00:03Z</time>
      </trkpt>
      <trkpt lat="48.845825" lon="10.108783">
        <ele>453.2</ele>
        <time>2026-08-30T16:00:04Z</time>
      </trkpt>
      <trkpt lat="48.845840" lon="10.108838">
        <ele>453.4</ele>
        <time>2026-08-30T16:00:05Z</time>
      </trkpt>
      <trkpt lat="48.845854" lon="10.108891">
        <ele>453.4</ele>
        <time>2026-08-30T16:00:06Z</time>
      </trkpt>
      <trkpt lat="48.845871" lon="10.108942">
        <ele>453.6</ele>
        <time>2026-08-30T16:00:07Z</time>
      </trkpt>
      <trkpt lat="48.845887" lon="10.108994">
        <ele>453.6</ele>
        <time>2026-08-30T16:00:08Z</time>
      </trkpt>
      <trkpt lat="48.845901" lon="10.109046">
        <ele>453.8</ele>
        <time>2026-08-30T16:00:09Z</time>
      </trkpt>
      <trkpt lat="48.845918" lon="10.109099">
        <ele>454</ele>
        <time>2026-08-30T16:00:10Z</time>
      </trkpt>
      <trkpt lat="48.845938" lon="10.109140">
        <ele>454</ele>
        <time>2026-08-30T16:00:11Z</time>
      </trkpt>
      <trkpt lat="48.845953" lon="10.109188">
        <ele>454.2</ele>
        <time>2026-08-30T16:00:12Z</time>
      </trkpt>
      <trkpt lat="48.845968" lon="10.109239">
        <ele>454.2</ele>
        <time>2026-08-30T16:00:13Z</time>
      </trkpt>
      <trkpt lat="48.845982" lon="10.109293">
        <ele>454.2</ele>
        <time>2026-08-30T16:00:14Z</time>
      </trkpt>
      <trkpt lat="48.845997" lon="10.109349">
        <ele>454.4</ele>
        <time>2026-08-30T16:00:15Z</time>
      </trkpt>
      <trkpt lat="48.846016" lon="10.109405">
        <ele>454.4</ele>
        <time>2026-08-30T16:00:16Z</time>
      </trkpt>
      <trkpt lat="48.846037" lon="10.109454">
        <ele>454.6</ele>
        <time>2026-08-30T16:00:17Z</time>
      </trkpt>
      <trkpt lat="48.846055" lon="10.109508">
        <ele>454.6</ele>
        <time>2026-08-30T16:00:18Z</time>
      </trkpt>
      <trkpt lat="48.846072" lon="10.109566">
        <ele>454.6</ele>
        <time>2026-08-30T16:00:19Z</time>
      </trkpt>
      <trkpt lat="48.846090" lon="10.109620">
        <ele>454.8</ele>
        <time>2026-08-30T16:00:20Z</time>
      </trkpt>
      <trkpt lat="48.846111" lon="10.109677">
        <ele>454.8</ele>
        <time>2026-08-30T16:00:21Z</time>
      </trkpt>
      <trkpt lat="48.846134" lon="10.109730">
        <ele>455</ele>
        <time>2026-08-30T16:00:22Z</time>
      </trkpt>
      <trkpt lat="48.846155" lon="10.109776">
        <ele>455</ele>
        <time>2026-08-30T16:00:23Z</time>
      </trkpt>
      <trkpt lat="48.846170" lon="10.109826">
        <ele>455</ele>
        <time>2026-08-30T16:00:24Z</time>
      </trkpt>
      <trkpt lat="48.846185" lon="10.109880">
        <ele>455.2</ele>
        <time>2026-08-30T16:00:25Z</time>
      </trkpt>
      <trkpt lat="48.846203" lon="10.109938">
        <ele>455.2</ele>
        <time>2026-08-30T16:00:26Z</time>
      </trkpt>
      <trkpt lat="48.846225" lon="10.109989">
        <ele>455.4</ele>
        <time>2026-08-30T16:00:27Z</time>
      </trkpt>
      <trkpt lat="48.846247" lon="10.110040">
        <ele>455.4</ele>
        <time>2026-08-30T16:00:28Z</time>
      </trkpt>
      <trkpt lat="48.846265" lon="10.110091">
        <ele>455.6</ele>
        <time>2026-08-30T16:00:29Z</time>
      </trkpt>
      <trkpt lat="48.846284" lon="10.110141">
        <ele>455.6</ele>
        <time>2026-08-30T16:00:30Z</time>
      </trkpt>
      <trkpt lat="48.846301" lon="10.110191">
        <ele>455.8</ele>
        <time>2026-08-30T16:00:31Z</time>
      </trkpt>
      <trkpt lat="48.846314" lon="10.110243">
        <ele>455.8</ele>
        <time>2026-08-30T16:00:32Z</time>
      </trkpt>
      <trkpt lat="48.846327" lon="10.110298">
        <ele>455.8</ele>
        <time>2026-08-30T16:00:33Z</time>
      </trkpt>
      <trkpt lat="48.846342" lon="10.110350">
        <ele>456</ele>
        <time>2026-08-30T16:00:34Z</time>
      </trkpt>
      <trkpt lat="48.846365" lon="10.110398">
        <ele>456</ele>
        <time>2026-08-30T16:00:35Z</time>
      </trkpt>
      <trkpt lat="48.846386" lon="10.110449">
        <ele>456</ele>
        <time>2026-08-30T16:00:36Z</time>
      </trkpt>
      <trkpt lat="48.846405" lon="10.110507">
        <ele>456.2</ele>
        <time>2026-08-30T16:00:37Z</time>
      </trkpt>
      <trkpt lat="48.846422" lon="10.110563">
        <ele>456.4</ele>
        <time>2026-08-30T16:00:38Z</time>
      </trkpt>
      <trkpt lat="48.846436" lon="10.110619">
        <ele>456.4</ele>
        <time>2026-08-30T16:00:39Z</time>
      </trkpt>
      <trkpt lat="48.846454" lon="10.110676">
        <ele>456.6</ele>
        <time>2026-08-30T16:00:40Z</time>
      </trkpt>
      <trkpt lat="48.846472" lon="10.110730">
        <ele>456.6</ele>
        <time>2026-08-30T16:00:41Z</time>
      </trkpt>
      <trkpt lat="48.846491" lon="10.110785">
        <ele>456.8</ele>
        <time>2026-08-30T16:00:42Z</time>
      </trkpt>
      <trkpt lat="48.846506" lon="10.110839">
        <ele>456.8</ele>
        <time>2026-08-30T16:00:43Z</time>
      </trkpt>
      <trkpt lat="48.846520" lon="10.110891">
        <ele>457</ele>
        <time>2026-08-30T16:00:44Z</time>
      </trkpt>
      <trkpt lat="48.846535" lon="10.110944">
        <ele>457</ele>
        <time>2026-08-30T16:00:45Z</time>
      </trkpt>
      <trkpt lat="48.846551" lon="10.111003">
        <ele>457.2</ele>
        <time>2026-08-30T16:00:46Z</time>
      </trkpt>
      <trkpt lat="48.846566" lon="10.111061">
        <ele>457.2</ele>
        <time>2026-08-30T16:00:47Z</time>
      </trkpt>
      <trkpt lat="48.846578" lon="10.111119">
        <ele>457.4</ele>
        <time>2026-08-30T16:00:48Z</time>
      </trkpt>
      <trkpt lat="48.846594" lon="10.111174">
        <ele>457.4</ele>
        <time>2026-08-30T16:00:49Z</time>
      </trkpt>
      <trkpt lat="48.846610" lon="10.111228">
        <ele>457.4</ele>
        <time>2026-08-30T16:00:50Z</time>
      </trkpt>
      <trkpt lat="48.846622" lon="10.111286">
        <ele>457.6</ele>
        <time>2026-08-30T16:00:51Z</time>
      </trkpt>
      <trkpt lat="48.846635" lon="10.111343">
        <ele>457.6</ele>
        <time>2026-08-30T16:00:52Z</time>
      </trkpt>
      <trkpt lat="48.846646" lon="10.111403">
        <ele>457.8</ele>
        <time>2026-08-30T16:00:53Z</time>
      </trkpt>
      <trkpt lat="48.846656" lon="10.111460">
        <ele>457.8</ele>
        <time>2026-08-30T16:00:54Z</time>
      </trkpt>
      <trkpt lat="48.846667" lon="10.111520">
        <ele>458</ele>
        <time>2026-08-30T16:00:55Z</time>
      </trkpt>
      <trkpt lat="48.846675" lon="10.111576">
        <ele>458</ele>
        <time>2026-08-30T16:00:56Z</time>
      </trkpt>
      <trkpt lat="48.846683" lon="10.111637">
        <ele>458.2</ele>
        <time>2026-08-30T16:00:57Z</time>
      </trkpt>
      <trkpt lat="48.846689" lon="10.111697">
        <ele>458.2</ele>
        <time>2026-08-30T16:00:58Z</time>
      </trkpt>
      <trkpt lat="48.846696" lon="10.111759">
        <ele>458.2</ele>
        <time>2026-08-30T16:00:59Z</time>
      </trkpt>
      <trkpt lat="48.846704" lon="10.111824">
        <ele>458.4</ele>
        <time>2026-08-30T16:01:00Z</time>
      </trkpt>
      <trkpt lat="48.846713" lon="10.111885">
        <ele>458.4</ele>
        <time>2026-08-30T16:01:01Z</time>
      </trkpt>
      <trkpt lat="48.846721" lon="10.111950">
        <ele>458.6</ele>
        <time>2026-08-30T16:01:02Z</time>
      </trkpt>
      <trkpt lat="48.846730" lon="10.112009">
        <ele>458.6</ele>
        <time>2026-08-30T16:01:03Z</time>
      </trkpt>
      <trkpt lat="48.846739" lon="10.112065">
        <ele>458.6</ele>
        <time>2026-08-30T16:01:04Z</time>
      </trkpt>
      <trkpt lat="48.846743" lon="10.112127">
        <ele>458.6</ele>
        <time>2026-08-30T16:01:05Z</time>
      </trkpt>
      <trkpt lat="48.846749" lon="10.112189">
        <ele>458.8</ele>
        <time>2026-08-30T16:01:06Z</time>
      </trkpt>
      <trkpt lat="48.846757" lon="10.112250">
        <ele>458.8</ele>
        <time>2026-08-30T16:01:07Z</time>
      </trkpt>
      <trkpt lat="48.846769" lon="10.112310">
        <ele>459</ele>
        <time>2026-08-30T16:01:08Z</time>
      </trkpt>
      <trkpt lat="48.846777" lon="10.112368">
        <ele>459</ele>
        <time>2026-08-30T16:01:09Z</time>
      </trkpt>
      <trkpt lat="48.846785" lon="10.112427">
        <ele>459.2</ele>
        <time>2026-08-30T16:01:10Z</time>
      </trkpt>
      <trkpt lat="48.846797" lon="10.112487">
        <ele>459.2</ele>
        <time>2026-08-30T16:01:11Z</time>
      </trkpt>
      <trkpt lat="48.846806" lon="10.112540">
        <ele>459.4</ele>
        <time>2026-08-30T16:01:12Z</time>
      </trkpt>
      <trkpt lat="48.846810" lon="10.112589">
        <ele>459.4</ele>
        <time>2026-08-30T16:01:13Z</time>
      </trkpt>
      <trkpt lat="48.846814" lon="10.112645">
        <ele>459.6</ele>
        <time>2026-08-30T16:01:14Z</time>
      </trkpt>
      <trkpt lat="48.846825" lon="10.112699">
        <ele>459.6</ele>
        <time>2026-08-30T16:01:15Z</time>
      </trkpt>
      <trkpt lat="48.846832" lon="10.112753">
        <ele>459.8</ele>
        <time>2026-08-30T16:01:16Z</time>
      </trkpt>
      <trkpt lat="48.846836" lon="10.112802">
        <ele>460</ele>
        <time>2026-08-30T16:01:17Z</time>
      </trkpt>
      <trkpt lat="48.846843" lon="10.112850">
        <ele>460</ele>
        <time>2026-08-30T16:01:18Z</time>
      </trkpt>
      <trkpt lat="48.846851" lon="10.112904">
        <ele>460.2</ele>
        <time>2026-08-30T16:01:19Z</time>
      </trkpt>
      <trkpt lat="48.846858" lon="10.112958">
        <ele>460.4</ele>
        <time>2026-08-30T16:01:20Z</time>
      </trkpt>
      <trkpt lat="48.846865" lon="10.113010">
        <ele>460.4</ele>
        <time>2026-08-30T16:01:21Z</time>
      </trkpt>
      <trkpt lat="48.846871" lon="10.113066">
        <ele>460.6</ele>
        <time>2026-08-30T16:01:22Z</time>
      </trkpt>
      <trkpt lat="48.846879" lon="10.113119">
        <ele>460.6</ele>
        <time>2026-08-30T16:01:23Z</time>
      </trkpt>
      <trkpt lat="48.846893" lon="10.113171">
        <ele>460.8</ele>
        <time>2026-08-30T16:01:24Z</time>
      </trkpt>
      <trkpt lat="48.846906" lon="10.113224">
        <ele>460.8</ele>
        <time>2026-08-30T16:01:25Z</time>
      </trkpt>
      <trkpt lat="48.846914" lon="10.113280">
        <ele>461</ele>
        <time>2026-08-30T16:01:26Z</time>
      </trkpt>
      <trkpt lat="48.846916" lon="10.113332">
        <ele>461.2</ele>
        <time>2026-08-30T16:01:27Z</time>
      </trkpt>
      <trkpt lat="48.846918" lon="10.113381">
        <ele>461.2</ele>
        <time>2026-08-30T16:01:28Z</time>
      </trkpt>
      <trkpt lat="48.846920" lon="10.113433">
        <ele>461.4</ele>
        <time>2026-08-30T16:01:29Z</time>
      </trkpt>
      <trkpt lat="48.846926" lon="10.113491">
        <ele>461.4</ele>
        <time>2026-08-30T16:01:30Z</time>
      </trkpt>
      <trkpt lat="48.846931" lon="10.113553">
        <ele>461.6</ele>
        <time>2026-08-30T16:01:31Z</time>
      </trkpt>
      <trkpt lat="48.846938" lon="10.113614">
        <ele>461.6</ele>
        <time>2026-08-30T16:01:32Z</time>
      </trkpt>
      <trkpt lat="48.846946" lon="10.113668">
        <ele>461.8</ele>
        <time>2026-08-30T16:01:33Z</time>
      </trkpt>
      <trkpt lat="48.846953" lon="10.113721">
        <ele>461.8</ele>
        <time>2026-08-30T16:01:34Z</time>
      </trkpt>
      <trkpt lat="48.846959" lon="10.113774">
        <ele>462</ele>
        <time>2026-08-30T16:01:35Z</time>
      </trkpt>
      <trkpt lat="48.846965" lon="10.113823">
        <ele>462.2</ele>
        <time>2026-08-30T16:01:36Z</time>
      </trkpt>
      <trkpt lat="48.846969" lon="10.113879">
        <ele>462.2</ele>
        <time>2026-08-30T16:01:37Z</time>
      </trkpt>
      <trkpt lat="48.846977" lon="10.113938">
        <ele>462.4</ele>
        <time>2026-08-30T16:01:38Z</time>
      </trkpt>
      <trkpt lat="48.846986" lon="10.113995">
        <ele>462.4</ele>
        <time>2026-08-30T16:01:39Z</time>
      </trkpt>
      <trkpt lat="48.846994" lon="10.114052">
        <ele>462.6</ele>
        <time>2026-08-30T16:01:40Z</time>
      </trkpt>
      <trkpt lat="48.846998" lon="10.114109">
        <ele>462.6</ele>
        <time>2026-08-30T16:01:41Z</time>
      </trkpt>
      <trkpt lat="48.847004" lon="10.114163">
        <ele>462.8</ele>
        <time>2026-08-30T16:01:42Z</time>
      </trkpt>
      <trkpt lat="48.847013" lon="10.114217">
        <ele>462.8</ele>
        <time>2026-08-30T16:01:43Z</time>
      </trkpt>
      <trkpt lat="48.847024" lon="10.114271">
        <ele>463</ele>
        <time>2026-08-30T16:01:44Z</time>
      </trkpt>
      <trkpt lat="48.847032" lon="10.114323">
        <ele>463</ele>
        <time>2026-08-30T16:01:45Z</time>
      </trkpt>
      <trkpt lat="48.847038" lon="10.114380">
        <ele>463.2</ele>
        <time>2026-08-30T16:01:46Z</time>
      </trkpt>
      <trkpt lat="48.847044" lon="10.114434">
        <ele>463.2</ele>
        <time>2026-08-30T16:01:47Z</time>
      </trkpt>
      <trkpt lat="48.847052" lon="10.114487">
        <ele>463.4</ele>
        <time>2026-08-30T16:01:48Z</time>
      </trkpt>
      <trkpt lat="48.847054" lon="10.114541">
        <ele>463.6</ele>
        <time>2026-08-30T16:01:49Z</time>
      </trkpt>
      <trkpt lat="48.847063" lon="10.114594">
        <ele>463.6</ele>
        <time>2026-08-30T16:01:50Z</time>
      </trkpt>
      <trkpt lat="48.847071" lon="10.114649">
        <ele>463.8</ele>
        <time>2026-08-30T16:01:51Z</time>
      </trkpt>
      <trkpt lat="48.847081" lon="10.114700">
        <ele>463.8</ele>
        <time>2026-08-30T16:01:52Z</time>
      </trkpt>
      <trkpt lat="48.847088" lon="10.114749">
        <ele>464</ele>
        <time>2026-08-30T16:01:53Z</time>
      </trkpt>
      <trkpt lat="48.847093" lon="10.114796">
        <ele>464</ele>
        <time>2026-08-30T16:01:54Z</time>
      </trkpt>
      <trkpt lat="48.847100" lon="10.114850">
        <ele>464.2</ele>
        <time>2026-08-30T16:01:55Z</time>
      </trkpt>
      <trkpt lat="48.847104" lon="10.114908">
        <ele>464.4</ele>
        <time>2026-08-30T16:01:56Z</time>
      </trkpt>
      <trkpt lat="48.847109" lon="10.114965">
        <ele>464.4</ele>
        <time>2026-08-30T16:01:57Z</time>
      </trkpt>
      <trkpt lat="48.847118" lon="10.115018">
        <ele>464.6</ele>
        <time>2026-08-30T16:01:58Z</time>
      </trkpt>
      <trkpt lat="48.847126" lon="10.115073">
        <ele>464.8</ele>
        <time>2026-08-30T16:01:59Z</time>
      </trkpt>
      <trkpt lat="48.847133" lon="10.115128">
        <ele>464.8</ele>
        <time>2026-08-30T16:02:00Z</time>
      </trkpt>
      <trkpt lat="48.847141" lon="10.115179">
        <ele>465</ele>
        <time>2026-08-30T16:02:01Z</time>
      </trkpt>
      <trkpt lat="48.847147" lon="10.115230">
        <ele>465</ele>
        <time>2026-08-30T16:02:02Z</time>
      </trkpt>
      <trkpt lat="48.847158" lon="10.115280">
        <ele>465</ele>
        <time>2026-08-30T16:02:03Z</time>
      </trkpt>
      <trkpt lat="48.847171" lon="10.115331">
        <ele>465.2</ele>
        <time>2026-08-30T16:02:04Z</time>
      </trkpt>
      <trkpt lat="48.847177" lon="10.115386">
        <ele>465.4</ele>
        <time>2026-08-30T16:02:05Z</time>
      </trkpt>
      <trkpt lat="48.847181" lon="10.115440">
        <ele>465.4</ele>
        <time>2026-08-30T16:02:06Z</time>
      </trkpt>
      <trkpt lat="48.847185" lon="10.115485">
        <ele>465.6</ele>
        <time>2026-08-30T16:02:07Z</time>
      </trkpt>
      <trkpt lat="48.847185" lon="10.115529">
        <ele>465.6</ele>
        <time>2026-08-30T16:02:08Z</time>
      </trkpt>
      <trkpt lat="48.847188" lon="10.115577">
        <ele>465.8</ele>
        <time>2026-08-30T16:02:09Z</time>
      </trkpt>
      <trkpt lat="48.847197" lon="10.115625">
        <ele>466</ele>
        <time>2026-08-30T16:02:10Z</time>
      </trkpt>
      <trkpt lat="48.847205" lon="10.115675">
        <ele>466</ele>
        <time>2026-08-30T16:02:11Z</time>
      </trkpt>
      <trkpt lat="48.847210" lon="10.115731">
        <ele>466.2</ele>
        <time>2026-08-30T16:02:12Z</time>
      </trkpt>
      <trkpt lat="48.847219" lon="10.115789">
        <ele>466.4</ele>
        <time>2026-08-30T16:02:13Z</time>
      </trkpt>
      <trkpt lat="48.847226" lon="10.115846">
        <ele>466.6</ele>
        <time>2026-08-30T16:02:14Z</time>
      </trkpt>
      <trkpt lat="48.847231" lon="10.115900">
        <ele>466.6</ele>
        <time>2026-08-30T16:02:15Z</time>
      </trkpt>
      <trkpt lat="48.847237" lon="10.115954">
        <ele>466.8</ele>
        <time>2026-08-30T16:02:16Z</time>
      </trkpt>
      <trkpt lat="48.847243" lon="10.115999">
        <ele>467</ele>
        <time>2026-08-30T16:02:17Z</time>
      </trkpt>
      <trkpt lat="48.847248" lon="10.116048">
        <ele>467</ele>
        <time>2026-08-30T16:02:18Z</time>
      </trkpt>
      <trkpt lat="48.847257" lon="10.116096">
        <ele>467.2</ele>
        <time>2026-08-30T16:02:19Z</time>
      </trkpt>
      <trkpt lat="48.847265" lon="10.116146">
        <ele>467.2</ele>
        <time>2026-08-30T16:02:20Z</time>
      </trkpt>
      <trkpt lat="48.847276" lon="10.116194">
        <ele>467.4</ele>
        <time>2026-08-30T16:02:21Z</time>
      </trkpt>
      <trkpt lat="48.847287" lon="10.116243">
        <ele>467.4</ele>
        <time>2026-08-30T16:02:22Z</time>
      </trkpt>
      <trkpt lat="48.847294" lon="10.116289">
        <ele>467.6</ele>
        <time>2026-08-30T16:02:23Z</time>
      </trkpt>
      <trkpt lat="48.847299" lon="10.116337">
        <ele>467.6</ele>
        <time>2026-08-30T16:02:24Z</time>
      </trkpt>
      <trkpt lat="48.847301" lon="10.116386">
        <ele>467.8</ele>
        <time>2026-08-30T16:02:25Z</time>
      </trkpt>
      <trkpt lat="48.847302" lon="10.116434">
        <ele>468</ele>
        <time>2026-08-30T16:02:26Z</time>
      </trkpt>
      <trkpt lat="48.847304" lon="10.116485">
        <ele>468</ele>
        <time>2026-08-30T16:02:27Z</time>
      </trkpt>
      <trkpt lat="48.847308" lon="10.116535">
        <ele>468.2</ele>
        <time>2026-08-30T16:02:28Z</time>
      </trkpt>
      <trkpt lat="48.847316" lon="10.116583">
        <ele>468.2</ele>
        <time>2026-08-30T16:02:29Z</time>
      </trkpt>
      <trkpt lat="48.847322" lon="10.116633">
        <ele>468.2</ele>
        <time>2026-08-30T16:02:30Z</time>
      </trkpt>
      <trkpt lat="48.847332" lon="10.116685">
        <ele>468.4</ele>
        <time>2026-08-30T16:02:31Z</time>
      </trkpt>
      <trkpt lat="48.847344" lon="10.116734">
        <ele>468.4</ele>
        <time>2026-08-30T16:02:32Z</time>
      </trkpt>
      <trkpt lat="48.847352" lon="10.116784">
        <ele>468.4</ele>
        <time>2026-08-30T16:02:33Z</time>
      </trkpt>
      <trkpt lat="48.847358" lon="10.116835">
        <ele>468.4</ele>
        <time>2026-08-30T16:02:34Z</time>
      </trkpt>
      <trkpt lat="48.847365" lon="10.116891">
        <ele>468.6</ele>
        <time>2026-08-30T16:02:35Z</time>
      </trkpt>
      <trkpt lat="48.847372" lon="10.116947">
        <ele>468.6</ele>
        <time>2026-08-30T16:02:36Z</time>
      </trkpt>
      <trkpt lat="48.847379" lon="10.117000">
        <ele>468.6</ele>
        <time>2026-08-30T16:02:37Z</time>
      </trkpt>
      <trkpt lat="48.847384" lon="10.117053">
        <ele>468.8</ele>
        <time>2026-08-30T16:02:38Z</time>
      </trkpt>
      <trkpt lat="48.847390" lon="10.117107">
        <ele>468.8</ele>
        <time>2026-08-30T16:02:39Z</time>
      </trkpt>
      <trkpt lat="48.847396" lon="10.117163">
        <ele>468.8</ele>
        <time>2026-08-30T16:02:40Z</time>
      </trkpt>
      <trkpt lat="48.847403" lon="10.117220">
        <ele>469</ele>
        <time>2026-08-30T16:02:41Z</time>
      </trkpt>
      <trkpt lat="48.847411" lon="10.117278">
        <ele>469</ele>
        <time>2026-08-30T16:02:42Z</time>
      </trkpt>
      <trkpt lat="48.847417" lon="10.117335">
        <ele>469</ele>
        <time>2026-08-30T16:02:43Z</time>
      </trkpt>
      <trkpt lat="48.847423" lon="10.117391">
        <ele>469.2</ele>
        <time>2026-08-30T16:02:44Z</time>
      </trkpt>
      <trkpt lat="48.847431" lon="10.117448">
        <ele>469.2</ele>
        <time>2026-08-30T16:02:45Z</time>
      </trkpt>
      <trkpt lat="48.847439" lon="10.117503">
        <ele>469.2</ele>
        <time>2026-08-30T16:02:46Z</time>
      </trkpt>
      <trkpt lat="48.847446" lon="10.117559">
        <ele>469.4</ele>
        <time>2026-08-30T16:02:47Z</time>
      </trkpt>
      <trkpt lat="48.847453" lon="10.117612">
        <ele>469.4</ele>
        <time>2026-08-30T16:02:48Z</time>
      </trkpt>
      <trkpt lat="48.847458" lon="10.117667">
        <ele>469.6</ele>
        <time>2026-08-30T16:02:49Z</time>
      </trkpt>
      <trkpt lat="48.847465" lon="10.117720">
        <ele>469.6</ele>
        <time>2026-08-30T16:02:50Z</time>
      </trkpt>
      <trkpt lat="48.847474" lon="10.117774">
        <ele>469.8</ele>
        <time>2026-08-30T16:02:51Z</time>
      </trkpt>
      <trkpt lat="48.847485" lon="10.117832">
        <ele>469.8</ele>
        <time>2026-08-30T16:02:52Z</time>
      </trkpt>
      <trkpt lat="48.847490" lon="10.117890">
        <ele>470</ele>
        <time>2026-08-30T16:02:53Z</time>
      </trkpt>
      <trkpt lat="48.847497" lon="10.117946">
        <ele>470</ele>
        <time>2026-08-30T16:02:54Z</time>
      </trkpt>
      <trkpt lat="48.847504" lon="10.118004">
        <ele>470.2</ele>
        <time>2026-08-30T16:02:55Z</time>
      </trkpt>
      <trkpt lat="48.847510" lon="10.118061">
        <ele>470.2</ele>
        <time>2026-08-30T16:02:56Z</time>
      </trkpt>
      <trkpt lat="48.847518" lon="10.118120">
        <ele>470.4</ele>
        <time>2026-08-30T16:02:57Z</time>
      </trkpt>
      <trkpt lat="48.847527" lon="10.118183">
        <ele>470.4</ele>
        <time>2026-08-30T16:02:58Z</time>
      </trkpt>
      <trkpt lat="48.847537" lon="10.118244">
        <ele>470.4</ele>
        <time>2026-08-30T16:02:59Z</time>
      </trkpt>
      <trkpt lat="48.847545" lon="10.118305">
        <ele>470.6</ele>
        <time>2026-08-30T16:03:00Z</time>
      </trkpt>
      <trkpt lat="48.847552" lon="10.118365">
        <ele>470.8</ele>
        <time>2026-08-30T16:03:01Z</time>
      </trkpt>
      <trkpt lat="48.847559" lon="10.118424">
        <ele>470.8</ele>
        <time>2026-08-30T16:03:02Z</time>
      </trkpt>
      <trkpt lat="48.847566" lon="10.118483">
        <ele>471</ele>
        <time>2026-08-30T16:03:03Z</time>
      </trkpt>
      <trkpt lat="48.847576" lon="10.118540">
        <ele>471</ele>
        <time>2026-08-30T16:03:04Z</time>
      </trkpt>
      <trkpt lat="48.847587" lon="10.118596">
        <ele>471</ele>
        <time>2026-08-30T16:03:05Z</time>
      </trkpt>
      <trkpt lat="48.847599" lon="10.118648">
        <ele>471.2</ele>
        <time>2026-08-30T16:03:06Z</time>
      </trkpt>
      <trkpt lat="48.847612" lon="10.118701">
        <ele>471.4</ele>
        <time>2026-08-30T16:03:07Z</time>
      </trkpt>
      <trkpt lat="48.847624" lon="10.118754">
        <ele>471.4</ele>
        <time>2026-08-30T16:03:08Z</time>
      </trkpt>
      <trkpt lat="48.847637" lon="10.118806">
        <ele>471.6</ele>
        <time>2026-08-30T16:03:09Z</time>
      </trkpt>
      <trkpt lat="48.847650" lon="10.118858">
        <ele>471.6</ele>
        <time>2026-08-30T16:03:10Z</time>
      </trkpt>
      <trkpt lat="48.847662" lon="10.118912">
        <ele>471.8</ele>
        <time>2026-08-30T16:03:11Z</time>
      </trkpt>
      <trkpt lat="48.847677" lon="10.118966">
        <ele>471.8</ele>
        <time>2026-08-30T16:03:12Z</time>
      </trkpt>
      <trkpt lat="48.847693" lon="10.119021">
        <ele>472</ele>
        <time>2026-08-30T16:03:13Z</time>
      </trkpt>
      <trkpt lat="48.847708" lon="10.119077">
        <ele>472</ele>
        <time>2026-08-30T16:03:14Z</time>
      </trkpt>
      <trkpt lat="48.847723" lon="10.119131">
        <ele>472.2</ele>
        <time>2026-08-30T16:03:15Z</time>
      </trkpt>
      <trkpt lat="48.847736" lon="10.119187">
        <ele>472.2</ele>
        <time>2026-08-30T16:03:16Z</time>
      </trkpt>
      <trkpt lat="48.847749" lon="10.119241">
        <ele>472.4</ele>
        <time>2026-08-30T16:03:17Z</time>
      </trkpt>
      <trkpt lat="48.847763" lon="10.119296">
        <ele>472.4</ele>
        <time>2026-08-30T16:03:18Z</time>
      </trkpt>
      <trkpt lat="48.847779" lon="10.119352">
        <ele>472.6</ele>
        <time>2026-08-30T16:03:19Z</time>
      </trkpt>
      <trkpt lat="48.847794" lon="10.119406">
        <ele>472.6</ele>
        <time>2026-08-30T16:03:20Z</time>
      </trkpt>
      <trkpt lat="48.847807" lon="10.119458">
        <ele>472.8</ele>
        <time>2026-08-30T16:03:21Z</time>
      </trkpt>
      <trkpt lat="48.847820" lon="10.119511">
        <ele>472.8</ele>
        <time>2026-08-30T16:03:22Z</time>
      </trkpt>
      <trkpt lat="48.847835" lon="10.119563">
        <ele>473</ele>
        <time>2026-08-30T16:03:23Z</time>
      </trkpt>
      <trkpt lat="48.847847" lon="10.119613">
        <ele>473</ele>
        <time>2026-08-30T16:03:24Z</time>
      </trkpt>
      <trkpt lat="48.847860" lon="10.119667">
        <ele>473.2</ele>
        <time>2026-08-30T16:03:25Z</time>
      </trkpt>
      <trkpt lat="48.847873" lon="10.119718">
        <ele>473.2</ele>
        <time>2026-08-30T16:03:26Z</time>
      </trkpt>
      <trkpt lat="48.847889" lon="10.119768">
        <ele>473.4</ele>
        <time>2026-08-30T16:03:27Z</time>
      </trkpt>
      <trkpt lat="48.847905" lon="10.119820">
        <ele>473.6</ele>
        <time>2026-08-30T16:03:28Z</time>
      </trkpt>
      <trkpt lat="48.847917" lon="10.119873">
        <ele>473.6</ele>
        <time>2026-08-30T16:03:29Z</time>
      </trkpt>
      <trkpt lat="48.847932" lon="10.119934">
        <ele>473.8</ele>
        <time>2026-08-30T16:03:30Z</time>
      </trkpt>
      <trkpt lat="48.847947" lon="10.119990">
        <ele>474</ele>
        <time>2026-08-30T16:03:31Z</time>
      </trkpt>
      <trkpt lat="48.847960" lon="10.120047">
        <ele>474</ele>
        <time>2026-08-30T16:03:32Z</time>
      </trkpt>
      <trkpt lat="48.847975" lon="10.120103">
        <ele>474.2</ele>
        <time>2026-08-30T16:03:33Z</time>
      </trkpt>
      <trkpt lat="48.847988" lon="10.120157">
        <ele>474.2</ele>
        <time>2026-08-30T16:03:34Z</time>
      </trkpt>
      <trkpt lat="48.848003" lon="10.120214">
        <ele>474.2</ele>
        <time>2026-08-30T16:03:35Z</time>
      </trkpt>
      <trkpt lat="48.848018" lon="10.120273">
        <ele>474.4</ele>
        <time>2026-08-30T16:03:36Z</time>
      </trkpt>
      <trkpt lat="48.848034" lon="10.120330">
        <ele>474.4</ele>
        <time>2026-08-30T16:03:37Z</time>
      </trkpt>
      <trkpt lat="48.848048" lon="10.120386">
        <ele>474.6</ele>
        <time>2026-08-30T16:03:38Z</time>
      </trkpt>
      <trkpt lat="48.848062" lon="10.120442">
        <ele>474.6</ele>
        <time>2026-08-30T16:03:39Z</time>
      </trkpt>
      <trkpt lat="48.848078" lon="10.120501">
        <ele>474.6</ele>
        <time>2026-08-30T16:03:40Z</time>
      </trkpt>
      <trkpt lat="48.848094" lon="10.120557">
        <ele>474.8</ele>
        <time>2026-08-30T16:03:41Z</time>
      </trkpt>
      <trkpt lat="48.848111" lon="10.120612">
        <ele>474.8</ele>
        <time>2026-08-30T16:03:42Z</time>
      </trkpt>
      <trkpt lat="48.848127" lon="10.120665">
        <ele>474.8</ele>
        <time>2026-08-30T16:03:43Z</time>
      </trkpt>
      <trkpt lat="48.848143" lon="10.120720">
        <ele>475</ele>
        <time>2026-08-30T16:03:44Z</time>
      </trkpt>
      <trkpt lat="48.848158" lon="10.120774">
        <ele>475</ele>
        <time>2026-08-30T16:03:45Z</time>
      </trkpt>
      <trkpt lat="48.848175" lon="10.120828">
        <ele>475.2</ele>
        <time>2026-08-30T16:03:46Z</time>
      </trkpt>
      <trkpt lat="48.848191" lon="10.120885">
        <ele>475.2</ele>
        <time>2026-08-30T16:03:47Z</time>
      </trkpt>
      <trkpt lat="48.848210" lon="10.120941">
        <ele>475.2</ele>
        <time>2026-08-30T16:03:48Z</time>
      </trkpt>
      <trkpt lat="48.848230" lon="10.120995">
        <ele>475.4</ele>
        <time>2026-08-30T16:03:49Z</time>
      </trkpt>
      <trkpt lat="48.848251" lon="10.121042">
        <ele>475.4</ele>
        <time>2026-08-30T16:03:50Z</time>
      </trkpt>
      <trkpt lat="48.848271" lon="10.121092">
        <ele>475.6</ele>
        <time>2026-08-30T16:03:51Z</time>
      </trkpt>
      <trkpt lat="48.848292" lon="10.121141">
        <ele>475.6</ele>
        <time>2026-08-30T16:03:52Z</time>
      </trkpt>
      <trkpt lat="48.848315" lon="10.121190">
        <ele>475.8</ele>
        <time>2026-08-30T16:03:53Z</time>
      </trkpt>
      <trkpt lat="48.848340" lon="10.121243">
        <ele>475.8</ele>
        <time>2026-08-30T16:03:54Z</time>
      </trkpt>
      <trkpt lat="48.848363" lon="10.121291">
        <ele>476</ele>
        <time>2026-08-30T16:03:55Z</time>
      </trkpt>
      <trkpt lat="48.848389" lon="10.121338">
        <ele>476</ele>
        <time>2026-08-30T16:03:56Z</time>
      </trkpt>
      <trkpt lat="48.848413" lon="10.121379">
        <ele>476</ele>
        <time>2026-08-30T16:03:57Z</time>
      </trkpt>
      <trkpt lat="48.848437" lon="10.121421">
        <ele>476.2</ele>
        <time>2026-08-30T16:03:58Z</time>
      </trkpt>
      <trkpt lat="48.848463" lon="10.121462">
        <ele>476.2</ele>
        <time>2026-08-30T16:03:59Z</time>
      </trkpt>
      <trkpt lat="48.848493" lon="10.121504">
        <ele>476.4</ele>
        <time>2026-08-30T16:04:00Z</time>
      </trkpt>
      <trkpt lat="48.848523" lon="10.121543">
        <ele>476.4</ele>
        <time>2026-08-30T16:04:01Z</time>
      </trkpt>
      <trkpt lat="48.848551" lon="10.121581">
        <ele>476.6</ele>
        <time>2026-08-30T16:04:02Z</time>
      </trkpt>
      <trkpt lat="48.848580" lon="10.121620">
        <ele>476.8</ele>
        <time>2026-08-30T16:04:03Z</time>
      </trkpt>
      <trkpt lat="48.848609" lon="10.121659">
        <ele>476.8</ele>
        <time>2026-08-30T16:04:04Z</time>
      </trkpt>
      <trkpt lat="48.848640" lon="10.121698">
        <ele>477</ele>
        <time>2026-08-30T16:04:05Z</time>
      </trkpt>
      <trkpt lat="48.848671" lon="10.121738">
        <ele>477</ele>
        <time>2026-08-30T16:04:06Z</time>
      </trkpt>
      <trkpt lat="48.848703" lon="10.121777">
        <ele>477.2</ele>
        <time>2026-08-30T16:04:07Z</time>
      </trkpt>
      <trkpt lat="48.848734" lon="10.121818">
        <ele>477.2</ele>
        <time>2026-08-30T16:04:08Z</time>
      </trkpt>
      <trkpt lat="48.848767" lon="10.121857">
        <ele>477.4</ele>
        <time>2026-08-30T16:04:09Z</time>
      </trkpt>
      <trkpt lat="48.848801" lon="10.121897">
        <ele>477.4</ele>
        <time>2026-08-30T16:04:10Z</time>
      </trkpt>
      <trkpt lat="48.848834" lon="10.121933">
        <ele>477.6</ele>
        <time>2026-08-30T16:04:11Z</time>
      </trkpt>
      <trkpt lat="48.848866" lon="10.121969">
        <ele>477.6</ele>
        <time>2026-08-30T16:04:12Z</time>
      </trkpt>
      <trkpt lat="48.848898" lon="10.122008">
        <ele>477.8</ele>
        <time>2026-08-30T16:04:13Z</time>
      </trkpt>
      <trkpt lat="48.848927" lon="10.122049">
        <ele>477.8</ele>
        <time>2026-08-30T16:04:14Z</time>
      </trkpt>
      <trkpt lat="48.848958" lon="10.122088">
        <ele>478</ele>
        <time>2026-08-30T16:04:15Z</time>
      </trkpt>
      <trkpt lat="48.848989" lon="10.122129">
        <ele>478</ele>
        <time>2026-08-30T16:04:16Z</time>
      </trkpt>
      <trkpt lat="48.849021" lon="10.122166">
        <ele>478.2</ele>
        <time>2026-08-30T16:04:17Z</time>
      </trkpt>
      <trkpt lat="48.849053" lon="10.122206">
        <ele>478.2</ele>
        <time>2026-08-30T16:04:18Z</time>
      </trkpt>
      <trkpt lat="48.849087" lon="10.122246">
        <ele>478.4</ele>
        <time>2026-08-30T16:04:19Z</time>
      </trkpt>
      <trkpt lat="48.849119" lon="10.122284">
        <ele>478.4</ele>
        <time>2026-08-30T16:04:20Z</time>
      </trkpt>
      <trkpt lat="48.849151" lon="10.122325">
        <ele>478.6</ele>
        <time>2026-08-30T16:04:21Z</time>
      </trkpt>
      <trkpt lat="48.849183" lon="10.122364">
        <ele>478.8</ele>
        <time>2026-08-30T16:04:22Z</time>
      </trkpt>
      <trkpt lat="48.849217" lon="10.122400">
        <ele>479</ele>
        <time>2026-08-30T16:04:23Z</time>
      </trkpt>
      <trkpt lat="48.849250" lon="10.122435">
        <ele>479</ele>
        <time>2026-08-30T16:04:24Z</time>
      </trkpt>
      <trkpt lat="48.849282" lon="10.122470">
        <ele>479.2</ele>
        <time>2026-08-30T16:04:25Z</time>
      </trkpt>
      <trkpt lat="48.849313" lon="10.122504">
        <ele>479.2</ele>
        <time>2026-08-30T16:04:26Z</time>
      </trkpt>
      <trkpt lat="48.849341" lon="10.122539">
        <ele>479.4</ele>
        <time>2026-08-30T16:04:27Z</time>
      </trkpt>
      <trkpt lat="48.849368" lon="10.122573">
        <ele>479.6</ele>
        <time>2026-08-30T16:04:28Z</time>
      </trkpt>
      <trkpt lat="48.849397" lon="10.122605">
        <ele>479.6</ele>
        <time>2026-08-30T16:04:29Z</time>
      </trkpt>
      <trkpt lat="48.849426" lon="10.122641">
        <ele>479.8</ele>
        <time>2026-08-30T16:04:30Z</time>
      </trkpt>
      <trkpt lat="48.849455" lon="10.122681">
        <ele>480</ele>
        <time>2026-08-30T16:04:31Z</time>
      </trkpt>
      <trkpt lat="48.849484" lon="10.122716">
        <ele>480</ele>
        <time>2026-08-30T16:04:32Z</time>
      </trkpt>
      <trkpt lat="48.849512" lon="10.122750">
        <ele>480.2</ele>
        <time>2026-08-30T16:04:33Z</time>
      </trkpt>
      <trkpt lat="48.849539" lon="10.122784">
        <ele>480.2</ele>
        <time>2026-08-30T16:04:34Z</time>
      </trkpt>
      <trkpt lat="48.849567" lon="10.122819">
        <ele>480.4</ele>
        <time>2026-08-30T16:04:35Z</time>
      </trkpt>
      <trkpt lat="48.849595" lon="10.122853">
        <ele>480.6</ele>
        <time>2026-08-30T16:04:36Z</time>
      </trkpt>
      <trkpt lat="48.849627" lon="10.122887">
        <ele>480.6</ele>
        <time>2026-08-30T16:04:37Z</time>
      </trkpt>
      <trkpt lat="48.849657" lon="10.122918">
        <ele>480.8</ele>
        <time>2026-08-30T16:04:38Z</time>
      </trkpt>
      <trkpt lat="48.849687" lon="10.122952">
        <ele>481</ele>
        <time>2026-08-30T16:04:39Z</time>
      </trkpt>
      <trkpt lat="48.849716" lon="10.122987">
        <ele>481</ele>
        <time>2026-08-30T16:04:40Z</time>
      </trkpt>
      <trkpt lat="48.849745" lon="10.123023">
        <ele>481.2</ele>
        <time>2026-08-30T16:04:41Z</time>
      </trkpt>
      <trkpt lat="48.849775" lon="10.123056">
        <ele>481.2</ele>
        <time>2026-08-30T16:04:42Z</time>
      </trkpt>
      <trkpt lat="48.849804" lon="10.123091">
        <ele>481.4</ele>
        <time>2026-08-30T16:04:43Z</time>
      </trkpt>
      <trkpt lat="48.849831" lon="10.123127">
        <ele>481.4</ele>
        <time>2026-08-30T16:04:44Z</time>
      </trkpt>
      <trkpt lat="48.849858" lon="10.123162">
        <ele>481.6</ele>
        <time>2026-08-30T16:04:45Z</time>
      </trkpt>
      <trkpt lat="48.849886" lon="10.123197">
        <ele>481.8</ele>
        <time>2026-08-30T16:04:46Z</time>
      </trkpt>
      <trkpt lat="48.849914" lon="10.123226">
        <ele>481.8</ele>
        <time>2026-08-30T16:04:47Z</time>
      </trkpt>
      <trkpt lat="48.849939" lon="10.123256">
        <ele>482</ele>
        <time>2026-08-30T16:04:48Z</time>
      </trkpt>
      <trkpt lat="48.849965" lon="10.123286">
        <ele>482.2</ele>
        <time>2026-08-30T16:04:49Z</time>
      </trkpt>
      <trkpt lat="48.849990" lon="10.123317">
        <ele>482.4</ele>
        <time>2026-08-30T16:04:50Z</time>
      </trkpt>
      <trkpt lat="48.850016" lon="10.123351">
        <ele>482.4</ele>
        <time>2026-08-30T16:04:51Z</time>
      </trkpt>
      <trkpt lat="48.850042" lon="10.123384">
        <ele>482.6</ele>
        <time>2026-08-30T16:04:52Z</time>
      </trkpt>
      <trkpt lat="48.850067" lon="10.123414">
        <ele>482.8</ele>
        <time>2026-08-30T16:04:53Z</time>
      </trkpt>
      <trkpt lat="48.850092" lon="10.123443">
        <ele>483</ele>
        <time>2026-08-30T16:04:54Z</time>
      </trkpt>
      <trkpt lat="48.850115" lon="10.123473">
        <ele>483.2</ele>
        <time>2026-08-30T16:04:55Z</time>
      </trkpt>
      <trkpt lat="48.850141" lon="10.123499">
        <ele>483.4</ele>
        <time>2026-08-30T16:04:56Z</time>
      </trkpt>
      <trkpt lat="48.850166" lon="10.123527">
        <ele>483.4</ele>
        <time>2026-08-30T16:04:57Z</time>
      </trkpt>
      <trkpt lat="48.850185" lon="10.123555">
        <ele>483.6</ele>
        <time>2026-08-30T16:04:58Z</time>
      </trkpt>
      <trkpt lat="48.850209" lon="10.123582">
        <ele>483.8</ele>
        <time>2026-08-30T16:04:59Z</time>
      </trkpt>
      <trkpt lat="48.850232" lon="10.123610">
        <ele>484</ele>
        <time>2026-08-30T16:05:00Z</time>
      </trkpt>
      <trkpt lat="48.850255" lon="10.123636">
        <ele>484</ele>
        <time>2026-08-30T16:05:01Z</time>
      </trkpt>
      <trkpt lat="48.850279" lon="10.123661">
        <ele>484.2</ele>
        <time>2026-08-30T16:05:02Z</time>
      </trkpt>
      <trkpt lat="48.850300" lon="10.123687">
        <ele>484.4</ele>
        <time>2026-08-30T16:05:03Z</time>
      </trkpt>
      <trkpt lat="48.850322" lon="10.123716">
        <ele>484.6</ele>
        <time>2026-08-30T16:05:04Z</time>
      </trkpt>
      <trkpt lat="48.850344" lon="10.123742">
        <ele>484.6</ele>
        <time>2026-08-30T16:05:05Z</time>
      </trkpt>
      <trkpt lat="48.850366" lon="10.123771">
        <ele>484.8</ele>
        <time>2026-08-30T16:05:06Z</time>
      </trkpt>
      <trkpt lat="48.850390" lon="10.123799">
        <ele>484.8</ele>
        <time>2026-08-30T16:05:07Z</time>
      </trkpt>
      <trkpt lat="48.850412" lon="10.123828">
        <ele>485</ele>
        <time>2026-08-30T16:05:08Z</time>
      </trkpt>
      <trkpt lat="48.850433" lon="10.123857">
        <ele>485</ele>
        <time>2026-08-30T16:05:09Z</time>
      </trkpt>
      <trkpt lat="48.850456" lon="10.123885">
        <ele>485.2</ele>
        <time>2026-08-30T16:05:10Z</time>
      </trkpt>
      <trkpt lat="48.850480" lon="10.123914">
        <ele>485.2</ele>
        <time>2026-08-30T16:05:11Z</time>
      </trkpt>
      <trkpt lat="48.850504" lon="10.123942">
        <ele>485.4</ele>
        <time>2026-08-30T16:05:12Z</time>
      </trkpt>
      <trkpt lat="48.850526" lon="10.123972">
        <ele>485.4</ele>
        <time>2026-08-30T16:05:13Z</time>
      </trkpt>
      <trkpt lat="48.850549" lon="10.124003">
        <ele>485.6</ele>
        <time>2026-08-30T16:05:14Z</time>
      </trkpt>
      <trkpt lat="48.850574" lon="10.124028">
        <ele>485.6</ele>
        <time>2026-08-30T16:05:15Z</time>
      </trkpt>
      <trkpt lat="48.850599" lon="10.124056">
        <ele>485.8</ele>
        <time>2026-08-30T16:05:16Z</time>
      </trkpt>
      <trkpt lat="48.850628" lon="10.124086">
        <ele>485.8</ele>
        <time>2026-08-30T16:05:17Z</time>
      </trkpt>
      <trkpt lat="48.850653" lon="10.124117">
        <ele>485.8</ele>
        <time>2026-08-30T16:05:18Z</time>
      </trkpt>
      <trkpt lat="48.850678" lon="10.124150">
        <ele>486</ele>
        <time>2026-08-30T16:05:19Z</time>
      </trkpt>
      <trkpt lat="48.850702" lon="10.124183">
        <ele>486</ele>
        <time>2026-08-30T16:05:20Z</time>
      </trkpt>
      <trkpt lat="48.850725" lon="10.124217">
        <ele>486.2</ele>
        <time>2026-08-30T16:05:21Z</time>
      </trkpt>
      <trkpt lat="48.850753" lon="10.124250">
        <ele>486.2</ele>
        <time>2026-08-30T16:05:22Z</time>
      </trkpt>
      <trkpt lat="48.850780" lon="10.124283">
        <ele>486.2</ele>
        <time>2026-08-30T16:05:23Z</time>
      </trkpt>
      <trkpt lat="48.850807" lon="10.124315">
        <ele>486.4</ele>
        <time>2026-08-30T16:05:24Z</time>
      </trkpt>
      <trkpt lat="48.850833" lon="10.124344">
        <ele>486.4</ele>
        <time>2026-08-30T16:05:25Z</time>
      </trkpt>
      <trkpt lat="48.850860" lon="10.124372">
        <ele>486.6</ele>
        <time>2026-08-30T16:05:26Z</time>
      </trkpt>
      <trkpt lat="48.850887" lon="10.124405">
        <ele>486.6</ele>
        <time>2026-08-30T16:05:27Z</time>
      </trkpt>
      <trkpt lat="48.850913" lon="10.124438">
        <ele>486.8</ele>
        <time>2026-08-30T16:05:28Z</time>
      </trkpt>
      <trkpt lat="48.850940" lon="10.124475">
        <ele>486.8</ele>
        <time>2026-08-30T16:05:29Z</time>
      </trkpt>
      <trkpt lat="48.850970" lon="10.124507">
        <ele>487</ele>
        <time>2026-08-30T16:05:30Z</time>
      </trkpt>
      <trkpt lat="48.850999" lon="10.124538">
        <ele>487</ele>
        <time>2026-08-30T16:05:31Z</time>
      </trkpt>
      <trkpt lat="48.851026" lon="10.124571">
        <ele>487.2</ele>
        <time>2026-08-30T16:05:32Z</time>
      </trkpt>
      <trkpt lat="48.851053" lon="10.124603">
        <ele>487.4</ele>
        <time>2026-08-30T16:05:33Z</time>
      </trkpt>
      <trkpt lat="48.851079" lon="10.124639">
        <ele>487.4</ele>
        <time>2026-08-30T16:05:34Z</time>
      </trkpt>
      <trkpt lat="48.851105" lon="10.124673">
        <ele>487.6</ele>
        <time>2026-08-30T16:05:35Z</time>
      </trkpt>
      <trkpt lat="48.851131" lon="10.124706">
        <ele>487.8</ele>
        <time>2026-08-30T16:05:36Z</time>
      </trkpt>
      <trkpt lat="48.851159" lon="10.124739">
        <ele>487.8</ele>
        <time>2026-08-30T16:05:37Z</time>
      </trkpt>
      <trkpt lat="48.851187" lon="10.124771">
        <ele>488</ele>
        <time>2026-08-30T16:05:38Z</time>
      </trkpt>
      <trkpt lat="48.851213" lon="10.124803">
        <ele>488.2</ele>
        <time>2026-08-30T16:05:39Z</time>
      </trkpt>
      <trkpt lat="48.851237" lon="10.124836">
        <ele>488.4</ele>
        <time>2026-08-30T16:05:40Z</time>
      </trkpt>
      <trkpt lat="48.851260" lon="10.124867">
        <ele>488.4</ele>
        <time>2026-08-30T16:05:41Z</time>
      </trkpt>
      <trkpt lat="48.851283" lon="10.124897">
        <ele>488.6</ele>
        <time>2026-08-30T16:05:42Z</time>
      </trkpt>
      <trkpt lat="48.851305" lon="10.124924">
        <ele>488.6</ele>
        <time>2026-08-30T16:05:43Z</time>
      </trkpt>
      <trkpt lat="48.851327" lon="10.124951">
        <ele>488.8</ele>
        <time>2026-08-30T16:05:44Z</time>
      </trkpt>
      <trkpt lat="48.851353" lon="10.124977">
        <ele>489</ele>
        <time>2026-08-30T16:05:45Z</time>
      </trkpt>
      <trkpt lat="48.851381" lon="10.125008">
        <ele>489</ele>
        <time>2026-08-30T16:05:46Z</time>
      </trkpt>
      <trkpt lat="48.851411" lon="10.125040">
        <ele>489.2</ele>
        <time>2026-08-30T16:05:47Z</time>
      </trkpt>
      <trkpt lat="48.851440" lon="10.125071">
        <ele>489.4</ele>
        <time>2026-08-30T16:05:48Z</time>
      </trkpt>
      <trkpt lat="48.851465" lon="10.125106">
        <ele>489.4</ele>
        <time>2026-08-30T16:05:49Z</time>
      </trkpt>
      <trkpt lat="48.851491" lon="10.125140">
        <ele>489.6</ele>
        <time>2026-08-30T16:05:50Z</time>
      </trkpt>
      <trkpt lat="48.851518" lon="10.125174">
        <ele>489.8</ele>
        <time>2026-08-30T16:05:51Z</time>
      </trkpt>
      <trkpt lat="48.851545" lon="10.125207">
        <ele>489.8</ele>
        <time>2026-08-30T16:05:52Z</time>
      </trkpt>
      <trkpt lat="48.851570" lon="10.125238">
        <ele>490</ele>
        <time>2026-08-30T16:05:53Z</time>
      </trkpt>
      <trkpt lat="48.851595" lon="10.125269">
        <ele>490</ele>
        <time>2026-08-30T16:05:54Z</time>
      </trkpt>
      <trkpt lat="48.851621" lon="10.125301">
        <ele>490.2</ele>
        <time>2026-08-30T16:05:55Z</time>
      </trkpt>
      <trkpt lat="48.851649" lon="10.125332">
        <ele>490.4</ele>
        <time>2026-08-30T16:05:56Z</time>
      </trkpt>
      <trkpt lat="48.851674" lon="10.125361">
        <ele>490.4</ele>
        <time>2026-08-30T16:05:57Z</time>
      </trkpt>
      <trkpt lat="48.851700" lon="10.125392">
        <ele>490.6</ele>
        <time>2026-08-30T16:05:58Z</time>
      </trkpt>
      <trkpt lat="48.851728" lon="10.125424">
        <ele>490.8</ele>
        <time>2026-08-30T16:05:59Z</time>
      </trkpt>
      <trkpt lat="48.851752" lon="10.125455">
        <ele>491</ele>
        <time>2026-08-30T16:06:00Z</time>
      </trkpt>
      <trkpt lat="48.851778" lon="10.125490">
        <ele>491.2</ele>
        <time>2026-08-30T16:06:01Z</time>
      </trkpt>
      <trkpt lat="48.851804" lon="10.125522">
        <ele>491.2</ele>
        <time>2026-08-30T16:06:02Z</time>
      </trkpt>
      <trkpt lat="48.851832" lon="10.125552">
        <ele>491.4</ele>
        <time>2026-08-30T16:06:03Z</time>
      </trkpt>
      <trkpt lat="48.851858" lon="10.125582">
        <ele>491.6</ele>
        <time>2026-08-30T16:06:04Z</time>
      </trkpt>
      <trkpt lat="48.851883" lon="10.125614">
        <ele>491.6</ele>
        <time>2026-08-30T16:06:05Z</time>
      </trkpt>
      <trkpt lat="48.851908" lon="10.125645">
        <ele>491.8</ele>
        <time>2026-08-30T16:06:06Z</time>
      </trkpt>
      <trkpt lat="48.851935" lon="10.125676">
        <ele>492</ele>
        <time>2026-08-30T16:06:07Z</time>
      </trkpt>
      <trkpt lat="48.851963" lon="10.125709">
        <ele>492</ele>
        <time>2026-08-30T16:06:08Z</time>
      </trkpt>
      <trkpt lat="48.851989" lon="10.125741">
        <ele>492.2</ele>
        <time>2026-08-30T16:06:09Z</time>
      </trkpt>
      <trkpt lat="48.852015" lon="10.125774">
        <ele>492.2</ele>
        <time>2026-08-30T16:06:10Z</time>
      </trkpt>
      <trkpt lat="48.852039" lon="10.125807">
        <ele>492.4</ele>
        <time>2026-08-30T16:06:11Z</time>
      </trkpt>
      <trkpt lat="48.852065" lon="10.125840">
        <ele>492.6</ele>
        <time>2026-08-30T16:06:12Z</time>
      </trkpt>
      <trkpt lat="48.852090" lon="10.125870">
        <ele>492.6</ele>
        <time>2026-08-30T16:06:13Z</time>
      </trkpt>
      <trkpt lat="48.852117" lon="10.125899">
        <ele>492.8</ele>
        <time>2026-08-30T16:06:14Z</time>
      </trkpt>
      <trkpt lat="48.852144" lon="10.125930">
        <ele>493</ele>
        <time>2026-08-30T16:06:15Z</time>
      </trkpt>
      <trkpt lat="48.852169" lon="10.125962">
        <ele>493</ele>
        <time>2026-08-30T16:06:16Z</time>
      </trkpt>
      <trkpt lat="48.852192" lon="10.125991">
        <ele>493.2</ele>
        <time>2026-08-30T16:06:17Z</time>
      </trkpt>
      <trkpt lat="48.852217" lon="10.126022">
        <ele>493.2</ele>
        <time>2026-08-30T16:06:18Z</time>
      </trkpt>
      <trkpt lat="48.852243" lon="10.126054">
        <ele>493.4</ele>
        <time>2026-08-30T16:06:19Z</time>
      </trkpt>
      <trkpt lat="48.852271" lon="10.126084">
        <ele>493.6</ele>
        <time>2026-08-30T16:06:20Z</time>
      </trkpt>
      <trkpt lat="48.852298" lon="10.126116">
        <ele>493.6</ele>
        <time>2026-08-30T16:06:21Z</time>
      </trkpt>
      <trkpt lat="48.852325" lon="10.126148">
        <ele>493.8</ele>
        <time>2026-08-30T16:06:22Z</time>
      </trkpt>
      <trkpt lat="48.852351" lon="10.126179">
        <ele>493.8</ele>
        <time>2026-08-30T16:06:23Z</time>
      </trkpt>
      <trkpt lat="48.852378" lon="10.126209">
        <ele>494</ele>
        <time>2026-08-30T16:06:24Z</time>
      </trkpt>
      <trkpt lat="48.852404" lon="10.126240">
        <ele>494.2</ele>
        <time>2026-08-30T16:06:25Z</time>
      </trkpt>
      <trkpt lat="48.852431" lon="10.126272">
        <ele>494.2</ele>
        <time>2026-08-30T16:06:26Z</time>
      </trkpt>
      <trkpt lat="48.852456" lon="10.126306">
        <ele>494.4</ele>
        <time>2026-08-30T16:06:27Z</time>
      </trkpt>
      <trkpt lat="48.852483" lon="10.126336">
        <ele>494.4</ele>
        <time>2026-08-30T16:06:28Z</time>
      </trkpt>
      <trkpt lat="48.852504" lon="10.126365">
        <ele>494.6</ele>
        <time>2026-08-30T16:06:29Z</time>
      </trkpt>
      <trkpt lat="48.852527" lon="10.126393">
        <ele>494.6</ele>
        <time>2026-08-30T16:06:30Z</time>
      </trkpt>
      <trkpt lat="48.852554" lon="10.126423">
        <ele>494.8</ele>
        <time>2026-08-30T16:06:31Z</time>
      </trkpt>
      <trkpt lat="48.852581" lon="10.126455">
        <ele>494.8</ele>
        <time>2026-08-30T16:06:32Z</time>
      </trkpt>
      <trkpt lat="48.852606" lon="10.126486">
        <ele>495</ele>
        <time>2026-08-30T16:06:33Z</time>
      </trkpt>
      <trkpt lat="48.852631" lon="10.126517">
        <ele>495.2</ele>
        <time>2026-08-30T16:06:34Z</time>
      </trkpt>
      <trkpt lat="48.852654" lon="10.126548">
        <ele>495.2</ele>
        <time>2026-08-30T16:06:35Z</time>
      </trkpt>
      <trkpt lat="48.852678" lon="10.126576">
        <ele>495.4</ele>
        <time>2026-08-30T16:06:36Z</time>
      </trkpt>
      <trkpt lat="48.852703" lon="10.126606">
        <ele>495.6</ele>
        <time>2026-08-30T16:06:37Z</time>
      </trkpt>
      <trkpt lat="48.852728" lon="10.126635">
        <ele>495.6</ele>
        <time>2026-08-30T16:06:38Z</time>
      </trkpt>
      <trkpt lat="48.852753" lon="10.126662">
        <ele>495.8</ele>
        <time>2026-08-30T16:06:39Z</time>
      </trkpt>
      <trkpt lat="48.852778" lon="10.126693">
        <ele>495.8</ele>
        <time>2026-08-30T16:06:40Z</time>
      </trkpt>
      <trkpt lat="48.852804" lon="10.126721">
        <ele>496</ele>
        <time>2026-08-30T16:06:41Z</time>
      </trkpt>
      <trkpt lat="48.852829" lon="10.126749">
        <ele>496</ele>
        <time>2026-08-30T16:06:42Z</time>
      </trkpt>
      <trkpt lat="48.852853" lon="10.126779">
        <ele>496.2</ele>
        <time>2026-08-30T16:06:43Z</time>
      </trkpt>
      <trkpt lat="48.852877" lon="10.126811">
        <ele>496.2</ele>
        <time>2026-08-30T16:06:44Z</time>
      </trkpt>
      <trkpt lat="48.852901" lon="10.126843">
        <ele>496.4</ele>
        <time>2026-08-30T16:06:45Z</time>
      </trkpt>
      <trkpt lat="48.852924" lon="10.126875">
        <ele>496.4</ele>
        <time>2026-08-30T16:06:46Z</time>
      </trkpt>
      <trkpt lat="48.852948" lon="10.126904">
        <ele>496.6</ele>
        <time>2026-08-30T16:06:47Z</time>
      </trkpt>
      <trkpt lat="48.852969" lon="10.126931">
        <ele>496.8</ele>
        <time>2026-08-30T16:06:48Z</time>
      </trkpt>
      <trkpt lat="48.852993" lon="10.126956">
        <ele>496.8</ele>
        <time>2026-08-30T16:06:49Z</time>
      </trkpt>
      <trkpt lat="48.853018" lon="10.126982">
        <ele>497</ele>
        <time>2026-08-30T16:06:50Z</time>
      </trkpt>
      <trkpt lat="48.853042" lon="10.127010">
        <ele>497.2</ele>
        <time>2026-08-30T16:06:51Z</time>
      </trkpt>
      <trkpt lat="48.853064" lon="10.127035">
        <ele>497.2</ele>
        <time>2026-08-30T16:06:52Z</time>
      </trkpt>
      <trkpt lat="48.853086" lon="10.127060">
        <ele>497.4</ele>
        <time>2026-08-30T16:06:53Z</time>
      </trkpt>
      <trkpt lat="48.853107" lon="10.127083">
        <ele>497.6</ele>
        <time>2026-08-30T16:06:54Z</time>
      </trkpt>
      <trkpt lat="48.853127" lon="10.127106">
        <ele>497.8</ele>
        <time>2026-08-30T16:06:55Z</time>
      </trkpt>
      <trkpt lat="48.853146" lon="10.127127">
        <ele>498</ele>
        <time>2026-08-30T16:06:56Z</time>
      </trkpt>
      <trkpt lat="48.853161" lon="10.127150">
        <ele>498</ele>
        <time>2026-08-30T16:06:57Z</time>
      </trkpt>
      <trkpt lat="48.853181" lon="10.127172">
        <ele>498.2</ele>
        <time>2026-08-30T16:06:58Z</time>
      </trkpt>
      <trkpt lat="48.853202" lon="10.127196">
        <ele>498.4</ele>
        <time>2026-08-30T16:06:59Z</time>
      </trkpt>
      <trkpt lat="48.853221" lon="10.127215">
        <ele>498.6</ele>
        <time>2026-08-30T16:07:00Z</time>
      </trkpt>
      <trkpt lat="48.853239" lon="10.127237">
        <ele>498.6</ele>
        <time>2026-08-30T16:07:01Z</time>
      </trkpt>
      <trkpt lat="48.853258" lon="10.127259">
        <ele>498.8</ele>
        <time>2026-08-30T16:07:02Z</time>
      </trkpt>
      <trkpt lat="48.853276" lon="10.127284">
        <ele>499</ele>
        <time>2026-08-30T16:07:03Z</time>
      </trkpt>
      <trkpt lat="48.853296" lon="10.127305">
        <ele>499</ele>
        <time>2026-08-30T16:07:04Z</time>
      </trkpt>
      <trkpt lat="48.853313" lon="10.127328">
        <ele>499.2</ele>
        <time>2026-08-30T16:07:05Z</time>
      </trkpt>
      <trkpt lat="48.853331" lon="10.127348">
        <ele>499.4</ele>
        <time>2026-08-30T16:07:06Z</time>
      </trkpt>
      <trkpt lat="48.853350" lon="10.127366">
        <ele>499.6</ele>
        <time>2026-08-30T16:07:07Z</time>
      </trkpt>
      <trkpt lat="48.853366" lon="10.127386">
        <ele>499.8</ele>
        <time>2026-08-30T16:07:08Z</time>
      </trkpt>
      <trkpt lat="48.853381" lon="10.127407">
        <ele>499.8</ele>
        <time>2026-08-30T16:07:09Z</time>
      </trkpt>
      <trkpt lat="48.853395" lon="10.127425">
        <ele>500</ele>
        <time>2026-08-30T16:07:10Z</time>
      </trkpt>
      <trkpt lat="48.853409" lon="10.127444">
        <ele>500.2</ele>
        <time>2026-08-30T16:07:11Z</time>
      </trkpt>
      <trkpt lat="48.853422" lon="10.127465">
        <ele>500.4</ele>
        <time>2026-08-30T16:07:12Z</time>
      </trkpt>
      <trkpt lat="48.853433" lon="10.127489">
        <ele>500.6</ele>
        <time>2026-08-30T16:07:13Z</time>
      </trkpt>
      <trkpt lat="48.853440" lon="10.127514">
        <ele>500.8</ele>
        <time>2026-08-30T16:07:14Z</time>
      </trkpt>
      <trkpt lat="48.853439" lon="10.127538">
        <ele>501</ele>
        <time>2026-08-30T16:07:15Z</time>
      </trkpt>
      <trkpt lat="48.853433" lon="10.127563">
        <ele>501.2</ele>
        <time>2026-08-30T16:07:16Z</time>
      </trkpt>
      <trkpt lat="48.853421" lon="10.127585">
        <ele>501.2</ele>
        <time>2026-08-30T16:07:17Z</time>
      </trkpt>
      <trkpt lat="48.853404" lon="10.127608">
        <ele>501.4</ele>
        <time>2026-08-30T16:07:18Z</time>
      </trkpt>
      <trkpt lat="48.853384" lon="10.127633">
        <ele>501.4</ele>
        <time>2026-08-30T16:07:19Z</time>
      </trkpt>
      <trkpt lat="48.853359" lon="10.127656">
        <ele>501.4</ele>
        <time>2026-08-30T16:07:20Z</time>
      </trkpt>
      <trkpt lat="48.853332" lon="10.127686">
        <ele>501.2</ele>
        <time>2026-08-30T16:07:21Z</time>
      </trkpt>
      <trkpt lat="48.853298" lon="10.127709">
        <ele>501.2</ele>
        <time>2026-08-30T16:07:22Z</time>
      </trkpt>
      <trkpt lat="48.853265" lon="10.127723">
        <ele>501.2</ele>
        <time>2026-08-30T16:07:23Z</time>
      </trkpt>
      <trkpt lat="48.853230" lon="10.127727">
        <ele>501.2</ele>
        <time>2026-08-30T16:07:24Z</time>
      </trkpt>
      <trkpt lat="48.853193" lon="10.127729">
        <ele>501</ele>
        <time>2026-08-30T16:07:25Z</time>
      </trkpt>
      <trkpt lat="48.853157" lon="10.127722">
        <ele>500.8</ele>
        <time>2026-08-30T16:07:26Z</time>
      </trkpt>
      <trkpt lat="48.853125" lon="10.127709">
        <ele>500.8</ele>
        <time>2026-08-30T16:07:27Z</time>
      </trkpt>
      <trkpt lat="48.853091" lon="10.127696">
        <ele>500.6</ele>
        <time>2026-08-30T16:07:28Z</time>
      </trkpt>
      <trkpt lat="48.853060" lon="10.127683">
        <ele>500.4</ele>
        <time>2026-08-30T16:07:29Z</time>
      </trkpt>
      <trkpt lat="48.853027" lon="10.127669">
        <ele>500.4</ele>
        <time>2026-08-30T16:07:30Z</time>
      </trkpt>
      <trkpt lat="48.852996" lon="10.127650">
        <ele>500.4</ele>
        <time>2026-08-30T16:07:31Z</time>
      </trkpt>
      <trkpt lat="48.852962" lon="10.127632">
        <ele>500.4</ele>
        <time>2026-08-30T16:07:32Z</time>
      </trkpt>
      <trkpt lat="48.852931" lon="10.127620">
        <ele>500.6</ele>
        <time>2026-08-30T16:07:33Z</time>
      </trkpt>
      <trkpt lat="48.852900" lon="10.127606">
        <ele>500.6</ele>
        <time>2026-08-30T16:07:34Z</time>
      </trkpt>
      <trkpt lat="48.852868" lon="10.127590">
        <ele>500.6</ele>
        <time>2026-08-30T16:07:35Z</time>
      </trkpt>
      <trkpt lat="48.852832" lon="10.127577">
        <ele>500.8</ele>
        <time>2026-08-30T16:07:36Z</time>
      </trkpt>
      <trkpt lat="48.852798" lon="10.127568">
        <ele>500.8</ele>
        <time>2026-08-30T16:07:37Z</time>
      </trkpt>
      <trkpt lat="48.852767" lon="10.127554">
        <ele>501</ele>
        <time>2026-08-30T16:07:38Z</time>
      </trkpt>
      <trkpt lat="48.852737" lon="10.127540">
        <ele>501</ele>
        <time>2026-08-30T16:07:39Z</time>
      </trkpt>
      <trkpt lat="48.852706" lon="10.127535">
        <ele>501.2</ele>
        <time>2026-08-30T16:07:40Z</time>
      </trkpt>
      <trkpt lat="48.852676" lon="10.127540">
        <ele>501.4</ele>
        <time>2026-08-30T16:07:41Z</time>
      </trkpt>
      <trkpt lat="48.852646" lon="10.127545">
        <ele>501.6</ele>
        <time>2026-08-30T16:07:42Z</time>
      </trkpt>
      <trkpt lat="48.852618" lon="10.127547">
        <ele>501.8</ele>
        <time>2026-08-30T16:07:43Z</time>
      </trkpt>
      <trkpt lat="48.852590" lon="10.127550">
        <ele>501.8</ele>
        <time>2026-08-30T16:07:44Z</time>
      </trkpt>
      <trkpt lat="48.852564" lon="10.127552">
        <ele>502</ele>
        <time>2026-08-30T16:07:45Z</time>
      </trkpt>
      <trkpt lat="48.852539" lon="10.127555">
        <ele>502.2</ele>
        <time>2026-08-30T16:07:46Z</time>
      </trkpt>
      <trkpt lat="48.852514" lon="10.127560">
        <ele>502.4</ele>
        <time>2026-08-30T16:07:47Z</time>
      </trkpt>
      <trkpt lat="48.852491" lon="10.127569">
        <ele>502.6</ele>
        <time>2026-08-30T16:07:48Z</time>
      </trkpt>
      <trkpt lat="48.852466" lon="10.127577">
        <ele>502.6</ele>
        <time>2026-08-30T16:07:49Z</time>
      </trkpt>
      <trkpt lat="48.852440" lon="10.127585">
        <ele>502.8</ele>
        <time>2026-08-30T16:07:50Z</time>
      </trkpt>
      <trkpt lat="48.852415" lon="10.127587">
        <ele>502.8</ele>
        <time>2026-08-30T16:07:51Z</time>
      </trkpt>
      <trkpt lat="48.852390" lon="10.127591">
        <ele>503</ele>
        <time>2026-08-30T16:07:52Z</time>
      </trkpt>
      <trkpt lat="48.852366" lon="10.127592">
        <ele>503.2</ele>
        <time>2026-08-30T16:07:53Z</time>
      </trkpt>
      <trkpt lat="48.852343" lon="10.127600">
        <ele>503.4</ele>
        <time>2026-08-30T16:07:54Z</time>
      </trkpt>
      <trkpt lat="48.852322" lon="10.127604">
        <ele>503.6</ele>
        <time>2026-08-30T16:07:55Z</time>
      </trkpt>
      <trkpt lat="48.852299" lon="10.127606">
        <ele>503.8</ele>
        <time>2026-08-30T16:07:56Z</time>
      </trkpt>
      <trkpt lat="48.852281" lon="10.127609">
        <ele>504</ele>
        <time>2026-08-30T16:07:57Z</time>
      </trkpt>
      <trkpt lat="48.852259" lon="10.127617">
        <ele>504.2</ele>
        <time>2026-08-30T16:07:58Z</time>
      </trkpt>
      <trkpt lat="48.852240" lon="10.127626">
        <ele>504.4</ele>
        <time>2026-08-30T16:07:59Z</time>
      </trkpt>
      <trkpt lat="48.852219" lon="10.127638">
        <ele>504.6</ele>
        <time>2026-08-30T16:08:00Z</time>
      </trkpt>
      <trkpt lat="48.852200" lon="10.127646">
        <ele>504.8</ele>
        <time>2026-08-30T16:08:01Z</time>
      </trkpt>
      <trkpt lat="48.852181" lon="10.127647">
        <ele>505</ele>
        <time>2026-08-30T16:08:02Z</time>
      </trkpt>
      <trkpt lat="48.852159" lon="10.127644">
        <ele>505.2</ele>
        <time>2026-08-30T16:08:03Z</time>
      </trkpt>
      <trkpt lat="48.852142" lon="10.127643">
        <ele>505.2</ele>
        <time>2026-08-30T16:08:04Z</time>
      </trkpt>
      <trkpt lat="48.852126" lon="10.127645">
        <ele>505.4</ele>
        <time>2026-08-30T16:08:05Z</time>
      </trkpt>
      <trkpt lat="48.852110" lon="10.127654">
        <ele>505.6</ele>
        <time>2026-08-30T16:08:06Z</time>
      </trkpt>
      <trkpt lat="48.852095" lon="10.127664">
        <ele>505.8</ele>
        <time>2026-08-30T16:08:07Z</time>
      </trkpt>
      <trkpt lat="48.852079" lon="10.127672">
        <ele>506</ele>
        <time>2026-08-30T16:08:08Z</time>
      </trkpt>
      <trkpt lat="48.852064" lon="10.127680">
        <ele>506.2</ele>
        <time>2026-08-30T16:08:09Z</time>
      </trkpt>
      <trkpt lat="48.852048" lon="10.127692">
        <ele>506.4</ele>
        <time>2026-08-30T16:08:10Z</time>
      </trkpt>
      <trkpt lat="48.852034" lon="10.127701">
        <ele>506.6</ele>
        <time>2026-08-30T16:08:11Z</time>
      </trkpt>
      <trkpt lat="48.852020" lon="10.127703">
        <ele>506.8</ele>
        <time>2026-08-30T16:08:12Z</time>
      </trkpt>
      <trkpt lat="48.852006" lon="10.127705">
        <ele>507</ele>
        <time>2026-08-30T16:08:13Z</time>
      </trkpt>
      <trkpt lat="48.851990" lon="10.127704">
        <ele>507.2</ele>
        <time>2026-08-30T16:08:14Z</time>
      </trkpt>
      <trkpt lat="48.851971" lon="10.127708">
        <ele>507.4</ele>
        <time>2026-08-30T16:08:15Z</time>
      </trkpt>
      <trkpt lat="48.851956" lon="10.127717">
        <ele>507.6</ele>
        <time>2026-08-30T16:08:16Z</time>
      </trkpt>
      <trkpt lat="48.851941" lon="10.127728">
        <ele>507.8</ele>
        <time>2026-08-30T16:08:17Z</time>
      </trkpt>
      <trkpt lat="48.851925" lon="10.127740">
        <ele>508</ele>
        <time>2026-08-30T16:08:18Z</time>
      </trkpt>
      <trkpt lat="48.851910" lon="10.127751">
        <ele>508</ele>
        <time>2026-08-30T16:08:19Z</time>
      </trkpt>
      <trkpt lat="48.851894" lon="10.127762">
        <ele>508.2</ele>
        <time>2026-08-30T16:08:20Z</time>
      </trkpt>
      <trkpt lat="48.851882" lon="10.127774">
        <ele>508.4</ele>
        <time>2026-08-30T16:08:21Z</time>
      </trkpt>
      <trkpt lat="48.851867" lon="10.127787">
        <ele>508.6</ele>
        <time>2026-08-30T16:08:22Z</time>
      </trkpt>
      <trkpt lat="48.851852" lon="10.127797">
        <ele>508.8</ele>
        <time>2026-08-30T16:08:23Z</time>
      </trkpt>
      <trkpt lat="48.851837" lon="10.127806">
        <ele>509</ele>
        <time>2026-08-30T16:08:24Z</time>
      </trkpt>
      <trkpt lat="48.851823" lon="10.127813">
        <ele>509.2</ele>
        <time>2026-08-30T16:08:25Z</time>
      </trkpt>
      <trkpt lat="48.851809" lon="10.127825">
        <ele>509.2</ele>
        <time>2026-08-30T16:08:26Z</time>
      </trkpt>
      <trkpt lat="48.851797" lon="10.127844">
        <ele>509.6</ele>
        <time>2026-08-30T16:08:27Z</time>
      </trkpt>
      <trkpt lat="48.851786" lon="10.127859">
        <ele>509.6</ele>
        <time>2026-08-30T16:08:28Z</time>
      </trkpt>
      <trkpt lat="48.851775" lon="10.127870">
        <ele>509.8</ele>
        <time>2026-08-30T16:08:29Z</time>
      </trkpt>
      <trkpt lat="48.851763" lon="10.127877">
        <ele>510</ele>
        <time>2026-08-30T16:08:30Z</time>
      </trkpt>
      <trkpt lat="48.851748" lon="10.127881">
        <ele>510.2</ele>
        <time>2026-08-30T16:08:31Z</time>
      </trkpt>
      <trkpt lat="48.851734" lon="10.127890">
        <ele>510.2</ele>
        <time>2026-08-30T16:08:32Z</time>
      </trkpt>
      <trkpt lat="48.851719" lon="10.127899">
        <ele>510.4</ele>
        <time>2026-08-30T16:08:33Z</time>
      </trkpt>
      <trkpt lat="48.851703" lon="10.127913">
        <ele>510.6</ele>
        <time>2026-08-30T16:08:34Z</time>
      </trkpt>
      <trkpt lat="48.851690" lon="10.127929">
        <ele>510.6</ele>
        <time>2026-08-30T16:08:35Z</time>
      </trkpt>
      <trkpt lat="48.851677" lon="10.127945">
        <ele>510.8</ele>
        <time>2026-08-30T16:08:36Z</time>
      </trkpt>
      <trkpt lat="48.851667" lon="10.127964">
        <ele>511</ele>
        <time>2026-08-30T16:08:37Z</time>
      </trkpt>
      <trkpt lat="48.851658" lon="10.127979">
        <ele>511.2</ele>
        <time>2026-08-30T16:08:38Z</time>
      </trkpt>
      <trkpt lat="48.851651" lon="10.127998">
        <ele>511.2</ele>
        <time>2026-08-30T16:08:39Z</time>
      </trkpt>
      <trkpt lat="48.851642" lon="10.128015">
        <ele>511.4</ele>
        <time>2026-08-30T16:08:40Z</time>
      </trkpt>
      <trkpt lat="48.851630" lon="10.128029">
        <ele>511.6</ele>
        <time>2026-08-30T16:08:41Z</time>
      </trkpt>
      <trkpt lat="48.851616" lon="10.128037">
        <ele>511.8</ele>
        <time>2026-08-30T16:08:42Z</time>
      </trkpt>
      <trkpt lat="48.851604" lon="10.128040">
        <ele>512</ele>
        <time>2026-08-30T16:08:43Z</time>
      </trkpt>
      <trkpt lat="48.851589" lon="10.128048">
        <ele>512</ele>
        <time>2026-08-30T16:08:44Z</time>
      </trkpt>
      <trkpt lat="48.851576" lon="10.128058">
        <ele>512.2</ele>
        <time>2026-08-30T16:08:45Z</time>
      </trkpt>
      <trkpt lat="48.851564" lon="10.128067">
        <ele>512.4</ele>
        <time>2026-08-30T16:08:46Z</time>
      </trkpt>
      <trkpt lat="48.851551" lon="10.128081">
        <ele>512.4</ele>
        <time>2026-08-30T16:08:47Z</time>
      </trkpt>
      <trkpt lat="48.851541" lon="10.128098">
        <ele>512.8</ele>
        <time>2026-08-30T16:08:48Z</time>
      </trkpt>
      <trkpt lat="48.851531" lon="10.128113">
        <ele>512.8</ele>
        <time>2026-08-30T16:08:49Z</time>
      </trkpt>
      <trkpt lat="48.851523" lon="10.128132">
        <ele>513</ele>
        <time>2026-08-30T16:08:50Z</time>
      </trkpt>
      <trkpt lat="48.851516" lon="10.128150">
        <ele>513.2</ele>
        <time>2026-08-30T16:08:51Z</time>
      </trkpt>
      <trkpt lat="48.851508" lon="10.128167">
        <ele>513.4</ele>
        <time>2026-08-30T16:08:52Z</time>
      </trkpt>
      <trkpt lat="48.851498" lon="10.128182">
        <ele>513.6</ele>
        <time>2026-08-30T16:08:53Z</time>
      </trkpt>
      <trkpt lat="48.851487" lon="10.128189">
        <ele>513.8</ele>
        <time>2026-08-30T16:08:54Z</time>
      </trkpt>
      <trkpt lat="48.851474" lon="10.128192">
        <ele>514</ele>
        <time>2026-08-30T16:08:55Z</time>
      </trkpt>
      <trkpt lat="48.851461" lon="10.128198">
        <ele>514.2</ele>
        <time>2026-08-30T16:08:56Z</time>
      </trkpt>
      <trkpt lat="48.851451" lon="10.128204">
        <ele>514.4</ele>
        <time>2026-08-30T16:08:57Z</time>
      </trkpt>
      <trkpt lat="48.851440" lon="10.128216">
        <ele>514.6</ele>
        <time>2026-08-30T16:08:58Z</time>
      </trkpt>
      <trkpt lat="48.851429" lon="10.128231">
        <ele>514.8</ele>
        <time>2026-08-30T16:08:59Z</time>
      </trkpt>
      <trkpt lat="48.851422" lon="10.128251">
        <ele>515</ele>
        <time>2026-08-30T16:09:00Z</time>
      </trkpt>
      <trkpt lat="48.851414" lon="10.128270">
        <ele>515.2</ele>
        <time>2026-08-30T16:09:01Z</time>
      </trkpt>
      <trkpt lat="48.851409" lon="10.128285">
        <ele>515.4</ele>
        <time>2026-08-30T16:09:02Z</time>
      </trkpt>
      <trkpt lat="48.851403" lon="10.128299">
        <ele>515.6</ele>
        <time>2026-08-30T16:09:03Z</time>
      </trkpt>
      <trkpt lat="48.851394" lon="10.128310">
        <ele>515.8</ele>
        <time>2026-08-30T16:09:04Z</time>
      </trkpt>
      <trkpt lat="48.851382" lon="10.128318">
        <ele>516</ele>
        <time>2026-08-30T16:09:05Z</time>
      </trkpt>
      <trkpt lat="48.851370" lon="10.128326">
        <ele>516.2</ele>
        <time>2026-08-30T16:09:06Z</time>
      </trkpt>
      <trkpt lat="48.851359" lon="10.128336">
        <ele>516.4</ele>
        <time>2026-08-30T16:09:07Z</time>
      </trkpt>
      <trkpt lat="48.851351" lon="10.128346">
        <ele>516.6</ele>
        <time>2026-08-30T16:09:08Z</time>
      </trkpt>
      <trkpt lat="48.851345" lon="10.128362">
        <ele>516.8</ele>
        <time>2026-08-30T16:09:09Z</time>
      </trkpt>
      <trkpt lat="48.851339" lon="10.128376">
        <ele>517</ele>
        <time>2026-08-30T16:09:10Z</time>
      </trkpt>
      <trkpt lat="48.851330" lon="10.128389">
        <ele>517.2</ele>
        <time>2026-08-30T16:09:11Z</time>
      </trkpt>
      <trkpt lat="48.851321" lon="10.128403">
        <ele>517.4</ele>
        <time>2026-08-30T16:09:12Z</time>
      </trkpt>
      <trkpt lat="48.851316" lon="10.128419">
        <ele>517.6</ele>
        <time>2026-08-30T16:09:13Z</time>
      </trkpt>
      <trkpt lat="48.851309" lon="10.128439">
        <ele>517.8</ele>
        <time>2026-08-30T16:09:14Z</time>
      </trkpt>
      <trkpt lat="48.851305" lon="10.128456">
        <ele>518</ele>
        <time>2026-08-30T16:09:15Z</time>
      </trkpt>
      <trkpt lat="48.851299" lon="10.128469">
        <ele>518.2</ele>
        <time>2026-08-30T16:09:16Z</time>
      </trkpt>
      <trkpt lat="48.851287" lon="10.128479">
        <ele>518.6</ele>
        <time>2026-08-30T16:09:17Z</time>
      </trkpt>
      <trkpt lat="48.851276" lon="10.128491">
        <ele>518.8</ele>
        <time>2026-08-30T16:09:18Z</time>
      </trkpt>
      <trkpt lat="48.851264" lon="10.128506">
        <ele>519</ele>
        <time>2026-08-30T16:09:19Z</time>
      </trkpt>
      <trkpt lat="48.851253" lon="10.128520">
        <ele>519.2</ele>
        <time>2026-08-30T16:09:20Z</time>
      </trkpt>
      <trkpt lat="48.851248" lon="10.128532">
        <ele>519.4</ele>
        <time>2026-08-30T16:09:21Z</time>
      </trkpt>
      <trkpt lat="48.851240" lon="10.128546">
        <ele>519.6</ele>
        <time>2026-08-30T16:09:22Z</time>
      </trkpt>
      <trkpt lat="48.851231" lon="10.128556">
        <ele>519.8</ele>
        <time>2026-08-30T16:09:23Z</time>
      </trkpt>
      <trkpt lat="48.851226" lon="10.128564">
        <ele>520</ele>
        <time>2026-08-30T16:09:24Z</time>
      </trkpt>
      <trkpt lat="48.851222" lon="10.128578">
        <ele>520.2</ele>
        <time>2026-08-30T16:09:25Z</time>
      </trkpt>
      <trkpt lat="48.851215" lon="10.128593">
        <ele>520.4</ele>
        <time>2026-08-30T16:09:26Z</time>
      </trkpt>
      <trkpt lat="48.851209" lon="10.128606">
        <ele>520.8</ele>
        <time>2026-08-30T16:09:27Z</time>
      </trkpt>
      <trkpt lat="48.851205" lon="10.128615">
        <ele>521</ele>
        <time>2026-08-30T16:09:28Z</time>
      </trkpt>
      <trkpt lat="48.851197" lon="10.128628">
        <ele>521.2</ele>
        <time>2026-08-30T16:09:29Z</time>
      </trkpt>
      <trkpt lat="48.851190" lon="10.128634">
        <ele>521.6</ele>
        <time>2026-08-30T16:09:30Z</time>
      </trkpt>
      <trkpt lat="48.851179" lon="10.128635">
        <ele>521.8</ele>
        <time>2026-08-30T16:09:31Z</time>
      </trkpt>
      <trkpt lat="48.851166" lon="10.128634">
        <ele>522</ele>
        <time>2026-08-30T16:09:32Z</time>
      </trkpt>
      <trkpt lat="48.851155" lon="10.128641">
        <ele>522.4</ele>
        <time>2026-08-30T16:09:33Z</time>
      </trkpt>
      <trkpt lat="48.851147" lon="10.128653">
        <ele>522.6</ele>
        <time>2026-08-30T16:09:34Z</time>
      </trkpt>
      <trkpt lat="48.851143" lon="10.128672">
        <ele>522.8</ele>
        <time>2026-08-30T16:09:35Z</time>
      </trkpt>
      <trkpt lat="48.851139" lon="10.128687">
        <ele>523</ele>
        <time>2026-08-30T16:09:36Z</time>
      </trkpt>
      <trkpt lat="48.851137" lon="10.128706">
        <ele>523.2</ele>
        <time>2026-08-30T16:09:37Z</time>
      </trkpt>
      <trkpt lat="48.851133" lon="10.128722">
        <ele>523.6</ele>
        <time>2026-08-30T16:09:38Z</time>
      </trkpt>
      <trkpt lat="48.851126" lon="10.128733">
        <ele>523.8</ele>
        <time>2026-08-30T16:09:39Z</time>
      </trkpt>
      <trkpt lat="48.851120" lon="10.128740">
        <ele>524</ele>
        <time>2026-08-30T16:09:40Z</time>
      </trkpt>
      <trkpt lat="48.851109" lon="10.128745">
        <ele>524.2</ele>
        <time>2026-08-30T16:09:41Z</time>
      </trkpt>
      <trkpt lat="48.851097" lon="10.128753">
        <ele>524.4</ele>
        <time>2026-08-30T16:09:42Z</time>
      </trkpt>
      <trkpt lat="48.851086" lon="10.128764">
        <ele>524.6</ele>
        <time>2026-08-30T16:09:43Z</time>
      </trkpt>
      <trkpt lat="48.851078" lon="10.128778">
        <ele>525</ele>
        <time>2026-08-30T16:09:44Z</time>
      </trkpt>
      <trkpt lat="48.851070" lon="10.128791">
        <ele>525.2</ele>
        <time>2026-08-30T16:09:45Z</time>
      </trkpt>
      <trkpt lat="48.851062" lon="10.128806">
        <ele>525.4</ele>
        <time>2026-08-30T16:09:46Z</time>
      </trkpt>
      <trkpt lat="48.851056" lon="10.128823">
        <ele>525.6</ele>
        <time>2026-08-30T16:09:47Z</time>
      </trkpt>
      <trkpt lat="48.851047" lon="10.128834">
        <ele>525.6</ele>
        <time>2026-08-30T16:09:48Z</time>
      </trkpt>
      <trkpt lat="48.851038" lon="10.128840">
        <ele>525.8</ele>
        <time>2026-08-30T16:09:49Z</time>
      </trkpt>
      <trkpt lat="48.851029" lon="10.128848">
        <ele>526</ele>
        <time>2026-08-30T16:09:50Z</time>
      </trkpt>
      <trkpt lat="48.851019" lon="10.128856">
        <ele>526.2</ele>
        <time>2026-08-30T16:09:51Z</time>
      </trkpt>
      <trkpt lat="48.851010" lon="10.128863">
        <ele>526.4</ele>
        <time>2026-08-30T16:09:52Z</time>
      </trkpt>
      <trkpt lat="48.851001" lon="10.128867">
        <ele>526.4</ele>
        <time>2026-08-30T16:09:53Z</time>
      </trkpt>
      <trkpt lat="48.850990" lon="10.128868">
        <ele>526.6</ele>
        <time>2026-08-30T16:09:54Z</time>
      </trkpt>
      <trkpt lat="48.850977" lon="10.128866">
        <ele>526.8</ele>
        <time>2026-08-30T16:09:55Z</time>
      </trkpt>
      <trkpt lat="48.850961" lon="10.128868">
        <ele>527</ele>
        <time>2026-08-30T16:09:56Z</time>
      </trkpt>
      <trkpt lat="48.850948" lon="10.128876">
        <ele>527.2</ele>
        <time>2026-08-30T16:09:57Z</time>
      </trkpt>
      <trkpt lat="48.850940" lon="10.128893">
        <ele>527.4</ele>
        <time>2026-08-30T16:09:58Z</time>
      </trkpt>
      <trkpt lat="48.850931" lon="10.128907">
        <ele>527.6</ele>
        <time>2026-08-30T16:09:59Z</time>
      </trkpt>
      <trkpt lat="48.850920" lon="10.128920">
        <ele>527.6</ele>
        <time>2026-08-30T16:10:00Z</time>
      </trkpt>
      <trkpt lat="48.850909" lon="10.128929">
        <ele>527.8</ele>
        <time>2026-08-30T16:10:01Z</time>
      </trkpt>
      <trkpt lat="48.850897" lon="10.128936">
        <ele>528</ele>
        <time>2026-08-30T16:10:02Z</time>
      </trkpt>
      <trkpt lat="48.850887" lon="10.128939">
        <ele>528.2</ele>
        <time>2026-08-30T16:10:03Z</time>
      </trkpt>
      <trkpt lat="48.850877" lon="10.128938">
        <ele>528.4</ele>
        <time>2026-08-30T16:10:04Z</time>
      </trkpt>
      <trkpt lat="48.850864" lon="10.128936">
        <ele>528.6</ele>
        <time>2026-08-30T16:10:05Z</time>
      </trkpt>
      <trkpt lat="48.850850" lon="10.128940">
        <ele>528.6</ele>
        <time>2026-08-30T16:10:06Z</time>
      </trkpt>
      <trkpt lat="48.850839" lon="10.128944">
        <ele>528.8</ele>
        <time>2026-08-30T16:10:07Z</time>
      </trkpt>
      <trkpt lat="48.850830" lon="10.128952">
        <ele>529</ele>
        <time>2026-08-30T16:10:08Z</time>
      </trkpt>
      <trkpt lat="48.850821" lon="10.128969">
        <ele>529.2</ele>
        <time>2026-08-30T16:10:09Z</time>
      </trkpt>
      <trkpt lat="48.850812" lon="10.128981">
        <ele>529.4</ele>
        <time>2026-08-30T16:10:10Z</time>
      </trkpt>
      <trkpt lat="48.850803" lon="10.128994">
        <ele>529.6</ele>
        <time>2026-08-30T16:10:11Z</time>
      </trkpt>
      <trkpt lat="48.850793" lon="10.128999">
        <ele>529.6</ele>
        <time>2026-08-30T16:10:12Z</time>
      </trkpt>
      <trkpt lat="48.850783" lon="10.129006">
        <ele>529.8</ele>
        <time>2026-08-30T16:10:13Z</time>
      </trkpt>
      <trkpt lat="48.850771" lon="10.129006">
        <ele>530.2</ele>
        <time>2026-08-30T16:10:14Z</time>
      </trkpt>
      <trkpt lat="48.850758" lon="10.129002">
        <ele>530.4</ele>
        <time>2026-08-30T16:10:15Z</time>
      </trkpt>
      <trkpt lat="48.850747" lon="10.129003">
        <ele>530.6</ele>
        <time>2026-08-30T16:10:16Z</time>
      </trkpt>
      <trkpt lat="48.850736" lon="10.129003">
        <ele>530.8</ele>
        <time>2026-08-30T16:10:17Z</time>
      </trkpt>
      <trkpt lat="48.850721" lon="10.129007">
        <ele>531</ele>
        <time>2026-08-30T16:10:18Z</time>
      </trkpt>
      <trkpt lat="48.850708" lon="10.129012">
        <ele>531.2</ele>
        <time>2026-08-30T16:10:19Z</time>
      </trkpt>
      <trkpt lat="48.850698" lon="10.129020">
        <ele>531.4</ele>
        <time>2026-08-30T16:10:20Z</time>
      </trkpt>
      <trkpt lat="48.850685" lon="10.129025">
        <ele>531.4</ele>
        <time>2026-08-30T16:10:21Z</time>
      </trkpt>
      <trkpt lat="48.850674" lon="10.129029">
        <ele>531.6</ele>
        <time>2026-08-30T16:10:22Z</time>
      </trkpt>
      <trkpt lat="48.850660" lon="10.129032">
        <ele>531.8</ele>
        <time>2026-08-30T16:10:23Z</time>
      </trkpt>
      <trkpt lat="48.850646" lon="10.129032">
        <ele>532</ele>
        <time>2026-08-30T16:10:24Z</time>
      </trkpt>
      <trkpt lat="48.850630" lon="10.129034">
        <ele>532</ele>
        <time>2026-08-30T16:10:25Z</time>
      </trkpt>
      <trkpt lat="48.850616" lon="10.129038">
        <ele>532.2</ele>
        <time>2026-08-30T16:10:26Z</time>
      </trkpt>
      <trkpt lat="48.850606" lon="10.129046">
        <ele>532.4</ele>
        <time>2026-08-30T16:10:27Z</time>
      </trkpt>
      <trkpt lat="48.850596" lon="10.129058">
        <ele>532.6</ele>
        <time>2026-08-30T16:10:28Z</time>
      </trkpt>
      <trkpt lat="48.850588" lon="10.129070">
        <ele>532.8</ele>
        <time>2026-08-30T16:10:29Z</time>
      </trkpt>
      <trkpt lat="48.850580" lon="10.129074">
        <ele>533</ele>
        <time>2026-08-30T16:10:30Z</time>
      </trkpt>
      <trkpt lat="48.850572" lon="10.129074">
        <ele>533.2</ele>
        <time>2026-08-30T16:10:31Z</time>
      </trkpt>
      <trkpt lat="48.850560" lon="10.129076">
        <ele>533.4</ele>
        <time>2026-08-30T16:10:32Z</time>
      </trkpt>
      <trkpt lat="48.850547" lon="10.129075">
        <ele>533.6</ele>
        <time>2026-08-30T16:10:33Z</time>
      </trkpt>
      <trkpt lat="48.850534" lon="10.129070">
        <ele>533.8</ele>
        <time>2026-08-30T16:10:34Z</time>
      </trkpt>
      <trkpt lat="48.850520" lon="10.129067">
        <ele>534</ele>
        <time>2026-08-30T16:10:35Z</time>
      </trkpt>
      <trkpt lat="48.850506" lon="10.129065">
        <ele>534.2</ele>
        <time>2026-08-30T16:10:36Z</time>
      </trkpt>
      <trkpt lat="48.850493" lon="10.129062">
        <ele>534.4</ele>
        <time>2026-08-30T16:10:37Z</time>
      </trkpt>
      <trkpt lat="48.850492" lon="10.129066">
        <ele>534.6</ele>
        <time>2026-08-30T16:10:38Z</time>
      </trkpt>
      <trkpt lat="48.850490" lon="10.129067">
        <ele>534.8</ele>
        <time>2026-08-30T16:10:39Z</time>
      </trkpt>
      <trkpt lat="48.850490" lon="10.129067">
        <ele>535</ele>
        <time>2026-08-30T16:10:40Z</time>
      </trkpt>
      <trkpt lat="48.850490" lon="10.129067">
        <ele>535.2</ele>
        <time>2026-08-30T16:10:41Z</time>
      </trkpt>
      <trkpt lat="48.850490" lon="10.129067">
        <ele>535.2</ele>
        <time>2026-08-30T16:10:42Z</time>
      </trkpt>
      <trkpt lat="48.850490" lon="10.129067">
        <ele>535.4</ele>
        <time>2026-08-30T16:10:43Z</time>
      </trkpt>
      <trkpt lat="48.850490" lon="10.129067">
        <ele>535.4</ele>
        <time>2026-08-30T16:10:44Z</time>
      </trkpt>
      <trkpt lat="48.850490" lon="10.129067">
        <ele>535.6</ele>
        <time>2026-08-30T16:10:45Z</time>
      </trkpt>
      <trkpt lat="48.850490" lon="10.129067">
        <ele>535.6</ele>
        <time>2026-08-30T16:10:46Z</time>
      </trkpt>
      <trkpt lat="48.850490" lon="10.129067">
        <ele>535.6</ele>
        <time>2026-08-30T16:10:47Z</time>
      </trkpt>
      <trkpt lat="48.850490" lon="10.129067">
        <ele>535.6</ele>
        <time>2026-08-30T16:10:48Z</time>
      </trkpt>
      <trkpt lat="48.850490" lon="10.129067">
        <ele>535.6</ele>
        <time>2026-08-30T16:10:49Z</time>
      </trkpt>
      <trkpt lat="48.850490" lon="10.129067">
        <ele>535.6</ele>
        <time>2026-08-30T16:10:50Z</time>
      </trkpt>
      <trkpt lat="48.850490" lon="10.129067">
        <ele>535.8</ele>
        <time>2026-08-30T16:10:51Z</time>
      </trkpt>
      <trkpt lat="48.850490" lon="10.129067">
        <ele>535.8</ele>
        <time>2026-08-30T16:10:52Z</time>
      </trkpt>
      <trkpt lat="48.850490" lon="10.129067">
        <ele>535.8</ele>
        <time>2026-08-30T16:10:53Z</time>
      </trkpt>
      <trkpt lat="48.850490" lon="10.129067">
        <ele>535.8</ele>
        <time>2026-08-30T16:10:54Z</time>
      </trkpt>
      <trkpt lat="48.850490" lon="10.129067">
        <ele>535.8</ele>
        <time>2026-08-30T16:10:55Z</time>
      </trkpt>
      <trkpt lat="48.850490" lon="10.129067">
        <ele>535.8</ele>
        <time>2026-08-30T16:10:56Z</time>
      </trkpt>
      <trkpt lat="48.850490" lon="10.129067">
        <ele>535.8</ele>
        <time>2026-08-30T16:10:57Z</time>
      </trkpt>
      <trkpt lat="48.850490" lon="10.129067">
        <ele>535.8</ele>
        <time>2026-08-30T16:10:58Z</time>
      </trkpt>
      <trkpt lat="48.850490" lon="10.129067">
        <ele>535.8</ele>
        <time>2026-08-30T16:10:59Z</time>
      </trkpt>
      <trkpt lat="48.850490" lon="10.129067">
        <ele>535.8</ele>
        <time>2026-08-30T16:11:00Z</time>
      </trkpt>
      <trkpt lat="48.850490" lon="10.129067">
        <ele>535.8</ele>
        <time>2026-08-30T16:11:01Z</time>
      </trkpt>
      <trkpt lat="48.850490" lon="10.129067">
        <ele>535.8</ele>
        <time>2026-08-30T16:11:02Z</time>
      </trkpt>
      <trkpt lat="48.850490" lon="10.129067">
        <ele>535.8</ele>
        <time>2026-08-30T16:11:03Z</time>
      </trkpt>
      <trkpt lat="48.850490" lon="10.129067">
        <ele>535.8</ele>
        <time>2026-08-30T16:11:04Z</time>
      </trkpt>
      <trkpt lat="48.850490" lon="10.129067">
        <ele>535.8</ele>
        <time>2026-08-30T16:11:05Z</time>
      </trkpt>
      <trkpt lat="48.850490" lon="10.129067">
        <ele>535.8</ele>
        <time>2026-08-30T16:11:06Z</time>
      </trkpt>
      <trkpt lat="48.850490" lon="10.129067">
        <ele>535.8</ele>
        <time>2026-08-30T16:11:07Z</time>
      </trkpt>
      <trkpt lat="48.850490" lon="10.129067">
        <ele>535.8</ele>
        <time>2026-08-30T16:11:08Z</time>
      </trkpt>
      <trkpt lat="48.850490" lon="10.129067">
        <ele>535.8</ele>
        <time>2026-08-30T16:11:09Z</time>
      </trkpt>
      <trkpt lat="48.850490" lon="10.129067">
        <ele>535.8</ele>
        <time>2026-08-30T16:11:10Z</time>
      </trkpt>
      <trkpt lat="48.850490" lon="10.129067">
        <ele>535.8</ele>
        <time>2026-08-30T16:11:11Z</time>
      </trkpt>
      <trkpt lat="48.850490" lon="10.129067">
        <ele>535.8</ele>
        <time>2026-08-30T16:11:12Z</time>
      </trkpt>
      <trkpt lat="48.850490" lon="10.129067">
        <ele>535.8</ele>
        <time>2026-08-30T16:11:13Z</time>
      </trkpt>
      <trkpt lat="48.850490" lon="10.129067">
        <ele>535.8</ele>
        <time>2026-08-30T16:11:14Z</time>
      </trkpt>
      <trkpt lat="48.850490" lon="10.129067">
        <ele>535.8</ele>
        <time>2026-08-30T16:11:15Z</time>
      </trkpt>
      <trkpt lat="48.850490" lon="10.129067">
        <ele>535.8</ele>
        <time>2026-08-30T16:11:16Z</time>
      </trkpt>
      <trkpt lat="48.850490" lon="10.129067">
        <ele>535.8</ele>
        <time>2026-08-30T16:11:17Z</time>
      </trkpt>
      <trkpt lat="48.850490" lon="10.129067">
        <ele>535.8</ele>
        <time>2026-08-30T16:11:18Z</time>
      </trkpt>
      <trkpt lat="48.850488" lon="10.129067">
        <ele>535.8</ele>
        <time>2026-08-30T16:11:19Z</time>
      </trkpt>
      <trkpt lat="48.850473" lon="10.129071">
        <ele>535.8</ele>
        <time>2026-08-30T16:11:20Z</time>
      </trkpt>
      <trkpt lat="48.850462" lon="10.129080">
        <ele>535.8</ele>
        <time>2026-08-30T16:11:21Z</time>
      </trkpt>
      <trkpt lat="48.850446" lon="10.129089">
        <ele>535.8</ele>
        <time>2026-08-30T16:11:22Z</time>
      </trkpt>
      <trkpt lat="48.850432" lon="10.129095">
        <ele>536</ele>
        <time>2026-08-30T16:11:23Z</time>
      </trkpt>
      <trkpt lat="48.850416" lon="10.129102">
        <ele>536</ele>
        <time>2026-08-30T16:11:24Z</time>
      </trkpt>
      <trkpt lat="48.850399" lon="10.129098">
        <ele>536</ele>
        <time>2026-08-30T16:11:25Z</time>
      </trkpt>
      <trkpt lat="48.850377" lon="10.129099">
        <ele>536.2</ele>
        <time>2026-08-30T16:11:26Z</time>
      </trkpt>
      <trkpt lat="48.850356" lon="10.129100">
        <ele>536.4</ele>
        <time>2026-08-30T16:11:27Z</time>
      </trkpt>
      <trkpt lat="48.850334" lon="10.129101">
        <ele>536.4</ele>
        <time>2026-08-30T16:11:28Z</time>
      </trkpt>
      <trkpt lat="48.850316" lon="10.129106">
        <ele>536.6</ele>
        <time>2026-08-30T16:11:29Z</time>
      </trkpt>
      <trkpt lat="48.850295" lon="10.129111">
        <ele>536.8</ele>
        <time>2026-08-30T16:11:30Z</time>
      </trkpt>
      <trkpt lat="48.850279" lon="10.129117">
        <ele>537</ele>
        <time>2026-08-30T16:11:31Z</time>
      </trkpt>
      <trkpt lat="48.850262" lon="10.129123">
        <ele>537</ele>
        <time>2026-08-30T16:11:32Z</time>
      </trkpt>
      <trkpt lat="48.850243" lon="10.129120">
        <ele>537.2</ele>
        <time>2026-08-30T16:11:33Z</time>
      </trkpt>
      <trkpt lat="48.850219" lon="10.129117">
        <ele>537.4</ele>
        <time>2026-08-30T16:11:34Z</time>
      </trkpt>
      <trkpt lat="48.850194" lon="10.129118">
        <ele>537.6</ele>
        <time>2026-08-30T16:11:35Z</time>
      </trkpt>
      <trkpt lat="48.850169" lon="10.129123">
        <ele>537.8</ele>
        <time>2026-08-30T16:11:36Z</time>
      </trkpt>
      <trkpt lat="48.850146" lon="10.129129">
        <ele>538</ele>
        <time>2026-08-30T16:11:37Z</time>
      </trkpt>
      <trkpt lat="48.850124" lon="10.129141">
        <ele>538</ele>
        <time>2026-08-30T16:11:38Z</time>
      </trkpt>
      <trkpt lat="48.850104" lon="10.129155">
        <ele>538.2</ele>
        <time>2026-08-30T16:11:39Z</time>
      </trkpt>
      <trkpt lat="48.850082" lon="10.129166">
        <ele>538.4</ele>
        <time>2026-08-30T16:11:40Z</time>
      </trkpt>
      <trkpt lat="48.850056" lon="10.129175">
        <ele>538.6</ele>
        <time>2026-08-30T16:11:41Z</time>
      </trkpt>
      <trkpt lat="48.850030" lon="10.129181">
        <ele>538.8</ele>
        <time>2026-08-30T16:11:42Z</time>
      </trkpt>
      <trkpt lat="48.850006" lon="10.129184">
        <ele>539</ele>
        <time>2026-08-30T16:11:43Z</time>
      </trkpt>
      <trkpt lat="48.849980" lon="10.129184">
        <ele>539</ele>
        <time>2026-08-30T16:11:44Z</time>
      </trkpt>
      <trkpt lat="48.849953" lon="10.129190">
        <ele>539.2</ele>
        <time>2026-08-30T16:11:45Z</time>
      </trkpt>
      <trkpt lat="48.849930" lon="10.129192">
        <ele>539.4</ele>
        <time>2026-08-30T16:11:46Z</time>
      </trkpt>
      <trkpt lat="48.849909" lon="10.129202">
        <ele>539.6</ele>
        <time>2026-08-30T16:11:47Z</time>
      </trkpt>
      <trkpt lat="48.849892" lon="10.129209">
        <ele>539.8</ele>
        <time>2026-08-30T16:11:48Z</time>
      </trkpt>
      <trkpt lat="48.849873" lon="10.129215">
        <ele>540</ele>
        <time>2026-08-30T16:11:49Z</time>
      </trkpt>
      <trkpt lat="48.849856" lon="10.129227">
        <ele>540.2</ele>
        <time>2026-08-30T16:11:50Z</time>
      </trkpt>
      <trkpt lat="48.849840" lon="10.129243">
        <ele>540.4</ele>
        <time>2026-08-30T16:11:51Z</time>
      </trkpt>
      <trkpt lat="48.849828" lon="10.129256">
        <ele>540.8</ele>
        <time>2026-08-30T16:11:52Z</time>
      </trkpt>
      <trkpt lat="48.849815" lon="10.129269">
        <ele>541</ele>
        <time>2026-08-30T16:11:53Z</time>
      </trkpt>
      <trkpt lat="48.849801" lon="10.129279">
        <ele>541.2</ele>
        <time>2026-08-30T16:11:54Z</time>
      </trkpt>
      <trkpt lat="48.849788" lon="10.129289">
        <ele>541.4</ele>
        <time>2026-08-30T16:11:55Z</time>
      </trkpt>
      <trkpt lat="48.849773" lon="10.129299">
        <ele>541.6</ele>
        <time>2026-08-30T16:11:56Z</time>
      </trkpt>
      <trkpt lat="48.849756" lon="10.129311">
        <ele>541.8</ele>
        <time>2026-08-30T16:11:57Z</time>
      </trkpt>
      <trkpt lat="48.849742" lon="10.129315">
        <ele>542</ele>
        <time>2026-08-30T16:11:58Z</time>
      </trkpt>
      <trkpt lat="48.849726" lon="10.129318">
        <ele>542.2</ele>
        <time>2026-08-30T16:11:59Z</time>
      </trkpt>
      <trkpt lat="48.849711" lon="10.129320">
        <ele>542.4</ele>
        <time>2026-08-30T16:12:00Z</time>
      </trkpt>
      <trkpt lat="48.849697" lon="10.129315">
        <ele>542.8</ele>
        <time>2026-08-30T16:12:01Z</time>
      </trkpt>
      <trkpt lat="48.849681" lon="10.129316">
        <ele>543</ele>
        <time>2026-08-30T16:12:02Z</time>
      </trkpt>
      <trkpt lat="48.849663" lon="10.129318">
        <ele>543.2</ele>
        <time>2026-08-30T16:12:03Z</time>
      </trkpt>
      <trkpt lat="48.849644" lon="10.129331">
        <ele>543.2</ele>
        <time>2026-08-30T16:12:04Z</time>
      </trkpt>
      <trkpt lat="48.849625" lon="10.129342">
        <ele>543.4</ele>
        <time>2026-08-30T16:12:05Z</time>
      </trkpt>
      <trkpt lat="48.849608" lon="10.129356">
        <ele>543.6</ele>
        <time>2026-08-30T16:12:06Z</time>
      </trkpt>
      <trkpt lat="48.849592" lon="10.129359">
        <ele>543.8</ele>
        <time>2026-08-30T16:12:07Z</time>
      </trkpt>
      <trkpt lat="48.849578" lon="10.129363">
        <ele>544</ele>
        <time>2026-08-30T16:12:08Z</time>
      </trkpt>
      <trkpt lat="48.849562" lon="10.129364">
        <ele>544.2</ele>
        <time>2026-08-30T16:12:09Z</time>
      </trkpt>
      <trkpt lat="48.849545" lon="10.129368">
        <ele>544.4</ele>
        <time>2026-08-30T16:12:10Z</time>
      </trkpt>
      <trkpt lat="48.849528" lon="10.129370">
        <ele>544.6</ele>
        <time>2026-08-30T16:12:11Z</time>
      </trkpt>
      <trkpt lat="48.849514" lon="10.129370">
        <ele>544.8</ele>
        <time>2026-08-30T16:12:12Z</time>
      </trkpt>
      <trkpt lat="48.849497" lon="10.129373">
        <ele>545</ele>
        <time>2026-08-30T16:12:13Z</time>
      </trkpt>
      <trkpt lat="48.849482" lon="10.129374">
        <ele>545.2</ele>
        <time>2026-08-30T16:12:14Z</time>
      </trkpt>
      <trkpt lat="48.849466" lon="10.129378">
        <ele>545.4</ele>
        <time>2026-08-30T16:12:15Z</time>
      </trkpt>
      <trkpt lat="48.849450" lon="10.129379">
        <ele>545.4</ele>
        <time>2026-08-30T16:12:16Z</time>
      </trkpt>
      <trkpt lat="48.849431" lon="10.129377">
        <ele>545.6</ele>
        <time>2026-08-30T16:12:17Z</time>
      </trkpt>
      <trkpt lat="48.849413" lon="10.129377">
        <ele>545.8</ele>
        <time>2026-08-30T16:12:18Z</time>
      </trkpt>
      <trkpt lat="48.849397" lon="10.129377">
        <ele>546</ele>
        <time>2026-08-30T16:12:19Z</time>
      </trkpt>
      <trkpt lat="48.849380" lon="10.129375">
        <ele>546.2</ele>
        <time>2026-08-30T16:12:20Z</time>
      </trkpt>
      <trkpt lat="48.849365" lon="10.129375">
        <ele>546.4</ele>
        <time>2026-08-30T16:12:21Z</time>
      </trkpt>
      <trkpt lat="48.849347" lon="10.129385">
        <ele>546.6</ele>
        <time>2026-08-30T16:12:22Z</time>
      </trkpt>
      <trkpt lat="48.849331" lon="10.129391">
        <ele>546.8</ele>
        <time>2026-08-30T16:12:23Z</time>
      </trkpt>
      <trkpt lat="48.849315" lon="10.129393">
        <ele>546.8</ele>
        <time>2026-08-30T16:12:24Z</time>
      </trkpt>
      <trkpt lat="48.849297" lon="10.129395">
        <ele>547</ele>
        <time>2026-08-30T16:12:25Z</time>
      </trkpt>
      <trkpt lat="48.849276" lon="10.129398">
        <ele>547.2</ele>
        <time>2026-08-30T16:12:26Z</time>
      </trkpt>
      <trkpt lat="48.849255" lon="10.129398">
        <ele>547.4</ele>
        <time>2026-08-30T16:12:27Z</time>
      </trkpt>
      <trkpt lat="48.849235" lon="10.129403">
        <ele>547.4</ele>
        <time>2026-08-30T16:12:28Z</time>
      </trkpt>
      <trkpt lat="48.849218" lon="10.129404">
        <ele>547.6</ele>
        <time>2026-08-30T16:12:29Z</time>
      </trkpt>
      <trkpt lat="48.849197" lon="10.129411">
        <ele>547.8</ele>
        <time>2026-08-30T16:12:30Z</time>
      </trkpt>
      <trkpt lat="48.849178" lon="10.129414">
        <ele>547.8</ele>
        <time>2026-08-30T16:12:31Z</time>
      </trkpt>
      <trkpt lat="48.849157" lon="10.129417">
        <ele>548</ele>
        <time>2026-08-30T16:12:32Z</time>
      </trkpt>
      <trkpt lat="48.849137" lon="10.129418">
        <ele>548.2</ele>
        <time>2026-08-30T16:12:33Z</time>
      </trkpt>
      <trkpt lat="48.849116" lon="10.129421">
        <ele>548.2</ele>
        <time>2026-08-30T16:12:34Z</time>
      </trkpt>
      <trkpt lat="48.849097" lon="10.129424">
        <ele>548.4</ele>
        <time>2026-08-30T16:12:35Z</time>
      </trkpt>
      <trkpt lat="48.849079" lon="10.129424">
        <ele>548.4</ele>
        <time>2026-08-30T16:12:36Z</time>
      </trkpt>
      <trkpt lat="48.849059" lon="10.129424">
        <ele>548.6</ele>
        <time>2026-08-30T16:12:37Z</time>
      </trkpt>
      <trkpt lat="48.849040" lon="10.129427">
        <ele>548.8</ele>
        <time>2026-08-30T16:12:38Z</time>
      </trkpt>
      <trkpt lat="48.849020" lon="10.129433">
        <ele>549</ele>
        <time>2026-08-30T16:12:39Z</time>
      </trkpt>
      <trkpt lat="48.849004" lon="10.129435">
        <ele>549</ele>
        <time>2026-08-30T16:12:40Z</time>
      </trkpt>
      <trkpt lat="48.848987" lon="10.129440">
        <ele>549.2</ele>
        <time>2026-08-30T16:12:41Z</time>
      </trkpt>
      <trkpt lat="48.848969" lon="10.129444">
        <ele>549.4</ele>
        <time>2026-08-30T16:12:42Z</time>
      </trkpt>
      <trkpt lat="48.848949" lon="10.129449">
        <ele>549.4</ele>
        <time>2026-08-30T16:12:43Z</time>
      </trkpt>
      <trkpt lat="48.848929" lon="10.129456">
        <ele>549.6</ele>
        <time>2026-08-30T16:12:44Z</time>
      </trkpt>
      <trkpt lat="48.848910" lon="10.129462">
        <ele>549.6</ele>
        <time>2026-08-30T16:12:45Z</time>
      </trkpt>
      <trkpt lat="48.848891" lon="10.129465">
        <ele>549.8</ele>
        <time>2026-08-30T16:12:46Z</time>
      </trkpt>
      <trkpt lat="48.848871" lon="10.129469">
        <ele>550</ele>
        <time>2026-08-30T16:12:47Z</time>
      </trkpt>
      <trkpt lat="48.848855" lon="10.129474">
        <ele>550</ele>
        <time>2026-08-30T16:12:48Z</time>
      </trkpt>
      <trkpt lat="48.848836" lon="10.129477">
        <ele>550.2</ele>
        <time>2026-08-30T16:12:49Z</time>
      </trkpt>
      <trkpt lat="48.848815" lon="10.129481">
        <ele>550.4</ele>
        <time>2026-08-30T16:12:50Z</time>
      </trkpt>
      <trkpt lat="48.848798" lon="10.129486">
        <ele>550.6</ele>
        <time>2026-08-30T16:12:51Z</time>
      </trkpt>
      <trkpt lat="48.848781" lon="10.129489">
        <ele>550.6</ele>
        <time>2026-08-30T16:12:52Z</time>
      </trkpt>
      <trkpt lat="48.848761" lon="10.129494">
        <ele>550.8</ele>
        <time>2026-08-30T16:12:53Z</time>
      </trkpt>
      <trkpt lat="48.848743" lon="10.129500">
        <ele>551</ele>
        <time>2026-08-30T16:12:54Z</time>
      </trkpt>
      <trkpt lat="48.848725" lon="10.129503">
        <ele>551.2</ele>
        <time>2026-08-30T16:12:55Z</time>
      </trkpt>
      <trkpt lat="48.848708" lon="10.129510">
        <ele>551.2</ele>
        <time>2026-08-30T16:12:56Z</time>
      </trkpt>
      <trkpt lat="48.848689" lon="10.129515">
        <ele>551.4</ele>
        <time>2026-08-30T16:12:57Z</time>
      </trkpt>
      <trkpt lat="48.848672" lon="10.129518">
        <ele>551.6</ele>
        <time>2026-08-30T16:12:58Z</time>
      </trkpt>
      <trkpt lat="48.848656" lon="10.129522">
        <ele>551.8</ele>
        <time>2026-08-30T16:12:59Z</time>
      </trkpt>
      <trkpt lat="48.848636" lon="10.129526">
        <ele>551.8</ele>
        <time>2026-08-30T16:13:00Z</time>
      </trkpt>
      <trkpt lat="48.848618" lon="10.129533">
        <ele>552</ele>
        <time>2026-08-30T16:13:01Z</time>
      </trkpt>
      <trkpt lat="48.848601" lon="10.129538">
        <ele>552.2</ele>
        <time>2026-08-30T16:13:02Z</time>
      </trkpt>
      <trkpt lat="48.848584" lon="10.129543">
        <ele>552.4</ele>
        <time>2026-08-30T16:13:03Z</time>
      </trkpt>
      <trkpt lat="48.848568" lon="10.129549">
        <ele>552.4</ele>
        <time>2026-08-30T16:13:04Z</time>
      </trkpt>
      <trkpt lat="48.848550" lon="10.129555">
        <ele>552.6</ele>
        <time>2026-08-30T16:13:05Z</time>
      </trkpt>
      <trkpt lat="48.848535" lon="10.129556">
        <ele>552.8</ele>
        <time>2026-08-30T16:13:06Z</time>
      </trkpt>
      <trkpt lat="48.848519" lon="10.129560">
        <ele>553</ele>
        <time>2026-08-30T16:13:07Z</time>
      </trkpt>
      <trkpt lat="48.848502" lon="10.129567">
        <ele>553</ele>
        <time>2026-08-30T16:13:08Z</time>
      </trkpt>
      <trkpt lat="48.848486" lon="10.129572">
        <ele>553.2</ele>
        <time>2026-08-30T16:13:09Z</time>
      </trkpt>
      <trkpt lat="48.848472" lon="10.129575">
        <ele>553.4</ele>
        <time>2026-08-30T16:13:10Z</time>
      </trkpt>
      <trkpt lat="48.848459" lon="10.129577">
        <ele>553.6</ele>
        <time>2026-08-30T16:13:11Z</time>
      </trkpt>
      <trkpt lat="48.848442" lon="10.129578">
        <ele>553.8</ele>
        <time>2026-08-30T16:13:12Z</time>
      </trkpt>
      <trkpt lat="48.848425" lon="10.129577">
        <ele>554</ele>
        <time>2026-08-30T16:13:13Z</time>
      </trkpt>
      <trkpt lat="48.848410" lon="10.129573">
        <ele>554.2</ele>
        <time>2026-08-30T16:13:14Z</time>
      </trkpt>
      <trkpt lat="48.848391" lon="10.129574">
        <ele>554.2</ele>
        <time>2026-08-30T16:13:15Z</time>
      </trkpt>
      <trkpt lat="48.848373" lon="10.129573">
        <ele>554.4</ele>
        <time>2026-08-30T16:13:16Z</time>
      </trkpt>
      <trkpt lat="48.848356" lon="10.129570">
        <ele>554.6</ele>
        <time>2026-08-30T16:13:17Z</time>
      </trkpt>
      <trkpt lat="48.848337" lon="10.129572">
        <ele>554.8</ele>
        <time>2026-08-30T16:13:18Z</time>
      </trkpt>
      <trkpt lat="48.848318" lon="10.129569">
        <ele>555</ele>
        <time>2026-08-30T16:13:19Z</time>
      </trkpt>
      <trkpt lat="48.848297" lon="10.129563">
        <ele>555</ele>
        <time>2026-08-30T16:13:20Z</time>
      </trkpt>
      <trkpt lat="48.848278" lon="10.129553">
        <ele>555.2</ele>
        <time>2026-08-30T16:13:21Z</time>
      </trkpt>
      <trkpt lat="48.848257" lon="10.129542">
        <ele>555.4</ele>
        <time>2026-08-30T16:13:22Z</time>
      </trkpt>
      <trkpt lat="48.848232" lon="10.129534">
        <ele>555.4</ele>
        <time>2026-08-30T16:13:23Z</time>
      </trkpt>
      <trkpt lat="48.848209" lon="10.129522">
        <ele>555.6</ele>
        <time>2026-08-30T16:13:24Z</time>
      </trkpt>
      <trkpt lat="48.848185" lon="10.129515">
        <ele>555.6</ele>
        <time>2026-08-30T16:13:25Z</time>
      </trkpt>
      <trkpt lat="48.848162" lon="10.129507">
        <ele>555.8</ele>
        <time>2026-08-30T16:13:26Z</time>
      </trkpt>
      <trkpt lat="48.848138" lon="10.129495">
        <ele>555.8</ele>
        <time>2026-08-30T16:13:27Z</time>
      </trkpt>
      <trkpt lat="48.848113" lon="10.129481">
        <ele>556</ele>
        <time>2026-08-30T16:13:28Z</time>
      </trkpt>
      <trkpt lat="48.848084" lon="10.129465">
        <ele>556</ele>
        <time>2026-08-30T16:13:29Z</time>
      </trkpt>
      <trkpt lat="48.848057" lon="10.129450">
        <ele>556</ele>
        <time>2026-08-30T16:13:30Z</time>
      </trkpt>
      <trkpt lat="48.848027" lon="10.129434">
        <ele>556</ele>
        <time>2026-08-30T16:13:31Z</time>
      </trkpt>
      <trkpt lat="48.847995" lon="10.129418">
        <ele>556</ele>
        <time>2026-08-30T16:13:32Z</time>
      </trkpt>
      <trkpt lat="48.847965" lon="10.129403">
        <ele>556</ele>
        <time>2026-08-30T16:13:33Z</time>
      </trkpt>
      <trkpt lat="48.847932" lon="10.129388">
        <ele>556</ele>
        <time>2026-08-30T16:13:34Z</time>
      </trkpt>
      <trkpt lat="48.847901" lon="10.129375">
        <ele>556</ele>
        <time>2026-08-30T16:13:35Z</time>
      </trkpt>
      <trkpt lat="48.847870" lon="10.129360">
        <ele>556</ele>
        <time>2026-08-30T16:13:36Z</time>
      </trkpt>
      <trkpt lat="48.847834" lon="10.129344">
        <ele>556</ele>
        <time>2026-08-30T16:13:37Z</time>
      </trkpt>
      <trkpt lat="48.847797" lon="10.129328">
        <ele>555.8</ele>
        <time>2026-08-30T16:13:38Z</time>
      </trkpt>
      <trkpt lat="48.847760" lon="10.129314">
        <ele>555.8</ele>
        <time>2026-08-30T16:13:39Z</time>
      </trkpt>
      <trkpt lat="48.847723" lon="10.129297">
        <ele>555.8</ele>
        <time>2026-08-30T16:13:40Z</time>
      </trkpt>
      <trkpt lat="48.847688" lon="10.129282">
        <ele>555.8</ele>
        <time>2026-08-30T16:13:41Z</time>
      </trkpt>
      <trkpt lat="48.847651" lon="10.129268">
        <ele>555.8</ele>
        <time>2026-08-30T16:13:42Z</time>
      </trkpt>
      <trkpt lat="48.847616" lon="10.129253">
        <ele>555.6</ele>
        <time>2026-08-30T16:13:43Z</time>
      </trkpt>
      <trkpt lat="48.847578" lon="10.129233">
        <ele>555.6</ele>
        <time>2026-08-30T16:13:44Z</time>
      </trkpt>
      <trkpt lat="48.847538" lon="10.129216">
        <ele>555.6</ele>
        <time>2026-08-30T16:13:45Z</time>
      </trkpt>
      <trkpt lat="48.847499" lon="10.129205">
        <ele>555.6</ele>
        <time>2026-08-30T16:13:46Z</time>
      </trkpt>
      <trkpt lat="48.847460" lon="10.129195">
        <ele>555.6</ele>
        <time>2026-08-30T16:13:47Z</time>
      </trkpt>
      <trkpt lat="48.847424" lon="10.129186">
        <ele>555.6</ele>
        <time>2026-08-30T16:13:48Z</time>
      </trkpt>
      <trkpt lat="48.847387" lon="10.129175">
        <ele>555.6</ele>
        <time>2026-08-30T16:13:49Z</time>
      </trkpt>
      <trkpt lat="48.847352" lon="10.129165">
        <ele>555.6</ele>
        <time>2026-08-30T16:13:50Z</time>
      </trkpt>
      <trkpt lat="48.847315" lon="10.129157">
        <ele>555.6</ele>
        <time>2026-08-30T16:13:51Z</time>
      </trkpt>
      <trkpt lat="48.847280" lon="10.129150">
        <ele>555.6</ele>
        <time>2026-08-30T16:13:52Z</time>
      </trkpt>
      <trkpt lat="48.847244" lon="10.129147">
        <ele>555.6</ele>
        <time>2026-08-30T16:13:53Z</time>
      </trkpt>
      <trkpt lat="48.847208" lon="10.129140">
        <ele>555.6</ele>
        <time>2026-08-30T16:13:54Z</time>
      </trkpt>
      <trkpt lat="48.847172" lon="10.129130">
        <ele>555.6</ele>
        <time>2026-08-30T16:13:55Z</time>
      </trkpt>
      <trkpt lat="48.847135" lon="10.129121">
        <ele>555.8</ele>
        <time>2026-08-30T16:13:56Z</time>
      </trkpt>
      <trkpt lat="48.847100" lon="10.129109">
        <ele>555.8</ele>
        <time>2026-08-30T16:13:57Z</time>
      </trkpt>
      <trkpt lat="48.847067" lon="10.129102">
        <ele>555.8</ele>
        <time>2026-08-30T16:13:58Z</time>
      </trkpt>
      <trkpt lat="48.847033" lon="10.129100">
        <ele>556</ele>
        <time>2026-08-30T16:13:59Z</time>
      </trkpt>
      <trkpt lat="48.846997" lon="10.129101">
        <ele>556</ele>
        <time>2026-08-30T16:14:00Z</time>
      </trkpt>
      <trkpt lat="48.846962" lon="10.129103">
        <ele>556</ele>
        <time>2026-08-30T16:14:01Z</time>
      </trkpt>
      <trkpt lat="48.846928" lon="10.129105">
        <ele>556.2</ele>
        <time>2026-08-30T16:14:02Z</time>
      </trkpt>
      <trkpt lat="48.846896" lon="10.129101">
        <ele>556.2</ele>
        <time>2026-08-30T16:14:03Z</time>
      </trkpt>
      <trkpt lat="48.846865" lon="10.129099">
        <ele>556.2</ele>
        <time>2026-08-30T16:14:04Z</time>
      </trkpt>
      <trkpt lat="48.846832" lon="10.129101">
        <ele>556.4</ele>
        <time>2026-08-30T16:14:05Z</time>
      </trkpt>
      <trkpt lat="48.846801" lon="10.129100">
        <ele>556.4</ele>
        <time>2026-08-30T16:14:06Z</time>
      </trkpt>
      <trkpt lat="48.846769" lon="10.129100">
        <ele>556.6</ele>
        <time>2026-08-30T16:14:07Z</time>
      </trkpt>
      <trkpt lat="48.846739" lon="10.129103">
        <ele>556.6</ele>
        <time>2026-08-30T16:14:08Z</time>
      </trkpt>
      <trkpt lat="48.846705" lon="10.129100">
        <ele>556.6</ele>
        <time>2026-08-30T16:14:09Z</time>
      </trkpt>
      <trkpt lat="48.846674" lon="10.129099">
        <ele>556.8</ele>
        <time>2026-08-30T16:14:10Z</time>
      </trkpt>
      <trkpt lat="48.846640" lon="10.129100">
        <ele>556.8</ele>
        <time>2026-08-30T16:14:11Z</time>
      </trkpt>
      <trkpt lat="48.846608" lon="10.129104">
        <ele>557</ele>
        <time>2026-08-30T16:14:12Z</time>
      </trkpt>
      <trkpt lat="48.846580" lon="10.129107">
        <ele>557</ele>
        <time>2026-08-30T16:14:13Z</time>
      </trkpt>
      <trkpt lat="48.846554" lon="10.129112">
        <ele>557</ele>
        <time>2026-08-30T16:14:14Z</time>
      </trkpt>
      <trkpt lat="48.846525" lon="10.129116">
        <ele>557.2</ele>
        <time>2026-08-30T16:14:15Z</time>
      </trkpt>
      <trkpt lat="48.846496" lon="10.129118">
        <ele>557.2</ele>
        <time>2026-08-30T16:14:16Z</time>
      </trkpt>
      <trkpt lat="48.846468" lon="10.129122">
        <ele>557.2</ele>
        <time>2026-08-30T16:14:17Z</time>
      </trkpt>
      <trkpt lat="48.846440" lon="10.129130">
        <ele>557.4</ele>
        <time>2026-08-30T16:14:18Z</time>
      </trkpt>
      <trkpt lat="48.846412" lon="10.129136">
        <ele>557.4</ele>
        <time>2026-08-30T16:14:19Z</time>
      </trkpt>
      <trkpt lat="48.846382" lon="10.129143">
        <ele>557.4</ele>
        <time>2026-08-30T16:14:20Z</time>
      </trkpt>
      <trkpt lat="48.846348" lon="10.129154">
        <ele>557.4</ele>
        <time>2026-08-30T16:14:21Z</time>
      </trkpt>
      <trkpt lat="48.846312" lon="10.129175">
        <ele>557.6</ele>
        <time>2026-08-30T16:14:22Z</time>
      </trkpt>
      <trkpt lat="48.846286" lon="10.129201">
        <ele>557.6</ele>
        <time>2026-08-30T16:14:23Z</time>
      </trkpt>
      <trkpt lat="48.846269" lon="10.129234">
        <ele>557.6</ele>
        <time>2026-08-30T16:14:24Z</time>
      </trkpt>
      <trkpt lat="48.846262" lon="10.129267">
        <ele>557.6</ele>
        <time>2026-08-30T16:14:25Z</time>
      </trkpt>
      <trkpt lat="48.846256" lon="10.129295">
        <ele>557.8</ele>
        <time>2026-08-30T16:14:26Z</time>
      </trkpt>
      <trkpt lat="48.846255" lon="10.129316">
        <ele>557.8</ele>
        <time>2026-08-30T16:14:27Z</time>
      </trkpt>
      <trkpt lat="48.846258" lon="10.129343">
        <ele>558</ele>
        <time>2026-08-30T16:14:28Z</time>
      </trkpt>
      <trkpt lat="48.846263" lon="10.129370">
        <ele>558.2</ele>
        <time>2026-08-30T16:14:29Z</time>
      </trkpt>
      <trkpt lat="48.846269" lon="10.129396">
        <ele>558.4</ele>
        <time>2026-08-30T16:14:30Z</time>
      </trkpt>
      <trkpt lat="48.846276" lon="10.129419">
        <ele>558.6</ele>
        <time>2026-08-30T16:14:31Z</time>
      </trkpt>
      <trkpt lat="48.846280" lon="10.129437">
        <ele>558.8</ele>
        <time>2026-08-30T16:14:32Z</time>
      </trkpt>
      <trkpt lat="48.846284" lon="10.129455">
        <ele>558.8</ele>
        <time>2026-08-30T16:14:33Z</time>
      </trkpt>
      <trkpt lat="48.846287" lon="10.129472">
        <ele>559.2</ele>
        <time>2026-08-30T16:14:34Z</time>
      </trkpt>
      <trkpt lat="48.846289" lon="10.129493">
        <ele>559.4</ele>
        <time>2026-08-30T16:14:35Z</time>
      </trkpt>
      <trkpt lat="48.846291" lon="10.129514">
        <ele>559.6</ele>
        <time>2026-08-30T16:14:36Z</time>
      </trkpt>
      <trkpt lat="48.846294" lon="10.129540">
        <ele>559.8</ele>
        <time>2026-08-30T16:14:37Z</time>
      </trkpt>
      <trkpt lat="48.846296" lon="10.129561">
        <ele>560</ele>
        <time>2026-08-30T16:14:38Z</time>
      </trkpt>
      <trkpt lat="48.846301" lon="10.129582">
        <ele>560.2</ele>
        <time>2026-08-30T16:14:39Z</time>
      </trkpt>
      <trkpt lat="48.846301" lon="10.129606">
        <ele>560.4</ele>
        <time>2026-08-30T16:14:40Z</time>
      </trkpt>
      <trkpt lat="48.846305" lon="10.129631">
        <ele>560.6</ele>
        <time>2026-08-30T16:14:41Z</time>
      </trkpt>
      <trkpt lat="48.846310" lon="10.129653">
        <ele>560.8</ele>
        <time>2026-08-30T16:14:42Z</time>
      </trkpt>
      <trkpt lat="48.846317" lon="10.129675">
        <ele>561</ele>
        <time>2026-08-30T16:14:43Z</time>
      </trkpt>
      <trkpt lat="48.846321" lon="10.129697">
        <ele>561.2</ele>
        <time>2026-08-30T16:14:44Z</time>
      </trkpt>
      <trkpt lat="48.846324" lon="10.129721">
        <ele>561.6</ele>
        <time>2026-08-30T16:14:45Z</time>
      </trkpt>
      <trkpt lat="48.846328" lon="10.129748">
        <ele>561.8</ele>
        <time>2026-08-30T16:14:46Z</time>
      </trkpt>
      <trkpt lat="48.846331" lon="10.129775">
        <ele>562</ele>
        <time>2026-08-30T16:14:47Z</time>
      </trkpt>
      <trkpt lat="48.846338" lon="10.129796">
        <ele>562</ele>
        <time>2026-08-30T16:14:48Z</time>
      </trkpt>
      <trkpt lat="48.846344" lon="10.129817">
        <ele>562.2</ele>
        <time>2026-08-30T16:14:49Z</time>
      </trkpt>
      <trkpt lat="48.846354" lon="10.129842">
        <ele>562.6</ele>
        <time>2026-08-30T16:14:50Z</time>
      </trkpt>
      <trkpt lat="48.846364" lon="10.129862">
        <ele>562.8</ele>
        <time>2026-08-30T16:14:51Z</time>
      </trkpt>
      <trkpt lat="48.846371" lon="10.129885">
        <ele>563</ele>
        <time>2026-08-30T16:14:52Z</time>
      </trkpt>
      <trkpt lat="48.846377" lon="10.129910">
        <ele>563.2</ele>
        <time>2026-08-30T16:14:53Z</time>
      </trkpt>
      <trkpt lat="48.846387" lon="10.129931">
        <ele>563.4</ele>
        <time>2026-08-30T16:14:54Z</time>
      </trkpt>
      <trkpt lat="48.846396" lon="10.129950">
        <ele>563.8</ele>
        <time>2026-08-30T16:14:55Z</time>
      </trkpt>
      <trkpt lat="48.846405" lon="10.129966">
        <ele>564</ele>
        <time>2026-08-30T16:14:56Z</time>
      </trkpt>
      <trkpt lat="48.846417" lon="10.129983">
        <ele>564.2</ele>
        <time>2026-08-30T16:14:57Z</time>
      </trkpt>
      <trkpt lat="48.846427" lon="10.129999">
        <ele>564.4</ele>
        <time>2026-08-30T16:14:58Z</time>
      </trkpt>
      <trkpt lat="48.846437" lon="10.130020">
        <ele>564.6</ele>
        <time>2026-08-30T16:14:59Z</time>
      </trkpt>
      <trkpt lat="48.846448" lon="10.130040">
        <ele>564.8</ele>
        <time>2026-08-30T16:15:00Z</time>
      </trkpt>
      <trkpt lat="48.846462" lon="10.130055">
        <ele>565</ele>
        <time>2026-08-30T16:15:01Z</time>
      </trkpt>
      <trkpt lat="48.846476" lon="10.130072">
        <ele>565.2</ele>
        <time>2026-08-30T16:15:02Z</time>
      </trkpt>
      <trkpt lat="48.846488" lon="10.130088">
        <ele>565.4</ele>
        <time>2026-08-30T16:15:03Z</time>
      </trkpt>
      <trkpt lat="48.846501" lon="10.130107">
        <ele>565.6</ele>
        <time>2026-08-30T16:15:04Z</time>
      </trkpt>
      <trkpt lat="48.846514" lon="10.130122">
        <ele>565.8</ele>
        <time>2026-08-30T16:15:05Z</time>
      </trkpt>
      <trkpt lat="48.846530" lon="10.130134">
        <ele>566</ele>
        <time>2026-08-30T16:15:06Z</time>
      </trkpt>
      <trkpt lat="48.846546" lon="10.130147">
        <ele>566.2</ele>
        <time>2026-08-30T16:15:07Z</time>
      </trkpt>
      <trkpt lat="48.846561" lon="10.130157">
        <ele>566.4</ele>
        <time>2026-08-30T16:15:08Z</time>
      </trkpt>
      <trkpt lat="48.846574" lon="10.130169">
        <ele>566.6</ele>
        <time>2026-08-30T16:15:09Z</time>
      </trkpt>
      <trkpt lat="48.846586" lon="10.130178">
        <ele>566.8</ele>
        <time>2026-08-30T16:15:10Z</time>
      </trkpt>
      <trkpt lat="48.846599" lon="10.130189">
        <ele>567</ele>
        <time>2026-08-30T16:15:11Z</time>
      </trkpt>
      <trkpt lat="48.846612" lon="10.130197">
        <ele>567.2</ele>
        <time>2026-08-30T16:15:12Z</time>
      </trkpt>
      <trkpt lat="48.846627" lon="10.130207">
        <ele>567.4</ele>
        <time>2026-08-30T16:15:13Z</time>
      </trkpt>
      <trkpt lat="48.846642" lon="10.130213">
        <ele>567.4</ele>
        <time>2026-08-30T16:15:14Z</time>
      </trkpt>
      <trkpt lat="48.846655" lon="10.130217">
        <ele>567.8</ele>
        <time>2026-08-30T16:15:15Z</time>
      </trkpt>
      <trkpt lat="48.846670" lon="10.130220">
        <ele>568</ele>
        <time>2026-08-30T16:15:16Z</time>
      </trkpt>
      <trkpt lat="48.846688" lon="10.130229">
        <ele>568.2</ele>
        <time>2026-08-30T16:15:17Z</time>
      </trkpt>
      <trkpt lat="48.846707" lon="10.130237">
        <ele>568.4</ele>
        <time>2026-08-30T16:15:18Z</time>
      </trkpt>
      <trkpt lat="48.846725" lon="10.130249">
        <ele>568.4</ele>
        <time>2026-08-30T16:15:19Z</time>
      </trkpt>
      <trkpt lat="48.846744" lon="10.130257">
        <ele>568.8</ele>
        <time>2026-08-30T16:15:20Z</time>
      </trkpt>
      <trkpt lat="48.846759" lon="10.130267">
        <ele>569</ele>
        <time>2026-08-30T16:15:21Z</time>
      </trkpt>
      <trkpt lat="48.846777" lon="10.130272">
        <ele>569</ele>
        <time>2026-08-30T16:15:22Z</time>
      </trkpt>
      <trkpt lat="48.846793" lon="10.130277">
        <ele>569.2</ele>
        <time>2026-08-30T16:15:23Z</time>
      </trkpt>
      <trkpt lat="48.846811" lon="10.130288">
        <ele>569.4</ele>
        <time>2026-08-30T16:15:24Z</time>
      </trkpt>
      <trkpt lat="48.846828" lon="10.130294">
        <ele>569.6</ele>
        <time>2026-08-30T16:15:25Z</time>
      </trkpt>
      <trkpt lat="48.846843" lon="10.130301">
        <ele>569.8</ele>
        <time>2026-08-30T16:15:26Z</time>
      </trkpt>
      <trkpt lat="48.846859" lon="10.130309">
        <ele>570</ele>
        <time>2026-08-30T16:15:27Z</time>
      </trkpt>
      <trkpt lat="48.846875" lon="10.130317">
        <ele>570</ele>
        <time>2026-08-30T16:15:28Z</time>
      </trkpt>
      <trkpt lat="48.846891" lon="10.130324">
        <ele>570.2</ele>
        <time>2026-08-30T16:15:29Z</time>
      </trkpt>
      <trkpt lat="48.846911" lon="10.130332">
        <ele>570.4</ele>
        <time>2026-08-30T16:15:30Z</time>
      </trkpt>
      <trkpt lat="48.846930" lon="10.130340">
        <ele>570.6</ele>
        <time>2026-08-30T16:15:31Z</time>
      </trkpt>
      <trkpt lat="48.846949" lon="10.130349">
        <ele>570.6</ele>
        <time>2026-08-30T16:15:32Z</time>
      </trkpt>
      <trkpt lat="48.846966" lon="10.130360">
        <ele>570.8</ele>
        <time>2026-08-30T16:15:33Z</time>
      </trkpt>
      <trkpt lat="48.846984" lon="10.130372">
        <ele>571</ele>
        <time>2026-08-30T16:15:34Z</time>
      </trkpt>
      <trkpt lat="48.847002" lon="10.130386">
        <ele>571.2</ele>
        <time>2026-08-30T16:15:35Z</time>
      </trkpt>
      <trkpt lat="48.847021" lon="10.130400">
        <ele>571.2</ele>
        <time>2026-08-30T16:15:36Z</time>
      </trkpt>
      <trkpt lat="48.847038" lon="10.130409">
        <ele>571.4</ele>
        <time>2026-08-30T16:15:37Z</time>
      </trkpt>
      <trkpt lat="48.847056" lon="10.130418">
        <ele>571.6</ele>
        <time>2026-08-30T16:15:38Z</time>
      </trkpt>
      <trkpt lat="48.847077" lon="10.130432">
        <ele>571.6</ele>
        <time>2026-08-30T16:15:39Z</time>
      </trkpt>
      <trkpt lat="48.847092" lon="10.130446">
        <ele>571.8</ele>
        <time>2026-08-30T16:15:40Z</time>
      </trkpt>
      <trkpt lat="48.847110" lon="10.130459">
        <ele>572</ele>
        <time>2026-08-30T16:15:41Z</time>
      </trkpt>
      <trkpt lat="48.847128" lon="10.130471">
        <ele>572</ele>
        <time>2026-08-30T16:15:42Z</time>
      </trkpt>
      <trkpt lat="48.847149" lon="10.130485">
        <ele>572.2</ele>
        <time>2026-08-30T16:15:43Z</time>
      </trkpt>
      <trkpt lat="48.847166" lon="10.130500">
        <ele>572.2</ele>
        <time>2026-08-30T16:15:44Z</time>
      </trkpt>
      <trkpt lat="48.847189" lon="10.130517">
        <ele>572.4</ele>
        <time>2026-08-30T16:15:45Z</time>
      </trkpt>
      <trkpt lat="48.847207" lon="10.130537">
        <ele>572.6</ele>
        <time>2026-08-30T16:15:46Z</time>
      </trkpt>
      <trkpt lat="48.847226" lon="10.130554">
        <ele>572.6</ele>
        <time>2026-08-30T16:15:47Z</time>
      </trkpt>
      <trkpt lat="48.847245" lon="10.130571">
        <ele>572.6</ele>
        <time>2026-08-30T16:15:48Z</time>
      </trkpt>
      <trkpt lat="48.847263" lon="10.130586">
        <ele>572.8</ele>
        <time>2026-08-30T16:15:49Z</time>
      </trkpt>
      <trkpt lat="48.847279" lon="10.130602">
        <ele>572.8</ele>
        <time>2026-08-30T16:15:50Z</time>
      </trkpt>
      <trkpt lat="48.847294" lon="10.130615">
        <ele>573</ele>
        <time>2026-08-30T16:15:51Z</time>
      </trkpt>
      <trkpt lat="48.847305" lon="10.130634">
        <ele>573.2</ele>
        <time>2026-08-30T16:15:52Z</time>
      </trkpt>
      <trkpt lat="48.847323" lon="10.130657">
        <ele>573.2</ele>
        <time>2026-08-30T16:15:53Z</time>
      </trkpt>
      <trkpt lat="48.847341" lon="10.130672">
        <ele>573.4</ele>
        <time>2026-08-30T16:15:54Z</time>
      </trkpt>
      <trkpt lat="48.847355" lon="10.130689">
        <ele>573.4</ele>
        <time>2026-08-30T16:15:55Z</time>
      </trkpt>
      <trkpt lat="48.847369" lon="10.130702">
        <ele>573.6</ele>
        <time>2026-08-30T16:15:56Z</time>
      </trkpt>
      <trkpt lat="48.847384" lon="10.130722">
        <ele>573.8</ele>
        <time>2026-08-30T16:15:57Z</time>
      </trkpt>
      <trkpt lat="48.847402" lon="10.130746">
        <ele>573.8</ele>
        <time>2026-08-30T16:15:58Z</time>
      </trkpt>
      <trkpt lat="48.847420" lon="10.130764">
        <ele>574</ele>
        <time>2026-08-30T16:15:59Z</time>
      </trkpt>
      <trkpt lat="48.847438" lon="10.130777">
        <ele>574.2</ele>
        <time>2026-08-30T16:16:00Z</time>
      </trkpt>
      <trkpt lat="48.847456" lon="10.130798">
        <ele>574.2</ele>
        <time>2026-08-30T16:16:01Z</time>
      </trkpt>
      <trkpt lat="48.847472" lon="10.130815">
        <ele>574.4</ele>
        <time>2026-08-30T16:16:02Z</time>
      </trkpt>
      <trkpt lat="48.847491" lon="10.130832">
        <ele>574.4</ele>
        <time>2026-08-30T16:16:03Z</time>
      </trkpt>
      <trkpt lat="48.847509" lon="10.130849">
        <ele>574.6</ele>
        <time>2026-08-30T16:16:04Z</time>
      </trkpt>
      <trkpt lat="48.847527" lon="10.130872">
        <ele>574.6</ele>
        <time>2026-08-30T16:16:05Z</time>
      </trkpt>
      <trkpt lat="48.847543" lon="10.130893">
        <ele>574.8</ele>
        <time>2026-08-30T16:16:06Z</time>
      </trkpt>
      <trkpt lat="48.847561" lon="10.130914">
        <ele>574.8</ele>
        <time>2026-08-30T16:16:07Z</time>
      </trkpt>
      <trkpt lat="48.847582" lon="10.130932">
        <ele>575</ele>
        <time>2026-08-30T16:16:08Z</time>
      </trkpt>
      <trkpt lat="48.847600" lon="10.130948">
        <ele>575.2</ele>
        <time>2026-08-30T16:16:09Z</time>
      </trkpt>
      <trkpt lat="48.847619" lon="10.130966">
        <ele>575.2</ele>
        <time>2026-08-30T16:16:10Z</time>
      </trkpt>
      <trkpt lat="48.847640" lon="10.130986">
        <ele>575.4</ele>
        <time>2026-08-30T16:16:11Z</time>
      </trkpt>
      <trkpt lat="48.847659" lon="10.131004">
        <ele>575.6</ele>
        <time>2026-08-30T16:16:12Z</time>
      </trkpt>
      <trkpt lat="48.847677" lon="10.131019">
        <ele>575.8</ele>
        <time>2026-08-30T16:16:13Z</time>
      </trkpt>
      <trkpt lat="48.847696" lon="10.131033">
        <ele>575.8</ele>
        <time>2026-08-30T16:16:14Z</time>
      </trkpt>
      <trkpt lat="48.847713" lon="10.131052">
        <ele>576</ele>
        <time>2026-08-30T16:16:15Z</time>
      </trkpt>
      <trkpt lat="48.847730" lon="10.131072">
        <ele>576.2</ele>
        <time>2026-08-30T16:16:16Z</time>
      </trkpt>
      <trkpt lat="48.847749" lon="10.131091">
        <ele>576.4</ele>
        <time>2026-08-30T16:16:17Z</time>
      </trkpt>
      <trkpt lat="48.847768" lon="10.131111">
        <ele>576.4</ele>
        <time>2026-08-30T16:16:18Z</time>
      </trkpt>
      <trkpt lat="48.847789" lon="10.131134">
        <ele>576.6</ele>
        <time>2026-08-30T16:16:19Z</time>
      </trkpt>
      <trkpt lat="48.847810" lon="10.131154">
        <ele>576.8</ele>
        <time>2026-08-30T16:16:20Z</time>
      </trkpt>
      <trkpt lat="48.847833" lon="10.131172">
        <ele>577</ele>
        <time>2026-08-30T16:16:21Z</time>
      </trkpt>
      <trkpt lat="48.847853" lon="10.131192">
        <ele>577</ele>
        <time>2026-08-30T16:16:22Z</time>
      </trkpt>
      <trkpt lat="48.847869" lon="10.131212">
        <ele>577.2</ele>
        <time>2026-08-30T16:16:23Z</time>
      </trkpt>
      <trkpt lat="48.847885" lon="10.131236">
        <ele>577.4</ele>
        <time>2026-08-30T16:16:24Z</time>
      </trkpt>
      <trkpt lat="48.847898" lon="10.131262">
        <ele>577.4</ele>
        <time>2026-08-30T16:16:25Z</time>
      </trkpt>
      <trkpt lat="48.847916" lon="10.131284">
        <ele>577.6</ele>
        <time>2026-08-30T16:16:26Z</time>
      </trkpt>
      <trkpt lat="48.847936" lon="10.131299">
        <ele>577.8</ele>
        <time>2026-08-30T16:16:27Z</time>
      </trkpt>
      <trkpt lat="48.847950" lon="10.131311">
        <ele>577.8</ele>
        <time>2026-08-30T16:16:28Z</time>
      </trkpt>
      <trkpt lat="48.847969" lon="10.131329">
        <ele>578</ele>
        <time>2026-08-30T16:16:29Z</time>
      </trkpt>
      <trkpt lat="48.847984" lon="10.131353">
        <ele>578.2</ele>
        <time>2026-08-30T16:16:30Z</time>
      </trkpt>
      <trkpt lat="48.847999" lon="10.131380">
        <ele>578.2</ele>
        <time>2026-08-30T16:16:31Z</time>
      </trkpt>
      <trkpt lat="48.848012" lon="10.131401">
        <ele>578.4</ele>
        <time>2026-08-30T16:16:32Z</time>
      </trkpt>
      <trkpt lat="48.848030" lon="10.131423">
        <ele>578.6</ele>
        <time>2026-08-30T16:16:33Z</time>
      </trkpt>
      <trkpt lat="48.848049" lon="10.131446">
        <ele>578.6</ele>
        <time>2026-08-30T16:16:34Z</time>
      </trkpt>
      <trkpt lat="48.848071" lon="10.131467">
        <ele>578.8</ele>
        <time>2026-08-30T16:16:35Z</time>
      </trkpt>
      <trkpt lat="48.848092" lon="10.131486">
        <ele>578.8</ele>
        <time>2026-08-30T16:16:36Z</time>
      </trkpt>
      <trkpt lat="48.848113" lon="10.131502">
        <ele>579</ele>
        <time>2026-08-30T16:16:37Z</time>
      </trkpt>
      <trkpt lat="48.848131" lon="10.131518">
        <ele>579.2</ele>
        <time>2026-08-30T16:16:38Z</time>
      </trkpt>
      <trkpt lat="48.848149" lon="10.131538">
        <ele>579.4</ele>
        <time>2026-08-30T16:16:39Z</time>
      </trkpt>
      <trkpt lat="48.848163" lon="10.131561">
        <ele>579.4</ele>
        <time>2026-08-30T16:16:40Z</time>
      </trkpt>
      <trkpt lat="48.848174" lon="10.131587">
        <ele>579.6</ele>
        <time>2026-08-30T16:16:41Z</time>
      </trkpt>
      <trkpt lat="48.848187" lon="10.131607">
        <ele>579.8</ele>
        <time>2026-08-30T16:16:42Z</time>
      </trkpt>
      <trkpt lat="48.848197" lon="10.131631">
        <ele>580</ele>
        <time>2026-08-30T16:16:43Z</time>
      </trkpt>
      <trkpt lat="48.848211" lon="10.131657">
        <ele>580</ele>
        <time>2026-08-30T16:16:44Z</time>
      </trkpt>
      <trkpt lat="48.848226" lon="10.131678">
        <ele>580.2</ele>
        <time>2026-08-30T16:16:45Z</time>
      </trkpt>
      <trkpt lat="48.848243" lon="10.131700">
        <ele>580.2</ele>
        <time>2026-08-30T16:16:46Z</time>
      </trkpt>
      <trkpt lat="48.848263" lon="10.131721">
        <ele>580.4</ele>
        <time>2026-08-30T16:16:47Z</time>
      </trkpt>
      <trkpt lat="48.848280" lon="10.131739">
        <ele>580.6</ele>
        <time>2026-08-30T16:16:48Z</time>
      </trkpt>
      <trkpt lat="48.848295" lon="10.131757">
        <ele>580.8</ele>
        <time>2026-08-30T16:16:49Z</time>
      </trkpt>
      <trkpt lat="48.848310" lon="10.131774">
        <ele>580.8</ele>
        <time>2026-08-30T16:16:50Z</time>
      </trkpt>
      <trkpt lat="48.848323" lon="10.131793">
        <ele>581</ele>
        <time>2026-08-30T16:16:51Z</time>
      </trkpt>
      <trkpt lat="48.848334" lon="10.131813">
        <ele>581.4</ele>
        <time>2026-08-30T16:16:52Z</time>
      </trkpt>
      <trkpt lat="48.848346" lon="10.131829">
        <ele>581.4</ele>
        <time>2026-08-30T16:16:53Z</time>
      </trkpt>
      <trkpt lat="48.848360" lon="10.131849">
        <ele>581.6</ele>
        <time>2026-08-30T16:16:54Z</time>
      </trkpt>
      <trkpt lat="48.848371" lon="10.131864">
        <ele>581.8</ele>
        <time>2026-08-30T16:16:55Z</time>
      </trkpt>
      <trkpt lat="48.848383" lon="10.131883">
        <ele>582</ele>
        <time>2026-08-30T16:16:56Z</time>
      </trkpt>
      <trkpt lat="48.848395" lon="10.131902">
        <ele>582.4</ele>
        <time>2026-08-30T16:16:57Z</time>
      </trkpt>
      <trkpt lat="48.848409" lon="10.131921">
        <ele>582.6</ele>
        <time>2026-08-30T16:16:58Z</time>
      </trkpt>
      <trkpt lat="48.848423" lon="10.131939">
        <ele>582.6</ele>
        <time>2026-08-30T16:16:59Z</time>
      </trkpt>
      <trkpt lat="48.848434" lon="10.131956">
        <ele>582.8</ele>
        <time>2026-08-30T16:17:00Z</time>
      </trkpt>
      <trkpt lat="48.848446" lon="10.131974">
        <ele>583</ele>
        <time>2026-08-30T16:17:01Z</time>
      </trkpt>
      <trkpt lat="48.848458" lon="10.131991">
        <ele>583.2</ele>
        <time>2026-08-30T16:17:02Z</time>
      </trkpt>
      <trkpt lat="48.848473" lon="10.132006">
        <ele>583.4</ele>
        <time>2026-08-30T16:17:03Z</time>
      </trkpt>
      <trkpt lat="48.848484" lon="10.132028">
        <ele>583.6</ele>
        <time>2026-08-30T16:17:04Z</time>
      </trkpt>
      <trkpt lat="48.848495" lon="10.132049">
        <ele>583.8</ele>
        <time>2026-08-30T16:17:05Z</time>
      </trkpt>
      <trkpt lat="48.848508" lon="10.132066">
        <ele>584</ele>
        <time>2026-08-30T16:17:06Z</time>
      </trkpt>
      <trkpt lat="48.848522" lon="10.132087">
        <ele>584.2</ele>
        <time>2026-08-30T16:17:07Z</time>
      </trkpt>
      <trkpt lat="48.848537" lon="10.132107">
        <ele>584.4</ele>
        <time>2026-08-30T16:17:08Z</time>
      </trkpt>
      <trkpt lat="48.848551" lon="10.132126">
        <ele>584.6</ele>
        <time>2026-08-30T16:17:09Z</time>
      </trkpt>
      <trkpt lat="48.848563" lon="10.132145">
        <ele>584.8</ele>
        <time>2026-08-30T16:17:10Z</time>
      </trkpt>
      <trkpt lat="48.848576" lon="10.132162">
        <ele>585</ele>
        <time>2026-08-30T16:17:11Z</time>
      </trkpt>
      <trkpt lat="48.848588" lon="10.132178">
        <ele>585.2</ele>
        <time>2026-08-30T16:17:12Z</time>
      </trkpt>
      <trkpt lat="48.848598" lon="10.132197">
        <ele>585.4</ele>
        <time>2026-08-30T16:17:13Z</time>
      </trkpt>
      <trkpt lat="48.848612" lon="10.132216">
        <ele>585.6</ele>
        <time>2026-08-30T16:17:14Z</time>
      </trkpt>
      <trkpt lat="48.848625" lon="10.132232">
        <ele>585.8</ele>
        <time>2026-08-30T16:17:15Z</time>
      </trkpt>
      <trkpt lat="48.848635" lon="10.132245">
        <ele>586</ele>
        <time>2026-08-30T16:17:16Z</time>
      </trkpt>
      <trkpt lat="48.848650" lon="10.132264">
        <ele>586.2</ele>
        <time>2026-08-30T16:17:17Z</time>
      </trkpt>
      <trkpt lat="48.848661" lon="10.132281">
        <ele>586.4</ele>
        <time>2026-08-30T16:17:18Z</time>
      </trkpt>
      <trkpt lat="48.848674" lon="10.132296">
        <ele>586.4</ele>
        <time>2026-08-30T16:17:19Z</time>
      </trkpt>
      <trkpt lat="48.848688" lon="10.132312">
        <ele>586.6</ele>
        <time>2026-08-30T16:17:20Z</time>
      </trkpt>
      <trkpt lat="48.848700" lon="10.132326">
        <ele>586.8</ele>
        <time>2026-08-30T16:17:21Z</time>
      </trkpt>
      <trkpt lat="48.848707" lon="10.132339">
        <ele>587</ele>
        <time>2026-08-30T16:17:22Z</time>
      </trkpt>
      <trkpt lat="48.848720" lon="10.132355">
        <ele>587</ele>
        <time>2026-08-30T16:17:23Z</time>
      </trkpt>
      <trkpt lat="48.848733" lon="10.132373">
        <ele>587.2</ele>
        <time>2026-08-30T16:17:24Z</time>
      </trkpt>
      <trkpt lat="48.848741" lon="10.132397">
        <ele>587.4</ele>
        <time>2026-08-30T16:17:25Z</time>
      </trkpt>
      <trkpt lat="48.848753" lon="10.132420">
        <ele>587.6</ele>
        <time>2026-08-30T16:17:26Z</time>
      </trkpt>
      <trkpt lat="48.848764" lon="10.132444">
        <ele>587.8</ele>
        <time>2026-08-30T16:17:27Z</time>
      </trkpt>
      <trkpt lat="48.848778" lon="10.132463">
        <ele>588</ele>
        <time>2026-08-30T16:17:28Z</time>
      </trkpt>
      <trkpt lat="48.848792" lon="10.132482">
        <ele>588.2</ele>
        <time>2026-08-30T16:17:29Z</time>
      </trkpt>
      <trkpt lat="48.848807" lon="10.132501">
        <ele>588.4</ele>
        <time>2026-08-30T16:17:30Z</time>
      </trkpt>
      <trkpt lat="48.848821" lon="10.132521">
        <ele>588.6</ele>
        <time>2026-08-30T16:17:31Z</time>
      </trkpt>
      <trkpt lat="48.848832" lon="10.132535">
        <ele>588.6</ele>
        <time>2026-08-30T16:17:32Z</time>
      </trkpt>
      <trkpt lat="48.848845" lon="10.132546">
        <ele>589</ele>
        <time>2026-08-30T16:17:33Z</time>
      </trkpt>
      <trkpt lat="48.848858" lon="10.132562">
        <ele>589.2</ele>
        <time>2026-08-30T16:17:34Z</time>
      </trkpt>
      <trkpt lat="48.848872" lon="10.132582">
        <ele>589.2</ele>
        <time>2026-08-30T16:17:35Z</time>
      </trkpt>
      <trkpt lat="48.848886" lon="10.132606">
        <ele>589.4</ele>
        <time>2026-08-30T16:17:36Z</time>
      </trkpt>
      <trkpt lat="48.848898" lon="10.132626">
        <ele>589.6</ele>
        <time>2026-08-30T16:17:37Z</time>
      </trkpt>
      <trkpt lat="48.848911" lon="10.132641">
        <ele>590</ele>
        <time>2026-08-30T16:17:38Z</time>
      </trkpt>
      <trkpt lat="48.848923" lon="10.132657">
        <ele>590.2</ele>
        <time>2026-08-30T16:17:39Z</time>
      </trkpt>
      <trkpt lat="48.848931" lon="10.132670">
        <ele>590.2</ele>
        <time>2026-08-30T16:17:40Z</time>
      </trkpt>
      <trkpt lat="48.848944" lon="10.132690">
        <ele>590.4</ele>
        <time>2026-08-30T16:17:41Z</time>
      </trkpt>
      <trkpt lat="48.848955" lon="10.132705">
        <ele>590.6</ele>
        <time>2026-08-30T16:17:42Z</time>
      </trkpt>
      <trkpt lat="48.848967" lon="10.132724">
        <ele>590.8</ele>
        <time>2026-08-30T16:17:43Z</time>
      </trkpt>
      <trkpt lat="48.848977" lon="10.132743">
        <ele>591</ele>
        <time>2026-08-30T16:17:44Z</time>
      </trkpt>
      <trkpt lat="48.848988" lon="10.132761">
        <ele>591.2</ele>
        <time>2026-08-30T16:17:45Z</time>
      </trkpt>
      <trkpt lat="48.849002" lon="10.132779">
        <ele>591.4</ele>
        <time>2026-08-30T16:17:46Z</time>
      </trkpt>
      <trkpt lat="48.849014" lon="10.132799">
        <ele>591.6</ele>
        <time>2026-08-30T16:17:47Z</time>
      </trkpt>
      <trkpt lat="48.849026" lon="10.132820">
        <ele>591.8</ele>
        <time>2026-08-30T16:17:48Z</time>
      </trkpt>
      <trkpt lat="48.849037" lon="10.132837">
        <ele>592</ele>
        <time>2026-08-30T16:17:49Z</time>
      </trkpt>
      <trkpt lat="48.849049" lon="10.132851">
        <ele>592.2</ele>
        <time>2026-08-30T16:17:50Z</time>
      </trkpt>
      <trkpt lat="48.849062" lon="10.132867">
        <ele>592.2</ele>
        <time>2026-08-30T16:17:51Z</time>
      </trkpt>
      <trkpt lat="48.849073" lon="10.132886">
        <ele>592.4</ele>
        <time>2026-08-30T16:17:52Z</time>
      </trkpt>
      <trkpt lat="48.849087" lon="10.132905">
        <ele>592.6</ele>
        <time>2026-08-30T16:17:53Z</time>
      </trkpt>
      <trkpt lat="48.849102" lon="10.132926">
        <ele>592.8</ele>
        <time>2026-08-30T16:17:54Z</time>
      </trkpt>
      <trkpt lat="48.849115" lon="10.132945">
        <ele>593</ele>
        <time>2026-08-30T16:17:55Z</time>
      </trkpt>
      <trkpt lat="48.849126" lon="10.132965">
        <ele>593.2</ele>
        <time>2026-08-30T16:17:56Z</time>
      </trkpt>
      <trkpt lat="48.849135" lon="10.132985">
        <ele>593.4</ele>
        <time>2026-08-30T16:17:57Z</time>
      </trkpt>
      <trkpt lat="48.849146" lon="10.133005">
        <ele>593.6</ele>
        <time>2026-08-30T16:17:58Z</time>
      </trkpt>
      <trkpt lat="48.849158" lon="10.133021">
        <ele>593.6</ele>
        <time>2026-08-30T16:17:59Z</time>
      </trkpt>
      <trkpt lat="48.849168" lon="10.133034">
        <ele>593.8</ele>
        <time>2026-08-30T16:18:00Z</time>
      </trkpt>
      <trkpt lat="48.849176" lon="10.133046">
        <ele>594</ele>
        <time>2026-08-30T16:18:01Z</time>
      </trkpt>
      <trkpt lat="48.849187" lon="10.133063">
        <ele>594.2</ele>
        <time>2026-08-30T16:18:02Z</time>
      </trkpt>
      <trkpt lat="48.849197" lon="10.133074">
        <ele>594.4</ele>
        <time>2026-08-30T16:18:03Z</time>
      </trkpt>
      <trkpt lat="48.849209" lon="10.133091">
        <ele>594.6</ele>
        <time>2026-08-30T16:18:04Z</time>
      </trkpt>
      <trkpt lat="48.849220" lon="10.133111">
        <ele>594.8</ele>
        <time>2026-08-30T16:18:05Z</time>
      </trkpt>
      <trkpt lat="48.849234" lon="10.133136">
        <ele>594.8</ele>
        <time>2026-08-30T16:18:06Z</time>
      </trkpt>
      <trkpt lat="48.849244" lon="10.133158">
        <ele>595</ele>
        <time>2026-08-30T16:18:07Z</time>
      </trkpt>
      <trkpt lat="48.849257" lon="10.133177">
        <ele>595.2</ele>
        <time>2026-08-30T16:18:08Z</time>
      </trkpt>
      <trkpt lat="48.849267" lon="10.133196">
        <ele>595.4</ele>
        <time>2026-08-30T16:18:09Z</time>
      </trkpt>
      <trkpt lat="48.849279" lon="10.133211">
        <ele>595.6</ele>
        <time>2026-08-30T16:18:10Z</time>
      </trkpt>
      <trkpt lat="48.849289" lon="10.133226">
        <ele>595.8</ele>
        <time>2026-08-30T16:18:11Z</time>
      </trkpt>
      <trkpt lat="48.849299" lon="10.133243">
        <ele>596</ele>
        <time>2026-08-30T16:18:12Z</time>
      </trkpt>
      <trkpt lat="48.849310" lon="10.133261">
        <ele>596.2</ele>
        <time>2026-08-30T16:18:13Z</time>
      </trkpt>
      <trkpt lat="48.849318" lon="10.133279">
        <ele>596.4</ele>
        <time>2026-08-30T16:18:14Z</time>
      </trkpt>
      <trkpt lat="48.849329" lon="10.133298">
        <ele>596.6</ele>
        <time>2026-08-30T16:18:15Z</time>
      </trkpt>
      <trkpt lat="48.849338" lon="10.133317">
        <ele>596.6</ele>
        <time>2026-08-30T16:18:16Z</time>
      </trkpt>
      <trkpt lat="48.849348" lon="10.133337">
        <ele>596.8</ele>
        <time>2026-08-30T16:18:17Z</time>
      </trkpt>
      <trkpt lat="48.849357" lon="10.133357">
        <ele>597</ele>
        <time>2026-08-30T16:18:18Z</time>
      </trkpt>
      <trkpt lat="48.849365" lon="10.133379">
        <ele>597.2</ele>
        <time>2026-08-30T16:18:19Z</time>
      </trkpt>
      <trkpt lat="48.849374" lon="10.133400">
        <ele>597.4</ele>
        <time>2026-08-30T16:18:20Z</time>
      </trkpt>
      <trkpt lat="48.849385" lon="10.133421">
        <ele>597.6</ele>
        <time>2026-08-30T16:18:21Z</time>
      </trkpt>
      <trkpt lat="48.849394" lon="10.133442">
        <ele>597.8</ele>
        <time>2026-08-30T16:18:22Z</time>
      </trkpt>
      <trkpt lat="48.849404" lon="10.133468">
        <ele>598</ele>
        <time>2026-08-30T16:18:23Z</time>
      </trkpt>
      <trkpt lat="48.849413" lon="10.133490">
        <ele>598</ele>
        <time>2026-08-30T16:18:24Z</time>
      </trkpt>
      <trkpt lat="48.849422" lon="10.133508">
        <ele>598.2</ele>
        <time>2026-08-30T16:18:25Z</time>
      </trkpt>
      <trkpt lat="48.849431" lon="10.133532">
        <ele>598.4</ele>
        <time>2026-08-30T16:18:26Z</time>
      </trkpt>
      <trkpt lat="48.849441" lon="10.133560">
        <ele>598.4</ele>
        <time>2026-08-30T16:18:27Z</time>
      </trkpt>
      <trkpt lat="48.849450" lon="10.133585">
        <ele>598.6</ele>
        <time>2026-08-30T16:18:28Z</time>
      </trkpt>
      <trkpt lat="48.849460" lon="10.133609">
        <ele>598.8</ele>
        <time>2026-08-30T16:18:29Z</time>
      </trkpt>
      <trkpt lat="48.849469" lon="10.133626">
        <ele>599</ele>
        <time>2026-08-30T16:18:30Z</time>
      </trkpt>
      <trkpt lat="48.849478" lon="10.133649">
        <ele>599.2</ele>
        <time>2026-08-30T16:18:31Z</time>
      </trkpt>
      <trkpt lat="48.849485" lon="10.133671">
        <ele>599.2</ele>
        <time>2026-08-30T16:18:32Z</time>
      </trkpt>
      <trkpt lat="48.849492" lon="10.133694">
        <ele>599.4</ele>
        <time>2026-08-30T16:18:33Z</time>
      </trkpt>
      <trkpt lat="48.849499" lon="10.133713">
        <ele>599.6</ele>
        <time>2026-08-30T16:18:34Z</time>
      </trkpt>
      <trkpt lat="48.849505" lon="10.133727">
        <ele>599.8</ele>
        <time>2026-08-30T16:18:35Z</time>
      </trkpt>
      <trkpt lat="48.849511" lon="10.133748">
        <ele>600</ele>
        <time>2026-08-30T16:18:36Z</time>
      </trkpt>
      <trkpt lat="48.849520" lon="10.133772">
        <ele>600.2</ele>
        <time>2026-08-30T16:18:37Z</time>
      </trkpt>
      <trkpt lat="48.849526" lon="10.133803">
        <ele>600.2</ele>
        <time>2026-08-30T16:18:38Z</time>
      </trkpt>
      <trkpt lat="48.849534" lon="10.133824">
        <ele>600.6</ele>
        <time>2026-08-30T16:18:39Z</time>
      </trkpt>
      <trkpt lat="48.849539" lon="10.133844">
        <ele>600.6</ele>
        <time>2026-08-30T16:18:40Z</time>
      </trkpt>
      <trkpt lat="48.849547" lon="10.133865">
        <ele>600.8</ele>
        <time>2026-08-30T16:18:41Z</time>
      </trkpt>
      <trkpt lat="48.849552" lon="10.133884">
        <ele>601</ele>
        <time>2026-08-30T16:18:42Z</time>
      </trkpt>
      <trkpt lat="48.849560" lon="10.133904">
        <ele>601.2</ele>
        <time>2026-08-30T16:18:43Z</time>
      </trkpt>
      <trkpt lat="48.849572" lon="10.133924">
        <ele>601.4</ele>
        <time>2026-08-30T16:18:44Z</time>
      </trkpt>
      <trkpt lat="48.849581" lon="10.133953">
        <ele>601.6</ele>
        <time>2026-08-30T16:18:45Z</time>
      </trkpt>
      <trkpt lat="48.849585" lon="10.133977">
        <ele>601.8</ele>
        <time>2026-08-30T16:18:46Z</time>
      </trkpt>
      <trkpt lat="48.849592" lon="10.133999">
        <ele>601.8</ele>
        <time>2026-08-30T16:18:47Z</time>
      </trkpt>
      <trkpt lat="48.849597" lon="10.134017">
        <ele>602</ele>
        <time>2026-08-30T16:18:48Z</time>
      </trkpt>
      <trkpt lat="48.849603" lon="10.134041">
        <ele>602.2</ele>
        <time>2026-08-30T16:18:49Z</time>
      </trkpt>
      <trkpt lat="48.849610" lon="10.134070">
        <ele>602.4</ele>
        <time>2026-08-30T16:18:50Z</time>
      </trkpt>
      <trkpt lat="48.849616" lon="10.134093">
        <ele>602.6</ele>
        <time>2026-08-30T16:18:51Z</time>
      </trkpt>
      <trkpt lat="48.849623" lon="10.134113">
        <ele>602.8</ele>
        <time>2026-08-30T16:18:52Z</time>
      </trkpt>
      <trkpt lat="48.849627" lon="10.134133">
        <ele>603</ele>
        <time>2026-08-30T16:18:53Z</time>
      </trkpt>
      <trkpt lat="48.849633" lon="10.134149">
        <ele>603.2</ele>
        <time>2026-08-30T16:18:54Z</time>
      </trkpt>
      <trkpt lat="48.849639" lon="10.134170">
        <ele>603.4</ele>
        <time>2026-08-30T16:18:55Z</time>
      </trkpt>
      <trkpt lat="48.849646" lon="10.134195">
        <ele>603.6</ele>
        <time>2026-08-30T16:18:56Z</time>
      </trkpt>
      <trkpt lat="48.849653" lon="10.134215">
        <ele>603.6</ele>
        <time>2026-08-30T16:18:57Z</time>
      </trkpt>
      <trkpt lat="48.849659" lon="10.134240">
        <ele>603.8</ele>
        <time>2026-08-30T16:18:58Z</time>
      </trkpt>
      <trkpt lat="48.849665" lon="10.134261">
        <ele>604</ele>
        <time>2026-08-30T16:18:59Z</time>
      </trkpt>
      <trkpt lat="48.849674" lon="10.134290">
        <ele>604.2</ele>
        <time>2026-08-30T16:19:00Z</time>
      </trkpt>
      <trkpt lat="48.849681" lon="10.134314">
        <ele>604.4</ele>
        <time>2026-08-30T16:19:01Z</time>
      </trkpt>
      <trkpt lat="48.849684" lon="10.134339">
        <ele>604.4</ele>
        <time>2026-08-30T16:19:02Z</time>
      </trkpt>
      <trkpt lat="48.849691" lon="10.134362">
        <ele>604.6</ele>
        <time>2026-08-30T16:19:03Z</time>
      </trkpt>
      <trkpt lat="48.849698" lon="10.134386">
        <ele>604.8</ele>
        <time>2026-08-30T16:19:04Z</time>
      </trkpt>
      <trkpt lat="48.849707" lon="10.134406">
        <ele>605</ele>
        <time>2026-08-30T16:19:05Z</time>
      </trkpt>
      <trkpt lat="48.849713" lon="10.134420">
        <ele>605.2</ele>
        <time>2026-08-30T16:19:06Z</time>
      </trkpt>
      <trkpt lat="48.849719" lon="10.134440">
        <ele>605.4</ele>
        <time>2026-08-30T16:19:07Z</time>
      </trkpt>
      <trkpt lat="48.849725" lon="10.134459">
        <ele>605.6</ele>
        <time>2026-08-30T16:19:08Z</time>
      </trkpt>
      <trkpt lat="48.849729" lon="10.134478">
        <ele>605.8</ele>
        <time>2026-08-30T16:19:09Z</time>
      </trkpt>
      <trkpt lat="48.849737" lon="10.134503">
        <ele>606</ele>
        <time>2026-08-30T16:19:10Z</time>
      </trkpt>
      <trkpt lat="48.849742" lon="10.134521">
        <ele>606.2</ele>
        <time>2026-08-30T16:19:11Z</time>
      </trkpt>
      <trkpt lat="48.849751" lon="10.134540">
        <ele>606.2</ele>
        <time>2026-08-30T16:19:12Z</time>
      </trkpt>
      <trkpt lat="48.849759" lon="10.134555">
        <ele>606.4</ele>
        <time>2026-08-30T16:19:13Z</time>
      </trkpt>
      <trkpt lat="48.849766" lon="10.134572">
        <ele>606.6</ele>
        <time>2026-08-30T16:19:14Z</time>
      </trkpt>
      <trkpt lat="48.849768" lon="10.134593">
        <ele>606.8</ele>
        <time>2026-08-30T16:19:15Z</time>
      </trkpt>
      <trkpt lat="48.849772" lon="10.134616">
        <ele>607</ele>
        <time>2026-08-30T16:19:16Z</time>
      </trkpt>
      <trkpt lat="48.849776" lon="10.134631">
        <ele>607.2</ele>
        <time>2026-08-30T16:19:17Z</time>
      </trkpt>
      <trkpt lat="48.849784" lon="10.134649">
        <ele>607.2</ele>
        <time>2026-08-30T16:19:18Z</time>
      </trkpt>
      <trkpt lat="48.849792" lon="10.134667">
        <ele>607.4</ele>
        <time>2026-08-30T16:19:19Z</time>
      </trkpt>
      <trkpt lat="48.849794" lon="10.134688">
        <ele>607.6</ele>
        <time>2026-08-30T16:19:20Z</time>
      </trkpt>
      <trkpt lat="48.849796" lon="10.134708">
        <ele>607.8</ele>
        <time>2026-08-30T16:19:21Z</time>
      </trkpt>
      <trkpt lat="48.849801" lon="10.134729">
        <ele>607.8</ele>
        <time>2026-08-30T16:19:22Z</time>
      </trkpt>
      <trkpt lat="48.849805" lon="10.134747">
        <ele>608</ele>
        <time>2026-08-30T16:19:23Z</time>
      </trkpt>
      <trkpt lat="48.849814" lon="10.134769">
        <ele>608.2</ele>
        <time>2026-08-30T16:19:24Z</time>
      </trkpt>
      <trkpt lat="48.849821" lon="10.134793">
        <ele>608.4</ele>
        <time>2026-08-30T16:19:25Z</time>
      </trkpt>
      <trkpt lat="48.849825" lon="10.134814">
        <ele>608.6</ele>
        <time>2026-08-30T16:19:26Z</time>
      </trkpt>
      <trkpt lat="48.849832" lon="10.134832">
        <ele>608.8</ele>
        <time>2026-08-30T16:19:27Z</time>
      </trkpt>
      <trkpt lat="48.849835" lon="10.134854">
        <ele>609</ele>
        <time>2026-08-30T16:19:28Z</time>
      </trkpt>
      <trkpt lat="48.849838" lon="10.134872">
        <ele>609</ele>
        <time>2026-08-30T16:19:29Z</time>
      </trkpt>
      <trkpt lat="48.849840" lon="10.134893">
        <ele>609.2</ele>
        <time>2026-08-30T16:19:30Z</time>
      </trkpt>
      <trkpt lat="48.849842" lon="10.134914">
        <ele>609.4</ele>
        <time>2026-08-30T16:19:31Z</time>
      </trkpt>
      <trkpt lat="48.849845" lon="10.134939">
        <ele>609.6</ele>
        <time>2026-08-30T16:19:32Z</time>
      </trkpt>
      <trkpt lat="48.849850" lon="10.134961">
        <ele>609.8</ele>
        <time>2026-08-30T16:19:33Z</time>
      </trkpt>
      <trkpt lat="48.849850" lon="10.134984">
        <ele>609.8</ele>
        <time>2026-08-30T16:19:34Z</time>
      </trkpt>
      <trkpt lat="48.849854" lon="10.135007">
        <ele>610</ele>
        <time>2026-08-30T16:19:35Z</time>
      </trkpt>
      <trkpt lat="48.849859" lon="10.135028">
        <ele>610.2</ele>
        <time>2026-08-30T16:19:36Z</time>
      </trkpt>
      <trkpt lat="48.849869" lon="10.135053">
        <ele>610.4</ele>
        <time>2026-08-30T16:19:37Z</time>
      </trkpt>
      <trkpt lat="48.849875" lon="10.135074">
        <ele>610.4</ele>
        <time>2026-08-30T16:19:38Z</time>
      </trkpt>
      <trkpt lat="48.849877" lon="10.135095">
        <ele>610.6</ele>
        <time>2026-08-30T16:19:39Z</time>
      </trkpt>
      <trkpt lat="48.849883" lon="10.135114">
        <ele>610.8</ele>
        <time>2026-08-30T16:19:40Z</time>
      </trkpt>
      <trkpt lat="48.849886" lon="10.135135">
        <ele>611</ele>
        <time>2026-08-30T16:19:41Z</time>
      </trkpt>
      <trkpt lat="48.849892" lon="10.135155">
        <ele>611.2</ele>
        <time>2026-08-30T16:19:42Z</time>
      </trkpt>
      <trkpt lat="48.849895" lon="10.135174">
        <ele>611.2</ele>
        <time>2026-08-30T16:19:43Z</time>
      </trkpt>
      <trkpt lat="48.849899" lon="10.135197">
        <ele>611.4</ele>
        <time>2026-08-30T16:19:44Z</time>
      </trkpt>
      <trkpt lat="48.849902" lon="10.135223">
        <ele>611.6</ele>
        <time>2026-08-30T16:19:45Z</time>
      </trkpt>
      <trkpt lat="48.849906" lon="10.135249">
        <ele>611.8</ele>
        <time>2026-08-30T16:19:46Z</time>
      </trkpt>
      <trkpt lat="48.849912" lon="10.135268">
        <ele>612</ele>
        <time>2026-08-30T16:19:47Z</time>
      </trkpt>
      <trkpt lat="48.849917" lon="10.135289">
        <ele>612</ele>
        <time>2026-08-30T16:19:48Z</time>
      </trkpt>
      <trkpt lat="48.849920" lon="10.135313">
        <ele>612.2</ele>
        <time>2026-08-30T16:19:49Z</time>
      </trkpt>
      <trkpt lat="48.849921" lon="10.135333">
        <ele>612.4</ele>
        <time>2026-08-30T16:19:50Z</time>
      </trkpt>
      <trkpt lat="48.849924" lon="10.135356">
        <ele>612.6</ele>
        <time>2026-08-30T16:19:51Z</time>
      </trkpt>
      <trkpt lat="48.849924" lon="10.135373">
        <ele>612.8</ele>
        <time>2026-08-30T16:19:52Z</time>
      </trkpt>
      <trkpt lat="48.849926" lon="10.135394">
        <ele>612.8</ele>
        <time>2026-08-30T16:19:53Z</time>
      </trkpt>
      <trkpt lat="48.849933" lon="10.135422">
        <ele>613</ele>
        <time>2026-08-30T16:19:54Z</time>
      </trkpt>
      <trkpt lat="48.849937" lon="10.135447">
        <ele>613.2</ele>
        <time>2026-08-30T16:19:55Z</time>
      </trkpt>
      <trkpt lat="48.849941" lon="10.135465">
        <ele>613.4</ele>
        <time>2026-08-30T16:19:56Z</time>
      </trkpt>
      <trkpt lat="48.849949" lon="10.135489">
        <ele>613.6</ele>
        <time>2026-08-30T16:19:57Z</time>
      </trkpt>
      <trkpt lat="48.849954" lon="10.135514">
        <ele>613.6</ele>
        <time>2026-08-30T16:19:58Z</time>
      </trkpt>
      <trkpt lat="48.849958" lon="10.135536">
        <ele>613.8</ele>
        <time>2026-08-30T16:19:59Z</time>
      </trkpt>
      <trkpt lat="48.849962" lon="10.135551">
        <ele>614</ele>
        <time>2026-08-30T16:20:00Z</time>
      </trkpt>
      <trkpt lat="48.849970" lon="10.135569">
        <ele>614.2</ele>
        <time>2026-08-30T16:20:01Z</time>
      </trkpt>
      <trkpt lat="48.849970" lon="10.135583">
        <ele>614.4</ele>
        <time>2026-08-30T16:20:02Z</time>
      </trkpt>
      <trkpt lat="48.849973" lon="10.135603">
        <ele>614.6</ele>
        <time>2026-08-30T16:20:03Z</time>
      </trkpt>
      <trkpt lat="48.849980" lon="10.135622">
        <ele>614.6</ele>
        <time>2026-08-30T16:20:04Z</time>
      </trkpt>
      <trkpt lat="48.849985" lon="10.135646">
        <ele>614.8</ele>
        <time>2026-08-30T16:20:05Z</time>
      </trkpt>
      <trkpt lat="48.849991" lon="10.135673">
        <ele>615</ele>
        <time>2026-08-30T16:20:06Z</time>
      </trkpt>
      <trkpt lat="48.849995" lon="10.135695">
        <ele>615.2</ele>
        <time>2026-08-30T16:20:07Z</time>
      </trkpt>
      <trkpt lat="48.850001" lon="10.135713">
        <ele>615.4</ele>
        <time>2026-08-30T16:20:08Z</time>
      </trkpt>
      <trkpt lat="48.850004" lon="10.135742">
        <ele>615.6</ele>
        <time>2026-08-30T16:20:09Z</time>
      </trkpt>
      <trkpt lat="48.850010" lon="10.135763">
        <ele>615.8</ele>
        <time>2026-08-30T16:20:10Z</time>
      </trkpt>
      <trkpt lat="48.850017" lon="10.135792">
        <ele>616</ele>
        <time>2026-08-30T16:20:11Z</time>
      </trkpt>
      <trkpt lat="48.850022" lon="10.135810">
        <ele>616.2</ele>
        <time>2026-08-30T16:20:12Z</time>
      </trkpt>
      <trkpt lat="48.850031" lon="10.135833">
        <ele>616.2</ele>
        <time>2026-08-30T16:20:13Z</time>
      </trkpt>
      <trkpt lat="48.850037" lon="10.135851">
        <ele>616.4</ele>
        <time>2026-08-30T16:20:14Z</time>
      </trkpt>
      <trkpt lat="48.850042" lon="10.135876">
        <ele>616.6</ele>
        <time>2026-08-30T16:20:15Z</time>
      </trkpt>
      <trkpt lat="48.850047" lon="10.135900">
        <ele>616.8</ele>
        <time>2026-08-30T16:20:16Z</time>
      </trkpt>
      <trkpt lat="48.850049" lon="10.135921">
        <ele>617</ele>
        <time>2026-08-30T16:20:17Z</time>
      </trkpt>
      <trkpt lat="48.850049" lon="10.135945">
        <ele>617</ele>
        <time>2026-08-30T16:20:18Z</time>
      </trkpt>
      <trkpt lat="48.850050" lon="10.135969">
        <ele>617.2</ele>
        <time>2026-08-30T16:20:19Z</time>
      </trkpt>
      <trkpt lat="48.850054" lon="10.135996">
        <ele>617.4</ele>
        <time>2026-08-30T16:20:20Z</time>
      </trkpt>
      <trkpt lat="48.850060" lon="10.136022">
        <ele>617.6</ele>
        <time>2026-08-30T16:20:21Z</time>
      </trkpt>
      <trkpt lat="48.850063" lon="10.136046">
        <ele>617.8</ele>
        <time>2026-08-30T16:20:22Z</time>
      </trkpt>
      <trkpt lat="48.850066" lon="10.136066">
        <ele>618</ele>
        <time>2026-08-30T16:20:23Z</time>
      </trkpt>
      <trkpt lat="48.850072" lon="10.136082">
        <ele>618.2</ele>
        <time>2026-08-30T16:20:24Z</time>
      </trkpt>
      <trkpt lat="48.850077" lon="10.136099">
        <ele>618.4</ele>
        <time>2026-08-30T16:20:25Z</time>
      </trkpt>
      <trkpt lat="48.850083" lon="10.136123">
        <ele>618.6</ele>
        <time>2026-08-30T16:20:26Z</time>
      </trkpt>
      <trkpt lat="48.850088" lon="10.136148">
        <ele>618.8</ele>
        <time>2026-08-30T16:20:27Z</time>
      </trkpt>
      <trkpt lat="48.850091" lon="10.136169">
        <ele>618.8</ele>
        <time>2026-08-30T16:20:28Z</time>
      </trkpt>
      <trkpt lat="48.850095" lon="10.136186">
        <ele>619</ele>
        <time>2026-08-30T16:20:29Z</time>
      </trkpt>
      <trkpt lat="48.850099" lon="10.136206">
        <ele>619.2</ele>
        <time>2026-08-30T16:20:30Z</time>
      </trkpt>
      <trkpt lat="48.850105" lon="10.136230">
        <ele>619.4</ele>
        <time>2026-08-30T16:20:31Z</time>
      </trkpt>
      <trkpt lat="48.850105" lon="10.136257">
        <ele>619.6</ele>
        <time>2026-08-30T16:20:32Z</time>
      </trkpt>
      <trkpt lat="48.850108" lon="10.136283">
        <ele>619.8</ele>
        <time>2026-08-30T16:20:33Z</time>
      </trkpt>
      <trkpt lat="48.850113" lon="10.136303">
        <ele>620</ele>
        <time>2026-08-30T16:20:34Z</time>
      </trkpt>
      <trkpt lat="48.850122" lon="10.136322">
        <ele>620.2</ele>
        <time>2026-08-30T16:20:35Z</time>
      </trkpt>
      <trkpt lat="48.850126" lon="10.136344">
        <ele>620.4</ele>
        <time>2026-08-30T16:20:36Z</time>
      </trkpt>
      <trkpt lat="48.850126" lon="10.136362">
        <ele>620.4</ele>
        <time>2026-08-30T16:20:37Z</time>
      </trkpt>
      <trkpt lat="48.850128" lon="10.136386">
        <ele>620.6</ele>
        <time>2026-08-30T16:20:38Z</time>
      </trkpt>
      <trkpt lat="48.850131" lon="10.136410">
        <ele>620.8</ele>
        <time>2026-08-30T16:20:39Z</time>
      </trkpt>
      <trkpt lat="48.850133" lon="10.136431">
        <ele>621</ele>
        <time>2026-08-30T16:20:40Z</time>
      </trkpt>
      <trkpt lat="48.850137" lon="10.136454">
        <ele>621.2</ele>
        <time>2026-08-30T16:20:41Z</time>
      </trkpt>
      <trkpt lat="48.850140" lon="10.136475">
        <ele>621.2</ele>
        <time>2026-08-30T16:20:42Z</time>
      </trkpt>
      <trkpt lat="48.850143" lon="10.136494">
        <ele>621.4</ele>
        <time>2026-08-30T16:20:43Z</time>
      </trkpt>
      <trkpt lat="48.850148" lon="10.136514">
        <ele>621.6</ele>
        <time>2026-08-30T16:20:44Z</time>
      </trkpt>
      <trkpt lat="48.850151" lon="10.136536">
        <ele>621.8</ele>
        <time>2026-08-30T16:20:45Z</time>
      </trkpt>
      <trkpt lat="48.850154" lon="10.136561">
        <ele>622</ele>
        <time>2026-08-30T16:20:46Z</time>
      </trkpt>
      <trkpt lat="48.850155" lon="10.136584">
        <ele>622.2</ele>
        <time>2026-08-30T16:20:47Z</time>
      </trkpt>
      <trkpt lat="48.850155" lon="10.136606">
        <ele>622.2</ele>
        <time>2026-08-30T16:20:48Z</time>
      </trkpt>
      <trkpt lat="48.850159" lon="10.136626">
        <ele>622.4</ele>
        <time>2026-08-30T16:20:49Z</time>
      </trkpt>
      <trkpt lat="48.850160" lon="10.136649">
        <ele>622.4</ele>
        <time>2026-08-30T16:20:50Z</time>
      </trkpt>
      <trkpt lat="48.850162" lon="10.136670">
        <ele>622.8</ele>
        <time>2026-08-30T16:20:51Z</time>
      </trkpt>
      <trkpt lat="48.850164" lon="10.136691">
        <ele>622.8</ele>
        <time>2026-08-30T16:20:52Z</time>
      </trkpt>
      <trkpt lat="48.850165" lon="10.136713">
        <ele>623</ele>
        <time>2026-08-30T16:20:53Z</time>
      </trkpt>
      <trkpt lat="48.850171" lon="10.136734">
        <ele>623.2</ele>
        <time>2026-08-30T16:20:54Z</time>
      </trkpt>
      <trkpt lat="48.850178" lon="10.136752">
        <ele>623.4</ele>
        <time>2026-08-30T16:20:55Z</time>
      </trkpt>
      <trkpt lat="48.850185" lon="10.136774">
        <ele>623.6</ele>
        <time>2026-08-30T16:20:56Z</time>
      </trkpt>
      <trkpt lat="48.850189" lon="10.136799">
        <ele>623.6</ele>
        <time>2026-08-30T16:20:57Z</time>
      </trkpt>
      <trkpt lat="48.850193" lon="10.136827">
        <ele>623.8</ele>
        <time>2026-08-30T16:20:58Z</time>
      </trkpt>
      <trkpt lat="48.850197" lon="10.136858">
        <ele>624</ele>
        <time>2026-08-30T16:20:59Z</time>
      </trkpt>
      <trkpt lat="48.850197" lon="10.136878">
        <ele>624.2</ele>
        <time>2026-08-30T16:21:00Z</time>
      </trkpt>
      <trkpt lat="48.850196" lon="10.136899">
        <ele>624.4</ele>
        <time>2026-08-30T16:21:01Z</time>
      </trkpt>
      <trkpt lat="48.850198" lon="10.136914">
        <ele>624.4</ele>
        <time>2026-08-30T16:21:02Z</time>
      </trkpt>
      <trkpt lat="48.850202" lon="10.136933">
        <ele>624.6</ele>
        <time>2026-08-30T16:21:03Z</time>
      </trkpt>
      <trkpt lat="48.850202" lon="10.136952">
        <ele>624.8</ele>
        <time>2026-08-30T16:21:04Z</time>
      </trkpt>
      <trkpt lat="48.850206" lon="10.136973">
        <ele>624.8</ele>
        <time>2026-08-30T16:21:05Z</time>
      </trkpt>
      <trkpt lat="48.850209" lon="10.137001">
        <ele>625</ele>
        <time>2026-08-30T16:21:06Z</time>
      </trkpt>
      <trkpt lat="48.850213" lon="10.137031">
        <ele>625.2</ele>
        <time>2026-08-30T16:21:07Z</time>
      </trkpt>
      <trkpt lat="48.850219" lon="10.137055">
        <ele>625.4</ele>
        <time>2026-08-30T16:21:08Z</time>
      </trkpt>
      <trkpt lat="48.850225" lon="10.137079">
        <ele>625.4</ele>
        <time>2026-08-30T16:21:09Z</time>
      </trkpt>
      <trkpt lat="48.850229" lon="10.137100">
        <ele>625.6</ele>
        <time>2026-08-30T16:21:10Z</time>
      </trkpt>
      <trkpt lat="48.850234" lon="10.137120">
        <ele>626</ele>
        <time>2026-08-30T16:21:11Z</time>
      </trkpt>
      <trkpt lat="48.850238" lon="10.137142">
        <ele>626</ele>
        <time>2026-08-30T16:21:12Z</time>
      </trkpt>
      <trkpt lat="48.850241" lon="10.137159">
        <ele>626.2</ele>
        <time>2026-08-30T16:21:13Z</time>
      </trkpt>
      <trkpt lat="48.850246" lon="10.137181">
        <ele>626.4</ele>
        <time>2026-08-30T16:21:14Z</time>
      </trkpt>
      <trkpt lat="48.850249" lon="10.137200">
        <ele>626.6</ele>
        <time>2026-08-30T16:21:15Z</time>
      </trkpt>
      <trkpt lat="48.850253" lon="10.137227">
        <ele>626.8</ele>
        <time>2026-08-30T16:21:16Z</time>
      </trkpt>
      <trkpt lat="48.850258" lon="10.137252">
        <ele>627</ele>
        <time>2026-08-30T16:21:17Z</time>
      </trkpt>
      <trkpt lat="48.850260" lon="10.137273">
        <ele>627.2</ele>
        <time>2026-08-30T16:21:18Z</time>
      </trkpt>
      <trkpt lat="48.850264" lon="10.137294">
        <ele>627.2</ele>
        <time>2026-08-30T16:21:19Z</time>
      </trkpt>
      <trkpt lat="48.850268" lon="10.137317">
        <ele>627.4</ele>
        <time>2026-08-30T16:21:20Z</time>
      </trkpt>
      <trkpt lat="48.850271" lon="10.137344">
        <ele>627.6</ele>
        <time>2026-08-30T16:21:21Z</time>
      </trkpt>
      <trkpt lat="48.850275" lon="10.137362">
        <ele>627.8</ele>
        <time>2026-08-30T16:21:22Z</time>
      </trkpt>
      <trkpt lat="48.850275" lon="10.137385">
        <ele>628</ele>
        <time>2026-08-30T16:21:23Z</time>
      </trkpt>
      <trkpt lat="48.850276" lon="10.137409">
        <ele>628</ele>
        <time>2026-08-30T16:21:24Z</time>
      </trkpt>
      <trkpt lat="48.850278" lon="10.137432">
        <ele>628.2</ele>
        <time>2026-08-30T16:21:25Z</time>
      </trkpt>
      <trkpt lat="48.850280" lon="10.137456">
        <ele>628.4</ele>
        <time>2026-08-30T16:21:26Z</time>
      </trkpt>
      <trkpt lat="48.850283" lon="10.137475">
        <ele>628.6</ele>
        <time>2026-08-30T16:21:27Z</time>
      </trkpt>
      <trkpt lat="48.850290" lon="10.137496">
        <ele>628.8</ele>
        <time>2026-08-30T16:21:28Z</time>
      </trkpt>
      <trkpt lat="48.850295" lon="10.137515">
        <ele>629</ele>
        <time>2026-08-30T16:21:29Z</time>
      </trkpt>
      <trkpt lat="48.850302" lon="10.137538">
        <ele>629.2</ele>
        <time>2026-08-30T16:21:30Z</time>
      </trkpt>
      <trkpt lat="48.850310" lon="10.137563">
        <ele>629.4</ele>
        <time>2026-08-30T16:21:31Z</time>
      </trkpt>
      <trkpt lat="48.850314" lon="10.137591">
        <ele>629.6</ele>
        <time>2026-08-30T16:21:32Z</time>
      </trkpt>
      <trkpt lat="48.850321" lon="10.137617">
        <ele>629.8</ele>
        <time>2026-08-30T16:21:33Z</time>
      </trkpt>
      <trkpt lat="48.850328" lon="10.137640">
        <ele>630</ele>
        <time>2026-08-30T16:21:34Z</time>
      </trkpt>
      <trkpt lat="48.850338" lon="10.137661">
        <ele>630</ele>
        <time>2026-08-30T16:21:35Z</time>
      </trkpt>
      <trkpt lat="48.850344" lon="10.137682">
        <ele>630.4</ele>
        <time>2026-08-30T16:21:36Z</time>
      </trkpt>
      <trkpt lat="48.850354" lon="10.137703">
        <ele>630.6</ele>
        <time>2026-08-30T16:21:37Z</time>
      </trkpt>
      <trkpt lat="48.850358" lon="10.137728">
        <ele>630.6</ele>
        <time>2026-08-30T16:21:38Z</time>
      </trkpt>
      <trkpt lat="48.850363" lon="10.137757">
        <ele>630.8</ele>
        <time>2026-08-30T16:21:39Z</time>
      </trkpt>
      <trkpt lat="48.850369" lon="10.137778">
        <ele>631</ele>
        <time>2026-08-30T16:21:40Z</time>
      </trkpt>
      <trkpt lat="48.850375" lon="10.137794">
        <ele>631.2</ele>
        <time>2026-08-30T16:21:41Z</time>
      </trkpt>
      <trkpt lat="48.850380" lon="10.137808">
        <ele>631.4</ele>
        <time>2026-08-30T16:21:42Z</time>
      </trkpt>
      <trkpt lat="48.850384" lon="10.137824">
        <ele>631.6</ele>
        <time>2026-08-30T16:21:43Z</time>
      </trkpt>
      <trkpt lat="48.850385" lon="10.137844">
        <ele>631.8</ele>
        <time>2026-08-30T16:21:44Z</time>
      </trkpt>
      <trkpt lat="48.850387" lon="10.137864">
        <ele>632</ele>
        <time>2026-08-30T16:21:45Z</time>
      </trkpt>
      <trkpt lat="48.850393" lon="10.137884">
        <ele>632</ele>
        <time>2026-08-30T16:21:46Z</time>
      </trkpt>
      <trkpt lat="48.850398" lon="10.137899">
        <ele>632.2</ele>
        <time>2026-08-30T16:21:47Z</time>
      </trkpt>
      <trkpt lat="48.850403" lon="10.137917">
        <ele>632.4</ele>
        <time>2026-08-30T16:21:48Z</time>
      </trkpt>
      <trkpt lat="48.850406" lon="10.137931">
        <ele>632.6</ele>
        <time>2026-08-30T16:21:49Z</time>
      </trkpt>
      <trkpt lat="48.850404" lon="10.137950">
        <ele>632.8</ele>
        <time>2026-08-30T16:21:50Z</time>
      </trkpt>
      <trkpt lat="48.850404" lon="10.137975">
        <ele>632.8</ele>
        <time>2026-08-30T16:21:51Z</time>
      </trkpt>
      <trkpt lat="48.850404" lon="10.138000">
        <ele>633</ele>
        <time>2026-08-30T16:21:52Z</time>
      </trkpt>
      <trkpt lat="48.850409" lon="10.138026">
        <ele>633.2</ele>
        <time>2026-08-30T16:21:53Z</time>
      </trkpt>
      <trkpt lat="48.850412" lon="10.138049">
        <ele>633.4</ele>
        <time>2026-08-30T16:21:54Z</time>
      </trkpt>
      <trkpt lat="48.850413" lon="10.138071">
        <ele>633.4</ele>
        <time>2026-08-30T16:21:55Z</time>
      </trkpt>
      <trkpt lat="48.850417" lon="10.138093">
        <ele>633.6</ele>
        <time>2026-08-30T16:21:56Z</time>
      </trkpt>
      <trkpt lat="48.850421" lon="10.138118">
        <ele>633.8</ele>
        <time>2026-08-30T16:21:57Z</time>
      </trkpt>
      <trkpt lat="48.850424" lon="10.138142">
        <ele>634</ele>
        <time>2026-08-30T16:21:58Z</time>
      </trkpt>
      <trkpt lat="48.850426" lon="10.138165">
        <ele>634.2</ele>
        <time>2026-08-30T16:21:59Z</time>
      </trkpt>
      <trkpt lat="48.850429" lon="10.138186">
        <ele>634.2</ele>
        <time>2026-08-30T16:22:00Z</time>
      </trkpt>
      <trkpt lat="48.850429" lon="10.138204">
        <ele>634.4</ele>
        <time>2026-08-30T16:22:01Z</time>
      </trkpt>
      <trkpt lat="48.850431" lon="10.138227">
        <ele>634.6</ele>
        <time>2026-08-30T16:22:02Z</time>
      </trkpt>
      <trkpt lat="48.850435" lon="10.138248">
        <ele>634.8</ele>
        <time>2026-08-30T16:22:03Z</time>
      </trkpt>
      <trkpt lat="48.850440" lon="10.138272">
        <ele>634.8</ele>
        <time>2026-08-30T16:22:04Z</time>
      </trkpt>
      <trkpt lat="48.850445" lon="10.138295">
        <ele>635</ele>
        <time>2026-08-30T16:22:05Z</time>
      </trkpt>
      <trkpt lat="48.850447" lon="10.138318">
        <ele>635.2</ele>
        <time>2026-08-30T16:22:06Z</time>
      </trkpt>
      <trkpt lat="48.850448" lon="10.138345">
        <ele>635.4</ele>
        <time>2026-08-30T16:22:07Z</time>
      </trkpt>
      <trkpt lat="48.850451" lon="10.138375">
        <ele>635.6</ele>
        <time>2026-08-30T16:22:08Z</time>
      </trkpt>
      <trkpt lat="48.850455" lon="10.138406">
        <ele>635.8</ele>
        <time>2026-08-30T16:22:09Z</time>
      </trkpt>
      <trkpt lat="48.850461" lon="10.138431">
        <ele>636</ele>
        <time>2026-08-30T16:22:10Z</time>
      </trkpt>
      <trkpt lat="48.850462" lon="10.138454">
        <ele>636</ele>
        <time>2026-08-30T16:22:11Z</time>
      </trkpt>
      <trkpt lat="48.850464" lon="10.138477">
        <ele>636.4</ele>
        <time>2026-08-30T16:22:12Z</time>
      </trkpt>
      <trkpt lat="48.850466" lon="10.138507">
        <ele>636.4</ele>
        <time>2026-08-30T16:22:13Z</time>
      </trkpt>
      <trkpt lat="48.850470" lon="10.138527">
        <ele>636.6</ele>
        <time>2026-08-30T16:22:14Z</time>
      </trkpt>
      <trkpt lat="48.850474" lon="10.138548">
        <ele>636.8</ele>
        <time>2026-08-30T16:22:15Z</time>
      </trkpt>
      <trkpt lat="48.850475" lon="10.138569">
        <ele>637</ele>
        <time>2026-08-30T16:22:16Z</time>
      </trkpt>
      <trkpt lat="48.850478" lon="10.138588">
        <ele>637.2</ele>
        <time>2026-08-30T16:22:17Z</time>
      </trkpt>
      <trkpt lat="48.850482" lon="10.138601">
        <ele>637.4</ele>
        <time>2026-08-30T16:22:18Z</time>
      </trkpt>
      <trkpt lat="48.850482" lon="10.138628">
        <ele>637.6</ele>
        <time>2026-08-30T16:22:19Z</time>
      </trkpt>
      <trkpt lat="48.850483" lon="10.138657">
        <ele>637.6</ele>
        <time>2026-08-30T16:22:20Z</time>
      </trkpt>
      <trkpt lat="48.850486" lon="10.138683">
        <ele>637.8</ele>
        <time>2026-08-30T16:22:21Z</time>
      </trkpt>
      <trkpt lat="48.850486" lon="10.138683">
        <ele>638</ele>
        <time>2026-08-30T16:22:22Z</time>
      </trkpt>
      <trkpt lat="48.850491" lon="10.138736">
        <ele>638.2</ele>
        <time>2026-08-30T16:22:23Z</time>
      </trkpt>
      <trkpt lat="48.850489" lon="10.138763">
        <ele>638.4</ele>
        <time>2026-08-30T16:22:24Z</time>
      </trkpt>
      <trkpt lat="48.850491" lon="10.138783">
        <ele>638.6</ele>
        <time>2026-08-30T16:22:25Z</time>
      </trkpt>
      <trkpt lat="48.850494" lon="10.138805">
        <ele>638.6</ele>
        <time>2026-08-30T16:22:26Z</time>
      </trkpt>
      <trkpt lat="48.850497" lon="10.138830">
        <ele>638.8</ele>
        <time>2026-08-30T16:22:27Z</time>
      </trkpt>
      <trkpt lat="48.850499" lon="10.138852">
        <ele>639</ele>
        <time>2026-08-30T16:22:28Z</time>
      </trkpt>
      <trkpt lat="48.850501" lon="10.138876">
        <ele>639.2</ele>
        <time>2026-08-30T16:22:29Z</time>
      </trkpt>
      <trkpt lat="48.850501" lon="10.138903">
        <ele>639.4</ele>
        <time>2026-08-30T16:22:30Z</time>
      </trkpt>
      <trkpt lat="48.850503" lon="10.138924">
        <ele>639.6</ele>
        <time>2026-08-30T16:22:31Z</time>
      </trkpt>
      <trkpt lat="48.850505" lon="10.138951">
        <ele>639.8</ele>
        <time>2026-08-30T16:22:32Z</time>
      </trkpt>
      <trkpt lat="48.850504" lon="10.138971">
        <ele>639.8</ele>
        <time>2026-08-30T16:22:33Z</time>
      </trkpt>
      <trkpt lat="48.850508" lon="10.138993">
        <ele>640</ele>
        <time>2026-08-30T16:22:34Z</time>
      </trkpt>
      <trkpt lat="48.850509" lon="10.139021">
        <ele>640.2</ele>
        <time>2026-08-30T16:22:35Z</time>
      </trkpt>
      <trkpt lat="48.850501" lon="10.139045">
        <ele>640.2</ele>
        <time>2026-08-30T16:22:36Z</time>
      </trkpt>
      <trkpt lat="48.850490" lon="10.139060">
        <ele>640.4</ele>
        <time>2026-08-30T16:22:37Z</time>
      </trkpt>
      <trkpt lat="48.850473" lon="10.139067">
        <ele>640.6</ele>
        <time>2026-08-30T16:22:38Z</time>
      </trkpt>
      <trkpt lat="48.850451" lon="10.139066">
        <ele>640.8</ele>
        <time>2026-08-30T16:22:39Z</time>
      </trkpt>
      <trkpt lat="48.850431" lon="10.139059">
        <ele>640.8</ele>
        <time>2026-08-30T16:22:40Z</time>
      </trkpt>
      <trkpt lat="48.850412" lon="10.139043">
        <ele>641</ele>
        <time>2026-08-30T16:22:41Z</time>
      </trkpt>
      <trkpt lat="48.850396" lon="10.139024">
        <ele>641.2</ele>
        <time>2026-08-30T16:22:42Z</time>
      </trkpt>
      <trkpt lat="48.850380" lon="10.139005">
        <ele>641.4</ele>
        <time>2026-08-30T16:22:43Z</time>
      </trkpt>
      <trkpt lat="48.850364" lon="10.138983">
        <ele>641.6</ele>
        <time>2026-08-30T16:22:44Z</time>
      </trkpt>
      <trkpt lat="48.850351" lon="10.138954">
        <ele>641.6</ele>
        <time>2026-08-30T16:22:45Z</time>
      </trkpt>
      <trkpt lat="48.850343" lon="10.138924">
        <ele>641.8</ele>
        <time>2026-08-30T16:22:46Z</time>
      </trkpt>
      <trkpt lat="48.850336" lon="10.138899">
        <ele>642</ele>
        <time>2026-08-30T16:22:47Z</time>
      </trkpt>
      <trkpt lat="48.850327" lon="10.138869">
        <ele>642.2</ele>
        <time>2026-08-30T16:22:48Z</time>
      </trkpt>
      <trkpt lat="48.850319" lon="10.138846">
        <ele>642.2</ele>
        <time>2026-08-30T16:22:49Z</time>
      </trkpt>
      <trkpt lat="48.850313" lon="10.138821">
        <ele>642.4</ele>
        <time>2026-08-30T16:22:50Z</time>
      </trkpt>
      <trkpt lat="48.850312" lon="10.138791">
        <ele>642.4</ele>
        <time>2026-08-30T16:22:51Z</time>
      </trkpt>
      <trkpt lat="48.850309" lon="10.138759">
        <ele>642.6</ele>
        <time>2026-08-30T16:22:52Z</time>
      </trkpt>
      <trkpt lat="48.850304" lon="10.138730">
        <ele>642.6</ele>
        <time>2026-08-30T16:22:53Z</time>
      </trkpt>
      <trkpt lat="48.850297" lon="10.138700">
        <ele>642.8</ele>
        <time>2026-08-30T16:22:54Z</time>
      </trkpt>
      <trkpt lat="48.850288" lon="10.138666">
        <ele>642.8</ele>
        <time>2026-08-30T16:22:55Z</time>
      </trkpt>
      <trkpt lat="48.850284" lon="10.138633">
        <ele>643</ele>
        <time>2026-08-30T16:22:56Z</time>
      </trkpt>
      <trkpt lat="48.850273" lon="10.138603">
        <ele>643</ele>
        <time>2026-08-30T16:22:57Z</time>
      </trkpt>
      <trkpt lat="48.850264" lon="10.138571">
        <ele>643.2</ele>
        <time>2026-08-30T16:22:58Z</time>
      </trkpt>
      <trkpt lat="48.850255" lon="10.138546">
        <ele>643.2</ele>
        <time>2026-08-30T16:22:59Z</time>
      </trkpt>
      <trkpt lat="48.850247" lon="10.138519">
        <ele>643.4</ele>
        <time>2026-08-30T16:23:00Z</time>
      </trkpt>
      <trkpt lat="48.850238" lon="10.138492">
        <ele>643.4</ele>
        <time>2026-08-30T16:23:01Z</time>
      </trkpt>
      <trkpt lat="48.850227" lon="10.138466">
        <ele>643.6</ele>
        <time>2026-08-30T16:23:02Z</time>
      </trkpt>
      <trkpt lat="48.850216" lon="10.138437">
        <ele>643.6</ele>
        <time>2026-08-30T16:23:03Z</time>
      </trkpt>
      <trkpt lat="48.850206" lon="10.138407">
        <ele>643.8</ele>
        <time>2026-08-30T16:23:04Z</time>
      </trkpt>
      <trkpt lat="48.850196" lon="10.138375">
        <ele>643.8</ele>
        <time>2026-08-30T16:23:05Z</time>
      </trkpt>
      <trkpt lat="48.850186" lon="10.138349">
        <ele>644</ele>
        <time>2026-08-30T16:23:06Z</time>
      </trkpt>
      <trkpt lat="48.850178" lon="10.138319">
        <ele>644</ele>
        <time>2026-08-30T16:23:07Z</time>
      </trkpt>
      <trkpt lat="48.850164" lon="10.138290">
        <ele>644.2</ele>
        <time>2026-08-30T16:23:08Z</time>
      </trkpt>
      <trkpt lat="48.850151" lon="10.138260">
        <ele>644.4</ele>
        <time>2026-08-30T16:23:09Z</time>
      </trkpt>
      <trkpt lat="48.850142" lon="10.138234">
        <ele>644.4</ele>
        <time>2026-08-30T16:23:10Z</time>
      </trkpt>
      <trkpt lat="48.850133" lon="10.138202">
        <ele>644.6</ele>
        <time>2026-08-30T16:23:11Z</time>
      </trkpt>
      <trkpt lat="48.850121" lon="10.138167">
        <ele>644.6</ele>
        <time>2026-08-30T16:23:12Z</time>
      </trkpt>
      <trkpt lat="48.850109" lon="10.138144">
        <ele>644.8</ele>
        <time>2026-08-30T16:23:13Z</time>
      </trkpt>
      <trkpt lat="48.850099" lon="10.138126">
        <ele>645</ele>
        <time>2026-08-30T16:23:14Z</time>
      </trkpt>
      <trkpt lat="48.850089" lon="10.138112">
        <ele>645</ele>
        <time>2026-08-30T16:23:15Z</time>
      </trkpt>
      <trkpt lat="48.850080" lon="10.138086">
        <ele>645.2</ele>
        <time>2026-08-30T16:23:16Z</time>
      </trkpt>
      <trkpt lat="48.850071" lon="10.138061">
        <ele>645.2</ele>
        <time>2026-08-30T16:23:17Z</time>
      </trkpt>
      <trkpt lat="48.850061" lon="10.138039">
        <ele>645.4</ele>
        <time>2026-08-30T16:23:18Z</time>
      </trkpt>
      <trkpt lat="48.850050" lon="10.138017">
        <ele>645.6</ele>
        <time>2026-08-30T16:23:19Z</time>
      </trkpt>
      <trkpt lat="48.850039" lon="10.137993">
        <ele>645.8</ele>
        <time>2026-08-30T16:23:20Z</time>
      </trkpt>
      <trkpt lat="48.850030" lon="10.137967">
        <ele>645.8</ele>
        <time>2026-08-30T16:23:21Z</time>
      </trkpt>
      <trkpt lat="48.850014" lon="10.137943">
        <ele>646</ele>
        <time>2026-08-30T16:23:22Z</time>
      </trkpt>
      <trkpt lat="48.850003" lon="10.137921">
        <ele>646.2</ele>
        <time>2026-08-30T16:23:23Z</time>
      </trkpt>
      <trkpt lat="48.849987" lon="10.137896">
        <ele>646.4</ele>
        <time>2026-08-30T16:23:24Z</time>
      </trkpt>
      <trkpt lat="48.849973" lon="10.137867">
        <ele>646.6</ele>
        <time>2026-08-30T16:23:25Z</time>
      </trkpt>
      <trkpt lat="48.849953" lon="10.137840">
        <ele>646.6</ele>
        <time>2026-08-30T16:23:26Z</time>
      </trkpt>
      <trkpt lat="48.849940" lon="10.137823">
        <ele>646.8</ele>
        <time>2026-08-30T16:23:27Z</time>
      </trkpt>
      <trkpt lat="48.849929" lon="10.137797">
        <ele>647</ele>
        <time>2026-08-30T16:23:28Z</time>
      </trkpt>
      <trkpt lat="48.849910" lon="10.137769">
        <ele>647.2</ele>
        <time>2026-08-30T16:23:29Z</time>
      </trkpt>
      <trkpt lat="48.849899" lon="10.137752">
        <ele>647.2</ele>
        <time>2026-08-30T16:23:30Z</time>
      </trkpt>
      <trkpt lat="48.849886" lon="10.137733">
        <ele>647.4</ele>
        <time>2026-08-30T16:23:31Z</time>
      </trkpt>
      <trkpt lat="48.849871" lon="10.137714">
        <ele>647.6</ele>
        <time>2026-08-30T16:23:32Z</time>
      </trkpt>
      <trkpt lat="48.849857" lon="10.137697">
        <ele>647.6</ele>
        <time>2026-08-30T16:23:33Z</time>
      </trkpt>
      <trkpt lat="48.849844" lon="10.137675">
        <ele>647.8</ele>
        <time>2026-08-30T16:23:34Z</time>
      </trkpt>
      <trkpt lat="48.849827" lon="10.137657">
        <ele>648</ele>
        <time>2026-08-30T16:23:35Z</time>
      </trkpt>
      <trkpt lat="48.849811" lon="10.137632">
        <ele>648.2</ele>
        <time>2026-08-30T16:23:36Z</time>
      </trkpt>
      <trkpt lat="48.849799" lon="10.137611">
        <ele>648.2</ele>
        <time>2026-08-30T16:23:37Z</time>
      </trkpt>
      <trkpt lat="48.849784" lon="10.137591">
        <ele>648.6</ele>
        <time>2026-08-30T16:23:38Z</time>
      </trkpt>
      <trkpt lat="48.849767" lon="10.137571">
        <ele>648.8</ele>
        <time>2026-08-30T16:23:39Z</time>
      </trkpt>
      <trkpt lat="48.849752" lon="10.137552">
        <ele>648.8</ele>
        <time>2026-08-30T16:23:40Z</time>
      </trkpt>
      <trkpt lat="48.849737" lon="10.137528">
        <ele>649</ele>
        <time>2026-08-30T16:23:41Z</time>
      </trkpt>
      <trkpt lat="48.849723" lon="10.137512">
        <ele>649.2</ele>
        <time>2026-08-30T16:23:42Z</time>
      </trkpt>
      <trkpt lat="48.849708" lon="10.137492">
        <ele>649.4</ele>
        <time>2026-08-30T16:23:43Z</time>
      </trkpt>
      <trkpt lat="48.849692" lon="10.137472">
        <ele>649.6</ele>
        <time>2026-08-30T16:23:44Z</time>
      </trkpt>
      <trkpt lat="48.849678" lon="10.137460">
        <ele>649.8</ele>
        <time>2026-08-30T16:23:45Z</time>
      </trkpt>
      <trkpt lat="48.849660" lon="10.137439">
        <ele>650</ele>
        <time>2026-08-30T16:23:46Z</time>
      </trkpt>
      <trkpt lat="48.849645" lon="10.137417">
        <ele>650</ele>
        <time>2026-08-30T16:23:47Z</time>
      </trkpt>
      <trkpt lat="48.849631" lon="10.137396">
        <ele>650.4</ele>
        <time>2026-08-30T16:23:48Z</time>
      </trkpt>
      <trkpt lat="48.849615" lon="10.137377">
        <ele>650.4</ele>
        <time>2026-08-30T16:23:49Z</time>
      </trkpt>
      <trkpt lat="48.849603" lon="10.137358">
        <ele>650.6</ele>
        <time>2026-08-30T16:23:50Z</time>
      </trkpt>
      <trkpt lat="48.849589" lon="10.137334">
        <ele>650.8</ele>
        <time>2026-08-30T16:23:51Z</time>
      </trkpt>
      <trkpt lat="48.849575" lon="10.137311">
        <ele>650.8</ele>
        <time>2026-08-30T16:23:52Z</time>
      </trkpt>
      <trkpt lat="48.849560" lon="10.137294">
        <ele>651</ele>
        <time>2026-08-30T16:23:53Z</time>
      </trkpt>
      <trkpt lat="48.849546" lon="10.137278">
        <ele>651.2</ele>
        <time>2026-08-30T16:23:54Z</time>
      </trkpt>
      <trkpt lat="48.849534" lon="10.137264">
        <ele>651.4</ele>
        <time>2026-08-30T16:23:55Z</time>
      </trkpt>
      <trkpt lat="48.849521" lon="10.137250">
        <ele>651.6</ele>
        <time>2026-08-30T16:23:56Z</time>
      </trkpt>
      <trkpt lat="48.849509" lon="10.137230">
        <ele>651.6</ele>
        <time>2026-08-30T16:23:57Z</time>
      </trkpt>
      <trkpt lat="48.849494" lon="10.137207">
        <ele>651.8</ele>
        <time>2026-08-30T16:23:58Z</time>
      </trkpt>
      <trkpt lat="48.849481" lon="10.137187">
        <ele>652</ele>
        <time>2026-08-30T16:23:59Z</time>
      </trkpt>
      <trkpt lat="48.849469" lon="10.137168">
        <ele>652.2</ele>
        <time>2026-08-30T16:24:00Z</time>
      </trkpt>
      <trkpt lat="48.849457" lon="10.137148">
        <ele>652.2</ele>
        <time>2026-08-30T16:24:01Z</time>
      </trkpt>
      <trkpt lat="48.849448" lon="10.137134">
        <ele>652.4</ele>
        <time>2026-08-30T16:24:02Z</time>
      </trkpt>
      <trkpt lat="48.849433" lon="10.137119">
        <ele>652.6</ele>
        <time>2026-08-30T16:24:03Z</time>
      </trkpt>
      <trkpt lat="48.849420" lon="10.137097">
        <ele>652.8</ele>
        <time>2026-08-30T16:24:04Z</time>
      </trkpt>
      <trkpt lat="48.849406" lon="10.137078">
        <ele>652.8</ele>
        <time>2026-08-30T16:24:05Z</time>
      </trkpt>
      <trkpt lat="48.849392" lon="10.137058">
        <ele>653</ele>
        <time>2026-08-30T16:24:06Z</time>
      </trkpt>
      <trkpt lat="48.849378" lon="10.137038">
        <ele>653.2</ele>
        <time>2026-08-30T16:24:07Z</time>
      </trkpt>
      <trkpt lat="48.849363" lon="10.137018">
        <ele>653.4</ele>
        <time>2026-08-30T16:24:08Z</time>
      </trkpt>
      <trkpt lat="48.849351" lon="10.136999">
        <ele>653.4</ele>
        <time>2026-08-30T16:24:09Z</time>
      </trkpt>
      <trkpt lat="48.849334" lon="10.136977">
        <ele>653.6</ele>
        <time>2026-08-30T16:24:10Z</time>
      </trkpt>
      <trkpt lat="48.849319" lon="10.136955">
        <ele>653.8</ele>
        <time>2026-08-30T16:24:11Z</time>
      </trkpt>
      <trkpt lat="48.849304" lon="10.136932">
        <ele>653.8</ele>
        <time>2026-08-30T16:24:12Z</time>
      </trkpt>
      <trkpt lat="48.849287" lon="10.136916">
        <ele>654</ele>
        <time>2026-08-30T16:24:13Z</time>
      </trkpt>
      <trkpt lat="48.849276" lon="10.136899">
        <ele>654.2</ele>
        <time>2026-08-30T16:24:14Z</time>
      </trkpt>
      <trkpt lat="48.849261" lon="10.136877">
        <ele>654.4</ele>
        <time>2026-08-30T16:24:15Z</time>
      </trkpt>
      <trkpt lat="48.849244" lon="10.136859">
        <ele>654.4</ele>
        <time>2026-08-30T16:24:16Z</time>
      </trkpt>
      <trkpt lat="48.849231" lon="10.136836">
        <ele>654.6</ele>
        <time>2026-08-30T16:24:17Z</time>
      </trkpt>
      <trkpt lat="48.849219" lon="10.136812">
        <ele>654.8</ele>
        <time>2026-08-30T16:24:18Z</time>
      </trkpt>
      <trkpt lat="48.849204" lon="10.136794">
        <ele>655</ele>
        <time>2026-08-30T16:24:19Z</time>
      </trkpt>
      <trkpt lat="48.849192" lon="10.136782">
        <ele>655</ele>
        <time>2026-08-30T16:24:20Z</time>
      </trkpt>
      <trkpt lat="48.849185" lon="10.136765">
        <ele>655.2</ele>
        <time>2026-08-30T16:24:21Z</time>
      </trkpt>
      <trkpt lat="48.849172" lon="10.136741">
        <ele>655.4</ele>
        <time>2026-08-30T16:24:22Z</time>
      </trkpt>
      <trkpt lat="48.849163" lon="10.136722">
        <ele>655.6</ele>
        <time>2026-08-30T16:24:23Z</time>
      </trkpt>
      <trkpt lat="48.849154" lon="10.136703">
        <ele>655.8</ele>
        <time>2026-08-30T16:24:24Z</time>
      </trkpt>
      <trkpt lat="48.849138" lon="10.136678">
        <ele>655.8</ele>
        <time>2026-08-30T16:24:25Z</time>
      </trkpt>
      <trkpt lat="48.849123" lon="10.136657">
        <ele>656</ele>
        <time>2026-08-30T16:24:26Z</time>
      </trkpt>
      <trkpt lat="48.849112" lon="10.136641">
        <ele>656.2</ele>
        <time>2026-08-30T16:24:27Z</time>
      </trkpt>
      <trkpt lat="48.849105" lon="10.136628">
        <ele>656.4</ele>
        <time>2026-08-30T16:24:28Z</time>
      </trkpt>
      <trkpt lat="48.849093" lon="10.136610">
        <ele>656.4</ele>
        <time>2026-08-30T16:24:29Z</time>
      </trkpt>
      <trkpt lat="48.849078" lon="10.136592">
        <ele>656.6</ele>
        <time>2026-08-30T16:24:30Z</time>
      </trkpt>
      <trkpt lat="48.849065" lon="10.136582">
        <ele>656.8</ele>
        <time>2026-08-30T16:24:31Z</time>
      </trkpt>
      <trkpt lat="48.849051" lon="10.136564">
        <ele>656.8</ele>
        <time>2026-08-30T16:24:32Z</time>
      </trkpt>
      <trkpt lat="48.849038" lon="10.136550">
        <ele>657</ele>
        <time>2026-08-30T16:24:33Z</time>
      </trkpt>
      <trkpt lat="48.849023" lon="10.136535">
        <ele>657.2</ele>
        <time>2026-08-30T16:24:34Z</time>
      </trkpt>
      <trkpt lat="48.849011" lon="10.136517">
        <ele>657.4</ele>
        <time>2026-08-30T16:24:35Z</time>
      </trkpt>
      <trkpt lat="48.848997" lon="10.136491">
        <ele>657.4</ele>
        <time>2026-08-30T16:24:36Z</time>
      </trkpt>
      <trkpt lat="48.848985" lon="10.136471">
        <ele>657.6</ele>
        <time>2026-08-30T16:24:37Z</time>
      </trkpt>
      <trkpt lat="48.848968" lon="10.136456">
        <ele>657.8</ele>
        <time>2026-08-30T16:24:38Z</time>
      </trkpt>
      <trkpt lat="48.848950" lon="10.136442">
        <ele>658</ele>
        <time>2026-08-30T16:24:39Z</time>
      </trkpt>
      <trkpt lat="48.848938" lon="10.136428">
        <ele>658</ele>
        <time>2026-08-30T16:24:40Z</time>
      </trkpt>
      <trkpt lat="48.848923" lon="10.136414">
        <ele>658.2</ele>
        <time>2026-08-30T16:24:41Z</time>
      </trkpt>
      <trkpt lat="48.848909" lon="10.136394">
        <ele>658.4</ele>
        <time>2026-08-30T16:24:42Z</time>
      </trkpt>
      <trkpt lat="48.848893" lon="10.136378">
        <ele>658.4</ele>
        <time>2026-08-30T16:24:43Z</time>
      </trkpt>
      <trkpt lat="48.848875" lon="10.136351">
        <ele>658.6</ele>
        <time>2026-08-30T16:24:44Z</time>
      </trkpt>
      <trkpt lat="48.848858" lon="10.136326">
        <ele>658.8</ele>
        <time>2026-08-30T16:24:45Z</time>
      </trkpt>
      <trkpt lat="48.848843" lon="10.136313">
        <ele>658.8</ele>
        <time>2026-08-30T16:24:46Z</time>
      </trkpt>
      <trkpt lat="48.848827" lon="10.136297">
        <ele>659</ele>
        <time>2026-08-30T16:24:47Z</time>
      </trkpt>
      <trkpt lat="48.848811" lon="10.136284">
        <ele>659.2</ele>
        <time>2026-08-30T16:24:48Z</time>
      </trkpt>
      <trkpt lat="48.848797" lon="10.136271">
        <ele>659.4</ele>
        <time>2026-08-30T16:24:49Z</time>
      </trkpt>
      <trkpt lat="48.848782" lon="10.136259">
        <ele>659.4</ele>
        <time>2026-08-30T16:24:50Z</time>
      </trkpt>
      <trkpt lat="48.848768" lon="10.136246">
        <ele>659.6</ele>
        <time>2026-08-30T16:24:51Z</time>
      </trkpt>
      <trkpt lat="48.848751" lon="10.136239">
        <ele>659.8</ele>
        <time>2026-08-30T16:24:52Z</time>
      </trkpt>
      <trkpt lat="48.848736" lon="10.136227">
        <ele>660</ele>
        <time>2026-08-30T16:24:53Z</time>
      </trkpt>
      <trkpt lat="48.848722" lon="10.136216">
        <ele>660</ele>
        <time>2026-08-30T16:24:54Z</time>
      </trkpt>
      <trkpt lat="48.848711" lon="10.136203">
        <ele>660.2</ele>
        <time>2026-08-30T16:24:55Z</time>
      </trkpt>
      <trkpt lat="48.848699" lon="10.136189">
        <ele>660.4</ele>
        <time>2026-08-30T16:24:56Z</time>
      </trkpt>
      <trkpt lat="48.848684" lon="10.136176">
        <ele>660.4</ele>
        <time>2026-08-30T16:24:57Z</time>
      </trkpt>
      <trkpt lat="48.848670" lon="10.136165">
        <ele>660.6</ele>
        <time>2026-08-30T16:24:58Z</time>
      </trkpt>
      <trkpt lat="48.848655" lon="10.136152">
        <ele>660.8</ele>
        <time>2026-08-30T16:24:59Z</time>
      </trkpt>
      <trkpt lat="48.848640" lon="10.136143">
        <ele>661</ele>
        <time>2026-08-30T16:25:00Z</time>
      </trkpt>
      <trkpt lat="48.848622" lon="10.136138">
        <ele>661</ele>
        <time>2026-08-30T16:25:01Z</time>
      </trkpt>
      <trkpt lat="48.848608" lon="10.136129">
        <ele>661.2</ele>
        <time>2026-08-30T16:25:02Z</time>
      </trkpt>
      <trkpt lat="48.848589" lon="10.136118">
        <ele>661.4</ele>
        <time>2026-08-30T16:25:03Z</time>
      </trkpt>
      <trkpt lat="48.848568" lon="10.136108">
        <ele>661.4</ele>
        <time>2026-08-30T16:25:04Z</time>
      </trkpt>
      <trkpt lat="48.848549" lon="10.136103">
        <ele>661.6</ele>
        <time>2026-08-30T16:25:05Z</time>
      </trkpt>
      <trkpt lat="48.848527" lon="10.136090">
        <ele>661.6</ele>
        <time>2026-08-30T16:25:06Z</time>
      </trkpt>
      <trkpt lat="48.848503" lon="10.136084">
        <ele>661.8</ele>
        <time>2026-08-30T16:25:07Z</time>
      </trkpt>
      <trkpt lat="48.848482" lon="10.136075">
        <ele>662</ele>
        <time>2026-08-30T16:25:08Z</time>
      </trkpt>
      <trkpt lat="48.848464" lon="10.136066">
        <ele>662.2</ele>
        <time>2026-08-30T16:25:09Z</time>
      </trkpt>
      <trkpt lat="48.848444" lon="10.136059">
        <ele>662.4</ele>
        <time>2026-08-30T16:25:10Z</time>
      </trkpt>
      <trkpt lat="48.848424" lon="10.136053">
        <ele>662.4</ele>
        <time>2026-08-30T16:25:11Z</time>
      </trkpt>
      <trkpt lat="48.848407" lon="10.136046">
        <ele>662.6</ele>
        <time>2026-08-30T16:25:12Z</time>
      </trkpt>
      <trkpt lat="48.848395" lon="10.136044">
        <ele>662.8</ele>
        <time>2026-08-30T16:25:13Z</time>
      </trkpt>
      <trkpt lat="48.848379" lon="10.136045">
        <ele>663</ele>
        <time>2026-08-30T16:25:14Z</time>
      </trkpt>
      <trkpt lat="48.848363" lon="10.136039">
        <ele>663</ele>
        <time>2026-08-30T16:25:15Z</time>
      </trkpt>
      <trkpt lat="48.848344" lon="10.136037">
        <ele>663.2</ele>
        <time>2026-08-30T16:25:16Z</time>
      </trkpt>
      <trkpt lat="48.848323" lon="10.136033">
        <ele>663.4</ele>
        <time>2026-08-30T16:25:17Z</time>
      </trkpt>
      <trkpt lat="48.848305" lon="10.136032">
        <ele>663.6</ele>
        <time>2026-08-30T16:25:18Z</time>
      </trkpt>
      <trkpt lat="48.848288" lon="10.136031">
        <ele>663.8</ele>
        <time>2026-08-30T16:25:19Z</time>
      </trkpt>
      <trkpt lat="48.848272" lon="10.136031">
        <ele>663.8</ele>
        <time>2026-08-30T16:25:20Z</time>
      </trkpt>
      <trkpt lat="48.848254" lon="10.136027">
        <ele>663.8</ele>
        <time>2026-08-30T16:25:21Z</time>
      </trkpt>
      <trkpt lat="48.848240" lon="10.136029">
        <ele>664</ele>
        <time>2026-08-30T16:25:22Z</time>
      </trkpt>
      <trkpt lat="48.848225" lon="10.136033">
        <ele>664</ele>
        <time>2026-08-30T16:25:23Z</time>
      </trkpt>
      <trkpt lat="48.848214" lon="10.136035">
        <ele>664.2</ele>
        <time>2026-08-30T16:25:24Z</time>
      </trkpt>
      <trkpt lat="48.848201" lon="10.136039">
        <ele>664.2</ele>
        <time>2026-08-30T16:25:25Z</time>
      </trkpt>
      <trkpt lat="48.848185" lon="10.136046">
        <ele>664.4</ele>
        <time>2026-08-30T16:25:26Z</time>
      </trkpt>
      <trkpt lat="48.848165" lon="10.136045">
        <ele>664.4</ele>
        <time>2026-08-30T16:25:27Z</time>
      </trkpt>
      <trkpt lat="48.848145" lon="10.136049">
        <ele>664.6</ele>
        <time>2026-08-30T16:25:28Z</time>
      </trkpt>
      <trkpt lat="48.848129" lon="10.136054">
        <ele>664.8</ele>
        <time>2026-08-30T16:25:29Z</time>
      </trkpt>
      <trkpt lat="48.848109" lon="10.136059">
        <ele>665</ele>
        <time>2026-08-30T16:25:30Z</time>
      </trkpt>
      <trkpt lat="48.848095" lon="10.136068">
        <ele>665.2</ele>
        <time>2026-08-30T16:25:31Z</time>
      </trkpt>
      <trkpt lat="48.848083" lon="10.136077">
        <ele>665.2</ele>
        <time>2026-08-30T16:25:32Z</time>
      </trkpt>
      <trkpt lat="48.848070" lon="10.136082">
        <ele>665.4</ele>
        <time>2026-08-30T16:25:33Z</time>
      </trkpt>
      <trkpt lat="48.848054" lon="10.136090">
        <ele>665.6</ele>
        <time>2026-08-30T16:25:34Z</time>
      </trkpt>
      <trkpt lat="48.848040" lon="10.136100">
        <ele>665.8</ele>
        <time>2026-08-30T16:25:35Z</time>
      </trkpt>
      <trkpt lat="48.848026" lon="10.136109">
        <ele>666</ele>
        <time>2026-08-30T16:25:36Z</time>
      </trkpt>
      <trkpt lat="48.848014" lon="10.136120">
        <ele>666.2</ele>
        <time>2026-08-30T16:25:37Z</time>
      </trkpt>
      <trkpt lat="48.847999" lon="10.136134">
        <ele>666.4</ele>
        <time>2026-08-30T16:25:38Z</time>
      </trkpt>
      <trkpt lat="48.847989" lon="10.136137">
        <ele>666.4</ele>
        <time>2026-08-30T16:25:39Z</time>
      </trkpt>
      <trkpt lat="48.847974" lon="10.136146">
        <ele>666.6</ele>
        <time>2026-08-30T16:25:40Z</time>
      </trkpt>
      <trkpt lat="48.847955" lon="10.136154">
        <ele>666.8</ele>
        <time>2026-08-30T16:25:41Z</time>
      </trkpt>
      <trkpt lat="48.847935" lon="10.136164">
        <ele>667</ele>
        <time>2026-08-30T16:25:42Z</time>
      </trkpt>
      <trkpt lat="48.847917" lon="10.136174">
        <ele>667.2</ele>
        <time>2026-08-30T16:25:43Z</time>
      </trkpt>
      <trkpt lat="48.847896" lon="10.136191">
        <ele>667.2</ele>
        <time>2026-08-30T16:25:44Z</time>
      </trkpt>
      <trkpt lat="48.847876" lon="10.136204">
        <ele>667.4</ele>
        <time>2026-08-30T16:25:45Z</time>
      </trkpt>
      <trkpt lat="48.847857" lon="10.136217">
        <ele>667.6</ele>
        <time>2026-08-30T16:25:46Z</time>
      </trkpt>
      <trkpt lat="48.847844" lon="10.136223">
        <ele>667.6</ele>
        <time>2026-08-30T16:25:47Z</time>
      </trkpt>
      <trkpt lat="48.847829" lon="10.136229">
        <ele>667.8</ele>
        <time>2026-08-30T16:25:48Z</time>
      </trkpt>
      <trkpt lat="48.847815" lon="10.136235">
        <ele>668</ele>
        <time>2026-08-30T16:25:49Z</time>
      </trkpt>
      <trkpt lat="48.847804" lon="10.136246">
        <ele>668.2</ele>
        <time>2026-08-30T16:25:50Z</time>
      </trkpt>
      <trkpt lat="48.847789" lon="10.136256">
        <ele>668.2</ele>
        <time>2026-08-30T16:25:51Z</time>
      </trkpt>
      <trkpt lat="48.847775" lon="10.136267">
        <ele>668.4</ele>
        <time>2026-08-30T16:25:52Z</time>
      </trkpt>
      <trkpt lat="48.847760" lon="10.136279">
        <ele>668.6</ele>
        <time>2026-08-30T16:25:53Z</time>
      </trkpt>
      <trkpt lat="48.847742" lon="10.136295">
        <ele>668.8</ele>
        <time>2026-08-30T16:25:54Z</time>
      </trkpt>
      <trkpt lat="48.847731" lon="10.136308">
        <ele>668.8</ele>
        <time>2026-08-30T16:25:55Z</time>
      </trkpt>
      <trkpt lat="48.847720" lon="10.136319">
        <ele>669</ele>
        <time>2026-08-30T16:25:56Z</time>
      </trkpt>
      <trkpt lat="48.847711" lon="10.136334">
        <ele>669.2</ele>
        <time>2026-08-30T16:25:57Z</time>
      </trkpt>
      <trkpt lat="48.847698" lon="10.136345">
        <ele>669.2</ele>
        <time>2026-08-30T16:25:58Z</time>
      </trkpt>
      <trkpt lat="48.847685" lon="10.136356">
        <ele>669.4</ele>
        <time>2026-08-30T16:25:59Z</time>
      </trkpt>
      <trkpt lat="48.847673" lon="10.136370">
        <ele>669.6</ele>
        <time>2026-08-30T16:26:00Z</time>
      </trkpt>
      <trkpt lat="48.847657" lon="10.136381">
        <ele>669.6</ele>
        <time>2026-08-30T16:26:01Z</time>
      </trkpt>
      <trkpt lat="48.847639" lon="10.136392">
        <ele>669.8</ele>
        <time>2026-08-30T16:26:02Z</time>
      </trkpt>
      <trkpt lat="48.847625" lon="10.136403">
        <ele>670</ele>
        <time>2026-08-30T16:26:03Z</time>
      </trkpt>
      <trkpt lat="48.847611" lon="10.136419">
        <ele>670</ele>
        <time>2026-08-30T16:26:04Z</time>
      </trkpt>
      <trkpt lat="48.847605" lon="10.136430">
        <ele>670.2</ele>
        <time>2026-08-30T16:26:05Z</time>
      </trkpt>
      <trkpt lat="48.847594" lon="10.136442">
        <ele>670.4</ele>
        <time>2026-08-30T16:26:06Z</time>
      </trkpt>
      <trkpt lat="48.847584" lon="10.136457">
        <ele>670.4</ele>
        <time>2026-08-30T16:26:07Z</time>
      </trkpt>
      <trkpt lat="48.847571" lon="10.136469">
        <ele>670.6</ele>
        <time>2026-08-30T16:26:08Z</time>
      </trkpt>
      <trkpt lat="48.847560" lon="10.136486">
        <ele>670.8</ele>
        <time>2026-08-30T16:26:09Z</time>
      </trkpt>
      <trkpt lat="48.847550" lon="10.136505">
        <ele>670.8</ele>
        <time>2026-08-30T16:26:10Z</time>
      </trkpt>
      <trkpt lat="48.847539" lon="10.136518">
        <ele>671</ele>
        <time>2026-08-30T16:26:11Z</time>
      </trkpt>
      <trkpt lat="48.847528" lon="10.136534">
        <ele>671.2</ele>
        <time>2026-08-30T16:26:12Z</time>
      </trkpt>
      <trkpt lat="48.847513" lon="10.136548">
        <ele>671.2</ele>
        <time>2026-08-30T16:26:13Z</time>
      </trkpt>
      <trkpt lat="48.847498" lon="10.136568">
        <ele>671.4</ele>
        <time>2026-08-30T16:26:14Z</time>
      </trkpt>
      <trkpt lat="48.847486" lon="10.136584">
        <ele>671.6</ele>
        <time>2026-08-30T16:26:15Z</time>
      </trkpt>
      <trkpt lat="48.847477" lon="10.136598">
        <ele>671.6</ele>
        <time>2026-08-30T16:26:16Z</time>
      </trkpt>
      <trkpt lat="48.847465" lon="10.136611">
        <ele>671.8</ele>
        <time>2026-08-30T16:26:17Z</time>
      </trkpt>
      <trkpt lat="48.847455" lon="10.136626">
        <ele>672</ele>
        <time>2026-08-30T16:26:18Z</time>
      </trkpt>
      <trkpt lat="48.847443" lon="10.136642">
        <ele>672</ele>
        <time>2026-08-30T16:26:19Z</time>
      </trkpt>
      <trkpt lat="48.847435" lon="10.136657">
        <ele>672.2</ele>
        <time>2026-08-30T16:26:20Z</time>
      </trkpt>
      <trkpt lat="48.847424" lon="10.136675">
        <ele>672.2</ele>
        <time>2026-08-30T16:26:21Z</time>
      </trkpt>
      <trkpt lat="48.847414" lon="10.136689">
        <ele>672.4</ele>
        <time>2026-08-30T16:26:22Z</time>
      </trkpt>
      <trkpt lat="48.847402" lon="10.136708">
        <ele>672.6</ele>
        <time>2026-08-30T16:26:23Z</time>
      </trkpt>
      <trkpt lat="48.847392" lon="10.136725">
        <ele>672.8</ele>
        <time>2026-08-30T16:26:24Z</time>
      </trkpt>
      <trkpt lat="48.847380" lon="10.136746">
        <ele>672.8</ele>
        <time>2026-08-30T16:26:25Z</time>
      </trkpt>
      <trkpt lat="48.847366" lon="10.136760">
        <ele>673</ele>
        <time>2026-08-30T16:26:26Z</time>
      </trkpt>
      <trkpt lat="48.847353" lon="10.136770">
        <ele>673.2</ele>
        <time>2026-08-30T16:26:27Z</time>
      </trkpt>
      <trkpt lat="48.847336" lon="10.136787">
        <ele>673.4</ele>
        <time>2026-08-30T16:26:28Z</time>
      </trkpt>
      <trkpt lat="48.847323" lon="10.136806">
        <ele>673.4</ele>
        <time>2026-08-30T16:26:29Z</time>
      </trkpt>
      <trkpt lat="48.847308" lon="10.136818">
        <ele>673.6</ele>
        <time>2026-08-30T16:26:30Z</time>
      </trkpt>
      <trkpt lat="48.847294" lon="10.136832">
        <ele>673.6</ele>
        <time>2026-08-30T16:26:31Z</time>
      </trkpt>
      <trkpt lat="48.847279" lon="10.136852">
        <ele>673.8</ele>
        <time>2026-08-30T16:26:32Z</time>
      </trkpt>
      <trkpt lat="48.847265" lon="10.136868">
        <ele>674</ele>
        <time>2026-08-30T16:26:33Z</time>
      </trkpt>
      <trkpt lat="48.847251" lon="10.136886">
        <ele>674.2</ele>
        <time>2026-08-30T16:26:34Z</time>
      </trkpt>
      <trkpt lat="48.847236" lon="10.136905">
        <ele>674.2</ele>
        <time>2026-08-30T16:26:35Z</time>
      </trkpt>
      <trkpt lat="48.847224" lon="10.136925">
        <ele>674.4</ele>
        <time>2026-08-30T16:26:36Z</time>
      </trkpt>
      <trkpt lat="48.847216" lon="10.136939">
        <ele>674.6</ele>
        <time>2026-08-30T16:26:37Z</time>
      </trkpt>
      <trkpt lat="48.847204" lon="10.136952">
        <ele>674.6</ele>
        <time>2026-08-30T16:26:38Z</time>
      </trkpt>
      <trkpt lat="48.847191" lon="10.136964">
        <ele>674.8</ele>
        <time>2026-08-30T16:26:39Z</time>
      </trkpt>
      <trkpt lat="48.847179" lon="10.136983">
        <ele>675</ele>
        <time>2026-08-30T16:26:40Z</time>
      </trkpt>
      <trkpt lat="48.847166" lon="10.136999">
        <ele>675</ele>
        <time>2026-08-30T16:26:41Z</time>
      </trkpt>
      <trkpt lat="48.847152" lon="10.137016">
        <ele>675.2</ele>
        <time>2026-08-30T16:26:42Z</time>
      </trkpt>
      <trkpt lat="48.847141" lon="10.137025">
        <ele>675.4</ele>
        <time>2026-08-30T16:26:43Z</time>
      </trkpt>
      <trkpt lat="48.847129" lon="10.137035">
        <ele>675.6</ele>
        <time>2026-08-30T16:26:44Z</time>
      </trkpt>
      <trkpt lat="48.847115" lon="10.137050">
        <ele>675.8</ele>
        <time>2026-08-30T16:26:45Z</time>
      </trkpt>
      <trkpt lat="48.847100" lon="10.137066">
        <ele>675.8</ele>
        <time>2026-08-30T16:26:46Z</time>
      </trkpt>
      <trkpt lat="48.847090" lon="10.137083">
        <ele>676</ele>
        <time>2026-08-30T16:26:47Z</time>
      </trkpt>
      <trkpt lat="48.847075" lon="10.137097">
        <ele>676.2</ele>
        <time>2026-08-30T16:26:48Z</time>
      </trkpt>
      <trkpt lat="48.847061" lon="10.137108">
        <ele>676.2</ele>
        <time>2026-08-30T16:26:49Z</time>
      </trkpt>
      <trkpt lat="48.847044" lon="10.137122">
        <ele>676.4</ele>
        <time>2026-08-30T16:26:50Z</time>
      </trkpt>
      <trkpt lat="48.847032" lon="10.137141">
        <ele>676.6</ele>
        <time>2026-08-30T16:26:51Z</time>
      </trkpt>
      <trkpt lat="48.847018" lon="10.137161">
        <ele>676.6</ele>
        <time>2026-08-30T16:26:52Z</time>
      </trkpt>
      <trkpt lat="48.847005" lon="10.137179">
        <ele>676.8</ele>
        <time>2026-08-30T16:26:53Z</time>
      </trkpt>
      <trkpt lat="48.846990" lon="10.137199">
        <ele>677</ele>
        <time>2026-08-30T16:26:54Z</time>
      </trkpt>
      <trkpt lat="48.846976" lon="10.137212">
        <ele>677.2</ele>
        <time>2026-08-30T16:26:55Z</time>
      </trkpt>
      <trkpt lat="48.846963" lon="10.137225">
        <ele>677.4</ele>
        <time>2026-08-30T16:26:56Z</time>
      </trkpt>
      <trkpt lat="48.846953" lon="10.137245">
        <ele>677.4</ele>
        <time>2026-08-30T16:26:57Z</time>
      </trkpt>
      <trkpt lat="48.846939" lon="10.137256">
        <ele>677.6</ele>
        <time>2026-08-30T16:26:58Z</time>
      </trkpt>
      <trkpt lat="48.846930" lon="10.137267">
        <ele>677.8</ele>
        <time>2026-08-30T16:26:59Z</time>
      </trkpt>
      <trkpt lat="48.846922" lon="10.137279">
        <ele>677.8</ele>
        <time>2026-08-30T16:27:00Z</time>
      </trkpt>
      <trkpt lat="48.846908" lon="10.137294">
        <ele>678</ele>
        <time>2026-08-30T16:27:01Z</time>
      </trkpt>
      <trkpt lat="48.846897" lon="10.137310">
        <ele>678.2</ele>
        <time>2026-08-30T16:27:02Z</time>
      </trkpt>
      <trkpt lat="48.846886" lon="10.137329">
        <ele>678.4</ele>
        <time>2026-08-30T16:27:03Z</time>
      </trkpt>
      <trkpt lat="48.846875" lon="10.137344">
        <ele>678.6</ele>
        <time>2026-08-30T16:27:04Z</time>
      </trkpt>
      <trkpt lat="48.846860" lon="10.137360">
        <ele>678.6</ele>
        <time>2026-08-30T16:27:05Z</time>
      </trkpt>
      <trkpt lat="48.846851" lon="10.137374">
        <ele>678.8</ele>
        <time>2026-08-30T16:27:06Z</time>
      </trkpt>
      <trkpt lat="48.846840" lon="10.137388">
        <ele>679</ele>
        <time>2026-08-30T16:27:07Z</time>
      </trkpt>
      <trkpt lat="48.846828" lon="10.137406">
        <ele>679</ele>
        <time>2026-08-30T16:27:08Z</time>
      </trkpt>
      <trkpt lat="48.846816" lon="10.137421">
        <ele>679.2</ele>
        <time>2026-08-30T16:27:09Z</time>
      </trkpt>
      <trkpt lat="48.846802" lon="10.137439">
        <ele>679.4</ele>
        <time>2026-08-30T16:27:10Z</time>
      </trkpt>
      <trkpt lat="48.846786" lon="10.137452">
        <ele>679.6</ele>
        <time>2026-08-30T16:27:11Z</time>
      </trkpt>
      <trkpt lat="48.846774" lon="10.137467">
        <ele>679.6</ele>
        <time>2026-08-30T16:27:12Z</time>
      </trkpt>
      <trkpt lat="48.846760" lon="10.137484">
        <ele>679.8</ele>
        <time>2026-08-30T16:27:13Z</time>
      </trkpt>
      <trkpt lat="48.846749" lon="10.137492">
        <ele>680</ele>
        <time>2026-08-30T16:27:14Z</time>
      </trkpt>
      <trkpt lat="48.846733" lon="10.137506">
        <ele>680.2</ele>
        <time>2026-08-30T16:27:15Z</time>
      </trkpt>
      <trkpt lat="48.846722" lon="10.137519">
        <ele>680.4</ele>
        <time>2026-08-30T16:27:16Z</time>
      </trkpt>
      <trkpt lat="48.846708" lon="10.137539">
        <ele>680.4</ele>
        <time>2026-08-30T16:27:17Z</time>
      </trkpt>
      <trkpt lat="48.846694" lon="10.137560">
        <ele>680.6</ele>
        <time>2026-08-30T16:27:18Z</time>
      </trkpt>
      <trkpt lat="48.846683" lon="10.137581">
        <ele>680.8</ele>
        <time>2026-08-30T16:27:19Z</time>
      </trkpt>
      <trkpt lat="48.846675" lon="10.137593">
        <ele>681</ele>
        <time>2026-08-30T16:27:20Z</time>
      </trkpt>
      <trkpt lat="48.846660" lon="10.137605">
        <ele>681</ele>
        <time>2026-08-30T16:27:21Z</time>
      </trkpt>
      <trkpt lat="48.846647" lon="10.137627">
        <ele>681.2</ele>
        <time>2026-08-30T16:27:22Z</time>
      </trkpt>
      <trkpt lat="48.846632" lon="10.137647">
        <ele>681.4</ele>
        <time>2026-08-30T16:27:23Z</time>
      </trkpt>
      <trkpt lat="48.846617" lon="10.137661">
        <ele>681.4</ele>
        <time>2026-08-30T16:27:24Z</time>
      </trkpt>
      <trkpt lat="48.846603" lon="10.137674">
        <ele>681.6</ele>
        <time>2026-08-30T16:27:25Z</time>
      </trkpt>
      <trkpt lat="48.846593" lon="10.137686">
        <ele>681.8</ele>
        <time>2026-08-30T16:27:26Z</time>
      </trkpt>
      <trkpt lat="48.846582" lon="10.137704">
        <ele>682</ele>
        <time>2026-08-30T16:27:27Z</time>
      </trkpt>
      <trkpt lat="48.846567" lon="10.137722">
        <ele>682</ele>
        <time>2026-08-30T16:27:28Z</time>
      </trkpt>
      <trkpt lat="48.846557" lon="10.137740">
        <ele>682.2</ele>
        <time>2026-08-30T16:27:29Z</time>
      </trkpt>
      <trkpt lat="48.846545" lon="10.137757">
        <ele>682.4</ele>
        <time>2026-08-30T16:27:30Z</time>
      </trkpt>
      <trkpt lat="48.846532" lon="10.137772">
        <ele>682.4</ele>
        <time>2026-08-30T16:27:31Z</time>
      </trkpt>
      <trkpt lat="48.846519" lon="10.137788">
        <ele>682.6</ele>
        <time>2026-08-30T16:27:32Z</time>
      </trkpt>
      <trkpt lat="48.846509" lon="10.137807">
        <ele>682.8</ele>
        <time>2026-08-30T16:27:33Z</time>
      </trkpt>
      <trkpt lat="48.846496" lon="10.137818">
        <ele>682.8</ele>
        <time>2026-08-30T16:27:34Z</time>
      </trkpt>
      <trkpt lat="48.846482" lon="10.137841">
        <ele>683</ele>
        <time>2026-08-30T16:27:35Z</time>
      </trkpt>
      <trkpt lat="48.846472" lon="10.137857">
        <ele>683.2</ele>
        <time>2026-08-30T16:27:36Z</time>
      </trkpt>
      <trkpt lat="48.846461" lon="10.137874">
        <ele>683.4</ele>
        <time>2026-08-30T16:27:37Z</time>
      </trkpt>
      <trkpt lat="48.846449" lon="10.137895">
        <ele>683.4</ele>
        <time>2026-08-30T16:27:38Z</time>
      </trkpt>
      <trkpt lat="48.846438" lon="10.137911">
        <ele>683.6</ele>
        <time>2026-08-30T16:27:39Z</time>
      </trkpt>
      <trkpt lat="48.846424" lon="10.137927">
        <ele>683.8</ele>
        <time>2026-08-30T16:27:40Z</time>
      </trkpt>
      <trkpt lat="48.846406" lon="10.137947">
        <ele>684</ele>
        <time>2026-08-30T16:27:41Z</time>
      </trkpt>
      <trkpt lat="48.846390" lon="10.137962">
        <ele>684</ele>
        <time>2026-08-30T16:27:42Z</time>
      </trkpt>
      <trkpt lat="48.846381" lon="10.137976">
        <ele>684.2</ele>
        <time>2026-08-30T16:27:43Z</time>
      </trkpt>
      <trkpt lat="48.846370" lon="10.137988">
        <ele>684.4</ele>
        <time>2026-08-30T16:27:44Z</time>
      </trkpt>
      <trkpt lat="48.846357" lon="10.138001">
        <ele>684.6</ele>
        <time>2026-08-30T16:27:45Z</time>
      </trkpt>
      <trkpt lat="48.846343" lon="10.138020">
        <ele>684.6</ele>
        <time>2026-08-30T16:27:46Z</time>
      </trkpt>
      <trkpt lat="48.846332" lon="10.138037">
        <ele>684.8</ele>
        <time>2026-08-30T16:27:47Z</time>
      </trkpt>
      <trkpt lat="48.846321" lon="10.138052">
        <ele>685</ele>
        <time>2026-08-30T16:27:48Z</time>
      </trkpt>
      <trkpt lat="48.846312" lon="10.138067">
        <ele>685</ele>
        <time>2026-08-30T16:27:49Z</time>
      </trkpt>
      <trkpt lat="48.846300" lon="10.138083">
        <ele>685.2</ele>
        <time>2026-08-30T16:27:50Z</time>
      </trkpt>
      <trkpt lat="48.846289" lon="10.138099">
        <ele>685.4</ele>
        <time>2026-08-30T16:27:51Z</time>
      </trkpt>
      <trkpt lat="48.846276" lon="10.138115">
        <ele>685.4</ele>
        <time>2026-08-30T16:27:52Z</time>
      </trkpt>
      <trkpt lat="48.846265" lon="10.138129">
        <ele>685.6</ele>
        <time>2026-08-30T16:27:53Z</time>
      </trkpt>
      <trkpt lat="48.846254" lon="10.138144">
        <ele>685.8</ele>
        <time>2026-08-30T16:27:54Z</time>
      </trkpt>
      <trkpt lat="48.846242" lon="10.138164">
        <ele>686</ele>
        <time>2026-08-30T16:27:55Z</time>
      </trkpt>
      <trkpt lat="48.846232" lon="10.138186">
        <ele>686</ele>
        <time>2026-08-30T16:27:56Z</time>
      </trkpt>
      <trkpt lat="48.846224" lon="10.138206">
        <ele>686.2</ele>
        <time>2026-08-30T16:27:57Z</time>
      </trkpt>
      <trkpt lat="48.846213" lon="10.138222">
        <ele>686.4</ele>
        <time>2026-08-30T16:27:58Z</time>
      </trkpt>
      <trkpt lat="48.846203" lon="10.138233">
        <ele>686.4</ele>
        <time>2026-08-30T16:27:59Z</time>
      </trkpt>
      <trkpt lat="48.846191" lon="10.138246">
        <ele>686.6</ele>
        <time>2026-08-30T16:28:00Z</time>
      </trkpt>
      <trkpt lat="48.846178" lon="10.138258">
        <ele>686.8</ele>
        <time>2026-08-30T16:28:01Z</time>
      </trkpt>
      <trkpt lat="48.846166" lon="10.138274">
        <ele>686.8</ele>
        <time>2026-08-30T16:28:02Z</time>
      </trkpt>
      <trkpt lat="48.846156" lon="10.138295">
        <ele>687</ele>
        <time>2026-08-30T16:28:03Z</time>
      </trkpt>
      <trkpt lat="48.846145" lon="10.138311">
        <ele>687.2</ele>
        <time>2026-08-30T16:28:04Z</time>
      </trkpt>
      <trkpt lat="48.846133" lon="10.138322">
        <ele>687.4</ele>
        <time>2026-08-30T16:28:05Z</time>
      </trkpt>
      <trkpt lat="48.846123" lon="10.138334">
        <ele>687.4</ele>
        <time>2026-08-30T16:28:06Z</time>
      </trkpt>
      <trkpt lat="48.846112" lon="10.138351">
        <ele>687.6</ele>
        <time>2026-08-30T16:28:07Z</time>
      </trkpt>
      <trkpt lat="48.846099" lon="10.138371">
        <ele>687.8</ele>
        <time>2026-08-30T16:28:08Z</time>
      </trkpt>
      <trkpt lat="48.846088" lon="10.138389">
        <ele>687.8</ele>
        <time>2026-08-30T16:28:09Z</time>
      </trkpt>
      <trkpt lat="48.846074" lon="10.138407">
        <ele>688</ele>
        <time>2026-08-30T16:28:10Z</time>
      </trkpt>
      <trkpt lat="48.846059" lon="10.138422">
        <ele>688.2</ele>
        <time>2026-08-30T16:28:11Z</time>
      </trkpt>
      <trkpt lat="48.846045" lon="10.138432">
        <ele>688.2</ele>
        <time>2026-08-30T16:28:12Z</time>
      </trkpt>
      <trkpt lat="48.846035" lon="10.138448">
        <ele>688.4</ele>
        <time>2026-08-30T16:28:13Z</time>
      </trkpt>
      <trkpt lat="48.846021" lon="10.138460">
        <ele>688.6</ele>
        <time>2026-08-30T16:28:14Z</time>
      </trkpt>
      <trkpt lat="48.846006" lon="10.138477">
        <ele>688.8</ele>
        <time>2026-08-30T16:28:15Z</time>
      </trkpt>
      <trkpt lat="48.845989" lon="10.138492">
        <ele>688.8</ele>
        <time>2026-08-30T16:28:16Z</time>
      </trkpt>
      <trkpt lat="48.845974" lon="10.138507">
        <ele>689</ele>
        <time>2026-08-30T16:28:17Z</time>
      </trkpt>
      <trkpt lat="48.845963" lon="10.138523">
        <ele>689.2</ele>
        <time>2026-08-30T16:28:18Z</time>
      </trkpt>
      <trkpt lat="48.845953" lon="10.138534">
        <ele>689.4</ele>
        <time>2026-08-30T16:28:19Z</time>
      </trkpt>
      <trkpt lat="48.845940" lon="10.138546">
        <ele>689.4</ele>
        <time>2026-08-30T16:28:20Z</time>
      </trkpt>
      <trkpt lat="48.845929" lon="10.138564">
        <ele>689.6</ele>
        <time>2026-08-30T16:28:21Z</time>
      </trkpt>
      <trkpt lat="48.845916" lon="10.138578">
        <ele>689.8</ele>
        <time>2026-08-30T16:28:22Z</time>
      </trkpt>
      <trkpt lat="48.845900" lon="10.138596">
        <ele>689.8</ele>
        <time>2026-08-30T16:28:23Z</time>
      </trkpt>
      <trkpt lat="48.845884" lon="10.138610">
        <ele>690</ele>
        <time>2026-08-30T16:28:24Z</time>
      </trkpt>
      <trkpt lat="48.845873" lon="10.138626">
        <ele>690.2</ele>
        <time>2026-08-30T16:28:25Z</time>
      </trkpt>
      <trkpt lat="48.845862" lon="10.138641">
        <ele>690.2</ele>
        <time>2026-08-30T16:28:26Z</time>
      </trkpt>
      <trkpt lat="48.845850" lon="10.138654">
        <ele>690.4</ele>
        <time>2026-08-30T16:28:27Z</time>
      </trkpt>
      <trkpt lat="48.845838" lon="10.138670">
        <ele>690.6</ele>
        <time>2026-08-30T16:28:28Z</time>
      </trkpt>
      <trkpt lat="48.845825" lon="10.138687">
        <ele>690.8</ele>
        <time>2026-08-30T16:28:29Z</time>
      </trkpt>
      <trkpt lat="48.845811" lon="10.138701">
        <ele>690.8</ele>
        <time>2026-08-30T16:28:30Z</time>
      </trkpt>
      <trkpt lat="48.845793" lon="10.138714">
        <ele>691</ele>
        <time>2026-08-30T16:28:31Z</time>
      </trkpt>
      <trkpt lat="48.845779" lon="10.138731">
        <ele>691.2</ele>
        <time>2026-08-30T16:28:32Z</time>
      </trkpt>
      <trkpt lat="48.845767" lon="10.138742">
        <ele>691.4</ele>
        <time>2026-08-30T16:28:33Z</time>
      </trkpt>
      <trkpt lat="48.845752" lon="10.138748">
        <ele>691.4</ele>
        <time>2026-08-30T16:28:34Z</time>
      </trkpt>
      <trkpt lat="48.845735" lon="10.138758">
        <ele>691.6</ele>
        <time>2026-08-30T16:28:35Z</time>
      </trkpt>
      <trkpt lat="48.845718" lon="10.138771">
        <ele>691.8</ele>
        <time>2026-08-30T16:28:36Z</time>
      </trkpt>
      <trkpt lat="48.845705" lon="10.138779">
        <ele>691.8</ele>
        <time>2026-08-30T16:28:37Z</time>
      </trkpt>
      <trkpt lat="48.845690" lon="10.138792">
        <ele>692</ele>
        <time>2026-08-30T16:28:38Z</time>
      </trkpt>
      <trkpt lat="48.845677" lon="10.138812">
        <ele>692.2</ele>
        <time>2026-08-30T16:28:39Z</time>
      </trkpt>
      <trkpt lat="48.845664" lon="10.138827">
        <ele>692.4</ele>
        <time>2026-08-30T16:28:40Z</time>
      </trkpt>
      <trkpt lat="48.845648" lon="10.138843">
        <ele>692.4</ele>
        <time>2026-08-30T16:28:41Z</time>
      </trkpt>
      <trkpt lat="48.845633" lon="10.138859">
        <ele>692.6</ele>
        <time>2026-08-30T16:28:42Z</time>
      </trkpt>
      <trkpt lat="48.845620" lon="10.138879">
        <ele>692.8</ele>
        <time>2026-08-30T16:28:43Z</time>
      </trkpt>
      <trkpt lat="48.845610" lon="10.138895">
        <ele>693</ele>
        <time>2026-08-30T16:28:44Z</time>
      </trkpt>
      <trkpt lat="48.845599" lon="10.138912">
        <ele>693</ele>
        <time>2026-08-30T16:28:45Z</time>
      </trkpt>
      <trkpt lat="48.845585" lon="10.138929">
        <ele>693.2</ele>
        <time>2026-08-30T16:28:46Z</time>
      </trkpt>
      <trkpt lat="48.845572" lon="10.138946">
        <ele>693.4</ele>
        <time>2026-08-30T16:28:47Z</time>
      </trkpt>
      <trkpt lat="48.845559" lon="10.138962">
        <ele>693.4</ele>
        <time>2026-08-30T16:28:48Z</time>
      </trkpt>
      <trkpt lat="48.845547" lon="10.138983">
        <ele>693.6</ele>
        <time>2026-08-30T16:28:49Z</time>
      </trkpt>
      <trkpt lat="48.845533" lon="10.139001">
        <ele>693.8</ele>
        <time>2026-08-30T16:28:50Z</time>
      </trkpt>
      <trkpt lat="48.845517" lon="10.139015">
        <ele>693.8</ele>
        <time>2026-08-30T16:28:51Z</time>
      </trkpt>
      <trkpt lat="48.845504" lon="10.139031">
        <ele>694</ele>
        <time>2026-08-30T16:28:52Z</time>
      </trkpt>
      <trkpt lat="48.845490" lon="10.139050">
        <ele>694.2</ele>
        <time>2026-08-30T16:28:53Z</time>
      </trkpt>
      <trkpt lat="48.845477" lon="10.139069">
        <ele>694.2</ele>
        <time>2026-08-30T16:28:54Z</time>
      </trkpt>
      <trkpt lat="48.845466" lon="10.139087">
        <ele>694.4</ele>
        <time>2026-08-30T16:28:55Z</time>
      </trkpt>
      <trkpt lat="48.845455" lon="10.139101">
        <ele>694.6</ele>
        <time>2026-08-30T16:28:56Z</time>
      </trkpt>
      <trkpt lat="48.845444" lon="10.139120">
        <ele>694.6</ele>
        <time>2026-08-30T16:28:57Z</time>
      </trkpt>
      <trkpt lat="48.845434" lon="10.139139">
        <ele>694.8</ele>
        <time>2026-08-30T16:28:58Z</time>
      </trkpt>
      <trkpt lat="48.845426" lon="10.139155">
        <ele>695</ele>
        <time>2026-08-30T16:28:59Z</time>
      </trkpt>
      <trkpt lat="48.845414" lon="10.139171">
        <ele>695.2</ele>
        <time>2026-08-30T16:29:00Z</time>
      </trkpt>
      <trkpt lat="48.845403" lon="10.139190">
        <ele>695.2</ele>
        <time>2026-08-30T16:29:01Z</time>
      </trkpt>
      <trkpt lat="48.845395" lon="10.139211">
        <ele>695.4</ele>
        <time>2026-08-30T16:29:02Z</time>
      </trkpt>
      <trkpt lat="48.845386" lon="10.139229">
        <ele>695.6</ele>
        <time>2026-08-30T16:29:03Z</time>
      </trkpt>
      <trkpt lat="48.845378" lon="10.139250">
        <ele>695.6</ele>
        <time>2026-08-30T16:29:04Z</time>
      </trkpt>
      <trkpt lat="48.845373" lon="10.139272">
        <ele>695.8</ele>
        <time>2026-08-30T16:29:05Z</time>
      </trkpt>
      <trkpt lat="48.845362" lon="10.139295">
        <ele>696</ele>
        <time>2026-08-30T16:29:06Z</time>
      </trkpt>
      <trkpt lat="48.845351" lon="10.139318">
        <ele>696.2</ele>
        <time>2026-08-30T16:29:07Z</time>
      </trkpt>
      <trkpt lat="48.845343" lon="10.139339">
        <ele>696.4</ele>
        <time>2026-08-30T16:29:08Z</time>
      </trkpt>
      <trkpt lat="48.845337" lon="10.139360">
        <ele>696.4</ele>
        <time>2026-08-30T16:29:09Z</time>
      </trkpt>
      <trkpt lat="48.845331" lon="10.139382">
        <ele>696.6</ele>
        <time>2026-08-30T16:29:10Z</time>
      </trkpt>
      <trkpt lat="48.845323" lon="10.139404">
        <ele>696.8</ele>
        <time>2026-08-30T16:29:11Z</time>
      </trkpt>
      <trkpt lat="48.845315" lon="10.139428">
        <ele>697</ele>
        <time>2026-08-30T16:29:12Z</time>
      </trkpt>
      <trkpt lat="48.845306" lon="10.139449">
        <ele>697.2</ele>
        <time>2026-08-30T16:29:13Z</time>
      </trkpt>
      <trkpt lat="48.845300" lon="10.139472">
        <ele>697.2</ele>
        <time>2026-08-30T16:29:14Z</time>
      </trkpt>
      <trkpt lat="48.845298" lon="10.139490">
        <ele>697.4</ele>
        <time>2026-08-30T16:29:15Z</time>
      </trkpt>
      <trkpt lat="48.845290" lon="10.139501">
        <ele>697.6</ele>
        <time>2026-08-30T16:29:16Z</time>
      </trkpt>
      <trkpt lat="48.845280" lon="10.139522">
        <ele>697.8</ele>
        <time>2026-08-30T16:29:17Z</time>
      </trkpt>
      <trkpt lat="48.845276" lon="10.139543">
        <ele>698</ele>
        <time>2026-08-30T16:29:18Z</time>
      </trkpt>
      <trkpt lat="48.845270" lon="10.139563">
        <ele>698.2</ele>
        <time>2026-08-30T16:29:19Z</time>
      </trkpt>
      <trkpt lat="48.845266" lon="10.139591">
        <ele>698.2</ele>
        <time>2026-08-30T16:29:20Z</time>
      </trkpt>
      <trkpt lat="48.845257" lon="10.139610">
        <ele>698.4</ele>
        <time>2026-08-30T16:29:21Z</time>
      </trkpt>
      <trkpt lat="48.845246" lon="10.139629">
        <ele>698.6</ele>
        <time>2026-08-30T16:29:22Z</time>
      </trkpt>
      <trkpt lat="48.845236" lon="10.139653">
        <ele>698.8</ele>
        <time>2026-08-30T16:29:23Z</time>
      </trkpt>
      <trkpt lat="48.845226" lon="10.139674">
        <ele>698.8</ele>
        <time>2026-08-30T16:29:24Z</time>
      </trkpt>
      <trkpt lat="48.845217" lon="10.139700">
        <ele>699</ele>
        <time>2026-08-30T16:29:25Z</time>
      </trkpt>
      <trkpt lat="48.845210" lon="10.139723">
        <ele>699.2</ele>
        <time>2026-08-30T16:29:26Z</time>
      </trkpt>
      <trkpt lat="48.845201" lon="10.139745">
        <ele>699.4</ele>
        <time>2026-08-30T16:29:27Z</time>
      </trkpt>
      <trkpt lat="48.845191" lon="10.139767">
        <ele>699.6</ele>
        <time>2026-08-30T16:29:28Z</time>
      </trkpt>
      <trkpt lat="48.845178" lon="10.139789">
        <ele>699.8</ele>
        <time>2026-08-30T16:29:29Z</time>
      </trkpt>
      <trkpt lat="48.845161" lon="10.139806">
        <ele>700</ele>
        <time>2026-08-30T16:29:30Z</time>
      </trkpt>
      <trkpt lat="48.845146" lon="10.139823">
        <ele>700</ele>
        <time>2026-08-30T16:29:31Z</time>
      </trkpt>
      <trkpt lat="48.845132" lon="10.139838">
        <ele>700.2</ele>
        <time>2026-08-30T16:29:32Z</time>
      </trkpt>
      <trkpt lat="48.845121" lon="10.139850">
        <ele>700.4</ele>
        <time>2026-08-30T16:29:33Z</time>
      </trkpt>
      <trkpt lat="48.845110" lon="10.139865">
        <ele>700.6</ele>
        <time>2026-08-30T16:29:34Z</time>
      </trkpt>
      <trkpt lat="48.845096" lon="10.139875">
        <ele>700.8</ele>
        <time>2026-08-30T16:29:35Z</time>
      </trkpt>
      <trkpt lat="48.845084" lon="10.139888">
        <ele>700.8</ele>
        <time>2026-08-30T16:29:36Z</time>
      </trkpt>
      <trkpt lat="48.845077" lon="10.139906">
        <ele>701</ele>
        <time>2026-08-30T16:29:37Z</time>
      </trkpt>
      <trkpt lat="48.845069" lon="10.139921">
        <ele>701.2</ele>
        <time>2026-08-30T16:29:38Z</time>
      </trkpt>
      <trkpt lat="48.845057" lon="10.139935">
        <ele>701.2</ele>
        <time>2026-08-30T16:29:39Z</time>
      </trkpt>
      <trkpt lat="48.845043" lon="10.139949">
        <ele>701.4</ele>
        <time>2026-08-30T16:29:40Z</time>
      </trkpt>
      <trkpt lat="48.845027" lon="10.139956">
        <ele>701.6</ele>
        <time>2026-08-30T16:29:41Z</time>
      </trkpt>
      <trkpt lat="48.845012" lon="10.139964">
        <ele>701.6</ele>
        <time>2026-08-30T16:29:42Z</time>
      </trkpt>
      <trkpt lat="48.844996" lon="10.139972">
        <ele>701.8</ele>
        <time>2026-08-30T16:29:43Z</time>
      </trkpt>
      <trkpt lat="48.844980" lon="10.139979">
        <ele>701.8</ele>
        <time>2026-08-30T16:29:44Z</time>
      </trkpt>
      <trkpt lat="48.844965" lon="10.139985">
        <ele>702</ele>
        <time>2026-08-30T16:29:45Z</time>
      </trkpt>
      <trkpt lat="48.844948" lon="10.139989">
        <ele>702.2</ele>
        <time>2026-08-30T16:29:46Z</time>
      </trkpt>
      <trkpt lat="48.844933" lon="10.140001">
        <ele>702.2</ele>
        <time>2026-08-30T16:29:47Z</time>
      </trkpt>
      <trkpt lat="48.844919" lon="10.140014">
        <ele>702.4</ele>
        <time>2026-08-30T16:29:48Z</time>
      </trkpt>
      <trkpt lat="48.844905" lon="10.140029">
        <ele>702.6</ele>
        <time>2026-08-30T16:29:49Z</time>
      </trkpt>
      <trkpt lat="48.844890" lon="10.140047">
        <ele>702.6</ele>
        <time>2026-08-30T16:29:50Z</time>
      </trkpt>
      <trkpt lat="48.844875" lon="10.140061">
        <ele>702.8</ele>
        <time>2026-08-30T16:29:51Z</time>
      </trkpt>
      <trkpt lat="48.844859" lon="10.140073">
        <ele>703</ele>
        <time>2026-08-30T16:29:52Z</time>
      </trkpt>
      <trkpt lat="48.844844" lon="10.140087">
        <ele>703.2</ele>
        <time>2026-08-30T16:29:53Z</time>
      </trkpt>
      <trkpt lat="48.844831" lon="10.140100">
        <ele>703.4</ele>
        <time>2026-08-30T16:29:54Z</time>
      </trkpt>
      <trkpt lat="48.844816" lon="10.140117">
        <ele>703.4</ele>
        <time>2026-08-30T16:29:55Z</time>
      </trkpt>
      <trkpt lat="48.844803" lon="10.140131">
        <ele>703.6</ele>
        <time>2026-08-30T16:29:56Z</time>
      </trkpt>
      <trkpt lat="48.844792" lon="10.140142">
        <ele>703.8</ele>
        <time>2026-08-30T16:29:57Z</time>
      </trkpt>
      <trkpt lat="48.844777" lon="10.140148">
        <ele>704</ele>
        <time>2026-08-30T16:29:58Z</time>
      </trkpt>
      <trkpt lat="48.844764" lon="10.140156">
        <ele>704</ele>
        <time>2026-08-30T16:29:59Z</time>
      </trkpt>
      <trkpt lat="48.844751" lon="10.140164">
        <ele>704.2</ele>
        <time>2026-08-30T16:30:00Z</time>
      </trkpt>
      <trkpt lat="48.844741" lon="10.140171">
        <ele>704.2</ele>
        <time>2026-08-30T16:30:01Z</time>
      </trkpt>
      <trkpt lat="48.844738" lon="10.140180">
        <ele>704.4</ele>
        <time>2026-08-30T16:30:02Z</time>
      </trkpt>
      <trkpt lat="48.844729" lon="10.140190">
        <ele>704.6</ele>
        <time>2026-08-30T16:30:03Z</time>
      </trkpt>
      <trkpt lat="48.844729" lon="10.140190">
        <ele>704.6</ele>
        <time>2026-08-30T16:30:04Z</time>
      </trkpt>
      <trkpt lat="48.844729" lon="10.140190">
        <ele>704.8</ele>
        <time>2026-08-30T16:30:05Z</time>
      </trkpt>
      <trkpt lat="48.844729" lon="10.140190">
        <ele>704.8</ele>
        <time>2026-08-30T16:30:06Z</time>
      </trkpt>
      <trkpt lat="48.844729" lon="10.140190">
        <ele>704.8</ele>
        <time>2026-08-30T16:30:07Z</time>
      </trkpt>
      <trkpt lat="48.844729" lon="10.140190">
        <ele>705</ele>
        <time>2026-08-30T16:30:08Z</time>
      </trkpt>
      <trkpt lat="48.844729" lon="10.140190">
        <ele>705</ele>
        <time>2026-08-30T16:30:09Z</time>
      </trkpt>
      <trkpt lat="48.844729" lon="10.140190">
        <ele>705</ele>
        <time>2026-08-30T16:30:10Z</time>
      </trkpt>
      <trkpt lat="48.844729" lon="10.140190">
        <ele>705</ele>
        <time>2026-08-30T16:30:11Z</time>
      </trkpt>
      <trkpt lat="48.844729" lon="10.140190">
        <ele>705</ele>
        <time>2026-08-30T16:30:12Z</time>
      </trkpt>
      <trkpt lat="48.844729" lon="10.140190">
        <ele>705</ele>
        <time>2026-08-30T16:30:13Z</time>
      </trkpt>
      <trkpt lat="48.844729" lon="10.140190">
        <ele>705</ele>
        <time>2026-08-30T16:30:14Z</time>
      </trkpt>
      <trkpt lat="48.844729" lon="10.140190">
        <ele>705</ele>
        <time>2026-08-30T16:30:15Z</time>
      </trkpt>
      <trkpt lat="48.844729" lon="10.140190">
        <ele>705</ele>
        <time>2026-08-30T16:30:16Z</time>
      </trkpt>
      <trkpt lat="48.844729" lon="10.140190">
        <ele>705</ele>
        <time>2026-08-30T16:30:17Z</time>
      </trkpt>
      <trkpt lat="48.844729" lon="10.140190">
        <ele>705</ele>
        <time>2026-08-30T16:30:18Z</time>
      </trkpt>
      <trkpt lat="48.844729" lon="10.140190">
        <ele>705</ele>
        <time>2026-08-30T16:30:19Z</time>
      </trkpt>
      <trkpt lat="48.844729" lon="10.140190">
        <ele>705</ele>
        <time>2026-08-30T16:30:20Z</time>
      </trkpt>
      <trkpt lat="48.844729" lon="10.140190">
        <ele>705</ele>
        <time>2026-08-30T16:30:21Z</time>
      </trkpt>
      <trkpt lat="48.844729" lon="10.140190">
        <ele>705</ele>
        <time>2026-08-30T16:30:22Z</time>
      </trkpt>
      <trkpt lat="48.844729" lon="10.140190">
        <ele>705</ele>
        <time>2026-08-30T16:30:23Z</time>
      </trkpt>
      <trkpt lat="48.844729" lon="10.140190">
        <ele>705.2</ele>
        <time>2026-08-30T16:30:24Z</time>
      </trkpt>
      <trkpt lat="48.844729" lon="10.140190">
        <ele>705.2</ele>
        <time>2026-08-30T16:30:25Z</time>
      </trkpt>
      <trkpt lat="48.844729" lon="10.140190">
        <ele>705.2</ele>
        <time>2026-08-30T16:30:26Z</time>
      </trkpt>
      <trkpt lat="48.844729" lon="10.140190">
        <ele>705.2</ele>
        <time>2026-08-30T16:30:27Z</time>
      </trkpt>
      <trkpt lat="48.844729" lon="10.140190">
        <ele>705.2</ele>
        <time>2026-08-30T16:30:28Z</time>
      </trkpt>
      <trkpt lat="48.844729" lon="10.140190">
        <ele>705.2</ele>
        <time>2026-08-30T16:30:29Z</time>
      </trkpt>
      <trkpt lat="48.844729" lon="10.140190">
        <ele>705.2</ele>
        <time>2026-08-30T16:30:30Z</time>
      </trkpt>
      <trkpt lat="48.844729" lon="10.140190">
        <ele>705</ele>
        <time>2026-08-30T16:30:31Z</time>
      </trkpt>
      <trkpt lat="48.844729" lon="10.140190">
        <ele>705</ele>
        <time>2026-08-30T16:30:32Z</time>
      </trkpt>
      <trkpt lat="48.844729" lon="10.140190">
        <ele>705</ele>
        <time>2026-08-30T16:30:33Z</time>
      </trkpt>
      <trkpt lat="48.844729" lon="10.140190">
        <ele>705</ele>
        <time>2026-08-30T16:30:34Z</time>
      </trkpt>
      <trkpt lat="48.844729" lon="10.140190">
        <ele>705.2</ele>
        <time>2026-08-30T16:30:35Z</time>
      </trkpt>
      <trkpt lat="48.844729" lon="10.140190">
        <ele>705.2</ele>
        <time>2026-08-30T16:30:36Z</time>
      </trkpt>
      <trkpt lat="48.844729" lon="10.140190">
        <ele>705.2</ele>
        <time>2026-08-30T16:30:37Z</time>
      </trkpt>
      <trkpt lat="48.844729" lon="10.140190">
        <ele>705.2</ele>
        <time>2026-08-30T16:30:38Z</time>
      </trkpt>
      <trkpt lat="48.844729" lon="10.140190">
        <ele>705.2</ele>
        <time>2026-08-30T16:30:39Z</time>
      </trkpt>
      <trkpt lat="48.844729" lon="10.140190">
        <ele>705.2</ele>
        <time>2026-08-30T16:30:40Z</time>
      </trkpt>
      <trkpt lat="48.844729" lon="10.140190">
        <ele>705.2</ele>
        <time>2026-08-30T16:30:41Z</time>
      </trkpt>
      <trkpt lat="48.844729" lon="10.140190">
        <ele>705.2</ele>
        <time>2026-08-30T16:30:42Z</time>
      </trkpt>
      <trkpt lat="48.844729" lon="10.140190">
        <ele>705.2</ele>
        <time>2026-08-30T16:30:43Z</time>
      </trkpt>
      <trkpt lat="48.844729" lon="10.140190">
        <ele>705.2</ele>
        <time>2026-08-30T16:30:44Z</time>
      </trkpt>
      <trkpt lat="48.844729" lon="10.140190">
        <ele>705.2</ele>
        <time>2026-08-30T16:30:45Z</time>
      </trkpt>
      <trkpt lat="48.844729" lon="10.140190">
        <ele>705.2</ele>
        <time>2026-08-30T16:30:46Z</time>
      </trkpt>
      <trkpt lat="48.844729" lon="10.140190">
        <ele>705.2</ele>
        <time>2026-08-30T16:30:47Z</time>
      </trkpt>
      <trkpt lat="48.844729" lon="10.140190">
        <ele>705.2</ele>
        <time>2026-08-30T16:30:48Z</time>
      </trkpt>
      <trkpt lat="48.844729" lon="10.140190">
        <ele>705.2</ele>
        <time>2026-08-30T16:30:49Z</time>
      </trkpt>
      <trkpt lat="48.844729" lon="10.140190">
        <ele>705.2</ele>
        <time>2026-08-30T16:30:50Z</time>
      </trkpt>
      <trkpt lat="48.844729" lon="10.140190">
        <ele>705.2</ele>
        <time>2026-08-30T16:30:51Z</time>
      </trkpt>
      <trkpt lat="48.844729" lon="10.140190">
        <ele>705.2</ele>
        <time>2026-08-30T16:30:52Z</time>
      </trkpt>
      <trkpt lat="48.844729" lon="10.140190">
        <ele>705.2</ele>
        <time>2026-08-30T16:30:53Z</time>
      </trkpt>
      <trkpt lat="48.844729" lon="10.140190">
        <ele>705.2</ele>
        <time>2026-08-30T16:30:54Z</time>
      </trkpt>
      <trkpt lat="48.844729" lon="10.140190">
        <ele>705.4</ele>
        <time>2026-08-30T16:30:55Z</time>
      </trkpt>
      <trkpt lat="48.844729" lon="10.140190">
        <ele>705.4</ele>
        <time>2026-08-30T16:30:56Z</time>
      </trkpt>
      <trkpt lat="48.844729" lon="10.140190">
        <ele>705.4</ele>
        <time>2026-08-30T16:30:57Z</time>
      </trkpt>
      <trkpt lat="48.844729" lon="10.140190">
        <ele>705.4</ele>
        <time>2026-08-30T16:30:58Z</time>
      </trkpt>
      <trkpt lat="48.844729" lon="10.140190">
        <ele>705.4</ele>
        <time>2026-08-30T16:30:59Z</time>
      </trkpt>
      <trkpt lat="48.844729" lon="10.140190">
        <ele>705.4</ele>
        <time>2026-08-30T16:31:00Z</time>
      </trkpt>
      <trkpt lat="48.844729" lon="10.140190">
        <ele>705.4</ele>
        <time>2026-08-30T16:31:01Z</time>
      </trkpt>
      <trkpt lat="48.844729" lon="10.140190">
        <ele>705.4</ele>
        <time>2026-08-30T16:31:02Z</time>
      </trkpt>
      <trkpt lat="48.844729" lon="10.140190">
        <ele>705.4</ele>
        <time>2026-08-30T16:31:03Z</time>
      </trkpt>
      <trkpt lat="48.844729" lon="10.140190">
        <ele>705.4</ele>
        <time>2026-08-30T16:31:04Z</time>
      </trkpt>
      <trkpt lat="48.844729" lon="10.140190">
        <ele>705.4</ele>
        <time>2026-08-30T16:31:05Z</time>
      </trkpt>
      <trkpt lat="48.844727" lon="10.140181">
        <ele>705.4</ele>
        <time>2026-08-30T16:31:06Z</time>
      </trkpt>
      <trkpt lat="48.844714" lon="10.140164">
        <ele>705.4</ele>
        <time>2026-08-30T16:31:07Z</time>
      </trkpt>
      <trkpt lat="48.844709" lon="10.140164">
        <ele>705.4</ele>
        <time>2026-08-30T16:31:08Z</time>
      </trkpt>
      <trkpt lat="48.844702" lon="10.140163">
        <ele>705.4</ele>
        <time>2026-08-30T16:31:09Z</time>
      </trkpt>
      <trkpt lat="48.844696" lon="10.140162">
        <ele>705.4</ele>
        <time>2026-08-30T16:31:10Z</time>
      </trkpt>
      <trkpt lat="48.844683" lon="10.140154">
        <ele>705.2</ele>
        <time>2026-08-30T16:31:11Z</time>
      </trkpt>
      <trkpt lat="48.844665" lon="10.140148">
        <ele>705.2</ele>
        <time>2026-08-30T16:31:12Z</time>
      </trkpt>
      <trkpt lat="48.844632" lon="10.140133">
        <ele>705.2</ele>
        <time>2026-08-30T16:31:13Z</time>
      </trkpt>
      <trkpt lat="48.844592" lon="10.140140">
        <ele>705</ele>
        <time>2026-08-30T16:31:14Z</time>
      </trkpt>
      <trkpt lat="48.844553" lon="10.140153">
        <ele>704.6</ele>
        <time>2026-08-30T16:31:15Z</time>
      </trkpt>
      <trkpt lat="48.844515" lon="10.140154">
        <ele>704.4</ele>
        <time>2026-08-30T16:31:16Z</time>
      </trkpt>
      <trkpt lat="48.844479" lon="10.140171">
        <ele>704.2</ele>
        <time>2026-08-30T16:31:17Z</time>
      </trkpt>
      <trkpt lat="48.844456" lon="10.140209">
        <ele>703.8</ele>
        <time>2026-08-30T16:31:18Z</time>
      </trkpt>
      <trkpt lat="48.844427" lon="10.140217">
        <ele>703.6</ele>
        <time>2026-08-30T16:31:19Z</time>
      </trkpt>
      <trkpt lat="48.844399" lon="10.140209">
        <ele>703.4</ele>
        <time>2026-08-30T16:31:20Z</time>
      </trkpt>
      <trkpt lat="48.844374" lon="10.140194">
        <ele>703.4</ele>
        <time>2026-08-30T16:31:21Z</time>
      </trkpt>
      <trkpt lat="48.844337" lon="10.140195">
        <ele>703.2</ele>
        <time>2026-08-30T16:31:22Z</time>
      </trkpt>
      <trkpt lat="48.844311" lon="10.140214">
        <ele>703.2</ele>
        <time>2026-08-30T16:31:23Z</time>
      </trkpt>
      <trkpt lat="48.844288" lon="10.140207">
        <ele>703</ele>
        <time>2026-08-30T16:31:24Z</time>
      </trkpt>
      <trkpt lat="48.844268" lon="10.140188">
        <ele>702.8</ele>
        <time>2026-08-30T16:31:25Z</time>
      </trkpt>
      <trkpt lat="48.844243" lon="10.140160">
        <ele>702.6</ele>
        <time>2026-08-30T16:31:26Z</time>
      </trkpt>
      <trkpt lat="48.844208" lon="10.140150">
        <ele>702.4</ele>
        <time>2026-08-30T16:31:27Z</time>
      </trkpt>
      <trkpt lat="48.844170" lon="10.140162">
        <ele>702.2</ele>
        <time>2026-08-30T16:31:28Z</time>
      </trkpt>
      <trkpt lat="48.844145" lon="10.140181">
        <ele>702</ele>
        <time>2026-08-30T16:31:29Z</time>
      </trkpt>
      <trkpt lat="48.844119" lon="10.140195">
        <ele>701.8</ele>
        <time>2026-08-30T16:31:30Z</time>
      </trkpt>
      <trkpt lat="48.844090" lon="10.140201">
        <ele>701.8</ele>
        <time>2026-08-30T16:31:31Z</time>
      </trkpt>
      <trkpt lat="48.844064" lon="10.140208">
        <ele>701.6</ele>
        <time>2026-08-30T16:31:32Z</time>
      </trkpt>
      <trkpt lat="48.844029" lon="10.140209">
        <ele>701.6</ele>
        <time>2026-08-30T16:31:33Z</time>
      </trkpt>
      <trkpt lat="48.843998" lon="10.140221">
        <ele>701.6</ele>
        <time>2026-08-30T16:31:34Z</time>
      </trkpt>
      <trkpt lat="48.843972" lon="10.140232">
        <ele>701.6</ele>
        <time>2026-08-30T16:31:35Z</time>
      </trkpt>
      <trkpt lat="48.843947" lon="10.140247">
        <ele>701.6</ele>
        <time>2026-08-30T16:31:36Z</time>
      </trkpt>
      <trkpt lat="48.843924" lon="10.140258">
        <ele>701.8</ele>
        <time>2026-08-30T16:31:37Z</time>
      </trkpt>
      <trkpt lat="48.843904" lon="10.140280">
        <ele>701.8</ele>
        <time>2026-08-30T16:31:38Z</time>
      </trkpt>
      <trkpt lat="48.843888" lon="10.140301">
        <ele>701.8</ele>
        <time>2026-08-30T16:31:39Z</time>
      </trkpt>
      <trkpt lat="48.843859" lon="10.140320">
        <ele>701.8</ele>
        <time>2026-08-30T16:31:40Z</time>
      </trkpt>
      <trkpt lat="48.843833" lon="10.140336">
        <ele>702</ele>
        <time>2026-08-30T16:31:41Z</time>
      </trkpt>
      <trkpt lat="48.843803" lon="10.140347">
        <ele>702</ele>
        <time>2026-08-30T16:31:42Z</time>
      </trkpt>
      <trkpt lat="48.843778" lon="10.140360">
        <ele>702</ele>
        <time>2026-08-30T16:31:43Z</time>
      </trkpt>
      <trkpt lat="48.843748" lon="10.140369">
        <ele>702.2</ele>
        <time>2026-08-30T16:31:44Z</time>
      </trkpt>
      <trkpt lat="48.843718" lon="10.140381">
        <ele>702.2</ele>
        <time>2026-08-30T16:31:45Z</time>
      </trkpt>
      <trkpt lat="48.843692" lon="10.140399">
        <ele>702.2</ele>
        <time>2026-08-30T16:31:46Z</time>
      </trkpt>
      <trkpt lat="48.843673" lon="10.140428">
        <ele>702.2</ele>
        <time>2026-08-30T16:31:47Z</time>
      </trkpt>
      <trkpt lat="48.843655" lon="10.140457">
        <ele>702.4</ele>
        <time>2026-08-30T16:31:48Z</time>
      </trkpt>
      <trkpt lat="48.843635" lon="10.140473">
        <ele>702.4</ele>
        <time>2026-08-30T16:31:49Z</time>
      </trkpt>
      <trkpt lat="48.843616" lon="10.140491">
        <ele>702.6</ele>
        <time>2026-08-30T16:31:50Z</time>
      </trkpt>
      <trkpt lat="48.843599" lon="10.140513">
        <ele>702.8</ele>
        <time>2026-08-30T16:31:51Z</time>
      </trkpt>
      <trkpt lat="48.843581" lon="10.140538">
        <ele>703</ele>
        <time>2026-08-30T16:31:52Z</time>
      </trkpt>
      <trkpt lat="48.843569" lon="10.140567">
        <ele>703</ele>
        <time>2026-08-30T16:31:53Z</time>
      </trkpt>
      <trkpt lat="48.843553" lon="10.140589">
        <ele>703.2</ele>
        <time>2026-08-30T16:31:54Z</time>
      </trkpt>
      <trkpt lat="48.843539" lon="10.140615">
        <ele>703.4</ele>
        <time>2026-08-30T16:31:55Z</time>
      </trkpt>
      <trkpt lat="48.843527" lon="10.140638">
        <ele>703.4</ele>
        <time>2026-08-30T16:31:56Z</time>
      </trkpt>
      <trkpt lat="48.843515" lon="10.140664">
        <ele>703.6</ele>
        <time>2026-08-30T16:31:57Z</time>
      </trkpt>
      <trkpt lat="48.843505" lon="10.140693">
        <ele>703.8</ele>
        <time>2026-08-30T16:31:58Z</time>
      </trkpt>
      <trkpt lat="48.843496" lon="10.140717">
        <ele>704</ele>
        <time>2026-08-30T16:31:59Z</time>
      </trkpt>
      <trkpt lat="48.843484" lon="10.140744">
        <ele>704</ele>
        <time>2026-08-30T16:32:00Z</time>
      </trkpt>
      <trkpt lat="48.843476" lon="10.140771">
        <ele>704.2</ele>
        <time>2026-08-30T16:32:01Z</time>
      </trkpt>
      <trkpt lat="48.843464" lon="10.140803">
        <ele>704.2</ele>
        <time>2026-08-30T16:32:02Z</time>
      </trkpt>
      <trkpt lat="48.843454" lon="10.140823">
        <ele>704.4</ele>
        <time>2026-08-30T16:32:03Z</time>
      </trkpt>
      <trkpt lat="48.843444" lon="10.140844">
        <ele>704.6</ele>
        <time>2026-08-30T16:32:04Z</time>
      </trkpt>
      <trkpt lat="48.843434" lon="10.140868">
        <ele>704.8</ele>
        <time>2026-08-30T16:32:05Z</time>
      </trkpt>
      <trkpt lat="48.843428" lon="10.140893">
        <ele>705</ele>
        <time>2026-08-30T16:32:06Z</time>
      </trkpt>
      <trkpt lat="48.843422" lon="10.140917">
        <ele>705.2</ele>
        <time>2026-08-30T16:32:07Z</time>
      </trkpt>
      <trkpt lat="48.843416" lon="10.140936">
        <ele>705.4</ele>
        <time>2026-08-30T16:32:08Z</time>
      </trkpt>
      <trkpt lat="48.843410" lon="10.140959">
        <ele>705.6</ele>
        <time>2026-08-30T16:32:09Z</time>
      </trkpt>
      <trkpt lat="48.843403" lon="10.140980">
        <ele>705.6</ele>
        <time>2026-08-30T16:32:10Z</time>
      </trkpt>
      <trkpt lat="48.843393" lon="10.141005">
        <ele>705.8</ele>
        <time>2026-08-30T16:32:11Z</time>
      </trkpt>
      <trkpt lat="48.843383" lon="10.141027">
        <ele>706</ele>
        <time>2026-08-30T16:32:12Z</time>
      </trkpt>
      <trkpt lat="48.843373" lon="10.141051">
        <ele>706.2</ele>
        <time>2026-08-30T16:32:13Z</time>
      </trkpt>
      <trkpt lat="48.843370" lon="10.141075">
        <ele>706.4</ele>
        <time>2026-08-30T16:32:14Z</time>
      </trkpt>
      <trkpt lat="48.843363" lon="10.141103">
        <ele>706.4</ele>
        <time>2026-08-30T16:32:15Z</time>
      </trkpt>
      <trkpt lat="48.843356" lon="10.141127">
        <ele>706.6</ele>
        <time>2026-08-30T16:32:16Z</time>
      </trkpt>
      <trkpt lat="48.843348" lon="10.141160">
        <ele>706.8</ele>
        <time>2026-08-30T16:32:17Z</time>
      </trkpt>
      <trkpt lat="48.843338" lon="10.141186">
        <ele>706.8</ele>
        <time>2026-08-30T16:32:18Z</time>
      </trkpt>
      <trkpt lat="48.843329" lon="10.141206">
        <ele>707</ele>
        <time>2026-08-30T16:32:19Z</time>
      </trkpt>
      <trkpt lat="48.843318" lon="10.141230">
        <ele>707.2</ele>
        <time>2026-08-30T16:32:20Z</time>
      </trkpt>
      <trkpt lat="48.843311" lon="10.141255">
        <ele>707.2</ele>
        <time>2026-08-30T16:32:21Z</time>
      </trkpt>
      <trkpt lat="48.843301" lon="10.141279">
        <ele>707.4</ele>
        <time>2026-08-30T16:32:22Z</time>
      </trkpt>
      <trkpt lat="48.843293" lon="10.141303">
        <ele>707.6</ele>
        <time>2026-08-30T16:32:23Z</time>
      </trkpt>
      <trkpt lat="48.843290" lon="10.141330">
        <ele>707.6</ele>
        <time>2026-08-30T16:32:24Z</time>
      </trkpt>
      <trkpt lat="48.843281" lon="10.141356">
        <ele>707.8</ele>
        <time>2026-08-30T16:32:25Z</time>
      </trkpt>
      <trkpt lat="48.843267" lon="10.141386">
        <ele>708</ele>
        <time>2026-08-30T16:32:26Z</time>
      </trkpt>
      <trkpt lat="48.843255" lon="10.141411">
        <ele>708</ele>
        <time>2026-08-30T16:32:27Z</time>
      </trkpt>
      <trkpt lat="48.843242" lon="10.141443">
        <ele>708.2</ele>
        <time>2026-08-30T16:32:28Z</time>
      </trkpt>
      <trkpt lat="48.843230" lon="10.141473">
        <ele>708.2</ele>
        <time>2026-08-30T16:32:29Z</time>
      </trkpt>
      <trkpt lat="48.843219" lon="10.141503">
        <ele>708.4</ele>
        <time>2026-08-30T16:32:30Z</time>
      </trkpt>
      <trkpt lat="48.843206" lon="10.141525">
        <ele>708.4</ele>
        <time>2026-08-30T16:32:31Z</time>
      </trkpt>
      <trkpt lat="48.843195" lon="10.141555">
        <ele>708.4</ele>
        <time>2026-08-30T16:32:32Z</time>
      </trkpt>
      <trkpt lat="48.843178" lon="10.141582">
        <ele>708.4</ele>
        <time>2026-08-30T16:32:33Z</time>
      </trkpt>
      <trkpt lat="48.843159" lon="10.141604">
        <ele>708.4</ele>
        <time>2026-08-30T16:32:34Z</time>
      </trkpt>
      <trkpt lat="48.843135" lon="10.141629">
        <ele>708.4</ele>
        <time>2026-08-30T16:32:35Z</time>
      </trkpt>
      <trkpt lat="48.843106" lon="10.141651">
        <ele>708.4</ele>
        <time>2026-08-30T16:32:36Z</time>
      </trkpt>
      <trkpt lat="48.843071" lon="10.141679">
        <ele>708.4</ele>
        <time>2026-08-30T16:32:37Z</time>
      </trkpt>
      <trkpt lat="48.843030" lon="10.141705">
        <ele>708.2</ele>
        <time>2026-08-30T16:32:38Z</time>
      </trkpt>
      <trkpt lat="48.842981" lon="10.141726">
        <ele>708</ele>
        <time>2026-08-30T16:32:39Z</time>
      </trkpt>
      <trkpt lat="48.842935" lon="10.141749">
        <ele>707.6</ele>
        <time>2026-08-30T16:32:40Z</time>
      </trkpt>
      <trkpt lat="48.842895" lon="10.141774">
        <ele>707.2</ele>
        <time>2026-08-30T16:32:41Z</time>
      </trkpt>
      <trkpt lat="48.842849" lon="10.141794">
        <ele>706.8</ele>
        <time>2026-08-30T16:32:42Z</time>
      </trkpt>
      <trkpt lat="48.842807" lon="10.141821">
        <ele>706.4</ele>
        <time>2026-08-30T16:32:43Z</time>
      </trkpt>
      <trkpt lat="48.842766" lon="10.141848">
        <ele>705.8</ele>
        <time>2026-08-30T16:32:44Z</time>
      </trkpt>
      <trkpt lat="48.842732" lon="10.141872">
        <ele>705.2</ele>
        <time>2026-08-30T16:32:45Z</time>
      </trkpt>
      <trkpt lat="48.842711" lon="10.141911">
        <ele>704.8</ele>
        <time>2026-08-30T16:32:46Z</time>
      </trkpt>
      <trkpt lat="48.842697" lon="10.141960">
        <ele>704.4</ele>
        <time>2026-08-30T16:32:47Z</time>
      </trkpt>
      <trkpt lat="48.842677" lon="10.142007">
        <ele>703.8</ele>
        <time>2026-08-30T16:32:48Z</time>
      </trkpt>
      <trkpt lat="48.842663" lon="10.142048">
        <ele>703.2</ele>
        <time>2026-08-30T16:32:49Z</time>
      </trkpt>
      <trkpt lat="48.842647" lon="10.142099">
        <ele>702.8</ele>
        <time>2026-08-30T16:32:50Z</time>
      </trkpt>
      <trkpt lat="48.842628" lon="10.142151">
        <ele>702.4</ele>
        <time>2026-08-30T16:32:51Z</time>
      </trkpt>
      <trkpt lat="48.842609" lon="10.142204">
        <ele>702</ele>
        <time>2026-08-30T16:32:52Z</time>
      </trkpt>
      <trkpt lat="48.842591" lon="10.142254">
        <ele>701.6</ele>
        <time>2026-08-30T16:32:53Z</time>
      </trkpt>
      <trkpt lat="48.842579" lon="10.142310">
        <ele>701.2</ele>
        <time>2026-08-30T16:32:54Z</time>
      </trkpt>
      <trkpt lat="48.842570" lon="10.142363">
        <ele>700.8</ele>
        <time>2026-08-30T16:32:55Z</time>
      </trkpt>
      <trkpt lat="48.842562" lon="10.142413">
        <ele>700.4</ele>
        <time>2026-08-30T16:32:56Z</time>
      </trkpt>
      <trkpt lat="48.842553" lon="10.142465">
        <ele>700</ele>
        <time>2026-08-30T16:32:57Z</time>
      </trkpt>
      <trkpt lat="48.842542" lon="10.142520">
        <ele>699.6</ele>
        <time>2026-08-30T16:32:58Z</time>
      </trkpt>
      <trkpt lat="48.842522" lon="10.142564">
        <ele>699.4</ele>
        <time>2026-08-30T16:32:59Z</time>
      </trkpt>
      <trkpt lat="48.842497" lon="10.142626">
        <ele>699</ele>
        <time>2026-08-30T16:33:00Z</time>
      </trkpt>
      <trkpt lat="48.842476" lon="10.142690">
        <ele>698.8</ele>
        <time>2026-08-30T16:33:01Z</time>
      </trkpt>
      <trkpt lat="48.842458" lon="10.142757">
        <ele>698.4</ele>
        <time>2026-08-30T16:33:02Z</time>
      </trkpt>
      <trkpt lat="48.842447" lon="10.142820">
        <ele>698.2</ele>
        <time>2026-08-30T16:33:03Z</time>
      </trkpt>
      <trkpt lat="48.842440" lon="10.142884">
        <ele>697.8</ele>
        <time>2026-08-30T16:33:04Z</time>
      </trkpt>
      <trkpt lat="48.842437" lon="10.142945">
        <ele>697.6</ele>
        <time>2026-08-30T16:33:05Z</time>
      </trkpt>
      <trkpt lat="48.842426" lon="10.142993">
        <ele>697.4</ele>
        <time>2026-08-30T16:33:06Z</time>
      </trkpt>
      <trkpt lat="48.842409" lon="10.143041">
        <ele>697.4</ele>
        <time>2026-08-30T16:33:07Z</time>
      </trkpt>
      <trkpt lat="48.842386" lon="10.143081">
        <ele>697.4</ele>
        <time>2026-08-30T16:33:08Z</time>
      </trkpt>
      <trkpt lat="48.842360" lon="10.143120">
        <ele>697.4</ele>
        <time>2026-08-30T16:33:09Z</time>
      </trkpt>
      <trkpt lat="48.842336" lon="10.143167">
        <ele>697.4</ele>
        <time>2026-08-30T16:33:10Z</time>
      </trkpt>
      <trkpt lat="48.842310" lon="10.143207">
        <ele>697.4</ele>
        <time>2026-08-30T16:33:11Z</time>
      </trkpt>
      <trkpt lat="48.842277" lon="10.143239">
        <ele>697.4</ele>
        <time>2026-08-30T16:33:12Z</time>
      </trkpt>
      <trkpt lat="48.842238" lon="10.143261">
        <ele>697.2</ele>
        <time>2026-08-30T16:33:13Z</time>
      </trkpt>
      <trkpt lat="48.842201" lon="10.143289">
        <ele>697.2</ele>
        <time>2026-08-30T16:33:14Z</time>
      </trkpt>
      <trkpt lat="48.842179" lon="10.143336">
        <ele>697.2</ele>
        <time>2026-08-30T16:33:15Z</time>
      </trkpt>
      <trkpt lat="48.842167" lon="10.143386">
        <ele>697.2</ele>
        <time>2026-08-30T16:33:16Z</time>
      </trkpt>
      <trkpt lat="48.842157" lon="10.143405">
        <ele>697.2</ele>
        <time>2026-08-30T16:33:17Z</time>
      </trkpt>
      <trkpt lat="48.842130" lon="10.143414">
        <ele>697.2</ele>
        <time>2026-08-30T16:33:18Z</time>
      </trkpt>
      <trkpt lat="48.842103" lon="10.143425">
        <ele>697.4</ele>
        <time>2026-08-30T16:33:19Z</time>
      </trkpt>
      <trkpt lat="48.842076" lon="10.143445">
        <ele>697.4</ele>
        <time>2026-08-30T16:33:20Z</time>
      </trkpt>
      <trkpt lat="48.842056" lon="10.143470">
        <ele>697.6</ele>
        <time>2026-08-30T16:33:21Z</time>
      </trkpt>
      <trkpt lat="48.842045" lon="10.143495">
        <ele>697.6</ele>
        <time>2026-08-30T16:33:22Z</time>
      </trkpt>
      <trkpt lat="48.842037" lon="10.143519">
        <ele>697.8</ele>
        <time>2026-08-30T16:33:23Z</time>
      </trkpt>
      <trkpt lat="48.842032" lon="10.143550">
        <ele>698</ele>
        <time>2026-08-30T16:33:24Z</time>
      </trkpt>
      <trkpt lat="48.842029" lon="10.143576">
        <ele>698.2</ele>
        <time>2026-08-30T16:33:25Z</time>
      </trkpt>
      <trkpt lat="48.842029" lon="10.143606">
        <ele>698.4</ele>
        <time>2026-08-30T16:33:26Z</time>
      </trkpt>
      <trkpt lat="48.842029" lon="10.143631">
        <ele>698.6</ele>
        <time>2026-08-30T16:33:27Z</time>
      </trkpt>
      <trkpt lat="48.842024" lon="10.143658">
        <ele>698.8</ele>
        <time>2026-08-30T16:33:28Z</time>
      </trkpt>
      <trkpt lat="48.842017" lon="10.143684">
        <ele>699</ele>
        <time>2026-08-30T16:33:29Z</time>
      </trkpt>
      <trkpt lat="48.842003" lon="10.143704">
        <ele>699.2</ele>
        <time>2026-08-30T16:33:30Z</time>
      </trkpt>
      <trkpt lat="48.841984" lon="10.143717">
        <ele>699.4</ele>
        <time>2026-08-30T16:33:31Z</time>
      </trkpt>
      <trkpt lat="48.841965" lon="10.143730">
        <ele>699.4</ele>
        <time>2026-08-30T16:33:32Z</time>
      </trkpt>
      <trkpt lat="48.841945" lon="10.143749">
        <ele>699.6</ele>
        <time>2026-08-30T16:33:33Z</time>
      </trkpt>
      <trkpt lat="48.841935" lon="10.143769">
        <ele>699.8</ele>
        <time>2026-08-30T16:33:34Z</time>
      </trkpt>
      <trkpt lat="48.841924" lon="10.143789">
        <ele>700</ele>
        <time>2026-08-30T16:33:35Z</time>
      </trkpt>
      <trkpt lat="48.841920" lon="10.143813">
        <ele>700.2</ele>
        <time>2026-08-30T16:33:36Z</time>
      </trkpt>
      <trkpt lat="48.841919" lon="10.143837">
        <ele>700.4</ele>
        <time>2026-08-30T16:33:37Z</time>
      </trkpt>
      <trkpt lat="48.841915" lon="10.143861">
        <ele>700.6</ele>
        <time>2026-08-30T16:33:38Z</time>
      </trkpt>
      <trkpt lat="48.841912" lon="10.143888">
        <ele>700.8</ele>
        <time>2026-08-30T16:33:39Z</time>
      </trkpt>
      <trkpt lat="48.841904" lon="10.143910">
        <ele>701</ele>
        <time>2026-08-30T16:33:40Z</time>
      </trkpt>
      <trkpt lat="48.841894" lon="10.143938">
        <ele>701.2</ele>
        <time>2026-08-30T16:33:41Z</time>
      </trkpt>
      <trkpt lat="48.841881" lon="10.143959">
        <ele>701.4</ele>
        <time>2026-08-30T16:33:42Z</time>
      </trkpt>
      <trkpt lat="48.841864" lon="10.143985">
        <ele>701.4</ele>
        <time>2026-08-30T16:33:43Z</time>
      </trkpt>
      <trkpt lat="48.841847" lon="10.144000">
        <ele>701.6</ele>
        <time>2026-08-30T16:33:44Z</time>
      </trkpt>
      <trkpt lat="48.841835" lon="10.144015">
        <ele>701.8</ele>
        <time>2026-08-30T16:33:45Z</time>
      </trkpt>
      <trkpt lat="48.841825" lon="10.144035">
        <ele>702</ele>
        <time>2026-08-30T16:33:46Z</time>
      </trkpt>
      <trkpt lat="48.841821" lon="10.144056">
        <ele>702</ele>
        <time>2026-08-30T16:33:47Z</time>
      </trkpt>
      <trkpt lat="48.841826" lon="10.144087">
        <ele>702.2</ele>
        <time>2026-08-30T16:33:48Z</time>
      </trkpt>
      <trkpt lat="48.841835" lon="10.144113">
        <ele>702.4</ele>
        <time>2026-08-30T16:33:49Z</time>
      </trkpt>
      <trkpt lat="48.841838" lon="10.144139">
        <ele>702.4</ele>
        <time>2026-08-30T16:33:50Z</time>
      </trkpt>
      <trkpt lat="48.841837" lon="10.144168">
        <ele>702.6</ele>
        <time>2026-08-30T16:33:51Z</time>
      </trkpt>
      <trkpt lat="48.841829" lon="10.144189">
        <ele>702.6</ele>
        <time>2026-08-30T16:33:52Z</time>
      </trkpt>
      <trkpt lat="48.841819" lon="10.144213">
        <ele>702.8</ele>
        <time>2026-08-30T16:33:53Z</time>
      </trkpt>
      <trkpt lat="48.841812" lon="10.144236">
        <ele>703</ele>
        <time>2026-08-30T16:33:54Z</time>
      </trkpt>
      <trkpt lat="48.841806" lon="10.144262">
        <ele>703.2</ele>
        <time>2026-08-30T16:33:55Z</time>
      </trkpt>
      <trkpt lat="48.841807" lon="10.144282">
        <ele>703.4</ele>
        <time>2026-08-30T16:33:56Z</time>
      </trkpt>
      <trkpt lat="48.841811" lon="10.144308">
        <ele>703.4</ele>
        <time>2026-08-30T16:33:57Z</time>
      </trkpt>
      <trkpt lat="48.841816" lon="10.144328">
        <ele>703.6</ele>
        <time>2026-08-30T16:33:58Z</time>
      </trkpt>
      <trkpt lat="48.841827" lon="10.144357">
        <ele>703.8</ele>
        <time>2026-08-30T16:33:59Z</time>
      </trkpt>
      <trkpt lat="48.841835" lon="10.144381">
        <ele>704</ele>
        <time>2026-08-30T16:34:00Z</time>
      </trkpt>
      <trkpt lat="48.841835" lon="10.144407">
        <ele>704</ele>
        <time>2026-08-30T16:34:01Z</time>
      </trkpt>
      <trkpt lat="48.841829" lon="10.144436">
        <ele>704</ele>
        <time>2026-08-30T16:34:02Z</time>
      </trkpt>
      <trkpt lat="48.841820" lon="10.144456">
        <ele>704.2</ele>
        <time>2026-08-30T16:34:03Z</time>
      </trkpt>
      <trkpt lat="48.841809" lon="10.144478">
        <ele>704.2</ele>
        <time>2026-08-30T16:34:04Z</time>
      </trkpt>
      <trkpt lat="48.841801" lon="10.144497">
        <ele>704.4</ele>
        <time>2026-08-30T16:34:05Z</time>
      </trkpt>
      <trkpt lat="48.841796" lon="10.144520">
        <ele>704.4</ele>
        <time>2026-08-30T16:34:06Z</time>
      </trkpt>
      <trkpt lat="48.841789" lon="10.144538">
        <ele>704.6</ele>
        <time>2026-08-30T16:34:07Z</time>
      </trkpt>
      <trkpt lat="48.841778" lon="10.144565">
        <ele>704.6</ele>
        <time>2026-08-30T16:34:08Z</time>
      </trkpt>
      <trkpt lat="48.841763" lon="10.144589">
        <ele>704.8</ele>
        <time>2026-08-30T16:34:09Z</time>
      </trkpt>
      <trkpt lat="48.841750" lon="10.144611">
        <ele>705</ele>
        <time>2026-08-30T16:34:10Z</time>
      </trkpt>
      <trkpt lat="48.841738" lon="10.144624">
        <ele>705.2</ele>
        <time>2026-08-30T16:34:11Z</time>
      </trkpt>
      <trkpt lat="48.841726" lon="10.144630">
        <ele>705.4</ele>
        <time>2026-08-30T16:34:12Z</time>
      </trkpt>
      <trkpt lat="48.841713" lon="10.144631">
        <ele>705.4</ele>
        <time>2026-08-30T16:34:13Z</time>
      </trkpt>
      <trkpt lat="48.841700" lon="10.144630">
        <ele>705.6</ele>
        <time>2026-08-30T16:34:14Z</time>
      </trkpt>
      <trkpt lat="48.841683" lon="10.144624">
        <ele>705.8</ele>
        <time>2026-08-30T16:34:15Z</time>
      </trkpt>
      <trkpt lat="48.841662" lon="10.144621">
        <ele>705.8</ele>
        <time>2026-08-30T16:34:16Z</time>
      </trkpt>
      <trkpt lat="48.841642" lon="10.144625">
        <ele>706</ele>
        <time>2026-08-30T16:34:17Z</time>
      </trkpt>
      <trkpt lat="48.841623" lon="10.144630">
        <ele>706.2</ele>
        <time>2026-08-30T16:34:18Z</time>
      </trkpt>
      <trkpt lat="48.841607" lon="10.144624">
        <ele>706.2</ele>
        <time>2026-08-30T16:34:19Z</time>
      </trkpt>
      <trkpt lat="48.841594" lon="10.144614">
        <ele>706.4</ele>
        <time>2026-08-30T16:34:20Z</time>
      </trkpt>
      <trkpt lat="48.841582" lon="10.144602">
        <ele>706.6</ele>
        <time>2026-08-30T16:34:21Z</time>
      </trkpt>
      <trkpt lat="48.841566" lon="10.144588">
        <ele>706.6</ele>
        <time>2026-08-30T16:34:22Z</time>
      </trkpt>
      <trkpt lat="48.841545" lon="10.144586">
        <ele>706.6</ele>
        <time>2026-08-30T16:34:23Z</time>
      </trkpt>
      <trkpt lat="48.841525" lon="10.144594">
        <ele>706.8</ele>
        <time>2026-08-30T16:34:24Z</time>
      </trkpt>
      <trkpt lat="48.841510" lon="10.144603">
        <ele>706.8</ele>
        <time>2026-08-30T16:34:25Z</time>
      </trkpt>
      <trkpt lat="48.841496" lon="10.144610">
        <ele>707</ele>
        <time>2026-08-30T16:34:26Z</time>
      </trkpt>
      <trkpt lat="48.841483" lon="10.144624">
        <ele>707</ele>
        <time>2026-08-30T16:34:27Z</time>
      </trkpt>
      <trkpt lat="48.841470" lon="10.144639">
        <ele>707.2</ele>
        <time>2026-08-30T16:34:28Z</time>
      </trkpt>
      <trkpt lat="48.841460" lon="10.144661">
        <ele>707.2</ele>
        <time>2026-08-30T16:34:29Z</time>
      </trkpt>
      <trkpt lat="48.841454" lon="10.144688">
        <ele>707.4</ele>
        <time>2026-08-30T16:34:30Z</time>
      </trkpt>
      <trkpt lat="48.841455" lon="10.144712">
        <ele>707.4</ele>
        <time>2026-08-30T16:34:31Z</time>
      </trkpt>
      <trkpt lat="48.841460" lon="10.144735">
        <ele>707.6</ele>
        <time>2026-08-30T16:34:32Z</time>
      </trkpt>
      <trkpt lat="48.841465" lon="10.144759">
        <ele>707.6</ele>
        <time>2026-08-30T16:34:33Z</time>
      </trkpt>
      <trkpt lat="48.841468" lon="10.144784">
        <ele>707.8</ele>
        <time>2026-08-30T16:34:34Z</time>
      </trkpt>
      <trkpt lat="48.841469" lon="10.144809">
        <ele>707.8</ele>
        <time>2026-08-30T16:34:35Z</time>
      </trkpt>
      <trkpt lat="48.841470" lon="10.144832">
        <ele>707.8</ele>
        <time>2026-08-30T16:34:36Z</time>
      </trkpt>
      <trkpt lat="48.841479" lon="10.144863">
        <ele>708</ele>
        <time>2026-08-30T16:34:37Z</time>
      </trkpt>
      <trkpt lat="48.841489" lon="10.144892">
        <ele>708</ele>
        <time>2026-08-30T16:34:38Z</time>
      </trkpt>
      <trkpt lat="48.841499" lon="10.144922">
        <ele>708.2</ele>
        <time>2026-08-30T16:34:39Z</time>
      </trkpt>
      <trkpt lat="48.841509" lon="10.144950">
        <ele>708.2</ele>
        <time>2026-08-30T16:34:40Z</time>
      </trkpt>
      <trkpt lat="48.841515" lon="10.144978">
        <ele>708.2</ele>
        <time>2026-08-30T16:34:41Z</time>
      </trkpt>
      <trkpt lat="48.841521" lon="10.145010">
        <ele>708.4</ele>
        <time>2026-08-30T16:34:42Z</time>
      </trkpt>
      <trkpt lat="48.841525" lon="10.145047">
        <ele>708.4</ele>
        <time>2026-08-30T16:34:43Z</time>
      </trkpt>
      <trkpt lat="48.841528" lon="10.145091">
        <ele>708.4</ele>
        <time>2026-08-30T16:34:44Z</time>
      </trkpt>
      <trkpt lat="48.841528" lon="10.145128">
        <ele>708.4</ele>
        <time>2026-08-30T16:34:45Z</time>
      </trkpt>
      <trkpt lat="48.841533" lon="10.145161">
        <ele>708.6</ele>
        <time>2026-08-30T16:34:46Z</time>
      </trkpt>
      <trkpt lat="48.841535" lon="10.145195">
        <ele>708.6</ele>
        <time>2026-08-30T16:34:47Z</time>
      </trkpt>
      <trkpt lat="48.841541" lon="10.145233">
        <ele>708.8</ele>
        <time>2026-08-30T16:34:48Z</time>
      </trkpt>
      <trkpt lat="48.841549" lon="10.145276">
        <ele>708.8</ele>
        <time>2026-08-30T16:34:49Z</time>
      </trkpt>
      <trkpt lat="48.841557" lon="10.145322">
        <ele>708.8</ele>
        <time>2026-08-30T16:34:50Z</time>
      </trkpt>
      <trkpt lat="48.841566" lon="10.145361">
        <ele>709</ele>
        <time>2026-08-30T16:34:51Z</time>
      </trkpt>
      <trkpt lat="48.841573" lon="10.145402">
        <ele>709</ele>
        <time>2026-08-30T16:34:52Z</time>
      </trkpt>
      <trkpt lat="48.841584" lon="10.145445">
        <ele>709.2</ele>
        <time>2026-08-30T16:34:53Z</time>
      </trkpt>
      <trkpt lat="48.841595" lon="10.145488">
        <ele>709.2</ele>
        <time>2026-08-30T16:34:54Z</time>
      </trkpt>
      <trkpt lat="48.841604" lon="10.145528">
        <ele>709.2</ele>
        <time>2026-08-30T16:34:55Z</time>
      </trkpt>
      <trkpt lat="48.841615" lon="10.145567">
        <ele>709.2</ele>
        <time>2026-08-30T16:34:56Z</time>
      </trkpt>
      <trkpt lat="48.841626" lon="10.145614">
        <ele>709.4</ele>
        <time>2026-08-30T16:34:57Z</time>
      </trkpt>
      <trkpt lat="48.841638" lon="10.145662">
        <ele>709.4</ele>
        <time>2026-08-30T16:34:58Z</time>
      </trkpt>
      <trkpt lat="48.841649" lon="10.145706">
        <ele>709.4</ele>
        <time>2026-08-30T16:34:59Z</time>
      </trkpt>
      <trkpt lat="48.841660" lon="10.145748">
        <ele>709.4</ele>
        <time>2026-08-30T16:35:00Z</time>
      </trkpt>
      <trkpt lat="48.841672" lon="10.145790">
        <ele>709.4</ele>
        <time>2026-08-30T16:35:01Z</time>
      </trkpt>
      <trkpt lat="48.841681" lon="10.145837">
        <ele>709.4</ele>
        <time>2026-08-30T16:35:02Z</time>
      </trkpt>
      <trkpt lat="48.841684" lon="10.145883">
        <ele>709.4</ele>
        <time>2026-08-30T16:35:03Z</time>
      </trkpt>
      <trkpt lat="48.841675" lon="10.145925">
        <ele>709.4</ele>
        <time>2026-08-30T16:35:04Z</time>
      </trkpt>
      <trkpt lat="48.841662" lon="10.145959">
        <ele>709.4</ele>
        <time>2026-08-30T16:35:05Z</time>
      </trkpt>
      <trkpt lat="48.841641" lon="10.145990">
        <ele>709.4</ele>
        <time>2026-08-30T16:35:06Z</time>
      </trkpt>
      <trkpt lat="48.841619" lon="10.146015">
        <ele>709.4</ele>
        <time>2026-08-30T16:35:07Z</time>
      </trkpt>
      <trkpt lat="48.841597" lon="10.146035">
        <ele>709.4</ele>
        <time>2026-08-30T16:35:08Z</time>
      </trkpt>
      <trkpt lat="48.841580" lon="10.146054">
        <ele>709.4</ele>
        <time>2026-08-30T16:35:09Z</time>
      </trkpt>
      <trkpt lat="48.841564" lon="10.146071">
        <ele>709.6</ele>
        <time>2026-08-30T16:35:10Z</time>
      </trkpt>
      <trkpt lat="48.841545" lon="10.146090">
        <ele>709.6</ele>
        <time>2026-08-30T16:35:11Z</time>
      </trkpt>
      <trkpt lat="48.841525" lon="10.146113">
        <ele>709.8</ele>
        <time>2026-08-30T16:35:12Z</time>
      </trkpt>
      <trkpt lat="48.841504" lon="10.146136">
        <ele>709.8</ele>
        <time>2026-08-30T16:35:13Z</time>
      </trkpt>
      <trkpt lat="48.841487" lon="10.146156">
        <ele>710</ele>
        <time>2026-08-30T16:35:14Z</time>
      </trkpt>
      <trkpt lat="48.841470" lon="10.146178">
        <ele>710.2</ele>
        <time>2026-08-30T16:35:15Z</time>
      </trkpt>
      <trkpt lat="48.841453" lon="10.146196">
        <ele>710.2</ele>
        <time>2026-08-30T16:35:16Z</time>
      </trkpt>
      <trkpt lat="48.841437" lon="10.146217">
        <ele>710.4</ele>
        <time>2026-08-30T16:35:17Z</time>
      </trkpt>
      <trkpt lat="48.841419" lon="10.146236">
        <ele>710.4</ele>
        <time>2026-08-30T16:35:18Z</time>
      </trkpt>
      <trkpt lat="48.841400" lon="10.146254">
        <ele>710.6</ele>
        <time>2026-08-30T16:35:19Z</time>
      </trkpt>
      <trkpt lat="48.841383" lon="10.146277">
        <ele>710.8</ele>
        <time>2026-08-30T16:35:20Z</time>
      </trkpt>
      <trkpt lat="48.841368" lon="10.146300">
        <ele>710.8</ele>
        <time>2026-08-30T16:35:21Z</time>
      </trkpt>
      <trkpt lat="48.841353" lon="10.146317">
        <ele>711</ele>
        <time>2026-08-30T16:35:22Z</time>
      </trkpt>
      <trkpt lat="48.841340" lon="10.146336">
        <ele>711.2</ele>
        <time>2026-08-30T16:35:23Z</time>
      </trkpt>
      <trkpt lat="48.841327" lon="10.146356">
        <ele>711.4</ele>
        <time>2026-08-30T16:35:24Z</time>
      </trkpt>
      <trkpt lat="48.841316" lon="10.146377">
        <ele>711.6</ele>
        <time>2026-08-30T16:35:25Z</time>
      </trkpt>
      <trkpt lat="48.841306" lon="10.146397">
        <ele>711.8</ele>
        <time>2026-08-30T16:35:26Z</time>
      </trkpt>
      <trkpt lat="48.841295" lon="10.146423">
        <ele>712</ele>
        <time>2026-08-30T16:35:27Z</time>
      </trkpt>
      <trkpt lat="48.841283" lon="10.146446">
        <ele>712</ele>
        <time>2026-08-30T16:35:28Z</time>
      </trkpt>
      <trkpt lat="48.841269" lon="10.146470">
        <ele>712.4</ele>
        <time>2026-08-30T16:35:29Z</time>
      </trkpt>
      <trkpt lat="48.841260" lon="10.146493">
        <ele>712.4</ele>
        <time>2026-08-30T16:35:30Z</time>
      </trkpt>
      <trkpt lat="48.841251" lon="10.146520">
        <ele>712.6</ele>
        <time>2026-08-30T16:35:31Z</time>
      </trkpt>
      <trkpt lat="48.841241" lon="10.146544">
        <ele>712.8</ele>
        <time>2026-08-30T16:35:32Z</time>
      </trkpt>
      <trkpt lat="48.841230" lon="10.146567">
        <ele>713</ele>
        <time>2026-08-30T16:35:33Z</time>
      </trkpt>
      <trkpt lat="48.841218" lon="10.146583">
        <ele>713.2</ele>
        <time>2026-08-30T16:35:34Z</time>
      </trkpt>
      <trkpt lat="48.841209" lon="10.146607">
        <ele>713.4</ele>
        <time>2026-08-30T16:35:35Z</time>
      </trkpt>
      <trkpt lat="48.841197" lon="10.146634">
        <ele>713.6</ele>
        <time>2026-08-30T16:35:36Z</time>
      </trkpt>
      <trkpt lat="48.841187" lon="10.146659">
        <ele>713.8</ele>
        <time>2026-08-30T16:35:37Z</time>
      </trkpt>
      <trkpt lat="48.841177" lon="10.146683">
        <ele>714</ele>
        <time>2026-08-30T16:35:38Z</time>
      </trkpt>
      <trkpt lat="48.841168" lon="10.146706">
        <ele>714.2</ele>
        <time>2026-08-30T16:35:39Z</time>
      </trkpt>
      <trkpt lat="48.841159" lon="10.146730">
        <ele>714.4</ele>
        <time>2026-08-30T16:35:40Z</time>
      </trkpt>
      <trkpt lat="48.841152" lon="10.146751">
        <ele>714.6</ele>
        <time>2026-08-30T16:35:41Z</time>
      </trkpt>
      <trkpt lat="48.841146" lon="10.146781">
        <ele>714.8</ele>
        <time>2026-08-30T16:35:42Z</time>
      </trkpt>
      <trkpt lat="48.841144" lon="10.146808">
        <ele>715</ele>
        <time>2026-08-30T16:35:43Z</time>
      </trkpt>
      <trkpt lat="48.841139" lon="10.146835">
        <ele>715</ele>
        <time>2026-08-30T16:35:44Z</time>
      </trkpt>
      <trkpt lat="48.841133" lon="10.146865">
        <ele>715.2</ele>
        <time>2026-08-30T16:35:45Z</time>
      </trkpt>
      <trkpt lat="48.841129" lon="10.146890">
        <ele>715.4</ele>
        <time>2026-08-30T16:35:46Z</time>
      </trkpt>
      <trkpt lat="48.841124" lon="10.146915">
        <ele>715.4</ele>
        <time>2026-08-30T16:35:47Z</time>
      </trkpt>
      <trkpt lat="48.841119" lon="10.146943">
        <ele>715.6</ele>
        <time>2026-08-30T16:35:48Z</time>
      </trkpt>
      <trkpt lat="48.841114" lon="10.146973">
        <ele>715.8</ele>
        <time>2026-08-30T16:35:49Z</time>
      </trkpt>
      <trkpt lat="48.841113" lon="10.147006">
        <ele>716</ele>
        <time>2026-08-30T16:35:50Z</time>
      </trkpt>
      <trkpt lat="48.841111" lon="10.147043">
        <ele>716.2</ele>
        <time>2026-08-30T16:35:51Z</time>
      </trkpt>
      <trkpt lat="48.841111" lon="10.147065">
        <ele>716.4</ele>
        <time>2026-08-30T16:35:52Z</time>
      </trkpt>
      <trkpt lat="48.841108" lon="10.147084">
        <ele>716.6</ele>
        <time>2026-08-30T16:35:53Z</time>
      </trkpt>
      <trkpt lat="48.841109" lon="10.147106">
        <ele>716.8</ele>
        <time>2026-08-30T16:35:54Z</time>
      </trkpt>
      <trkpt lat="48.841107" lon="10.147139">
        <ele>717</ele>
        <time>2026-08-30T16:35:55Z</time>
      </trkpt>
      <trkpt lat="48.841108" lon="10.147166">
        <ele>717.2</ele>
        <time>2026-08-30T16:35:56Z</time>
      </trkpt>
      <trkpt lat="48.841107" lon="10.147189">
        <ele>717.2</ele>
        <time>2026-08-30T16:35:57Z</time>
      </trkpt>
      <trkpt lat="48.841107" lon="10.147209">
        <ele>717.4</ele>
        <time>2026-08-30T16:35:58Z</time>
      </trkpt>
      <trkpt lat="48.841110" lon="10.147230">
        <ele>717.6</ele>
        <time>2026-08-30T16:35:59Z</time>
      </trkpt>
      <trkpt lat="48.841115" lon="10.147257">
        <ele>717.8</ele>
        <time>2026-08-30T16:36:00Z</time>
      </trkpt>
      <trkpt lat="48.841119" lon="10.147286">
        <ele>717.8</ele>
        <time>2026-08-30T16:36:01Z</time>
      </trkpt>
      <trkpt lat="48.841121" lon="10.147314">
        <ele>718</ele>
        <time>2026-08-30T16:36:02Z</time>
      </trkpt>
      <trkpt lat="48.841126" lon="10.147345">
        <ele>718</ele>
        <time>2026-08-30T16:36:03Z</time>
      </trkpt>
      <trkpt lat="48.841133" lon="10.147370">
        <ele>718.2</ele>
        <time>2026-08-30T16:36:04Z</time>
      </trkpt>
      <trkpt lat="48.841137" lon="10.147396">
        <ele>718.2</ele>
        <time>2026-08-30T16:36:05Z</time>
      </trkpt>
      <trkpt lat="48.841141" lon="10.147429">
        <ele>718.4</ele>
        <time>2026-08-30T16:36:06Z</time>
      </trkpt>
      <trkpt lat="48.841144" lon="10.147461">
        <ele>718.4</ele>
        <time>2026-08-30T16:36:07Z</time>
      </trkpt>
      <trkpt lat="48.841152" lon="10.147490">
        <ele>718.6</ele>
        <time>2026-08-30T16:36:08Z</time>
      </trkpt>
      <trkpt lat="48.841160" lon="10.147517">
        <ele>718.6</ele>
        <time>2026-08-30T16:36:09Z</time>
      </trkpt>
      <trkpt lat="48.841165" lon="10.147546">
        <ele>718.8</ele>
        <time>2026-08-30T16:36:10Z</time>
      </trkpt>
      <trkpt lat="48.841176" lon="10.147585">
        <ele>718.8</ele>
        <time>2026-08-30T16:36:11Z</time>
      </trkpt>
      <trkpt lat="48.841181" lon="10.147622">
        <ele>719</ele>
        <time>2026-08-30T16:36:12Z</time>
      </trkpt>
      <trkpt lat="48.841191" lon="10.147658">
        <ele>719</ele>
        <time>2026-08-30T16:36:13Z</time>
      </trkpt>
      <trkpt lat="48.841200" lon="10.147697">
        <ele>719.2</ele>
        <time>2026-08-30T16:36:14Z</time>
      </trkpt>
      <trkpt lat="48.841206" lon="10.147737">
        <ele>719.2</ele>
        <time>2026-08-30T16:36:15Z</time>
      </trkpt>
      <trkpt lat="48.841213" lon="10.147771">
        <ele>719.2</ele>
        <time>2026-08-30T16:36:16Z</time>
      </trkpt>
      <trkpt lat="48.841221" lon="10.147805">
        <ele>719.4</ele>
        <time>2026-08-30T16:36:17Z</time>
      </trkpt>
      <trkpt lat="48.841223" lon="10.147837">
        <ele>719.4</ele>
        <time>2026-08-30T16:36:18Z</time>
      </trkpt>
      <trkpt lat="48.841226" lon="10.147873">
        <ele>719.6</ele>
        <time>2026-08-30T16:36:19Z</time>
      </trkpt>
      <trkpt lat="48.841228" lon="10.147908">
        <ele>719.6</ele>
        <time>2026-08-30T16:36:20Z</time>
      </trkpt>
      <trkpt lat="48.841227" lon="10.147938">
        <ele>719.6</ele>
        <time>2026-08-30T16:36:21Z</time>
      </trkpt>
      <trkpt lat="48.841230" lon="10.147970">
        <ele>719.8</ele>
        <time>2026-08-30T16:36:22Z</time>
      </trkpt>
      <trkpt lat="48.841231" lon="10.147993">
        <ele>720</ele>
        <time>2026-08-30T16:36:23Z</time>
      </trkpt>
      <trkpt lat="48.841234" lon="10.148016">
        <ele>720</ele>
        <time>2026-08-30T16:36:24Z</time>
      </trkpt>
      <trkpt lat="48.841234" lon="10.148044">
        <ele>720.2</ele>
        <time>2026-08-30T16:36:25Z</time>
      </trkpt>
      <trkpt lat="48.841232" lon="10.148067">
        <ele>720.2</ele>
        <time>2026-08-30T16:36:26Z</time>
      </trkpt>
      <trkpt lat="48.841231" lon="10.148103">
        <ele>720.4</ele>
        <time>2026-08-30T16:36:27Z</time>
      </trkpt>
      <trkpt lat="48.841231" lon="10.148147">
        <ele>720.6</ele>
        <time>2026-08-30T16:36:28Z</time>
      </trkpt>
      <trkpt lat="48.841232" lon="10.148175">
        <ele>720.8</ele>
        <time>2026-08-30T16:36:29Z</time>
      </trkpt>
      <trkpt lat="48.841233" lon="10.148201">
        <ele>720.8</ele>
        <time>2026-08-30T16:36:30Z</time>
      </trkpt>
      <trkpt lat="48.841239" lon="10.148224">
        <ele>721</ele>
        <time>2026-08-30T16:36:31Z</time>
      </trkpt>
      <trkpt lat="48.841237" lon="10.148251">
        <ele>721</ele>
        <time>2026-08-30T16:36:32Z</time>
      </trkpt>
      <trkpt lat="48.841238" lon="10.148287">
        <ele>721.2</ele>
        <time>2026-08-30T16:36:33Z</time>
      </trkpt>
      <trkpt lat="48.841238" lon="10.148325">
        <ele>721.2</ele>
        <time>2026-08-30T16:36:34Z</time>
      </trkpt>
      <trkpt lat="48.841238" lon="10.148357">
        <ele>721.4</ele>
        <time>2026-08-30T16:36:35Z</time>
      </trkpt>
      <trkpt lat="48.841237" lon="10.148395">
        <ele>721.4</ele>
        <time>2026-08-30T16:36:36Z</time>
      </trkpt>
      <trkpt lat="48.841237" lon="10.148433">
        <ele>721.4</ele>
        <time>2026-08-30T16:36:37Z</time>
      </trkpt>
      <trkpt lat="48.841240" lon="10.148470">
        <ele>721.4</ele>
        <time>2026-08-30T16:36:38Z</time>
      </trkpt>
      <trkpt lat="48.841242" lon="10.148506">
        <ele>721.4</ele>
        <time>2026-08-30T16:36:39Z</time>
      </trkpt>
      <trkpt lat="48.841243" lon="10.148529">
        <ele>721.4</ele>
        <time>2026-08-30T16:36:40Z</time>
      </trkpt>
      <trkpt lat="48.841257" lon="10.148547">
        <ele>721.4</ele>
        <time>2026-08-30T16:36:41Z</time>
      </trkpt>
      <trkpt lat="48.841273" lon="10.148566">
        <ele>721.4</ele>
        <time>2026-08-30T16:36:42Z</time>
      </trkpt>
      <trkpt lat="48.841289" lon="10.148586">
        <ele>721.2</ele>
        <time>2026-08-30T16:36:43Z</time>
      </trkpt>
      <trkpt lat="48.841295" lon="10.148621">
        <ele>721.2</ele>
        <time>2026-08-30T16:36:44Z</time>
      </trkpt>
      <trkpt lat="48.841298" lon="10.148662">
        <ele>721.2</ele>
        <time>2026-08-30T16:36:45Z</time>
      </trkpt>
      <trkpt lat="48.841300" lon="10.148710">
        <ele>721</ele>
        <time>2026-08-30T16:36:46Z</time>
      </trkpt>
      <trkpt lat="48.841296" lon="10.148736">
        <ele>721</ele>
        <time>2026-08-30T16:36:47Z</time>
      </trkpt>
      <trkpt lat="48.841294" lon="10.148775">
        <ele>721</ele>
        <time>2026-08-30T16:36:48Z</time>
      </trkpt>
      <trkpt lat="48.841295" lon="10.148805">
        <ele>720.8</ele>
        <time>2026-08-30T16:36:49Z</time>
      </trkpt>
      <trkpt lat="48.841308" lon="10.148836">
        <ele>720.8</ele>
        <time>2026-08-30T16:36:50Z</time>
      </trkpt>
      <trkpt lat="48.841323" lon="10.148871">
        <ele>720.8</ele>
        <time>2026-08-30T16:36:51Z</time>
      </trkpt>
      <trkpt lat="48.841332" lon="10.148911">
        <ele>720.8</ele>
        <time>2026-08-30T16:36:52Z</time>
      </trkpt>
      <trkpt lat="48.841341" lon="10.148952">
        <ele>720.8</ele>
        <time>2026-08-30T16:36:53Z</time>
      </trkpt>
      <trkpt lat="48.841340" lon="10.148998">
        <ele>720.8</ele>
        <time>2026-08-30T16:36:54Z</time>
      </trkpt>
      <trkpt lat="48.841341" lon="10.149038">
        <ele>720.8</ele>
        <time>2026-08-30T16:36:55Z</time>
      </trkpt>
      <trkpt lat="48.841337" lon="10.149088">
        <ele>720.6</ele>
        <time>2026-08-30T16:36:56Z</time>
      </trkpt>
      <trkpt lat="48.841330" lon="10.149124">
        <ele>720.6</ele>
        <time>2026-08-30T16:36:57Z</time>
      </trkpt>
      <trkpt lat="48.841332" lon="10.149166">
        <ele>720.4</ele>
        <time>2026-08-30T16:36:58Z</time>
      </trkpt>
      <trkpt lat="48.841339" lon="10.149213">
        <ele>720.4</ele>
        <time>2026-08-30T16:36:59Z</time>
      </trkpt>
      <trkpt lat="48.841346" lon="10.149268">
        <ele>720.2</ele>
        <time>2026-08-30T16:37:00Z</time>
      </trkpt>
      <trkpt lat="48.841337" lon="10.149316">
        <ele>720</ele>
        <time>2026-08-30T16:37:01Z</time>
      </trkpt>
      <trkpt lat="48.841331" lon="10.149362">
        <ele>720</ele>
        <time>2026-08-30T16:37:02Z</time>
      </trkpt>
      <trkpt lat="48.841317" lon="10.149411">
        <ele>719.8</ele>
        <time>2026-08-30T16:37:03Z</time>
      </trkpt>
      <trkpt lat="48.841298" lon="10.149437">
        <ele>719.6</ele>
        <time>2026-08-30T16:37:04Z</time>
      </trkpt>
      <trkpt lat="48.841284" lon="10.149476">
        <ele>719.4</ele>
        <time>2026-08-30T16:37:05Z</time>
      </trkpt>
      <trkpt lat="48.841281" lon="10.149507">
        <ele>719.4</ele>
        <time>2026-08-30T16:37:06Z</time>
      </trkpt>
      <trkpt lat="48.841279" lon="10.149546">
        <ele>719.4</ele>
        <time>2026-08-30T16:37:07Z</time>
      </trkpt>
      <trkpt lat="48.841274" lon="10.149592">
        <ele>719.2</ele>
        <time>2026-08-30T16:37:08Z</time>
      </trkpt>
      <trkpt lat="48.841270" lon="10.149635">
        <ele>719.2</ele>
        <time>2026-08-30T16:37:09Z</time>
      </trkpt>
      <trkpt lat="48.841278" lon="10.149681">
        <ele>719</ele>
        <time>2026-08-30T16:37:10Z</time>
      </trkpt>
      <trkpt lat="48.841289" lon="10.149724">
        <ele>719</ele>
        <time>2026-08-30T16:37:11Z</time>
      </trkpt>
      <trkpt lat="48.841290" lon="10.149777">
        <ele>718.8</ele>
        <time>2026-08-30T16:37:12Z</time>
      </trkpt>
      <trkpt lat="48.841290" lon="10.149837">
        <ele>718.6</ele>
        <time>2026-08-30T16:37:13Z</time>
      </trkpt>
      <trkpt lat="48.841284" lon="10.149896">
        <ele>718.4</ele>
        <time>2026-08-30T16:37:14Z</time>
      </trkpt>
      <trkpt lat="48.841281" lon="10.149955">
        <ele>718.2</ele>
        <time>2026-08-30T16:37:15Z</time>
      </trkpt>
      <trkpt lat="48.841272" lon="10.150006">
        <ele>718</ele>
        <time>2026-08-30T16:37:16Z</time>
      </trkpt>
      <trkpt lat="48.841260" lon="10.150058">
        <ele>717.8</ele>
        <time>2026-08-30T16:37:17Z</time>
      </trkpt>
      <trkpt lat="48.841253" lon="10.150103">
        <ele>717.6</ele>
        <time>2026-08-30T16:37:18Z</time>
      </trkpt>
      <trkpt lat="48.841242" lon="10.150149">
        <ele>717.2</ele>
        <time>2026-08-30T16:37:19Z</time>
      </trkpt>
      <trkpt lat="48.841234" lon="10.150189">
        <ele>717</ele>
        <time>2026-08-30T16:37:20Z</time>
      </trkpt>
      <trkpt lat="48.841239" lon="10.150234">
        <ele>716.8</ele>
        <time>2026-08-30T16:37:21Z</time>
      </trkpt>
      <trkpt lat="48.841257" lon="10.150287">
        <ele>716.6</ele>
        <time>2026-08-30T16:37:22Z</time>
      </trkpt>
      <trkpt lat="48.841258" lon="10.150338">
        <ele>716.4</ele>
        <time>2026-08-30T16:37:23Z</time>
      </trkpt>
      <trkpt lat="48.841246" lon="10.150391">
        <ele>716.2</ele>
        <time>2026-08-30T16:37:24Z</time>
      </trkpt>
      <trkpt lat="48.841228" lon="10.150447">
        <ele>716.2</ele>
        <time>2026-08-30T16:37:25Z</time>
      </trkpt>
      <trkpt lat="48.841218" lon="10.150498">
        <ele>715.8</ele>
        <time>2026-08-30T16:37:26Z</time>
      </trkpt>
      <trkpt lat="48.841203" lon="10.150546">
        <ele>715.6</ele>
        <time>2026-08-30T16:37:27Z</time>
      </trkpt>
      <trkpt lat="48.841184" lon="10.150580">
        <ele>715.4</ele>
        <time>2026-08-30T16:37:28Z</time>
      </trkpt>
      <trkpt lat="48.841164" lon="10.150611">
        <ele>715.4</ele>
        <time>2026-08-30T16:37:29Z</time>
      </trkpt>
      <trkpt lat="48.841158" lon="10.150653">
        <ele>715.2</ele>
        <time>2026-08-30T16:37:30Z</time>
      </trkpt>
      <trkpt lat="48.841159" lon="10.150695">
        <ele>715.2</ele>
        <time>2026-08-30T16:37:31Z</time>
      </trkpt>
      <trkpt lat="48.841155" lon="10.150734">
        <ele>715</ele>
        <time>2026-08-30T16:37:32Z</time>
      </trkpt>
      <trkpt lat="48.841161" lon="10.150774">
        <ele>714.8</ele>
        <time>2026-08-30T16:37:33Z</time>
      </trkpt>
      <trkpt lat="48.841171" lon="10.150818">
        <ele>714.8</ele>
        <time>2026-08-30T16:37:34Z</time>
      </trkpt>
      <trkpt lat="48.841190" lon="10.150870">
        <ele>714.6</ele>
        <time>2026-08-30T16:37:35Z</time>
      </trkpt>
      <trkpt lat="48.841198" lon="10.150931">
        <ele>714.4</ele>
        <time>2026-08-30T16:37:36Z</time>
      </trkpt>
      <trkpt lat="48.841202" lon="10.151000">
        <ele>714.2</ele>
        <time>2026-08-30T16:37:37Z</time>
      </trkpt>
      <trkpt lat="48.841200" lon="10.151077">
        <ele>714</ele>
        <time>2026-08-30T16:37:38Z</time>
      </trkpt>
      <trkpt lat="48.841199" lon="10.151158">
        <ele>713.8</ele>
        <time>2026-08-30T16:37:39Z</time>
      </trkpt>
      <trkpt lat="48.841193" lon="10.151223">
        <ele>713.4</ele>
        <time>2026-08-30T16:37:40Z</time>
      </trkpt>
      <trkpt lat="48.841175" lon="10.151274">
        <ele>713.2</ele>
        <time>2026-08-30T16:37:41Z</time>
      </trkpt>
      <trkpt lat="48.841158" lon="10.151324">
        <ele>713</ele>
        <time>2026-08-30T16:37:42Z</time>
      </trkpt>
      <trkpt lat="48.841173" lon="10.151380">
        <ele>713</ele>
        <time>2026-08-30T16:37:43Z</time>
      </trkpt>
      <trkpt lat="48.841196" lon="10.151419">
        <ele>712.8</ele>
        <time>2026-08-30T16:37:44Z</time>
      </trkpt>
      <trkpt lat="48.841213" lon="10.151475">
        <ele>712.8</ele>
        <time>2026-08-30T16:37:45Z</time>
      </trkpt>
      <trkpt lat="48.841219" lon="10.151541">
        <ele>712.6</ele>
        <time>2026-08-30T16:37:46Z</time>
      </trkpt>
      <trkpt lat="48.841209" lon="10.151604">
        <ele>712.6</ele>
        <time>2026-08-30T16:37:47Z</time>
      </trkpt>
      <trkpt lat="48.841192" lon="10.151667">
        <ele>712.4</ele>
        <time>2026-08-30T16:37:48Z</time>
      </trkpt>
      <trkpt lat="48.841171" lon="10.151720">
        <ele>712.2</ele>
        <time>2026-08-30T16:37:49Z</time>
      </trkpt>
      <trkpt lat="48.841149" lon="10.151776">
        <ele>712</ele>
        <time>2026-08-30T16:37:50Z</time>
      </trkpt>
      <trkpt lat="48.841133" lon="10.151838">
        <ele>711.8</ele>
        <time>2026-08-30T16:37:51Z</time>
      </trkpt>
      <trkpt lat="48.841123" lon="10.151888">
        <ele>711.6</ele>
        <time>2026-08-30T16:37:52Z</time>
      </trkpt>
      <trkpt lat="48.841120" lon="10.151939">
        <ele>711.6</ele>
        <time>2026-08-30T16:37:53Z</time>
      </trkpt>
      <trkpt lat="48.841120" lon="10.151992">
        <ele>711.4</ele>
        <time>2026-08-30T16:37:54Z</time>
      </trkpt>
      <trkpt lat="48.841127" lon="10.152045">
        <ele>711.4</ele>
        <time>2026-08-30T16:37:55Z</time>
      </trkpt>
      <trkpt lat="48.841143" lon="10.152096">
        <ele>711.2</ele>
        <time>2026-08-30T16:37:56Z</time>
      </trkpt>
      <trkpt lat="48.841164" lon="10.152152">
        <ele>711.2</ele>
        <time>2026-08-30T16:37:57Z</time>
      </trkpt>
      <trkpt lat="48.841167" lon="10.152215">
        <ele>711</ele>
        <time>2026-08-30T16:37:58Z</time>
      </trkpt>
      <trkpt lat="48.841158" lon="10.152268">
        <ele>710.8</ele>
        <time>2026-08-30T16:37:59Z</time>
      </trkpt>
      <trkpt lat="48.841157" lon="10.152325">
        <ele>710.6</ele>
        <time>2026-08-30T16:38:00Z</time>
      </trkpt>
      <trkpt lat="48.841169" lon="10.152385">
        <ele>710.2</ele>
        <time>2026-08-30T16:38:01Z</time>
      </trkpt>
      <trkpt lat="48.841191" lon="10.152441">
        <ele>710</ele>
        <time>2026-08-30T16:38:02Z</time>
      </trkpt>
      <trkpt lat="48.841209" lon="10.152508">
        <ele>709.6</ele>
        <time>2026-08-30T16:38:03Z</time>
      </trkpt>
      <trkpt lat="48.841216" lon="10.152572">
        <ele>709.4</ele>
        <time>2026-08-30T16:38:04Z</time>
      </trkpt>
      <trkpt lat="48.841203" lon="10.152624">
        <ele>709.2</ele>
        <time>2026-08-30T16:38:05Z</time>
      </trkpt>
      <trkpt lat="48.841183" lon="10.152665">
        <ele>709</ele>
        <time>2026-08-30T16:38:06Z</time>
      </trkpt>
      <trkpt lat="48.841170" lon="10.152711">
        <ele>708.8</ele>
        <time>2026-08-30T16:38:07Z</time>
      </trkpt>
      <trkpt lat="48.841173" lon="10.152763">
        <ele>708.4</ele>
        <time>2026-08-30T16:38:08Z</time>
      </trkpt>
      <trkpt lat="48.841182" lon="10.152805">
        <ele>708.4</ele>
        <time>2026-08-30T16:38:09Z</time>
      </trkpt>
      <trkpt lat="48.841197" lon="10.152841">
        <ele>708.2</ele>
        <time>2026-08-30T16:38:10Z</time>
      </trkpt>
      <trkpt lat="48.841216" lon="10.152877">
        <ele>708</ele>
        <time>2026-08-30T16:38:11Z</time>
      </trkpt>
      <trkpt lat="48.841228" lon="10.152923">
        <ele>708</ele>
        <time>2026-08-30T16:38:12Z</time>
      </trkpt>
      <trkpt lat="48.841224" lon="10.152964">
        <ele>707.8</ele>
        <time>2026-08-30T16:38:13Z</time>
      </trkpt>
      <trkpt lat="48.841219" lon="10.153010">
        <ele>707.6</ele>
        <time>2026-08-30T16:38:14Z</time>
      </trkpt>
      <trkpt lat="48.841215" lon="10.153056">
        <ele>707.4</ele>
        <time>2026-08-30T16:38:15Z</time>
      </trkpt>
      <trkpt lat="48.841203" lon="10.153095">
        <ele>707.4</ele>
        <time>2026-08-30T16:38:16Z</time>
      </trkpt>
      <trkpt lat="48.841183" lon="10.153131">
        <ele>707.2</ele>
        <time>2026-08-30T16:38:17Z</time>
      </trkpt>
      <trkpt lat="48.841164" lon="10.153175">
        <ele>707</ele>
        <time>2026-08-30T16:38:18Z</time>
      </trkpt>
      <trkpt lat="48.841148" lon="10.153218">
        <ele>707</ele>
        <time>2026-08-30T16:38:19Z</time>
      </trkpt>
      <trkpt lat="48.841136" lon="10.153273">
        <ele>706.8</ele>
        <time>2026-08-30T16:38:20Z</time>
      </trkpt>
      <trkpt lat="48.841122" lon="10.153324">
        <ele>706.6</ele>
        <time>2026-08-30T16:38:21Z</time>
      </trkpt>
      <trkpt lat="48.841108" lon="10.153359">
        <ele>706.6</ele>
        <time>2026-08-30T16:38:22Z</time>
      </trkpt>
      <trkpt lat="48.841099" lon="10.153399">
        <ele>706.4</ele>
        <time>2026-08-30T16:38:23Z</time>
      </trkpt>
      <trkpt lat="48.841092" lon="10.153435">
        <ele>706.2</ele>
        <time>2026-08-30T16:38:24Z</time>
      </trkpt>
      <trkpt lat="48.841090" lon="10.153473">
        <ele>706.2</ele>
        <time>2026-08-30T16:38:25Z</time>
      </trkpt>
      <trkpt lat="48.841087" lon="10.153514">
        <ele>706.2</ele>
        <time>2026-08-30T16:38:26Z</time>
      </trkpt>
      <trkpt lat="48.841083" lon="10.153554">
        <ele>706</ele>
        <time>2026-08-30T16:38:27Z</time>
      </trkpt>
      <trkpt lat="48.841087" lon="10.153595">
        <ele>706</ele>
        <time>2026-08-30T16:38:28Z</time>
      </trkpt>
      <trkpt lat="48.841092" lon="10.153637">
        <ele>706</ele>
        <time>2026-08-30T16:38:29Z</time>
      </trkpt>
      <trkpt lat="48.841096" lon="10.153686">
        <ele>705.8</ele>
        <time>2026-08-30T16:38:30Z</time>
      </trkpt>
      <trkpt lat="48.841092" lon="10.153733">
        <ele>705.8</ele>
        <time>2026-08-30T16:38:31Z</time>
      </trkpt>
      <trkpt lat="48.841084" lon="10.153770">
        <ele>705.8</ele>
        <time>2026-08-30T16:38:32Z</time>
      </trkpt>
      <trkpt lat="48.841071" lon="10.153808">
        <ele>705.6</ele>
        <time>2026-08-30T16:38:33Z</time>
      </trkpt>
      <trkpt lat="48.841052" lon="10.153836">
        <ele>705.6</ele>
        <time>2026-08-30T16:38:34Z</time>
      </trkpt>
      <trkpt lat="48.841029" lon="10.153854">
        <ele>705.6</ele>
        <time>2026-08-30T16:38:35Z</time>
      </trkpt>
      <trkpt lat="48.841003" lon="10.153874">
        <ele>705.6</ele>
        <time>2026-08-30T16:38:36Z</time>
      </trkpt>
      <trkpt lat="48.840977" lon="10.153898">
        <ele>705.6</ele>
        <time>2026-08-30T16:38:37Z</time>
      </trkpt>
      <trkpt lat="48.840951" lon="10.153922">
        <ele>705.6</ele>
        <time>2026-08-30T16:38:38Z</time>
      </trkpt>
      <trkpt lat="48.840925" lon="10.153948">
        <ele>705.6</ele>
        <time>2026-08-30T16:38:39Z</time>
      </trkpt>
      <trkpt lat="48.840904" lon="10.153968">
        <ele>705.6</ele>
        <time>2026-08-30T16:38:40Z</time>
      </trkpt>
      <trkpt lat="48.840888" lon="10.153990">
        <ele>705.6</ele>
        <time>2026-08-30T16:38:41Z</time>
      </trkpt>
      <trkpt lat="48.840874" lon="10.154015">
        <ele>705.6</ele>
        <time>2026-08-30T16:38:42Z</time>
      </trkpt>
      <trkpt lat="48.840860" lon="10.154048">
        <ele>705.6</ele>
        <time>2026-08-30T16:38:43Z</time>
      </trkpt>
      <trkpt lat="48.840842" lon="10.154080">
        <ele>705.6</ele>
        <time>2026-08-30T16:38:44Z</time>
      </trkpt>
      <trkpt lat="48.840824" lon="10.154122">
        <ele>705.6</ele>
        <time>2026-08-30T16:38:45Z</time>
      </trkpt>
      <trkpt lat="48.840802" lon="10.154157">
        <ele>705.6</ele>
        <time>2026-08-30T16:38:46Z</time>
      </trkpt>
      <trkpt lat="48.840783" lon="10.154191">
        <ele>705.6</ele>
        <time>2026-08-30T16:38:47Z</time>
      </trkpt>
      <trkpt lat="48.840763" lon="10.154223">
        <ele>705.6</ele>
        <time>2026-08-30T16:38:48Z</time>
      </trkpt>
      <trkpt lat="48.840744" lon="10.154257">
        <ele>705.8</ele>
        <time>2026-08-30T16:38:49Z</time>
      </trkpt>
      <trkpt lat="48.840723" lon="10.154287">
        <ele>705.8</ele>
        <time>2026-08-30T16:38:50Z</time>
      </trkpt>
      <trkpt lat="48.840704" lon="10.154318">
        <ele>705.8</ele>
        <time>2026-08-30T16:38:51Z</time>
      </trkpt>
      <trkpt lat="48.840682" lon="10.154344">
        <ele>705.8</ele>
        <time>2026-08-30T16:38:52Z</time>
      </trkpt>
      <trkpt lat="48.840660" lon="10.154377">
        <ele>706</ele>
        <time>2026-08-30T16:38:53Z</time>
      </trkpt>
      <trkpt lat="48.840638" lon="10.154409">
        <ele>706</ele>
        <time>2026-08-30T16:38:54Z</time>
      </trkpt>
      <trkpt lat="48.840613" lon="10.154437">
        <ele>706</ele>
        <time>2026-08-30T16:38:55Z</time>
      </trkpt>
      <trkpt lat="48.840593" lon="10.154463">
        <ele>706.2</ele>
        <time>2026-08-30T16:38:56Z</time>
      </trkpt>
      <trkpt lat="48.840571" lon="10.154492">
        <ele>706.2</ele>
        <time>2026-08-30T16:38:57Z</time>
      </trkpt>
      <trkpt lat="48.840545" lon="10.154528">
        <ele>706.2</ele>
        <time>2026-08-30T16:38:58Z</time>
      </trkpt>
      <trkpt lat="48.840522" lon="10.154550">
        <ele>706.2</ele>
        <time>2026-08-30T16:38:59Z</time>
      </trkpt>
      <trkpt lat="48.840504" lon="10.154580">
        <ele>706.2</ele>
        <time>2026-08-30T16:39:00Z</time>
      </trkpt>
      <trkpt lat="48.840487" lon="10.154611">
        <ele>706.4</ele>
        <time>2026-08-30T16:39:01Z</time>
      </trkpt>
      <trkpt lat="48.840473" lon="10.154644">
        <ele>706.4</ele>
        <time>2026-08-30T16:39:02Z</time>
      </trkpt>
      <trkpt lat="48.840453" lon="10.154670">
        <ele>706.4</ele>
        <time>2026-08-30T16:39:03Z</time>
      </trkpt>
      <trkpt lat="48.840434" lon="10.154693">
        <ele>706.6</ele>
        <time>2026-08-30T16:39:04Z</time>
      </trkpt>
      <trkpt lat="48.840413" lon="10.154718">
        <ele>706.6</ele>
        <time>2026-08-30T16:39:05Z</time>
      </trkpt>
      <trkpt lat="48.840392" lon="10.154742">
        <ele>706.8</ele>
        <time>2026-08-30T16:39:06Z</time>
      </trkpt>
      <trkpt lat="48.840372" lon="10.154769">
        <ele>706.8</ele>
        <time>2026-08-30T16:39:07Z</time>
      </trkpt>
      <trkpt lat="48.840353" lon="10.154800">
        <ele>707</ele>
        <time>2026-08-30T16:39:08Z</time>
      </trkpt>
      <trkpt lat="48.840332" lon="10.154828">
        <ele>707</ele>
        <time>2026-08-30T16:39:09Z</time>
      </trkpt>
      <trkpt lat="48.840309" lon="10.154857">
        <ele>707</ele>
        <time>2026-08-30T16:39:10Z</time>
      </trkpt>
      <trkpt lat="48.840286" lon="10.154881">
        <ele>707.2</ele>
        <time>2026-08-30T16:39:11Z</time>
      </trkpt>
      <trkpt lat="48.840263" lon="10.154910">
        <ele>707.2</ele>
        <time>2026-08-30T16:39:12Z</time>
      </trkpt>
      <trkpt lat="48.840243" lon="10.154950">
        <ele>707.2</ele>
        <time>2026-08-30T16:39:13Z</time>
      </trkpt>
      <trkpt lat="48.840224" lon="10.154991">
        <ele>707.2</ele>
        <time>2026-08-30T16:39:14Z</time>
      </trkpt>
      <trkpt lat="48.840205" lon="10.155032">
        <ele>707.2</ele>
        <time>2026-08-30T16:39:15Z</time>
      </trkpt>
      <trkpt lat="48.840184" lon="10.155065">
        <ele>707.2</ele>
        <time>2026-08-30T16:39:16Z</time>
      </trkpt>
      <trkpt lat="48.840156" lon="10.155091">
        <ele>707</ele>
        <time>2026-08-30T16:39:17Z</time>
      </trkpt>
      <trkpt lat="48.840122" lon="10.155119">
        <ele>707</ele>
        <time>2026-08-30T16:39:18Z</time>
      </trkpt>
      <trkpt lat="48.840092" lon="10.155149">
        <ele>706.8</ele>
        <time>2026-08-30T16:39:19Z</time>
      </trkpt>
      <trkpt lat="48.840062" lon="10.155183">
        <ele>706.8</ele>
        <time>2026-08-30T16:39:20Z</time>
      </trkpt>
      <trkpt lat="48.840032" lon="10.155224">
        <ele>706.6</ele>
        <time>2026-08-30T16:39:21Z</time>
      </trkpt>
      <trkpt lat="48.840002" lon="10.155268">
        <ele>706.6</ele>
        <time>2026-08-30T16:39:22Z</time>
      </trkpt>
      <trkpt lat="48.839972" lon="10.155308">
        <ele>706.4</ele>
        <time>2026-08-30T16:39:23Z</time>
      </trkpt>
      <trkpt lat="48.839943" lon="10.155345">
        <ele>706.2</ele>
        <time>2026-08-30T16:39:24Z</time>
      </trkpt>
      <trkpt lat="48.839918" lon="10.155384">
        <ele>706.2</ele>
        <time>2026-08-30T16:39:25Z</time>
      </trkpt>
      <trkpt lat="48.839894" lon="10.155412">
        <ele>706</ele>
        <time>2026-08-30T16:39:26Z</time>
      </trkpt>
      <trkpt lat="48.839870" lon="10.155445">
        <ele>706</ele>
        <time>2026-08-30T16:39:27Z</time>
      </trkpt>
      <trkpt lat="48.839846" lon="10.155473">
        <ele>705.8</ele>
        <time>2026-08-30T16:39:28Z</time>
      </trkpt>
      <trkpt lat="48.839816" lon="10.155507">
        <ele>705.8</ele>
        <time>2026-08-30T16:39:29Z</time>
      </trkpt>
      <trkpt lat="48.839787" lon="10.155542">
        <ele>705.8</ele>
        <time>2026-08-30T16:39:30Z</time>
      </trkpt>
      <trkpt lat="48.839756" lon="10.155574">
        <ele>705.8</ele>
        <time>2026-08-30T16:39:31Z</time>
      </trkpt>
      <trkpt lat="48.839724" lon="10.155605">
        <ele>705.8</ele>
        <time>2026-08-30T16:39:32Z</time>
      </trkpt>
      <trkpt lat="48.839694" lon="10.155634">
        <ele>705.8</ele>
        <time>2026-08-30T16:39:33Z</time>
      </trkpt>
      <trkpt lat="48.839668" lon="10.155673">
        <ele>705.8</ele>
        <time>2026-08-30T16:39:34Z</time>
      </trkpt>
      <trkpt lat="48.839643" lon="10.155709">
        <ele>705.6</ele>
        <time>2026-08-30T16:39:35Z</time>
      </trkpt>
      <trkpt lat="48.839625" lon="10.155753">
        <ele>705.6</ele>
        <time>2026-08-30T16:39:36Z</time>
      </trkpt>
      <trkpt lat="48.839613" lon="10.155806">
        <ele>705.6</ele>
        <time>2026-08-30T16:39:37Z</time>
      </trkpt>
      <trkpt lat="48.839602" lon="10.155845">
        <ele>705.6</ele>
        <time>2026-08-30T16:39:38Z</time>
      </trkpt>
      <trkpt lat="48.839591" lon="10.155865">
        <ele>705.6</ele>
        <time>2026-08-30T16:39:39Z</time>
      </trkpt>
      <trkpt lat="48.839578" lon="10.155898">
        <ele>705.6</ele>
        <time>2026-08-30T16:39:40Z</time>
      </trkpt>
      <trkpt lat="48.839562" lon="10.155925">
        <ele>705.6</ele>
        <time>2026-08-30T16:39:41Z</time>
      </trkpt>
      <trkpt lat="48.839538" lon="10.155940">
        <ele>705.8</ele>
        <time>2026-08-30T16:39:42Z</time>
      </trkpt>
      <trkpt lat="48.839525" lon="10.155957">
        <ele>705.8</ele>
        <time>2026-08-30T16:39:43Z</time>
      </trkpt>
      <trkpt lat="48.839507" lon="10.155967">
        <ele>705.8</ele>
        <time>2026-08-30T16:39:44Z</time>
      </trkpt>
      <trkpt lat="48.839495" lon="10.155987">
        <ele>705.8</ele>
        <time>2026-08-30T16:39:45Z</time>
      </trkpt>
      <trkpt lat="48.839484" lon="10.156016">
        <ele>705.8</ele>
        <time>2026-08-30T16:39:46Z</time>
      </trkpt>
      <trkpt lat="48.839477" lon="10.156035">
        <ele>705.6</ele>
        <time>2026-08-30T16:39:47Z</time>
      </trkpt>
      <trkpt lat="48.839466" lon="10.156063">
        <ele>705.6</ele>
        <time>2026-08-30T16:39:48Z</time>
      </trkpt>
      <trkpt lat="48.839459" lon="10.156091">
        <ele>705.6</ele>
        <time>2026-08-30T16:39:49Z</time>
      </trkpt>
      <trkpt lat="48.839455" lon="10.156129">
        <ele>705.6</ele>
        <time>2026-08-30T16:39:50Z</time>
      </trkpt>
      <trkpt lat="48.839443" lon="10.156171">
        <ele>705.6</ele>
        <time>2026-08-30T16:39:51Z</time>
      </trkpt>
      <trkpt lat="48.839422" lon="10.156200">
        <ele>705.4</ele>
        <time>2026-08-30T16:39:52Z</time>
      </trkpt>
      <trkpt lat="48.839398" lon="10.156217">
        <ele>705.4</ele>
        <time>2026-08-30T16:39:53Z</time>
      </trkpt>
      <trkpt lat="48.839376" lon="10.156231">
        <ele>705.4</ele>
        <time>2026-08-30T16:39:54Z</time>
      </trkpt>
      <trkpt lat="48.839352" lon="10.156235">
        <ele>705.2</ele>
        <time>2026-08-30T16:39:55Z</time>
      </trkpt>
      <trkpt lat="48.839333" lon="10.156249">
        <ele>705.2</ele>
        <time>2026-08-30T16:39:56Z</time>
      </trkpt>
      <trkpt lat="48.839313" lon="10.156259">
        <ele>705.2</ele>
        <time>2026-08-30T16:39:57Z</time>
      </trkpt>
      <trkpt lat="48.839289" lon="10.156272">
        <ele>705.2</ele>
        <time>2026-08-30T16:39:58Z</time>
      </trkpt>
      <trkpt lat="48.839259" lon="10.156269">
        <ele>705</ele>
        <time>2026-08-30T16:39:59Z</time>
      </trkpt>
      <trkpt lat="48.839241" lon="10.156258">
        <ele>705</ele>
        <time>2026-08-30T16:40:00Z</time>
      </trkpt>
      <trkpt lat="48.839235" lon="10.156239">
        <ele>705</ele>
        <time>2026-08-30T16:40:01Z</time>
      </trkpt>
      <trkpt lat="48.839217" lon="10.156220">
        <ele>704.8</ele>
        <time>2026-08-30T16:40:02Z</time>
      </trkpt>
      <trkpt lat="48.839201" lon="10.156198">
        <ele>704.8</ele>
        <time>2026-08-30T16:40:03Z</time>
      </trkpt>
      <trkpt lat="48.839197" lon="10.156172">
        <ele>704.8</ele>
        <time>2026-08-30T16:40:04Z</time>
      </trkpt>
      <trkpt lat="48.839186" lon="10.156148">
        <ele>704.6</ele>
        <time>2026-08-30T16:40:05Z</time>
      </trkpt>
      <trkpt lat="48.839165" lon="10.156131">
        <ele>704.6</ele>
        <time>2026-08-30T16:40:06Z</time>
      </trkpt>
      <trkpt lat="48.839139" lon="10.156118">
        <ele>704.6</ele>
        <time>2026-08-30T16:40:07Z</time>
      </trkpt>
      <trkpt lat="48.839107" lon="10.156121">
        <ele>704.4</ele>
        <time>2026-08-30T16:40:08Z</time>
      </trkpt>
      <trkpt lat="48.839100" lon="10.156150">
        <ele>704.4</ele>
        <time>2026-08-30T16:40:09Z</time>
      </trkpt>
      <trkpt lat="48.839090" lon="10.156178">
        <ele>704.4</ele>
        <time>2026-08-30T16:40:10Z</time>
      </trkpt>
      <trkpt lat="48.839074" lon="10.156198">
        <ele>704.4</ele>
        <time>2026-08-30T16:40:11Z</time>
      </trkpt>
      <trkpt lat="48.839053" lon="10.156213">
        <ele>704.4</ele>
        <time>2026-08-30T16:40:12Z</time>
      </trkpt>
      <trkpt lat="48.839032" lon="10.156215">
        <ele>704.4</ele>
        <time>2026-08-30T16:40:13Z</time>
      </trkpt>
      <trkpt lat="48.839010" lon="10.156229">
        <ele>704.4</ele>
        <time>2026-08-30T16:40:14Z</time>
      </trkpt>
      <trkpt lat="48.838988" lon="10.156238">
        <ele>704.2</ele>
        <time>2026-08-30T16:40:15Z</time>
      </trkpt>
      <trkpt lat="48.838967" lon="10.156236">
        <ele>704.2</ele>
        <time>2026-08-30T16:40:16Z</time>
      </trkpt>
      <trkpt lat="48.838945" lon="10.156231">
        <ele>704.2</ele>
        <time>2026-08-30T16:40:17Z</time>
      </trkpt>
      <trkpt lat="48.838917" lon="10.156237">
        <ele>704.2</ele>
        <time>2026-08-30T16:40:18Z</time>
      </trkpt>
      <trkpt lat="48.838902" lon="10.156246">
        <ele>704</ele>
        <time>2026-08-30T16:40:19Z</time>
      </trkpt>
      <trkpt lat="48.838883" lon="10.156271">
        <ele>704</ele>
        <time>2026-08-30T16:40:20Z</time>
      </trkpt>
      <trkpt lat="48.838859" lon="10.156284">
        <ele>704</ele>
        <time>2026-08-30T16:40:21Z</time>
      </trkpt>
      <trkpt lat="48.838842" lon="10.156277">
        <ele>704</ele>
        <time>2026-08-30T16:40:22Z</time>
      </trkpt>
      <trkpt lat="48.838833" lon="10.156249">
        <ele>703.8</ele>
        <time>2026-08-30T16:40:23Z</time>
      </trkpt>
      <trkpt lat="48.838820" lon="10.156221">
        <ele>703.8</ele>
        <time>2026-08-30T16:40:24Z</time>
      </trkpt>
      <trkpt lat="48.838806" lon="10.156217">
        <ele>703.8</ele>
        <time>2026-08-30T16:40:25Z</time>
      </trkpt>
      <trkpt lat="48.838783" lon="10.156216">
        <ele>703.6</ele>
        <time>2026-08-30T16:40:26Z</time>
      </trkpt>
      <trkpt lat="48.838764" lon="10.156225">
        <ele>703.6</ele>
        <time>2026-08-30T16:40:27Z</time>
      </trkpt>
      <trkpt lat="48.838760" lon="10.156259">
        <ele>703.6</ele>
        <time>2026-08-30T16:40:28Z</time>
      </trkpt>
      <trkpt lat="48.838751" lon="10.156289">
        <ele>703.4</ele>
        <time>2026-08-30T16:40:29Z</time>
      </trkpt>
      <trkpt lat="48.838737" lon="10.156314">
        <ele>703.4</ele>
        <time>2026-08-30T16:40:30Z</time>
      </trkpt>
      <trkpt lat="48.838715" lon="10.156336">
        <ele>703.4</ele>
        <time>2026-08-30T16:40:31Z</time>
      </trkpt>
      <trkpt lat="48.838697" lon="10.156359">
        <ele>703.2</ele>
        <time>2026-08-30T16:40:32Z</time>
      </trkpt>
      <trkpt lat="48.838672" lon="10.156373">
        <ele>703.2</ele>
        <time>2026-08-30T16:40:33Z</time>
      </trkpt>
      <trkpt lat="48.838656" lon="10.156365">
        <ele>703.2</ele>
        <time>2026-08-30T16:40:34Z</time>
      </trkpt>
      <trkpt lat="48.838643" lon="10.156350">
        <ele>703.2</ele>
        <time>2026-08-30T16:40:35Z</time>
      </trkpt>
      <trkpt lat="48.838633" lon="10.156327">
        <ele>703.2</ele>
        <time>2026-08-30T16:40:36Z</time>
      </trkpt>
      <trkpt lat="48.838619" lon="10.156308">
        <ele>703</ele>
        <time>2026-08-30T16:40:37Z</time>
      </trkpt>
      <trkpt lat="48.838602" lon="10.156298">
        <ele>703</ele>
        <time>2026-08-30T16:40:38Z</time>
      </trkpt>
      <trkpt lat="48.838582" lon="10.156293">
        <ele>703</ele>
        <time>2026-08-30T16:40:39Z</time>
      </trkpt>
      <trkpt lat="48.838559" lon="10.156291">
        <ele>703</ele>
        <time>2026-08-30T16:40:40Z</time>
      </trkpt>
      <trkpt lat="48.838531" lon="10.156292">
        <ele>703</ele>
        <time>2026-08-30T16:40:41Z</time>
      </trkpt>
      <trkpt lat="48.838502" lon="10.156291">
        <ele>703</ele>
        <time>2026-08-30T16:40:42Z</time>
      </trkpt>
      <trkpt lat="48.838474" lon="10.156290">
        <ele>702.8</ele>
        <time>2026-08-30T16:40:43Z</time>
      </trkpt>
      <trkpt lat="48.838447" lon="10.156286">
        <ele>702.8</ele>
        <time>2026-08-30T16:40:44Z</time>
      </trkpt>
      <trkpt lat="48.838421" lon="10.156271">
        <ele>702.8</ele>
        <time>2026-08-30T16:40:45Z</time>
      </trkpt>
      <trkpt lat="48.838400" lon="10.156246">
        <ele>702.6</ele>
        <time>2026-08-30T16:40:46Z</time>
      </trkpt>
      <trkpt lat="48.838371" lon="10.156239">
        <ele>702.6</ele>
        <time>2026-08-30T16:40:47Z</time>
      </trkpt>
      <trkpt lat="48.838347" lon="10.156245">
        <ele>702.4</ele>
        <time>2026-08-30T16:40:48Z</time>
      </trkpt>
      <trkpt lat="48.838324" lon="10.156256">
        <ele>702.4</ele>
        <time>2026-08-30T16:40:49Z</time>
      </trkpt>
      <trkpt lat="48.838301" lon="10.156264">
        <ele>702.2</ele>
        <time>2026-08-30T16:40:50Z</time>
      </trkpt>
      <trkpt lat="48.838276" lon="10.156273">
        <ele>702.2</ele>
        <time>2026-08-30T16:40:51Z</time>
      </trkpt>
      <trkpt lat="48.838257" lon="10.156277">
        <ele>702</ele>
        <time>2026-08-30T16:40:52Z</time>
      </trkpt>
      <trkpt lat="48.838244" lon="10.156274">
        <ele>702</ele>
        <time>2026-08-30T16:40:53Z</time>
      </trkpt>
      <trkpt lat="48.838228" lon="10.156258">
        <ele>702</ele>
        <time>2026-08-30T16:40:54Z</time>
      </trkpt>
      <trkpt lat="48.838227" lon="10.156237">
        <ele>701.8</ele>
        <time>2026-08-30T16:40:55Z</time>
      </trkpt>
      <trkpt lat="48.838224" lon="10.156212">
        <ele>701.8</ele>
        <time>2026-08-30T16:40:56Z</time>
      </trkpt>
      <trkpt lat="48.838219" lon="10.156180">
        <ele>701.6</ele>
        <time>2026-08-30T16:40:57Z</time>
      </trkpt>
      <trkpt lat="48.838213" lon="10.156153">
        <ele>701.6</ele>
        <time>2026-08-30T16:40:58Z</time>
      </trkpt>
      <trkpt lat="48.838194" lon="10.156121">
        <ele>701.6</ele>
        <time>2026-08-30T16:40:59Z</time>
      </trkpt>
      <trkpt lat="48.838169" lon="10.156116">
        <ele>701.6</ele>
        <time>2026-08-30T16:41:00Z</time>
      </trkpt>
      <trkpt lat="48.838139" lon="10.156118">
        <ele>701.6</ele>
        <time>2026-08-30T16:41:01Z</time>
      </trkpt>
      <trkpt lat="48.838119" lon="10.156105">
        <ele>701.4</ele>
        <time>2026-08-30T16:41:02Z</time>
      </trkpt>
      <trkpt lat="48.838099" lon="10.156080">
        <ele>701.4</ele>
        <time>2026-08-30T16:41:03Z</time>
      </trkpt>
      <trkpt lat="48.838082" lon="10.156062">
        <ele>701.2</ele>
        <time>2026-08-30T16:41:04Z</time>
      </trkpt>
      <trkpt lat="48.838075" lon="10.156038">
        <ele>701.2</ele>
        <time>2026-08-30T16:41:05Z</time>
      </trkpt>
      <trkpt lat="48.838063" lon="10.156001">
        <ele>701</ele>
        <time>2026-08-30T16:41:06Z</time>
      </trkpt>
      <trkpt lat="48.838046" lon="10.155965">
        <ele>700.8</ele>
        <time>2026-08-30T16:41:07Z</time>
      </trkpt>
      <trkpt lat="48.838025" lon="10.155931">
        <ele>700.8</ele>
        <time>2026-08-30T16:41:08Z</time>
      </trkpt>
      <trkpt lat="48.838007" lon="10.155905">
        <ele>700.8</ele>
        <time>2026-08-30T16:41:09Z</time>
      </trkpt>
      <trkpt lat="48.837983" lon="10.155883">
        <ele>700.6</ele>
        <time>2026-08-30T16:41:10Z</time>
      </trkpt>
      <trkpt lat="48.837962" lon="10.155867">
        <ele>700.6</ele>
        <time>2026-08-30T16:41:11Z</time>
      </trkpt>
      <trkpt lat="48.837945" lon="10.155850">
        <ele>700.4</ele>
        <time>2026-08-30T16:41:12Z</time>
      </trkpt>
      <trkpt lat="48.837923" lon="10.155833">
        <ele>700.4</ele>
        <time>2026-08-30T16:41:13Z</time>
      </trkpt>
      <trkpt lat="48.837894" lon="10.155829">
        <ele>700.2</ele>
        <time>2026-08-30T16:41:14Z</time>
      </trkpt>
      <trkpt lat="48.837875" lon="10.155834">
        <ele>700.2</ele>
        <time>2026-08-30T16:41:15Z</time>
      </trkpt>
      <trkpt lat="48.837856" lon="10.155844">
        <ele>700.2</ele>
        <time>2026-08-30T16:41:16Z</time>
      </trkpt>
      <trkpt lat="48.837848" lon="10.155860">
        <ele>700</ele>
        <time>2026-08-30T16:41:17Z</time>
      </trkpt>
      <trkpt lat="48.837835" lon="10.155868">
        <ele>700</ele>
        <time>2026-08-30T16:41:18Z</time>
      </trkpt>
      <trkpt lat="48.837817" lon="10.155866">
        <ele>700</ele>
        <time>2026-08-30T16:41:19Z</time>
      </trkpt>
      <trkpt lat="48.837794" lon="10.155869">
        <ele>700</ele>
        <time>2026-08-30T16:41:20Z</time>
      </trkpt>
      <trkpt lat="48.837776" lon="10.155884">
        <ele>700</ele>
        <time>2026-08-30T16:41:21Z</time>
      </trkpt>
      <trkpt lat="48.837762" lon="10.155907">
        <ele>699.8</ele>
        <time>2026-08-30T16:41:22Z</time>
      </trkpt>
      <trkpt lat="48.837745" lon="10.155933">
        <ele>699.8</ele>
        <time>2026-08-30T16:41:23Z</time>
      </trkpt>
      <trkpt lat="48.837720" lon="10.155950">
        <ele>699.8</ele>
        <time>2026-08-30T16:41:24Z</time>
      </trkpt>
      <trkpt lat="48.837695" lon="10.155954">
        <ele>699.6</ele>
        <time>2026-08-30T16:41:25Z</time>
      </trkpt>
      <trkpt lat="48.837668" lon="10.155975">
        <ele>699.4</ele>
        <time>2026-08-30T16:41:26Z</time>
      </trkpt>
      <trkpt lat="48.837643" lon="10.155994">
        <ele>699.4</ele>
        <time>2026-08-30T16:41:27Z</time>
      </trkpt>
      <trkpt lat="48.837620" lon="10.155993">
        <ele>699.2</ele>
        <time>2026-08-30T16:41:28Z</time>
      </trkpt>
      <trkpt lat="48.837591" lon="10.156008">
        <ele>699</ele>
        <time>2026-08-30T16:41:29Z</time>
      </trkpt>
      <trkpt lat="48.837566" lon="10.156032">
        <ele>698.8</ele>
        <time>2026-08-30T16:41:30Z</time>
      </trkpt>
      <trkpt lat="48.837552" lon="10.156068">
        <ele>698.8</ele>
        <time>2026-08-30T16:41:31Z</time>
      </trkpt>
      <trkpt lat="48.837536" lon="10.156101">
        <ele>698.4</ele>
        <time>2026-08-30T16:41:32Z</time>
      </trkpt>
      <trkpt lat="48.837518" lon="10.156133">
        <ele>698.4</ele>
        <time>2026-08-30T16:41:33Z</time>
      </trkpt>
      <trkpt lat="48.837497" lon="10.156167">
        <ele>698.2</ele>
        <time>2026-08-30T16:41:34Z</time>
      </trkpt>
      <trkpt lat="48.837466" lon="10.156193">
        <ele>698</ele>
        <time>2026-08-30T16:41:35Z</time>
      </trkpt>
      <trkpt lat="48.837434" lon="10.156199">
        <ele>697.8</ele>
        <time>2026-08-30T16:41:36Z</time>
      </trkpt>
      <trkpt lat="48.837403" lon="10.156195">
        <ele>697.6</ele>
        <time>2026-08-30T16:41:37Z</time>
      </trkpt>
      <trkpt lat="48.837372" lon="10.156195">
        <ele>697.4</ele>
        <time>2026-08-30T16:41:38Z</time>
      </trkpt>
      <trkpt lat="48.837345" lon="10.156181">
        <ele>697.2</ele>
        <time>2026-08-30T16:41:39Z</time>
      </trkpt>
      <trkpt lat="48.837321" lon="10.156167">
        <ele>697</ele>
        <time>2026-08-30T16:41:40Z</time>
      </trkpt>
      <trkpt lat="48.837292" lon="10.156157">
        <ele>696.8</ele>
        <time>2026-08-30T16:41:41Z</time>
      </trkpt>
      <trkpt lat="48.837259" lon="10.156157">
        <ele>696.6</ele>
        <time>2026-08-30T16:41:42Z</time>
      </trkpt>
      <trkpt lat="48.837231" lon="10.156168">
        <ele>696.4</ele>
        <time>2026-08-30T16:41:43Z</time>
      </trkpt>
      <trkpt lat="48.837197" lon="10.156179">
        <ele>696.4</ele>
        <time>2026-08-30T16:41:44Z</time>
      </trkpt>
      <trkpt lat="48.837164" lon="10.156184">
        <ele>696.2</ele>
        <time>2026-08-30T16:41:45Z</time>
      </trkpt>
      <trkpt lat="48.837143" lon="10.156176">
        <ele>696</ele>
        <time>2026-08-30T16:41:46Z</time>
      </trkpt>
      <trkpt lat="48.837128" lon="10.156156">
        <ele>695.8</ele>
        <time>2026-08-30T16:41:47Z</time>
      </trkpt>
      <trkpt lat="48.837125" lon="10.156133">
        <ele>695.6</ele>
        <time>2026-08-30T16:41:48Z</time>
      </trkpt>
      <trkpt lat="48.837122" lon="10.156103">
        <ele>695.4</ele>
        <time>2026-08-30T16:41:49Z</time>
      </trkpt>
      <trkpt lat="48.837113" lon="10.156077">
        <ele>695.2</ele>
        <time>2026-08-30T16:41:50Z</time>
      </trkpt>
      <trkpt lat="48.837103" lon="10.156065">
        <ele>695.2</ele>
        <time>2026-08-30T16:41:51Z</time>
      </trkpt>
      <trkpt lat="48.837085" lon="10.156051">
        <ele>695</ele>
        <time>2026-08-30T16:41:52Z</time>
      </trkpt>
      <trkpt lat="48.837060" lon="10.156045">
        <ele>695</ele>
        <time>2026-08-30T16:41:53Z</time>
      </trkpt>
      <trkpt lat="48.837025" lon="10.156034">
        <ele>694.8</ele>
        <time>2026-08-30T16:41:54Z</time>
      </trkpt>
      <trkpt lat="48.836992" lon="10.156019">
        <ele>694.8</ele>
        <time>2026-08-30T16:41:55Z</time>
      </trkpt>
      <trkpt lat="48.836964" lon="10.156002">
        <ele>694.6</ele>
        <time>2026-08-30T16:41:56Z</time>
      </trkpt>
      <trkpt lat="48.836927" lon="10.155971">
        <ele>694.2</ele>
        <time>2026-08-30T16:41:57Z</time>
      </trkpt>
      <trkpt lat="48.836898" lon="10.155941">
        <ele>694</ele>
        <time>2026-08-30T16:41:58Z</time>
      </trkpt>
      <trkpt lat="48.836860" lon="10.155933">
        <ele>693.8</ele>
        <time>2026-08-30T16:41:59Z</time>
      </trkpt>
      <trkpt lat="48.836833" lon="10.155944">
        <ele>693.6</ele>
        <time>2026-08-30T16:42:00Z</time>
      </trkpt>
      <trkpt lat="48.836808" lon="10.155958">
        <ele>693.2</ele>
        <time>2026-08-30T16:42:01Z</time>
      </trkpt>
      <trkpt lat="48.836781" lon="10.155976">
        <ele>693.2</ele>
        <time>2026-08-30T16:42:02Z</time>
      </trkpt>
      <trkpt lat="48.836754" lon="10.155990">
        <ele>693</ele>
        <time>2026-08-30T16:42:03Z</time>
      </trkpt>
      <trkpt lat="48.836724" lon="10.156011">
        <ele>692.8</ele>
        <time>2026-08-30T16:42:04Z</time>
      </trkpt>
      <trkpt lat="48.836702" lon="10.156035">
        <ele>692.6</ele>
        <time>2026-08-30T16:42:05Z</time>
      </trkpt>
      <trkpt lat="48.836681" lon="10.156057">
        <ele>692.4</ele>
        <time>2026-08-30T16:42:06Z</time>
      </trkpt>
      <trkpt lat="48.836657" lon="10.156068">
        <ele>692.4</ele>
        <time>2026-08-30T16:42:07Z</time>
      </trkpt>
      <trkpt lat="48.836630" lon="10.156088">
        <ele>692.2</ele>
        <time>2026-08-30T16:42:08Z</time>
      </trkpt>
      <trkpt lat="48.836606" lon="10.156108">
        <ele>692</ele>
        <time>2026-08-30T16:42:09Z</time>
      </trkpt>
      <trkpt lat="48.836587" lon="10.156124">
        <ele>692</ele>
        <time>2026-08-30T16:42:10Z</time>
      </trkpt>
      <trkpt lat="48.836570" lon="10.156145">
        <ele>691.8</ele>
        <time>2026-08-30T16:42:11Z</time>
      </trkpt>
      <trkpt lat="48.836556" lon="10.156177">
        <ele>691.8</ele>
        <time>2026-08-30T16:42:12Z</time>
      </trkpt>
      <trkpt lat="48.836534" lon="10.156201">
        <ele>691.6</ele>
        <time>2026-08-30T16:42:13Z</time>
      </trkpt>
      <trkpt lat="48.836509" lon="10.156215">
        <ele>691.6</ele>
        <time>2026-08-30T16:42:14Z</time>
      </trkpt>
      <trkpt lat="48.836498" lon="10.156241">
        <ele>691.6</ele>
        <time>2026-08-30T16:42:15Z</time>
      </trkpt>
      <trkpt lat="48.836477" lon="10.156254">
        <ele>691.4</ele>
        <time>2026-08-30T16:42:16Z</time>
      </trkpt>
      <trkpt lat="48.836449" lon="10.156259">
        <ele>691.4</ele>
        <time>2026-08-30T16:42:17Z</time>
      </trkpt>
      <trkpt lat="48.836421" lon="10.156271">
        <ele>691.2</ele>
        <time>2026-08-30T16:42:18Z</time>
      </trkpt>
      <trkpt lat="48.836390" lon="10.156275">
        <ele>691.2</ele>
        <time>2026-08-30T16:42:19Z</time>
      </trkpt>
      <trkpt lat="48.836362" lon="10.156278">
        <ele>691</ele>
        <time>2026-08-30T16:42:20Z</time>
      </trkpt>
      <trkpt lat="48.836333" lon="10.156270">
        <ele>690.8</ele>
        <time>2026-08-30T16:42:21Z</time>
      </trkpt>
      <trkpt lat="48.836318" lon="10.156249">
        <ele>690.6</ele>
        <time>2026-08-30T16:42:22Z</time>
      </trkpt>
      <trkpt lat="48.836304" lon="10.156222">
        <ele>690.4</ele>
        <time>2026-08-30T16:42:23Z</time>
      </trkpt>
      <trkpt lat="48.836288" lon="10.156198">
        <ele>690.2</ele>
        <time>2026-08-30T16:42:24Z</time>
      </trkpt>
      <trkpt lat="48.836277" lon="10.156162">
        <ele>690.2</ele>
        <time>2026-08-30T16:42:25Z</time>
      </trkpt>
      <trkpt lat="48.836267" lon="10.156119">
        <ele>690</ele>
        <time>2026-08-30T16:42:26Z</time>
      </trkpt>
      <trkpt lat="48.836246" lon="10.156078">
        <ele>689.8</ele>
        <time>2026-08-30T16:42:27Z</time>
      </trkpt>
      <trkpt lat="48.836215" lon="10.156061">
        <ele>689.8</ele>
        <time>2026-08-30T16:42:28Z</time>
      </trkpt>
      <trkpt lat="48.836183" lon="10.156052">
        <ele>689.6</ele>
        <time>2026-08-30T16:42:29Z</time>
      </trkpt>
      <trkpt lat="48.836154" lon="10.156040">
        <ele>689.6</ele>
        <time>2026-08-30T16:42:30Z</time>
      </trkpt>
      <trkpt lat="48.836122" lon="10.156028">
        <ele>689.4</ele>
        <time>2026-08-30T16:42:31Z</time>
      </trkpt>
      <trkpt lat="48.836088" lon="10.156002">
        <ele>689.2</ele>
        <time>2026-08-30T16:42:32Z</time>
      </trkpt>
      <trkpt lat="48.836053" lon="10.155979">
        <ele>689</ele>
        <time>2026-08-30T16:42:33Z</time>
      </trkpt>
      <trkpt lat="48.836020" lon="10.155962">
        <ele>688.6</ele>
        <time>2026-08-30T16:42:34Z</time>
      </trkpt>
      <trkpt lat="48.835998" lon="10.155931">
        <ele>688.4</ele>
        <time>2026-08-30T16:42:35Z</time>
      </trkpt>
      <trkpt lat="48.835968" lon="10.155889">
        <ele>688</ele>
        <time>2026-08-30T16:42:36Z</time>
      </trkpt>
      <trkpt lat="48.835934" lon="10.155847">
        <ele>687.8</ele>
        <time>2026-08-30T16:42:37Z</time>
      </trkpt>
      <trkpt lat="48.835905" lon="10.155824">
        <ele>687.4</ele>
        <time>2026-08-30T16:42:38Z</time>
      </trkpt>
      <trkpt lat="48.835868" lon="10.155804">
        <ele>687</ele>
        <time>2026-08-30T16:42:39Z</time>
      </trkpt>
      <trkpt lat="48.835839" lon="10.155783">
        <ele>686.8</ele>
        <time>2026-08-30T16:42:40Z</time>
      </trkpt>
      <trkpt lat="48.835809" lon="10.155789">
        <ele>686.2</ele>
        <time>2026-08-30T16:42:41Z</time>
      </trkpt>
      <trkpt lat="48.835798" lon="10.155805">
        <ele>686</ele>
        <time>2026-08-30T16:42:42Z</time>
      </trkpt>
      <trkpt lat="48.835783" lon="10.155821">
        <ele>685.6</ele>
        <time>2026-08-30T16:42:43Z</time>
      </trkpt>
      <trkpt lat="48.835766" lon="10.155829">
        <ele>685.4</ele>
        <time>2026-08-30T16:42:44Z</time>
      </trkpt>
      <trkpt lat="48.835747" lon="10.155822">
        <ele>685.2</ele>
        <time>2026-08-30T16:42:45Z</time>
      </trkpt>
      <trkpt lat="48.835728" lon="10.155813">
        <ele>685</ele>
        <time>2026-08-30T16:42:46Z</time>
      </trkpt>
      <trkpt lat="48.835721" lon="10.155813">
        <ele>684.8</ele>
        <time>2026-08-30T16:42:47Z</time>
      </trkpt>
      <trkpt lat="48.835721" lon="10.155813">
        <ele>684.8</ele>
        <time>2026-08-30T16:42:48Z</time>
      </trkpt>
      <trkpt lat="48.835721" lon="10.155813">
        <ele>684.6</ele>
        <time>2026-08-30T16:42:49Z</time>
      </trkpt>
      <trkpt lat="48.835721" lon="10.155813">
        <ele>684.6</ele>
        <time>2026-08-30T16:42:50Z</time>
      </trkpt>
      <trkpt lat="48.835721" lon="10.155813">
        <ele>684.4</ele>
        <time>2026-08-30T16:42:51Z</time>
      </trkpt>
      <trkpt lat="48.835721" lon="10.155813">
        <ele>684.4</ele>
        <time>2026-08-30T16:42:52Z</time>
      </trkpt>
      <trkpt lat="48.835721" lon="10.155813">
        <ele>684.4</ele>
        <time>2026-08-30T16:42:53Z</time>
      </trkpt>
      <trkpt lat="48.835721" lon="10.155813">
        <ele>684.2</ele>
        <time>2026-08-30T16:42:54Z</time>
      </trkpt>
      <trkpt lat="48.835721" lon="10.155813">
        <ele>684.2</ele>
        <time>2026-08-30T16:42:55Z</time>
      </trkpt>
      <trkpt lat="48.835721" lon="10.155813">
        <ele>684.2</ele>
        <time>2026-08-30T16:42:56Z</time>
      </trkpt>
      <trkpt lat="48.835721" lon="10.155813">
        <ele>684.2</ele>
        <time>2026-08-30T16:42:57Z</time>
      </trkpt>
      <trkpt lat="48.835721" lon="10.155813">
        <ele>684.2</ele>
        <time>2026-08-30T16:42:58Z</time>
      </trkpt>
      <trkpt lat="48.835721" lon="10.155813">
        <ele>684.2</ele>
        <time>2026-08-30T16:42:59Z</time>
      </trkpt>
      <trkpt lat="48.835721" lon="10.155813">
        <ele>684.2</ele>
        <time>2026-08-30T16:43:00Z</time>
      </trkpt>
      <trkpt lat="48.835721" lon="10.155813">
        <ele>684.2</ele>
        <time>2026-08-30T16:43:01Z</time>
      </trkpt>
      <trkpt lat="48.835721" lon="10.155813">
        <ele>684.2</ele>
        <time>2026-08-30T16:43:02Z</time>
      </trkpt>
      <trkpt lat="48.835721" lon="10.155813">
        <ele>684.2</ele>
        <time>2026-08-30T16:43:03Z</time>
      </trkpt>
      <trkpt lat="48.835721" lon="10.155813">
        <ele>684.2</ele>
        <time>2026-08-30T16:43:04Z</time>
      </trkpt>
      <trkpt lat="48.835721" lon="10.155813">
        <ele>684.2</ele>
        <time>2026-08-30T16:43:05Z</time>
      </trkpt>
      <trkpt lat="48.835721" lon="10.155813">
        <ele>684.2</ele>
        <time>2026-08-30T16:43:06Z</time>
      </trkpt>
      <trkpt lat="48.835721" lon="10.155813">
        <ele>684.2</ele>
        <time>2026-08-30T16:43:07Z</time>
      </trkpt>
      <trkpt lat="48.835721" lon="10.155813">
        <ele>684.2</ele>
        <time>2026-08-30T16:43:08Z</time>
      </trkpt>
      <trkpt lat="48.835721" lon="10.155813">
        <ele>684.2</ele>
        <time>2026-08-30T16:43:09Z</time>
      </trkpt>
      <trkpt lat="48.835721" lon="10.155813">
        <ele>684.2</ele>
        <time>2026-08-30T16:43:10Z</time>
      </trkpt>
      <trkpt lat="48.835721" lon="10.155813">
        <ele>684.2</ele>
        <time>2026-08-30T16:43:11Z</time>
      </trkpt>
      <trkpt lat="48.835721" lon="10.155813">
        <ele>684.2</ele>
        <time>2026-08-30T16:43:12Z</time>
      </trkpt>
      <trkpt lat="48.835721" lon="10.155813">
        <ele>684.2</ele>
        <time>2026-08-30T16:43:13Z</time>
      </trkpt>
      <trkpt lat="48.835721" lon="10.155813">
        <ele>684.2</ele>
        <time>2026-08-30T16:43:14Z</time>
      </trkpt>
      <trkpt lat="48.835721" lon="10.155813">
        <ele>684.2</ele>
        <time>2026-08-30T16:43:15Z</time>
      </trkpt>
      <trkpt lat="48.835721" lon="10.155813">
        <ele>684</ele>
        <time>2026-08-30T16:43:16Z</time>
      </trkpt>
      <trkpt lat="48.835721" lon="10.155813">
        <ele>684</ele>
        <time>2026-08-30T16:43:17Z</time>
      </trkpt>
      <trkpt lat="48.835721" lon="10.155813">
        <ele>684</ele>
        <time>2026-08-30T16:43:18Z</time>
      </trkpt>
      <trkpt lat="48.835721" lon="10.155813">
        <ele>684</ele>
        <time>2026-08-30T16:43:19Z</time>
      </trkpt>
      <trkpt lat="48.835721" lon="10.155813">
        <ele>684</ele>
        <time>2026-08-30T16:43:20Z</time>
      </trkpt>
      <trkpt lat="48.835721" lon="10.155813">
        <ele>684</ele>
        <time>2026-08-30T16:43:21Z</time>
      </trkpt>
      <trkpt lat="48.835721" lon="10.155813">
        <ele>684</ele>
        <time>2026-08-30T16:43:22Z</time>
      </trkpt>
      <trkpt lat="48.835721" lon="10.155813">
        <ele>684</ele>
        <time>2026-08-30T16:43:23Z</time>
      </trkpt>
      <trkpt lat="48.835721" lon="10.155813">
        <ele>684</ele>
        <time>2026-08-30T16:43:24Z</time>
      </trkpt>
      <trkpt lat="48.835721" lon="10.155813">
        <ele>684</ele>
        <time>2026-08-30T16:43:25Z</time>
      </trkpt>
      <trkpt lat="48.835721" lon="10.155813">
        <ele>684</ele>
        <time>2026-08-30T16:43:26Z</time>
      </trkpt>
      <trkpt lat="48.835721" lon="10.155813">
        <ele>684</ele>
        <time>2026-08-30T16:43:27Z</time>
      </trkpt>
      <trkpt lat="48.835721" lon="10.155813">
        <ele>684</ele>
        <time>2026-08-30T16:43:28Z</time>
      </trkpt>
      <trkpt lat="48.835721" lon="10.155813">
        <ele>684</ele>
        <time>2026-08-30T16:43:29Z</time>
      </trkpt>
      <trkpt lat="48.835721" lon="10.155813">
        <ele>684</ele>
        <time>2026-08-30T16:43:30Z</time>
      </trkpt>
      <trkpt lat="48.835721" lon="10.155813">
        <ele>684</ele>
        <time>2026-08-30T16:43:31Z</time>
      </trkpt>
      <trkpt lat="48.835721" lon="10.155813">
        <ele>684</ele>
        <time>2026-08-30T16:43:32Z</time>
      </trkpt>
      <trkpt lat="48.835721" lon="10.155813">
        <ele>684</ele>
        <time>2026-08-30T16:43:33Z</time>
      </trkpt>
      <trkpt lat="48.835721" lon="10.155813">
        <ele>684</ele>
        <time>2026-08-30T16:43:34Z</time>
      </trkpt>
      <trkpt lat="48.835721" lon="10.155813">
        <ele>684</ele>
        <time>2026-08-30T16:43:35Z</time>
      </trkpt>
      <trkpt lat="48.835721" lon="10.155813">
        <ele>684</ele>
        <time>2026-08-30T16:43:36Z</time>
      </trkpt>
      <trkpt lat="48.835721" lon="10.155813">
        <ele>684</ele>
        <time>2026-08-30T16:43:37Z</time>
      </trkpt>
      <trkpt lat="48.835721" lon="10.155813">
        <ele>684</ele>
        <time>2026-08-30T16:43:38Z</time>
      </trkpt>
      <trkpt lat="48.835721" lon="10.155813">
        <ele>684</ele>
        <time>2026-08-30T16:43:39Z</time>
      </trkpt>
      <trkpt lat="48.835721" lon="10.155813">
        <ele>684</ele>
        <time>2026-08-30T16:43:40Z</time>
      </trkpt>
      <trkpt lat="48.835721" lon="10.155813">
        <ele>683.8</ele>
        <time>2026-08-30T16:43:41Z</time>
      </trkpt>
      <trkpt lat="48.835721" lon="10.155813">
        <ele>683.8</ele>
        <time>2026-08-30T16:43:42Z</time>
      </trkpt>
      <trkpt lat="48.835721" lon="10.155813">
        <ele>683.8</ele>
        <time>2026-08-30T16:43:43Z</time>
      </trkpt>
      <trkpt lat="48.835721" lon="10.155813">
        <ele>683.8</ele>
        <time>2026-08-30T16:43:44Z</time>
      </trkpt>
      <trkpt lat="48.835721" lon="10.155813">
        <ele>683.8</ele>
        <time>2026-08-30T16:43:45Z</time>
      </trkpt>
      <trkpt lat="48.835721" lon="10.155813">
        <ele>683.8</ele>
        <time>2026-08-30T16:43:46Z</time>
      </trkpt>
      <trkpt lat="48.835721" lon="10.155813">
        <ele>683.8</ele>
        <time>2026-08-30T16:43:47Z</time>
      </trkpt>
      <trkpt lat="48.835721" lon="10.155813">
        <ele>683.8</ele>
        <time>2026-08-30T16:43:48Z</time>
      </trkpt>
      <trkpt lat="48.835721" lon="10.155813">
        <ele>683.8</ele>
        <time>2026-08-30T16:43:49Z</time>
      </trkpt>
      <trkpt lat="48.835721" lon="10.155813">
        <ele>683.8</ele>
        <time>2026-08-30T16:43:50Z</time>
      </trkpt>
      <trkpt lat="48.835721" lon="10.155813">
        <ele>683.8</ele>
        <time>2026-08-30T16:43:51Z</time>
      </trkpt>
      <trkpt lat="48.835721" lon="10.155813">
        <ele>683.8</ele>
        <time>2026-08-30T16:43:52Z</time>
      </trkpt>
      <trkpt lat="48.835721" lon="10.155813">
        <ele>683.8</ele>
        <time>2026-08-30T16:43:53Z</time>
      </trkpt>
      <trkpt lat="48.835721" lon="10.155813">
        <ele>683.8</ele>
        <time>2026-08-30T16:43:54Z</time>
      </trkpt>
      <trkpt lat="48.835721" lon="10.155813">
        <ele>683.8</ele>
        <time>2026-08-30T16:43:55Z</time>
      </trkpt>
      <trkpt lat="48.835716" lon="10.155810">
        <ele>683.8</ele>
        <time>2026-08-30T16:43:56Z</time>
      </trkpt>
      <trkpt lat="48.835713" lon="10.155770">
        <ele>683.8</ele>
        <time>2026-08-30T16:43:57Z</time>
      </trkpt>
      <trkpt lat="48.835715" lon="10.155736">
        <ele>683.6</ele>
        <time>2026-08-30T16:43:58Z</time>
      </trkpt>
      <trkpt lat="48.835724" lon="10.155707">
        <ele>683.6</ele>
        <time>2026-08-30T16:43:59Z</time>
      </trkpt>
      <trkpt lat="48.835730" lon="10.155671">
        <ele>683.6</ele>
        <time>2026-08-30T16:44:00Z</time>
      </trkpt>
      <trkpt lat="48.835737" lon="10.155628">
        <ele>683.4</ele>
        <time>2026-08-30T16:44:01Z</time>
      </trkpt>
      <trkpt lat="48.835742" lon="10.155597">
        <ele>683.4</ele>
        <time>2026-08-30T16:44:02Z</time>
      </trkpt>
      <trkpt lat="48.835746" lon="10.155546">
        <ele>683.4</ele>
        <time>2026-08-30T16:44:03Z</time>
      </trkpt>
      <trkpt lat="48.835740" lon="10.155482">
        <ele>683.2</ele>
        <time>2026-08-30T16:44:04Z</time>
      </trkpt>
      <trkpt lat="48.835725" lon="10.155421">
        <ele>683.2</ele>
        <time>2026-08-30T16:44:05Z</time>
      </trkpt>
      <trkpt lat="48.835710" lon="10.155373">
        <ele>683</ele>
        <time>2026-08-30T16:44:06Z</time>
      </trkpt>
      <trkpt lat="48.835679" lon="10.155334">
        <ele>683</ele>
        <time>2026-08-30T16:44:07Z</time>
      </trkpt>
      <trkpt lat="48.835642" lon="10.155309">
        <ele>682.8</ele>
        <time>2026-08-30T16:44:08Z</time>
      </trkpt>
      <trkpt lat="48.835605" lon="10.155315">
        <ele>682.6</ele>
        <time>2026-08-30T16:44:09Z</time>
      </trkpt>
      <trkpt lat="48.835577" lon="10.155311">
        <ele>682.2</ele>
        <time>2026-08-30T16:44:10Z</time>
      </trkpt>
      <trkpt lat="48.835562" lon="10.155284">
        <ele>682</ele>
        <time>2026-08-30T16:44:11Z</time>
      </trkpt>
      <trkpt lat="48.835559" lon="10.155258">
        <ele>681.8</ele>
        <time>2026-08-30T16:44:12Z</time>
      </trkpt>
      <trkpt lat="48.835560" lon="10.155225">
        <ele>681.6</ele>
        <time>2026-08-30T16:44:13Z</time>
      </trkpt>
      <trkpt lat="48.835571" lon="10.155189">
        <ele>681.6</ele>
        <time>2026-08-30T16:44:14Z</time>
      </trkpt>
      <trkpt lat="48.835566" lon="10.155153">
        <ele>681.4</ele>
        <time>2026-08-30T16:44:15Z</time>
      </trkpt>
      <trkpt lat="48.835553" lon="10.155120">
        <ele>681.2</ele>
        <time>2026-08-30T16:44:16Z</time>
      </trkpt>
      <trkpt lat="48.835543" lon="10.155102">
        <ele>681.2</ele>
        <time>2026-08-30T16:44:17Z</time>
      </trkpt>
      <trkpt lat="48.835531" lon="10.155090">
        <ele>681</ele>
        <time>2026-08-30T16:44:18Z</time>
      </trkpt>
      <trkpt lat="48.835516" lon="10.155080">
        <ele>681</ele>
        <time>2026-08-30T16:44:19Z</time>
      </trkpt>
      <trkpt lat="48.835495" lon="10.155076">
        <ele>680.8</ele>
        <time>2026-08-30T16:44:20Z</time>
      </trkpt>
      <trkpt lat="48.835473" lon="10.155061">
        <ele>680.8</ele>
        <time>2026-08-30T16:44:21Z</time>
      </trkpt>
      <trkpt lat="48.835454" lon="10.155045">
        <ele>680.6</ele>
        <time>2026-08-30T16:44:22Z</time>
      </trkpt>
      <trkpt lat="48.835431" lon="10.155016">
        <ele>680.2</ele>
        <time>2026-08-30T16:44:23Z</time>
      </trkpt>
      <trkpt lat="48.835404" lon="10.154993">
        <ele>679.8</ele>
        <time>2026-08-30T16:44:24Z</time>
      </trkpt>
      <trkpt lat="48.835372" lon="10.154993">
        <ele>679.4</ele>
        <time>2026-08-30T16:44:25Z</time>
      </trkpt>
      <trkpt lat="48.835347" lon="10.155000">
        <ele>679.2</ele>
        <time>2026-08-30T16:44:26Z</time>
      </trkpt>
      <trkpt lat="48.835325" lon="10.155007">
        <ele>678.8</ele>
        <time>2026-08-30T16:44:27Z</time>
      </trkpt>
      <trkpt lat="48.835309" lon="10.155030">
        <ele>678.6</ele>
        <time>2026-08-30T16:44:28Z</time>
      </trkpt>
      <trkpt lat="48.835294" lon="10.155053">
        <ele>678.4</ele>
        <time>2026-08-30T16:44:29Z</time>
      </trkpt>
      <trkpt lat="48.835279" lon="10.155077">
        <ele>678.2</ele>
        <time>2026-08-30T16:44:30Z</time>
      </trkpt>
      <trkpt lat="48.835267" lon="10.155104">
        <ele>678.2</ele>
        <time>2026-08-30T16:44:31Z</time>
      </trkpt>
      <trkpt lat="48.835253" lon="10.155134">
        <ele>678.2</ele>
        <time>2026-08-30T16:44:32Z</time>
      </trkpt>
      <trkpt lat="48.835236" lon="10.155157">
        <ele>678.2</ele>
        <time>2026-08-30T16:44:33Z</time>
      </trkpt>
      <trkpt lat="48.835214" lon="10.155175">
        <ele>678.4</ele>
        <time>2026-08-30T16:44:34Z</time>
      </trkpt>
      <trkpt lat="48.835192" lon="10.155183">
        <ele>678.4</ele>
        <time>2026-08-30T16:44:35Z</time>
      </trkpt>
      <trkpt lat="48.835175" lon="10.155175">
        <ele>678.6</ele>
        <time>2026-08-30T16:44:36Z</time>
      </trkpt>
      <trkpt lat="48.835161" lon="10.155154">
        <ele>678.6</ele>
        <time>2026-08-30T16:44:37Z</time>
      </trkpt>
      <trkpt lat="48.835153" lon="10.155123">
        <ele>678.6</ele>
        <time>2026-08-30T16:44:38Z</time>
      </trkpt>
      <trkpt lat="48.835139" lon="10.155094">
        <ele>678.6</ele>
        <time>2026-08-30T16:44:39Z</time>
      </trkpt>
      <trkpt lat="48.835117" lon="10.155068">
        <ele>678.6</ele>
        <time>2026-08-30T16:44:40Z</time>
      </trkpt>
      <trkpt lat="48.835088" lon="10.155059">
        <ele>678.6</ele>
        <time>2026-08-30T16:44:41Z</time>
      </trkpt>
      <trkpt lat="48.835065" lon="10.155063">
        <ele>678.6</ele>
        <time>2026-08-30T16:44:42Z</time>
      </trkpt>
      <trkpt lat="48.835041" lon="10.155080">
        <ele>678.4</ele>
        <time>2026-08-30T16:44:43Z</time>
      </trkpt>
      <trkpt lat="48.835025" lon="10.155101">
        <ele>678.4</ele>
        <time>2026-08-30T16:44:44Z</time>
      </trkpt>
      <trkpt lat="48.835016" lon="10.155133">
        <ele>678.4</ele>
        <time>2026-08-30T16:44:45Z</time>
      </trkpt>
      <trkpt lat="48.835000" lon="10.155159">
        <ele>678.2</ele>
        <time>2026-08-30T16:44:46Z</time>
      </trkpt>
      <trkpt lat="48.834983" lon="10.155161">
        <ele>678.2</ele>
        <time>2026-08-30T16:44:47Z</time>
      </trkpt>
      <trkpt lat="48.834966" lon="10.155151">
        <ele>678.2</ele>
        <time>2026-08-30T16:44:48Z</time>
      </trkpt>
      <trkpt lat="48.834946" lon="10.155132">
        <ele>678.4</ele>
        <time>2026-08-30T16:44:49Z</time>
      </trkpt>
      <trkpt lat="48.834918" lon="10.155111">
        <ele>678.4</ele>
        <time>2026-08-30T16:44:50Z</time>
      </trkpt>
      <trkpt lat="48.834886" lon="10.155109">
        <ele>678.2</ele>
        <time>2026-08-30T16:44:51Z</time>
      </trkpt>
      <trkpt lat="48.834858" lon="10.155118">
        <ele>678.2</ele>
        <time>2026-08-30T16:44:52Z</time>
      </trkpt>
      <trkpt lat="48.834835" lon="10.155149">
        <ele>678.2</ele>
        <time>2026-08-30T16:44:53Z</time>
      </trkpt>
      <trkpt lat="48.834818" lon="10.155182">
        <ele>678.2</ele>
        <time>2026-08-30T16:44:54Z</time>
      </trkpt>
      <trkpt lat="48.834796" lon="10.155203">
        <ele>678.2</ele>
        <time>2026-08-30T16:44:55Z</time>
      </trkpt>
      <trkpt lat="48.834773" lon="10.155220">
        <ele>678.2</ele>
        <time>2026-08-30T16:44:56Z</time>
      </trkpt>
      <trkpt lat="48.834749" lon="10.155241">
        <ele>678.2</ele>
        <time>2026-08-30T16:44:57Z</time>
      </trkpt>
      <trkpt lat="48.834724" lon="10.155248">
        <ele>678.4</ele>
        <time>2026-08-30T16:44:58Z</time>
      </trkpt>
      <trkpt lat="48.834696" lon="10.155258">
        <ele>678.4</ele>
        <time>2026-08-30T16:44:59Z</time>
      </trkpt>
      <trkpt lat="48.834661" lon="10.155259">
        <ele>678.4</ele>
        <time>2026-08-30T16:45:00Z</time>
      </trkpt>
      <trkpt lat="48.834633" lon="10.155244">
        <ele>678.4</ele>
        <time>2026-08-30T16:45:01Z</time>
      </trkpt>
      <trkpt lat="48.834605" lon="10.155232">
        <ele>678.4</ele>
        <time>2026-08-30T16:45:02Z</time>
      </trkpt>
      <trkpt lat="48.834570" lon="10.155223">
        <ele>678.4</ele>
        <time>2026-08-30T16:45:03Z</time>
      </trkpt>
      <trkpt lat="48.834537" lon="10.155219">
        <ele>678.4</ele>
        <time>2026-08-30T16:45:04Z</time>
      </trkpt>
      <trkpt lat="48.834507" lon="10.155197">
        <ele>678.4</ele>
        <time>2026-08-30T16:45:05Z</time>
      </trkpt>
      <trkpt lat="48.834476" lon="10.155166">
        <ele>678.4</ele>
        <time>2026-08-30T16:45:06Z</time>
      </trkpt>
      <trkpt lat="48.834443" lon="10.155136">
        <ele>678.6</ele>
        <time>2026-08-30T16:45:07Z</time>
      </trkpt>
      <trkpt lat="48.834415" lon="10.155116">
        <ele>678.6</ele>
        <time>2026-08-30T16:45:08Z</time>
      </trkpt>
      <trkpt lat="48.834389" lon="10.155099">
        <ele>678.6</ele>
        <time>2026-08-30T16:45:09Z</time>
      </trkpt>
      <trkpt lat="48.834356" lon="10.155088">
        <ele>678.6</ele>
        <time>2026-08-30T16:45:10Z</time>
      </trkpt>
      <trkpt lat="48.834325" lon="10.155073">
        <ele>678.6</ele>
        <time>2026-08-30T16:45:11Z</time>
      </trkpt>
      <trkpt lat="48.834289" lon="10.155056">
        <ele>678.6</ele>
        <time>2026-08-30T16:45:12Z</time>
      </trkpt>
      <trkpt lat="48.834255" lon="10.155040">
        <ele>678.6</ele>
        <time>2026-08-30T16:45:13Z</time>
      </trkpt>
      <trkpt lat="48.834223" lon="10.155032">
        <ele>678.6</ele>
        <time>2026-08-30T16:45:14Z</time>
      </trkpt>
      <trkpt lat="48.834191" lon="10.155023">
        <ele>678.6</ele>
        <time>2026-08-30T16:45:15Z</time>
      </trkpt>
      <trkpt lat="48.834155" lon="10.155007">
        <ele>678.6</ele>
        <time>2026-08-30T16:45:16Z</time>
      </trkpt>
      <trkpt lat="48.834115" lon="10.155001">
        <ele>678.6</ele>
        <time>2026-08-30T16:45:17Z</time>
      </trkpt>
      <trkpt lat="48.834080" lon="10.155005">
        <ele>678.6</ele>
        <time>2026-08-30T16:45:18Z</time>
      </trkpt>
      <trkpt lat="48.834047" lon="10.155005">
        <ele>678.6</ele>
        <time>2026-08-30T16:45:19Z</time>
      </trkpt>
      <trkpt lat="48.834018" lon="10.155002">
        <ele>678.6</ele>
        <time>2026-08-30T16:45:20Z</time>
      </trkpt>
      <trkpt lat="48.833989" lon="10.154998">
        <ele>678.8</ele>
        <time>2026-08-30T16:45:21Z</time>
      </trkpt>
      <trkpt lat="48.833967" lon="10.154994">
        <ele>678.8</ele>
        <time>2026-08-30T16:45:22Z</time>
      </trkpt>
      <trkpt lat="48.833939" lon="10.154987">
        <ele>679</ele>
        <time>2026-08-30T16:45:23Z</time>
      </trkpt>
      <trkpt lat="48.833906" lon="10.154977">
        <ele>679</ele>
        <time>2026-08-30T16:45:24Z</time>
      </trkpt>
      <trkpt lat="48.833869" lon="10.154987">
        <ele>679</ele>
        <time>2026-08-30T16:45:25Z</time>
      </trkpt>
      <trkpt lat="48.833834" lon="10.155001">
        <ele>679</ele>
        <time>2026-08-30T16:45:26Z</time>
      </trkpt>
      <trkpt lat="48.833799" lon="10.155000">
        <ele>679</ele>
        <time>2026-08-30T16:45:27Z</time>
      </trkpt>
      <trkpt lat="48.833765" lon="10.154992">
        <ele>678.8</ele>
        <time>2026-08-30T16:45:28Z</time>
      </trkpt>
      <trkpt lat="48.833734" lon="10.154984">
        <ele>678.8</ele>
        <time>2026-08-30T16:45:29Z</time>
      </trkpt>
      <trkpt lat="48.833701" lon="10.154972">
        <ele>678.6</ele>
        <time>2026-08-30T16:45:30Z</time>
      </trkpt>
      <trkpt lat="48.833665" lon="10.154964">
        <ele>678.6</ele>
        <time>2026-08-30T16:45:31Z</time>
      </trkpt>
      <trkpt lat="48.833626" lon="10.154954">
        <ele>678.4</ele>
        <time>2026-08-30T16:45:32Z</time>
      </trkpt>
      <trkpt lat="48.833588" lon="10.154958">
        <ele>678.4</ele>
        <time>2026-08-30T16:45:33Z</time>
      </trkpt>
      <trkpt lat="48.833549" lon="10.154962">
        <ele>678.4</ele>
        <time>2026-08-30T16:45:34Z</time>
      </trkpt>
      <trkpt lat="48.833513" lon="10.154968">
        <ele>678.4</ele>
        <time>2026-08-30T16:45:35Z</time>
      </trkpt>
      <trkpt lat="48.833478" lon="10.154972">
        <ele>678.4</ele>
        <time>2026-08-30T16:45:36Z</time>
      </trkpt>
      <trkpt lat="48.833440" lon="10.154981">
        <ele>678.4</ele>
        <time>2026-08-30T16:45:37Z</time>
      </trkpt>
      <trkpt lat="48.833404" lon="10.154988">
        <ele>678.4</ele>
        <time>2026-08-30T16:45:38Z</time>
      </trkpt>
      <trkpt lat="48.833369" lon="10.154997">
        <ele>678.4</ele>
        <time>2026-08-30T16:45:39Z</time>
      </trkpt>
      <trkpt lat="48.833336" lon="10.155016">
        <ele>678.6</ele>
        <time>2026-08-30T16:45:40Z</time>
      </trkpt>
      <trkpt lat="48.833303" lon="10.155032">
        <ele>678.6</ele>
        <time>2026-08-30T16:45:41Z</time>
      </trkpt>
      <trkpt lat="48.833270" lon="10.155038">
        <ele>678.6</ele>
        <time>2026-08-30T16:45:42Z</time>
      </trkpt>
      <trkpt lat="48.833239" lon="10.155039">
        <ele>678.6</ele>
        <time>2026-08-30T16:45:43Z</time>
      </trkpt>
      <trkpt lat="48.833208" lon="10.155036">
        <ele>678.8</ele>
        <time>2026-08-30T16:45:44Z</time>
      </trkpt>
      <trkpt lat="48.833177" lon="10.155042">
        <ele>678.8</ele>
        <time>2026-08-30T16:45:45Z</time>
      </trkpt>
      <trkpt lat="48.833143" lon="10.155040">
        <ele>678.8</ele>
        <time>2026-08-30T16:45:46Z</time>
      </trkpt>
      <trkpt lat="48.833112" lon="10.155047">
        <ele>678.8</ele>
        <time>2026-08-30T16:45:47Z</time>
      </trkpt>
      <trkpt lat="48.833083" lon="10.155056">
        <ele>679</ele>
        <time>2026-08-30T16:45:48Z</time>
      </trkpt>
      <trkpt lat="48.833062" lon="10.155058">
        <ele>679</ele>
        <time>2026-08-30T16:45:49Z</time>
      </trkpt>
      <trkpt lat="48.833046" lon="10.155053">
        <ele>679.2</ele>
        <time>2026-08-30T16:45:50Z</time>
      </trkpt>
      <trkpt lat="48.833031" lon="10.155045">
        <ele>679.2</ele>
        <time>2026-08-30T16:45:51Z</time>
      </trkpt>
      <trkpt lat="48.833011" lon="10.155037">
        <ele>679.2</ele>
        <time>2026-08-30T16:45:52Z</time>
      </trkpt>
      <trkpt lat="48.832993" lon="10.155034">
        <ele>679.2</ele>
        <time>2026-08-30T16:45:53Z</time>
      </trkpt>
      <trkpt lat="48.832975" lon="10.155041">
        <ele>679.4</ele>
        <time>2026-08-30T16:45:54Z</time>
      </trkpt>
      <trkpt lat="48.832957" lon="10.155040">
        <ele>679.4</ele>
        <time>2026-08-30T16:45:55Z</time>
      </trkpt>
      <trkpt lat="48.832940" lon="10.155040">
        <ele>679.4</ele>
        <time>2026-08-30T16:45:56Z</time>
      </trkpt>
      <trkpt lat="48.832924" lon="10.155036">
        <ele>679.4</ele>
        <time>2026-08-30T16:45:57Z</time>
      </trkpt>
      <trkpt lat="48.832907" lon="10.155022">
        <ele>679.4</ele>
        <time>2026-08-30T16:45:58Z</time>
      </trkpt>
      <trkpt lat="48.832883" lon="10.155015">
        <ele>679.4</ele>
        <time>2026-08-30T16:45:59Z</time>
      </trkpt>
      <trkpt lat="48.832860" lon="10.155025">
        <ele>679.4</ele>
        <time>2026-08-30T16:46:00Z</time>
      </trkpt>
      <trkpt lat="48.832840" lon="10.155032">
        <ele>679.4</ele>
        <time>2026-08-30T16:46:01Z</time>
      </trkpt>
      <trkpt lat="48.832820" lon="10.155043">
        <ele>679.4</ele>
        <time>2026-08-30T16:46:02Z</time>
      </trkpt>
      <trkpt lat="48.832798" lon="10.155042">
        <ele>679.2</ele>
        <time>2026-08-30T16:46:03Z</time>
      </trkpt>
      <trkpt lat="48.832779" lon="10.155033">
        <ele>679.2</ele>
        <time>2026-08-30T16:46:04Z</time>
      </trkpt>
      <trkpt lat="48.832754" lon="10.155025">
        <ele>679.4</ele>
        <time>2026-08-30T16:46:05Z</time>
      </trkpt>
      <trkpt lat="48.832726" lon="10.155028">
        <ele>679.2</ele>
        <time>2026-08-30T16:46:06Z</time>
      </trkpt>
      <trkpt lat="48.832700" lon="10.155034">
        <ele>679.4</ele>
        <time>2026-08-30T16:46:07Z</time>
      </trkpt>
      <trkpt lat="48.832671" lon="10.155041">
        <ele>679.4</ele>
        <time>2026-08-30T16:46:08Z</time>
      </trkpt>
      <trkpt lat="48.832642" lon="10.155043">
        <ele>679.4</ele>
        <time>2026-08-30T16:46:09Z</time>
      </trkpt>
      <trkpt lat="48.832610" lon="10.155044">
        <ele>679.4</ele>
        <time>2026-08-30T16:46:10Z</time>
      </trkpt>
      <trkpt lat="48.832582" lon="10.155053">
        <ele>679.4</ele>
        <time>2026-08-30T16:46:11Z</time>
      </trkpt>
      <trkpt lat="48.832553" lon="10.155055">
        <ele>679.4</ele>
        <time>2026-08-30T16:46:12Z</time>
      </trkpt>
      <trkpt lat="48.832522" lon="10.155059">
        <ele>679.4</ele>
        <time>2026-08-30T16:46:13Z</time>
      </trkpt>
      <trkpt lat="48.832491" lon="10.155063">
        <ele>679.4</ele>
        <time>2026-08-30T16:46:14Z</time>
      </trkpt>
      <trkpt lat="48.832459" lon="10.155063">
        <ele>679.4</ele>
        <time>2026-08-30T16:46:15Z</time>
      </trkpt>
      <trkpt lat="48.832428" lon="10.155058">
        <ele>679.4</ele>
        <time>2026-08-30T16:46:16Z</time>
      </trkpt>
      <trkpt lat="48.832397" lon="10.155052">
        <ele>679.4</ele>
        <time>2026-08-30T16:46:17Z</time>
      </trkpt>
      <trkpt lat="48.832363" lon="10.155047">
        <ele>679.4</ele>
        <time>2026-08-30T16:46:18Z</time>
      </trkpt>
      <trkpt lat="48.832328" lon="10.155040">
        <ele>679.4</ele>
        <time>2026-08-30T16:46:19Z</time>
      </trkpt>
      <trkpt lat="48.832294" lon="10.155041">
        <ele>679.4</ele>
        <time>2026-08-30T16:46:20Z</time>
      </trkpt>
      <trkpt lat="48.832260" lon="10.155053">
        <ele>679.4</ele>
        <time>2026-08-30T16:46:21Z</time>
      </trkpt>
      <trkpt lat="48.832230" lon="10.155060">
        <ele>679.4</ele>
        <time>2026-08-30T16:46:22Z</time>
      </trkpt>
      <trkpt lat="48.832201" lon="10.155058">
        <ele>679.4</ele>
        <time>2026-08-30T16:46:23Z</time>
      </trkpt>
      <trkpt lat="48.832169" lon="10.155064">
        <ele>679.4</ele>
        <time>2026-08-30T16:46:24Z</time>
      </trkpt>
      <trkpt lat="48.832138" lon="10.155070">
        <ele>679.4</ele>
        <time>2026-08-30T16:46:25Z</time>
      </trkpt>
      <trkpt lat="48.832109" lon="10.155084">
        <ele>679.4</ele>
        <time>2026-08-30T16:46:26Z</time>
      </trkpt>
      <trkpt lat="48.832082" lon="10.155099">
        <ele>679.4</ele>
        <time>2026-08-30T16:46:27Z</time>
      </trkpt>
      <trkpt lat="48.832059" lon="10.155122">
        <ele>679.6</ele>
        <time>2026-08-30T16:46:28Z</time>
      </trkpt>
      <trkpt lat="48.832039" lon="10.155149">
        <ele>679.6</ele>
        <time>2026-08-30T16:46:29Z</time>
      </trkpt>
      <trkpt lat="48.832020" lon="10.155177">
        <ele>679.6</ele>
        <time>2026-08-30T16:46:30Z</time>
      </trkpt>
      <trkpt lat="48.832000" lon="10.155209">
        <ele>679.8</ele>
        <time>2026-08-30T16:46:31Z</time>
      </trkpt>
      <trkpt lat="48.831977" lon="10.155234">
        <ele>679.8</ele>
        <time>2026-08-30T16:46:32Z</time>
      </trkpt>
      <trkpt lat="48.831959" lon="10.155264">
        <ele>679.8</ele>
        <time>2026-08-30T16:46:33Z</time>
      </trkpt>
      <trkpt lat="48.831945" lon="10.155301">
        <ele>680</ele>
        <time>2026-08-30T16:46:34Z</time>
      </trkpt>
      <trkpt lat="48.831926" lon="10.155336">
        <ele>680</ele>
        <time>2026-08-30T16:46:35Z</time>
      </trkpt>
      <trkpt lat="48.831907" lon="10.155363">
        <ele>680.2</ele>
        <time>2026-08-30T16:46:36Z</time>
      </trkpt>
      <trkpt lat="48.831887" lon="10.155386">
        <ele>680.2</ele>
        <time>2026-08-30T16:46:37Z</time>
      </trkpt>
      <trkpt lat="48.831866" lon="10.155408">
        <ele>680.2</ele>
        <time>2026-08-30T16:46:38Z</time>
      </trkpt>
      <trkpt lat="48.831843" lon="10.155431">
        <ele>680.4</ele>
        <time>2026-08-30T16:46:39Z</time>
      </trkpt>
      <trkpt lat="48.831818" lon="10.155454">
        <ele>680.4</ele>
        <time>2026-08-30T16:46:40Z</time>
      </trkpt>
      <trkpt lat="48.831793" lon="10.155481">
        <ele>680.4</ele>
        <time>2026-08-30T16:46:41Z</time>
      </trkpt>
      <trkpt lat="48.831770" lon="10.155507">
        <ele>680.4</ele>
        <time>2026-08-30T16:46:42Z</time>
      </trkpt>
      <trkpt lat="48.831747" lon="10.155535">
        <ele>680.4</ele>
        <time>2026-08-30T16:46:43Z</time>
      </trkpt>
      <trkpt lat="48.831727" lon="10.155567">
        <ele>680.4</ele>
        <time>2026-08-30T16:46:44Z</time>
      </trkpt>
      <trkpt lat="48.831710" lon="10.155607">
        <ele>680.4</ele>
        <time>2026-08-30T16:46:45Z</time>
      </trkpt>
      <trkpt lat="48.831691" lon="10.155638">
        <ele>680.4</ele>
        <time>2026-08-30T16:46:46Z</time>
      </trkpt>
      <trkpt lat="48.831667" lon="10.155655">
        <ele>680.4</ele>
        <time>2026-08-30T16:46:47Z</time>
      </trkpt>
      <trkpt lat="48.831642" lon="10.155674">
        <ele>680.4</ele>
        <time>2026-08-30T16:46:48Z</time>
      </trkpt>
      <trkpt lat="48.831621" lon="10.155691">
        <ele>680.4</ele>
        <time>2026-08-30T16:46:49Z</time>
      </trkpt>
      <trkpt lat="48.831599" lon="10.155698">
        <ele>680.4</ele>
        <time>2026-08-30T16:46:50Z</time>
      </trkpt>
      <trkpt lat="48.831576" lon="10.155698">
        <ele>680.4</ele>
        <time>2026-08-30T16:46:51Z</time>
      </trkpt>
      <trkpt lat="48.831549" lon="10.155703">
        <ele>680.4</ele>
        <time>2026-08-30T16:46:52Z</time>
      </trkpt>
      <trkpt lat="48.831526" lon="10.155726">
        <ele>680.2</ele>
        <time>2026-08-30T16:46:53Z</time>
      </trkpt>
      <trkpt lat="48.831504" lon="10.155745">
        <ele>680.2</ele>
        <time>2026-08-30T16:46:54Z</time>
      </trkpt>
      <trkpt lat="48.831481" lon="10.155769">
        <ele>680.2</ele>
        <time>2026-08-30T16:46:55Z</time>
      </trkpt>
      <trkpt lat="48.831458" lon="10.155791">
        <ele>680.2</ele>
        <time>2026-08-30T16:46:56Z</time>
      </trkpt>
      <trkpt lat="48.831434" lon="10.155819">
        <ele>680.2</ele>
        <time>2026-08-30T16:46:57Z</time>
      </trkpt>
      <trkpt lat="48.831422" lon="10.155855">
        <ele>680.2</ele>
        <time>2026-08-30T16:46:58Z</time>
      </trkpt>
      <trkpt lat="48.831414" lon="10.155883">
        <ele>680.2</ele>
        <time>2026-08-30T16:46:59Z</time>
      </trkpt>
      <trkpt lat="48.831409" lon="10.155914">
        <ele>680.4</ele>
        <time>2026-08-30T16:47:00Z</time>
      </trkpt>
      <trkpt lat="48.831404" lon="10.155946">
        <ele>680.4</ele>
        <time>2026-08-30T16:47:01Z</time>
      </trkpt>
      <trkpt lat="48.831394" lon="10.155976">
        <ele>680.4</ele>
        <time>2026-08-30T16:47:02Z</time>
      </trkpt>
      <trkpt lat="48.831388" lon="10.156018">
        <ele>680.6</ele>
        <time>2026-08-30T16:47:03Z</time>
      </trkpt>
      <trkpt lat="48.831391" lon="10.156056">
        <ele>680.6</ele>
        <time>2026-08-30T16:47:04Z</time>
      </trkpt>
      <trkpt lat="48.831403" lon="10.156090">
        <ele>680.6</ele>
        <time>2026-08-30T16:47:05Z</time>
      </trkpt>
      <trkpt lat="48.831420" lon="10.156114">
        <ele>680.8</ele>
        <time>2026-08-30T16:47:06Z</time>
      </trkpt>
      <trkpt lat="48.831441" lon="10.156129">
        <ele>680.8</ele>
        <time>2026-08-30T16:47:07Z</time>
      </trkpt>
      <trkpt lat="48.831454" lon="10.156142">
        <ele>680.8</ele>
        <time>2026-08-30T16:47:08Z</time>
      </trkpt>
      <trkpt lat="48.831462" lon="10.156156">
        <ele>681</ele>
        <time>2026-08-30T16:47:09Z</time>
      </trkpt>
      <trkpt lat="48.831467" lon="10.156169">
        <ele>681</ele>
        <time>2026-08-30T16:47:10Z</time>
      </trkpt>
      <trkpt lat="48.831470" lon="10.156184">
        <ele>681</ele>
        <time>2026-08-30T16:47:11Z</time>
      </trkpt>
      <trkpt lat="48.831471" lon="10.156200">
        <ele>681</ele>
        <time>2026-08-30T16:47:12Z</time>
      </trkpt>
      <trkpt lat="48.831469" lon="10.156205">
        <ele>681</ele>
        <time>2026-08-30T16:47:13Z</time>
      </trkpt>
      <trkpt lat="48.831469" lon="10.156205">
        <ele>681</ele>
        <time>2026-08-30T16:47:14Z</time>
      </trkpt>
      <trkpt lat="48.831469" lon="10.156205">
        <ele>681.2</ele>
        <time>2026-08-30T16:47:15Z</time>
      </trkpt>
      <trkpt lat="48.831469" lon="10.156205">
        <ele>681.2</ele>
        <time>2026-08-30T16:47:16Z</time>
      </trkpt>
      <trkpt lat="48.831469" lon="10.156205">
        <ele>681.2</ele>
        <time>2026-08-30T16:47:17Z</time>
      </trkpt>
      <trkpt lat="48.831469" lon="10.156205">
        <ele>681.2</ele>
        <time>2026-08-30T16:47:18Z</time>
      </trkpt>
      <trkpt lat="48.831469" lon="10.156205">
        <ele>681.2</ele>
        <time>2026-08-30T16:47:19Z</time>
      </trkpt>
      <trkpt lat="48.831469" lon="10.156205">
        <ele>681.2</ele>
        <time>2026-08-30T16:47:20Z</time>
      </trkpt>
      <trkpt lat="48.831469" lon="10.156205">
        <ele>681.2</ele>
        <time>2026-08-30T16:47:21Z</time>
      </trkpt>
      <trkpt lat="48.831469" lon="10.156205">
        <ele>681.2</ele>
        <time>2026-08-30T16:47:22Z</time>
      </trkpt>
      <trkpt lat="48.831469" lon="10.156205">
        <ele>681.4</ele>
        <time>2026-08-30T16:47:23Z</time>
      </trkpt>
      <trkpt lat="48.831469" lon="10.156205">
        <ele>681.4</ele>
        <time>2026-08-30T16:47:24Z</time>
      </trkpt>
      <trkpt lat="48.831469" lon="10.156205">
        <ele>681.4</ele>
        <time>2026-08-30T16:47:25Z</time>
      </trkpt>
      <trkpt lat="48.831469" lon="10.156205">
        <ele>681.4</ele>
        <time>2026-08-30T16:47:26Z</time>
      </trkpt>
      <trkpt lat="48.831469" lon="10.156205">
        <ele>681.4</ele>
        <time>2026-08-30T16:47:27Z</time>
      </trkpt>
      <trkpt lat="48.831469" lon="10.156205">
        <ele>681.4</ele>
        <time>2026-08-30T16:47:28Z</time>
      </trkpt>
      <trkpt lat="48.831469" lon="10.156205">
        <ele>681.4</ele>
        <time>2026-08-30T16:47:29Z</time>
      </trkpt>
      <trkpt lat="48.831469" lon="10.156205">
        <ele>681.4</ele>
        <time>2026-08-30T16:47:30Z</time>
      </trkpt>
      <trkpt lat="48.831469" lon="10.156205">
        <ele>681.4</ele>
        <time>2026-08-30T16:47:31Z</time>
      </trkpt>
      <trkpt lat="48.831469" lon="10.156205">
        <ele>681.4</ele>
        <time>2026-08-30T16:47:32Z</time>
      </trkpt>
      <trkpt lat="48.831469" lon="10.156205">
        <ele>681.4</ele>
        <time>2026-08-30T16:47:33Z</time>
      </trkpt>
      <trkpt lat="48.831469" lon="10.156205">
        <ele>681.2</ele>
        <time>2026-08-30T16:47:34Z</time>
      </trkpt>
      <trkpt lat="48.831469" lon="10.156205">
        <ele>681.2</ele>
        <time>2026-08-30T16:47:35Z</time>
      </trkpt>
      <trkpt lat="48.831469" lon="10.156205">
        <ele>681.2</ele>
        <time>2026-08-30T16:47:36Z</time>
      </trkpt>
      <trkpt lat="48.831469" lon="10.156205">
        <ele>681.2</ele>
        <time>2026-08-30T16:47:37Z</time>
      </trkpt>
      <trkpt lat="48.831469" lon="10.156205">
        <ele>681.2</ele>
        <time>2026-08-30T16:47:38Z</time>
      </trkpt>
      <trkpt lat="48.831469" lon="10.156205">
        <ele>681.2</ele>
        <time>2026-08-30T16:47:39Z</time>
      </trkpt>
      <trkpt lat="48.831469" lon="10.156205">
        <ele>681.2</ele>
        <time>2026-08-30T16:47:40Z</time>
      </trkpt>
      <trkpt lat="48.831469" lon="10.156205">
        <ele>681.4</ele>
        <time>2026-08-30T16:47:41Z</time>
      </trkpt>
      <trkpt lat="48.831469" lon="10.156205">
        <ele>681.2</ele>
        <time>2026-08-30T16:47:42Z</time>
      </trkpt>
      <trkpt lat="48.831469" lon="10.156205">
        <ele>681.2</ele>
        <time>2026-08-30T16:47:43Z</time>
      </trkpt>
      <trkpt lat="48.831469" lon="10.156205">
        <ele>681.2</ele>
        <time>2026-08-30T16:47:44Z</time>
      </trkpt>
      <trkpt lat="48.831469" lon="10.156205">
        <ele>681.2</ele>
        <time>2026-08-30T16:47:45Z</time>
      </trkpt>
      <trkpt lat="48.831469" lon="10.156205">
        <ele>681.2</ele>
        <time>2026-08-30T16:47:46Z</time>
      </trkpt>
      <trkpt lat="48.831469" lon="10.156205">
        <ele>681</ele>
        <time>2026-08-30T16:47:47Z</time>
      </trkpt>
      <trkpt lat="48.831469" lon="10.156205">
        <ele>681</ele>
        <time>2026-08-30T16:47:48Z</time>
      </trkpt>
      <trkpt lat="48.831469" lon="10.156205">
        <ele>681</ele>
        <time>2026-08-30T16:47:49Z</time>
      </trkpt>
      <trkpt lat="48.831469" lon="10.156205">
        <ele>681</ele>
        <time>2026-08-30T16:47:50Z</time>
      </trkpt>
      <trkpt lat="48.831469" lon="10.156205">
        <ele>681</ele>
        <time>2026-08-30T16:47:51Z</time>
      </trkpt>
      <trkpt lat="48.831469" lon="10.156205">
        <ele>681</ele>
        <time>2026-08-30T16:47:52Z</time>
      </trkpt>
      <trkpt lat="48.831469" lon="10.156205">
        <ele>681</ele>
        <time>2026-08-30T16:47:53Z</time>
      </trkpt>
      <trkpt lat="48.831469" lon="10.156205">
        <ele>681</ele>
        <time>2026-08-30T16:47:54Z</time>
      </trkpt>
      <trkpt lat="48.831469" lon="10.156205">
        <ele>681</ele>
        <time>2026-08-30T16:47:55Z</time>
      </trkpt>
      <trkpt lat="48.831469" lon="10.156205">
        <ele>681</ele>
        <time>2026-08-30T16:47:56Z</time>
      </trkpt>
      <trkpt lat="48.831469" lon="10.156205">
        <ele>681.2</ele>
        <time>2026-08-30T16:47:57Z</time>
      </trkpt>
      <trkpt lat="48.831470" lon="10.156206">
        <ele>681.2</ele>
        <time>2026-08-30T16:47:58Z</time>
      </trkpt>
      <trkpt lat="48.831477" lon="10.156225">
        <ele>681.2</ele>
        <time>2026-08-30T16:47:59Z</time>
      </trkpt>
      <trkpt lat="48.831484" lon="10.156247">
        <ele>681.2</ele>
        <time>2026-08-30T16:48:00Z</time>
      </trkpt>
      <trkpt lat="48.831498" lon="10.156261">
        <ele>681.2</ele>
        <time>2026-08-30T16:48:01Z</time>
      </trkpt>
      <trkpt lat="48.831521" lon="10.156279">
        <ele>681</ele>
        <time>2026-08-30T16:48:02Z</time>
      </trkpt>
      <trkpt lat="48.831537" lon="10.156303">
        <ele>681</ele>
        <time>2026-08-30T16:48:03Z</time>
      </trkpt>
      <trkpt lat="48.831545" lon="10.156337">
        <ele>681</ele>
        <time>2026-08-30T16:48:04Z</time>
      </trkpt>
      <trkpt lat="48.831547" lon="10.156374">
        <ele>681</ele>
        <time>2026-08-30T16:48:05Z</time>
      </trkpt>
      <trkpt lat="48.831546" lon="10.156413">
        <ele>681</ele>
        <time>2026-08-30T16:48:06Z</time>
      </trkpt>
      <trkpt lat="48.831533" lon="10.156454">
        <ele>681</ele>
        <time>2026-08-30T16:48:07Z</time>
      </trkpt>
      <trkpt lat="48.831518" lon="10.156493">
        <ele>681</ele>
        <time>2026-08-30T16:48:08Z</time>
      </trkpt>
      <trkpt lat="48.831499" lon="10.156532">
        <ele>681</ele>
        <time>2026-08-30T16:48:09Z</time>
      </trkpt>
      <trkpt lat="48.831473" lon="10.156561">
        <ele>681</ele>
        <time>2026-08-30T16:48:10Z</time>
      </trkpt>
      <trkpt lat="48.831443" lon="10.156576">
        <ele>681</ele>
        <time>2026-08-30T16:48:11Z</time>
      </trkpt>
      <trkpt lat="48.831408" lon="10.156595">
        <ele>681</ele>
        <time>2026-08-30T16:48:12Z</time>
      </trkpt>
      <trkpt lat="48.831373" lon="10.156621">
        <ele>681</ele>
        <time>2026-08-30T16:48:13Z</time>
      </trkpt>
      <trkpt lat="48.831347" lon="10.156665">
        <ele>681</ele>
        <time>2026-08-30T16:48:14Z</time>
      </trkpt>
      <trkpt lat="48.831328" lon="10.156712">
        <ele>680.8</ele>
        <time>2026-08-30T16:48:15Z</time>
      </trkpt>
      <trkpt lat="48.831307" lon="10.156765">
        <ele>680.8</ele>
        <time>2026-08-30T16:48:16Z</time>
      </trkpt>
      <trkpt lat="48.831285" lon="10.156823">
        <ele>680.6</ele>
        <time>2026-08-30T16:48:17Z</time>
      </trkpt>
      <trkpt lat="48.831266" lon="10.156890">
        <ele>680.4</ele>
        <time>2026-08-30T16:48:18Z</time>
      </trkpt>
      <trkpt lat="48.831244" lon="10.156956">
        <ele>680.4</ele>
        <time>2026-08-30T16:48:19Z</time>
      </trkpt>
      <trkpt lat="48.831223" lon="10.157024">
        <ele>680.2</ele>
        <time>2026-08-30T16:48:20Z</time>
      </trkpt>
      <trkpt lat="48.831204" lon="10.157095">
        <ele>680</ele>
        <time>2026-08-30T16:48:21Z</time>
      </trkpt>
      <trkpt lat="48.831182" lon="10.157167">
        <ele>679.8</ele>
        <time>2026-08-30T16:48:22Z</time>
      </trkpt>
      <trkpt lat="48.831161" lon="10.157243">
        <ele>679.8</ele>
        <time>2026-08-30T16:48:23Z</time>
      </trkpt>
      <trkpt lat="48.831141" lon="10.157321">
        <ele>679.6</ele>
        <time>2026-08-30T16:48:24Z</time>
      </trkpt>
      <trkpt lat="48.831126" lon="10.157392">
        <ele>679.6</ele>
        <time>2026-08-30T16:48:25Z</time>
      </trkpt>
      <trkpt lat="48.831112" lon="10.157467">
        <ele>679.4</ele>
        <time>2026-08-30T16:48:26Z</time>
      </trkpt>
      <trkpt lat="48.831099" lon="10.157547">
        <ele>679.4</ele>
        <time>2026-08-30T16:48:27Z</time>
      </trkpt>
      <trkpt lat="48.831085" lon="10.157633">
        <ele>679.4</ele>
        <time>2026-08-30T16:48:28Z</time>
      </trkpt>
      <trkpt lat="48.831070" lon="10.157711">
        <ele>679.2</ele>
        <time>2026-08-30T16:48:29Z</time>
      </trkpt>
      <trkpt lat="48.831051" lon="10.157789">
        <ele>679</ele>
        <time>2026-08-30T16:48:30Z</time>
      </trkpt>
      <trkpt lat="48.831029" lon="10.157860">
        <ele>679</ele>
        <time>2026-08-30T16:48:31Z</time>
      </trkpt>
      <trkpt lat="48.831006" lon="10.157945">
        <ele>678.8</ele>
        <time>2026-08-30T16:48:32Z</time>
      </trkpt>
      <trkpt lat="48.830986" lon="10.158026">
        <ele>678.6</ele>
        <time>2026-08-30T16:48:33Z</time>
      </trkpt>
      <trkpt lat="48.830973" lon="10.158101">
        <ele>678.4</ele>
        <time>2026-08-30T16:48:34Z</time>
      </trkpt>
      <trkpt lat="48.830956" lon="10.158178">
        <ele>678.2</ele>
        <time>2026-08-30T16:48:35Z</time>
      </trkpt>
      <trkpt lat="48.830942" lon="10.158258">
        <ele>678</ele>
        <time>2026-08-30T16:48:36Z</time>
      </trkpt>
      <trkpt lat="48.830928" lon="10.158332">
        <ele>677.8</ele>
        <time>2026-08-30T16:48:37Z</time>
      </trkpt>
      <trkpt lat="48.830911" lon="10.158418">
        <ele>677.6</ele>
        <time>2026-08-30T16:48:38Z</time>
      </trkpt>
      <trkpt lat="48.830890" lon="10.158502">
        <ele>677.4</ele>
        <time>2026-08-30T16:48:39Z</time>
      </trkpt>
      <trkpt lat="48.830869" lon="10.158596">
        <ele>677.4</ele>
        <time>2026-08-30T16:48:40Z</time>
      </trkpt>
      <trkpt lat="48.830852" lon="10.158680">
        <ele>677</ele>
        <time>2026-08-30T16:48:41Z</time>
      </trkpt>
      <trkpt lat="48.830838" lon="10.158762">
        <ele>676.8</ele>
        <time>2026-08-30T16:48:42Z</time>
      </trkpt>
      <trkpt lat="48.830825" lon="10.158843">
        <ele>676.8</ele>
        <time>2026-08-30T16:48:43Z</time>
      </trkpt>
      <trkpt lat="48.830809" lon="10.158916">
        <ele>676.6</ele>
        <time>2026-08-30T16:48:44Z</time>
      </trkpt>
      <trkpt lat="48.830800" lon="10.158995">
        <ele>676.4</ele>
        <time>2026-08-30T16:48:45Z</time>
      </trkpt>
      <trkpt lat="48.830787" lon="10.159078">
        <ele>676.2</ele>
        <time>2026-08-30T16:48:46Z</time>
      </trkpt>
      <trkpt lat="48.830776" lon="10.159156">
        <ele>676</ele>
        <time>2026-08-30T16:48:47Z</time>
      </trkpt>
      <trkpt lat="48.830765" lon="10.159238">
        <ele>675.8</ele>
        <time>2026-08-30T16:48:48Z</time>
      </trkpt>
      <trkpt lat="48.830750" lon="10.159314">
        <ele>675.6</ele>
        <time>2026-08-30T16:48:49Z</time>
      </trkpt>
      <trkpt lat="48.830732" lon="10.159404">
        <ele>675.6</ele>
        <time>2026-08-30T16:48:50Z</time>
      </trkpt>
      <trkpt lat="48.830713" lon="10.159486">
        <ele>675.4</ele>
        <time>2026-08-30T16:48:51Z</time>
      </trkpt>
      <trkpt lat="48.830685" lon="10.159568">
        <ele>675.2</ele>
        <time>2026-08-30T16:48:52Z</time>
      </trkpt>
      <trkpt lat="48.830648" lon="10.159629">
        <ele>675</ele>
        <time>2026-08-30T16:48:53Z</time>
      </trkpt>
      <trkpt lat="48.830610" lon="10.159683">
        <ele>674.8</ele>
        <time>2026-08-30T16:48:54Z</time>
      </trkpt>
      <trkpt lat="48.830571" lon="10.159737">
        <ele>674.6</ele>
        <time>2026-08-30T16:48:55Z</time>
      </trkpt>
      <trkpt lat="48.830538" lon="10.159796">
        <ele>674.6</ele>
        <time>2026-08-30T16:48:56Z</time>
      </trkpt>
      <trkpt lat="48.830517" lon="10.159864">
        <ele>674.4</ele>
        <time>2026-08-30T16:48:57Z</time>
      </trkpt>
      <trkpt lat="48.830499" lon="10.159933">
        <ele>674.2</ele>
        <time>2026-08-30T16:48:58Z</time>
      </trkpt>
      <trkpt lat="48.830483" lon="10.160004">
        <ele>674.2</ele>
        <time>2026-08-30T16:48:59Z</time>
      </trkpt>
      <trkpt lat="48.830464" lon="10.160071">
        <ele>674.2</ele>
        <time>2026-08-30T16:49:00Z</time>
      </trkpt>
      <trkpt lat="48.830447" lon="10.160142">
        <ele>674</ele>
        <time>2026-08-30T16:49:01Z</time>
      </trkpt>
      <trkpt lat="48.830431" lon="10.160215">
        <ele>673.8</ele>
        <time>2026-08-30T16:49:02Z</time>
      </trkpt>
      <trkpt lat="48.830416" lon="10.160292">
        <ele>673.8</ele>
        <time>2026-08-30T16:49:03Z</time>
      </trkpt>
      <trkpt lat="48.830401" lon="10.160369">
        <ele>673.8</ele>
        <time>2026-08-30T16:49:04Z</time>
      </trkpt>
      <trkpt lat="48.830377" lon="10.160432">
        <ele>673.8</ele>
        <time>2026-08-30T16:49:05Z</time>
      </trkpt>
      <trkpt lat="48.830346" lon="10.160484">
        <ele>673.6</ele>
        <time>2026-08-30T16:49:06Z</time>
      </trkpt>
      <trkpt lat="48.830316" lon="10.160545">
        <ele>673.6</ele>
        <time>2026-08-30T16:49:07Z</time>
      </trkpt>
      <trkpt lat="48.830290" lon="10.160607">
        <ele>673.4</ele>
        <time>2026-08-30T16:49:08Z</time>
      </trkpt>
      <trkpt lat="48.830268" lon="10.160675">
        <ele>673.4</ele>
        <time>2026-08-30T16:49:09Z</time>
      </trkpt>
      <trkpt lat="48.830248" lon="10.160749">
        <ele>673.4</ele>
        <time>2026-08-30T16:49:10Z</time>
      </trkpt>
      <trkpt lat="48.830233" lon="10.160824">
        <ele>673.2</ele>
        <time>2026-08-30T16:49:11Z</time>
      </trkpt>
      <trkpt lat="48.830216" lon="10.160899">
        <ele>673.2</ele>
        <time>2026-08-30T16:49:12Z</time>
      </trkpt>
      <trkpt lat="48.830200" lon="10.160974">
        <ele>673.2</ele>
        <time>2026-08-30T16:49:13Z</time>
      </trkpt>
      <trkpt lat="48.830174" lon="10.161045">
        <ele>673</ele>
        <time>2026-08-30T16:49:14Z</time>
      </trkpt>
      <trkpt lat="48.830141" lon="10.161110">
        <ele>673</ele>
        <time>2026-08-30T16:49:15Z</time>
      </trkpt>
      <trkpt lat="48.830108" lon="10.161176">
        <ele>672.8</ele>
        <time>2026-08-30T16:49:16Z</time>
      </trkpt>
      <trkpt lat="48.830077" lon="10.161244">
        <ele>672.8</ele>
        <time>2026-08-30T16:49:17Z</time>
      </trkpt>
      <trkpt lat="48.830049" lon="10.161318">
        <ele>672.6</ele>
        <time>2026-08-30T16:49:18Z</time>
      </trkpt>
      <trkpt lat="48.830024" lon="10.161399">
        <ele>672.6</ele>
        <time>2026-08-30T16:49:19Z</time>
      </trkpt>
      <trkpt lat="48.830004" lon="10.161482">
        <ele>672.4</ele>
        <time>2026-08-30T16:49:20Z</time>
      </trkpt>
      <trkpt lat="48.829986" lon="10.161563">
        <ele>672.4</ele>
        <time>2026-08-30T16:49:21Z</time>
      </trkpt>
      <trkpt lat="48.829967" lon="10.161642">
        <ele>672.2</ele>
        <time>2026-08-30T16:49:22Z</time>
      </trkpt>
      <trkpt lat="48.829943" lon="10.161715">
        <ele>672.2</ele>
        <time>2026-08-30T16:49:23Z</time>
      </trkpt>
      <trkpt lat="48.829919" lon="10.161786">
        <ele>672.2</ele>
        <time>2026-08-30T16:49:24Z</time>
      </trkpt>
      <trkpt lat="48.829901" lon="10.161858">
        <ele>672</ele>
        <time>2026-08-30T16:49:25Z</time>
      </trkpt>
      <trkpt lat="48.829889" lon="10.161935">
        <ele>672</ele>
        <time>2026-08-30T16:49:26Z</time>
      </trkpt>
      <trkpt lat="48.829872" lon="10.162009">
        <ele>672</ele>
        <time>2026-08-30T16:49:27Z</time>
      </trkpt>
      <trkpt lat="48.829854" lon="10.162085">
        <ele>672.2</ele>
        <time>2026-08-30T16:49:28Z</time>
      </trkpt>
      <trkpt lat="48.829836" lon="10.162159">
        <ele>672.2</ele>
        <time>2026-08-30T16:49:29Z</time>
      </trkpt>
      <trkpt lat="48.829822" lon="10.162232">
        <ele>672.2</ele>
        <time>2026-08-30T16:49:30Z</time>
      </trkpt>
      <trkpt lat="48.829806" lon="10.162305">
        <ele>672.2</ele>
        <time>2026-08-30T16:49:31Z</time>
      </trkpt>
      <trkpt lat="48.829790" lon="10.162376">
        <ele>672.2</ele>
        <time>2026-08-30T16:49:32Z</time>
      </trkpt>
      <trkpt lat="48.829773" lon="10.162447">
        <ele>672.4</ele>
        <time>2026-08-30T16:49:33Z</time>
      </trkpt>
      <trkpt lat="48.829757" lon="10.162515">
        <ele>672.4</ele>
        <time>2026-08-30T16:49:34Z</time>
      </trkpt>
      <trkpt lat="48.829744" lon="10.162583">
        <ele>672.4</ele>
        <time>2026-08-30T16:49:35Z</time>
      </trkpt>
      <trkpt lat="48.829730" lon="10.162650">
        <ele>672.4</ele>
        <time>2026-08-30T16:49:36Z</time>
      </trkpt>
      <trkpt lat="48.829714" lon="10.162720">
        <ele>672.4</ele>
        <time>2026-08-30T16:49:37Z</time>
      </trkpt>
      <trkpt lat="48.829696" lon="10.162790">
        <ele>672.6</ele>
        <time>2026-08-30T16:49:38Z</time>
      </trkpt>
      <trkpt lat="48.829680" lon="10.162859">
        <ele>672.6</ele>
        <time>2026-08-30T16:49:39Z</time>
      </trkpt>
      <trkpt lat="48.829666" lon="10.162931">
        <ele>672.6</ele>
        <time>2026-08-30T16:49:40Z</time>
      </trkpt>
      <trkpt lat="48.829649" lon="10.163002">
        <ele>672.6</ele>
        <time>2026-08-30T16:49:41Z</time>
      </trkpt>
      <trkpt lat="48.829633" lon="10.163072">
        <ele>672.6</ele>
        <time>2026-08-30T16:49:42Z</time>
      </trkpt>
      <trkpt lat="48.829616" lon="10.163143">
        <ele>672.8</ele>
        <time>2026-08-30T16:49:43Z</time>
      </trkpt>
      <trkpt lat="48.829601" lon="10.163214">
        <ele>672.8</ele>
        <time>2026-08-30T16:49:44Z</time>
      </trkpt>
      <trkpt lat="48.829588" lon="10.163281">
        <ele>672.8</ele>
        <time>2026-08-30T16:49:45Z</time>
      </trkpt>
      <trkpt lat="48.829573" lon="10.163343">
        <ele>673</ele>
        <time>2026-08-30T16:49:46Z</time>
      </trkpt>
      <trkpt lat="48.829556" lon="10.163404">
        <ele>673</ele>
        <time>2026-08-30T16:49:47Z</time>
      </trkpt>
      <trkpt lat="48.829540" lon="10.163468">
        <ele>673</ele>
        <time>2026-08-30T16:49:48Z</time>
      </trkpt>
      <trkpt lat="48.829524" lon="10.163534">
        <ele>673</ele>
        <time>2026-08-30T16:49:49Z</time>
      </trkpt>
      <trkpt lat="48.829510" lon="10.163599">
        <ele>673.2</ele>
        <time>2026-08-30T16:49:50Z</time>
      </trkpt>
      <trkpt lat="48.829495" lon="10.163664">
        <ele>673.2</ele>
        <time>2026-08-30T16:49:51Z</time>
      </trkpt>
      <trkpt lat="48.829480" lon="10.163729">
        <ele>673.2</ele>
        <time>2026-08-30T16:49:52Z</time>
      </trkpt>
      <trkpt lat="48.829467" lon="10.163794">
        <ele>673.4</ele>
        <time>2026-08-30T16:49:53Z</time>
      </trkpt>
      <trkpt lat="48.829452" lon="10.163862">
        <ele>673.4</ele>
        <time>2026-08-30T16:49:54Z</time>
      </trkpt>
      <trkpt lat="48.829436" lon="10.163929">
        <ele>673.4</ele>
        <time>2026-08-30T16:49:55Z</time>
      </trkpt>
      <trkpt lat="48.829421" lon="10.163996">
        <ele>673.6</ele>
        <time>2026-08-30T16:49:56Z</time>
      </trkpt>
      <trkpt lat="48.829406" lon="10.164065">
        <ele>673.6</ele>
        <time>2026-08-30T16:49:57Z</time>
      </trkpt>
      <trkpt lat="48.829392" lon="10.164134">
        <ele>673.6</ele>
        <time>2026-08-30T16:49:58Z</time>
      </trkpt>
      <trkpt lat="48.829375" lon="10.164199">
        <ele>673.6</ele>
        <time>2026-08-30T16:49:59Z</time>
      </trkpt>
      <trkpt lat="48.829360" lon="10.164269">
        <ele>673.8</ele>
        <time>2026-08-30T16:50:00Z</time>
      </trkpt>
      <trkpt lat="48.829345" lon="10.164337">
        <ele>673.8</ele>
        <time>2026-08-30T16:50:01Z</time>
      </trkpt>
      <trkpt lat="48.829332" lon="10.164408">
        <ele>673.8</ele>
        <time>2026-08-30T16:50:02Z</time>
      </trkpt>
      <trkpt lat="48.829319" lon="10.164478">
        <ele>673.8</ele>
        <time>2026-08-30T16:50:03Z</time>
      </trkpt>
      <trkpt lat="48.829303" lon="10.164545">
        <ele>673.8</ele>
        <time>2026-08-30T16:50:04Z</time>
      </trkpt>
      <trkpt lat="48.829286" lon="10.164610">
        <ele>674</ele>
        <time>2026-08-30T16:50:05Z</time>
      </trkpt>
      <trkpt lat="48.829265" lon="10.164674">
        <ele>674</ele>
        <time>2026-08-30T16:50:06Z</time>
      </trkpt>
      <trkpt lat="48.829237" lon="10.164734">
        <ele>674</ele>
        <time>2026-08-30T16:50:07Z</time>
      </trkpt>
      <trkpt lat="48.829205" lon="10.164791">
        <ele>674</ele>
        <time>2026-08-30T16:50:08Z</time>
      </trkpt>
      <trkpt lat="48.829171" lon="10.164841">
        <ele>674</ele>
        <time>2026-08-30T16:50:09Z</time>
      </trkpt>
      <trkpt lat="48.829139" lon="10.164891">
        <ele>674</ele>
        <time>2026-08-30T16:50:10Z</time>
      </trkpt>
      <trkpt lat="48.829109" lon="10.164947">
        <ele>674</ele>
        <time>2026-08-30T16:50:11Z</time>
      </trkpt>
      <trkpt lat="48.829079" lon="10.165007">
        <ele>674</ele>
        <time>2026-08-30T16:50:12Z</time>
      </trkpt>
      <trkpt lat="48.829055" lon="10.165060">
        <ele>674</ele>
        <time>2026-08-30T16:50:13Z</time>
      </trkpt>
      <trkpt lat="48.829035" lon="10.165121">
        <ele>674.2</ele>
        <time>2026-08-30T16:50:14Z</time>
      </trkpt>
      <trkpt lat="48.829020" lon="10.165186">
        <ele>674.2</ele>
        <time>2026-08-30T16:50:15Z</time>
      </trkpt>
      <trkpt lat="48.829012" lon="10.165253">
        <ele>674.4</ele>
        <time>2026-08-30T16:50:16Z</time>
      </trkpt>
      <trkpt lat="48.829001" lon="10.165323">
        <ele>674.4</ele>
        <time>2026-08-30T16:50:17Z</time>
      </trkpt>
      <trkpt lat="48.828989" lon="10.165393">
        <ele>674.4</ele>
        <time>2026-08-30T16:50:18Z</time>
      </trkpt>
      <trkpt lat="48.828979" lon="10.165464">
        <ele>674.4</ele>
        <time>2026-08-30T16:50:19Z</time>
      </trkpt>
      <trkpt lat="48.828964" lon="10.165537">
        <ele>674.4</ele>
        <time>2026-08-30T16:50:20Z</time>
      </trkpt>
      <trkpt lat="48.828956" lon="10.165612">
        <ele>674.2</ele>
        <time>2026-08-30T16:50:21Z</time>
      </trkpt>
      <trkpt lat="48.828949" lon="10.165685">
        <ele>674.2</ele>
        <time>2026-08-30T16:50:22Z</time>
      </trkpt>
      <trkpt lat="48.828941" lon="10.165761">
        <ele>674.2</ele>
        <time>2026-08-30T16:50:23Z</time>
      </trkpt>
      <trkpt lat="48.828933" lon="10.165838">
        <ele>674</ele>
        <time>2026-08-30T16:50:24Z</time>
      </trkpt>
      <trkpt lat="48.828923" lon="10.165918">
        <ele>674</ele>
        <time>2026-08-30T16:50:25Z</time>
      </trkpt>
      <trkpt lat="48.828908" lon="10.165998">
        <ele>673.8</ele>
        <time>2026-08-30T16:50:26Z</time>
      </trkpt>
      <trkpt lat="48.828890" lon="10.166076">
        <ele>673.6</ele>
        <time>2026-08-30T16:50:27Z</time>
      </trkpt>
      <trkpt lat="48.828866" lon="10.166153">
        <ele>673.4</ele>
        <time>2026-08-30T16:50:28Z</time>
      </trkpt>
      <trkpt lat="48.828841" lon="10.166234">
        <ele>673.4</ele>
        <time>2026-08-30T16:50:29Z</time>
      </trkpt>
      <trkpt lat="48.828815" lon="10.166310">
        <ele>673</ele>
        <time>2026-08-30T16:50:30Z</time>
      </trkpt>
      <trkpt lat="48.828787" lon="10.166387">
        <ele>672.8</ele>
        <time>2026-08-30T16:50:31Z</time>
      </trkpt>
      <trkpt lat="48.828757" lon="10.166463">
        <ele>672.6</ele>
        <time>2026-08-30T16:50:32Z</time>
      </trkpt>
      <trkpt lat="48.828727" lon="10.166546">
        <ele>672.4</ele>
        <time>2026-08-30T16:50:33Z</time>
      </trkpt>
      <trkpt lat="48.828698" lon="10.166630">
        <ele>672.2</ele>
        <time>2026-08-30T16:50:34Z</time>
      </trkpt>
      <trkpt lat="48.828676" lon="10.166723">
        <ele>672</ele>
        <time>2026-08-30T16:50:35Z</time>
      </trkpt>
      <trkpt lat="48.828656" lon="10.166820">
        <ele>671.8</ele>
        <time>2026-08-30T16:50:36Z</time>
      </trkpt>
      <trkpt lat="48.828642" lon="10.166931">
        <ele>671.4</ele>
        <time>2026-08-30T16:50:37Z</time>
      </trkpt>
      <trkpt lat="48.828633" lon="10.167049">
        <ele>671</ele>
        <time>2026-08-30T16:50:38Z</time>
      </trkpt>
      <trkpt lat="48.828626" lon="10.167176">
        <ele>670.6</ele>
        <time>2026-08-30T16:50:39Z</time>
      </trkpt>
      <trkpt lat="48.828616" lon="10.167312">
        <ele>670</ele>
        <time>2026-08-30T16:50:40Z</time>
      </trkpt>
      <trkpt lat="48.828604" lon="10.167455">
        <ele>669.4</ele>
        <time>2026-08-30T16:50:41Z</time>
      </trkpt>
      <trkpt lat="48.828586" lon="10.167609">
        <ele>668.6</ele>
        <time>2026-08-30T16:50:42Z</time>
      </trkpt>
      <trkpt lat="48.828565" lon="10.167772">
        <ele>667.8</ele>
        <time>2026-08-30T16:50:43Z</time>
      </trkpt>
      <trkpt lat="48.828538" lon="10.167936">
        <ele>667</ele>
        <time>2026-08-30T16:50:44Z</time>
      </trkpt>
      <trkpt lat="48.828510" lon="10.168106">
        <ele>665.6</ele>
        <time>2026-08-30T16:50:45Z</time>
      </trkpt>
      <trkpt lat="48.828480" lon="10.168279">
        <ele>664.6</ele>
        <time>2026-08-30T16:50:46Z</time>
      </trkpt>
      <trkpt lat="48.828449" lon="10.168452">
        <ele>663.6</ele>
        <time>2026-08-30T16:50:47Z</time>
      </trkpt>
      <trkpt lat="48.828415" lon="10.168624">
        <ele>662.4</ele>
        <time>2026-08-30T16:50:48Z</time>
      </trkpt>
      <trkpt lat="48.828377" lon="10.168793">
        <ele>661.2</ele>
        <time>2026-08-30T16:50:49Z</time>
      </trkpt>
      <trkpt lat="48.828339" lon="10.168960">
        <ele>660</ele>
        <time>2026-08-30T16:50:50Z</time>
      </trkpt>
      <trkpt lat="48.828302" lon="10.169121">
        <ele>659</ele>
        <time>2026-08-30T16:50:51Z</time>
      </trkpt>
      <trkpt lat="48.828266" lon="10.169280">
        <ele>658.2</ele>
        <time>2026-08-30T16:50:52Z</time>
      </trkpt>
      <trkpt lat="48.828230" lon="10.169435">
        <ele>657.6</ele>
        <time>2026-08-30T16:50:53Z</time>
      </trkpt>
      <trkpt lat="48.828194" lon="10.169584">
        <ele>656.8</ele>
        <time>2026-08-30T16:50:54Z</time>
      </trkpt>
      <trkpt lat="48.828161" lon="10.169732">
        <ele>656.2</ele>
        <time>2026-08-30T16:50:55Z</time>
      </trkpt>
      <trkpt lat="48.828129" lon="10.169882">
        <ele>655.8</ele>
        <time>2026-08-30T16:50:56Z</time>
      </trkpt>
      <trkpt lat="48.828098" lon="10.170026">
        <ele>655.2</ele>
        <time>2026-08-30T16:50:57Z</time>
      </trkpt>
      <trkpt lat="48.828067" lon="10.170170">
        <ele>654.8</ele>
        <time>2026-08-30T16:50:58Z</time>
      </trkpt>
      <trkpt lat="48.828036" lon="10.170310">
        <ele>654.4</ele>
        <time>2026-08-30T16:50:59Z</time>
      </trkpt>
      <trkpt lat="48.828004" lon="10.170449">
        <ele>654</ele>
        <time>2026-08-30T16:51:00Z</time>
      </trkpt>
      <trkpt lat="48.827972" lon="10.170583">
        <ele>653.6</ele>
        <time>2026-08-30T16:51:01Z</time>
      </trkpt>
      <trkpt lat="48.827940" lon="10.170714">
        <ele>653.4</ele>
        <time>2026-08-30T16:51:02Z</time>
      </trkpt>
      <trkpt lat="48.827906" lon="10.170842">
        <ele>653.2</ele>
        <time>2026-08-30T16:51:03Z</time>
      </trkpt>
      <trkpt lat="48.827872" lon="10.170966">
        <ele>652.8</ele>
        <time>2026-08-30T16:51:04Z</time>
      </trkpt>
      <trkpt lat="48.827839" lon="10.171088">
        <ele>652.6</ele>
        <time>2026-08-30T16:51:05Z</time>
      </trkpt>
      <trkpt lat="48.827810" lon="10.171208">
        <ele>652.4</ele>
        <time>2026-08-30T16:51:06Z</time>
      </trkpt>
      <trkpt lat="48.827780" lon="10.171325">
        <ele>652.4</ele>
        <time>2026-08-30T16:51:07Z</time>
      </trkpt>
      <trkpt lat="48.827751" lon="10.171436">
        <ele>652.2</ele>
        <time>2026-08-30T16:51:08Z</time>
      </trkpt>
      <trkpt lat="48.827724" lon="10.171546">
        <ele>652</ele>
        <time>2026-08-30T16:51:09Z</time>
      </trkpt>
      <trkpt lat="48.827700" lon="10.171655">
        <ele>652</ele>
        <time>2026-08-30T16:51:10Z</time>
      </trkpt>
      <trkpt lat="48.827678" lon="10.171763">
        <ele>652</ele>
        <time>2026-08-30T16:51:11Z</time>
      </trkpt>
      <trkpt lat="48.827655" lon="10.171868">
        <ele>651.8</ele>
        <time>2026-08-30T16:51:12Z</time>
      </trkpt>
      <trkpt lat="48.827631" lon="10.171969">
        <ele>651.8</ele>
        <time>2026-08-30T16:51:13Z</time>
      </trkpt>
      <trkpt lat="48.827608" lon="10.172072">
        <ele>651.6</ele>
        <time>2026-08-30T16:51:14Z</time>
      </trkpt>
      <trkpt lat="48.827584" lon="10.172176">
        <ele>651.6</ele>
        <time>2026-08-30T16:51:15Z</time>
      </trkpt>
      <trkpt lat="48.827560" lon="10.172274">
        <ele>651.4</ele>
        <time>2026-08-30T16:51:16Z</time>
      </trkpt>
      <trkpt lat="48.827535" lon="10.172371">
        <ele>651.2</ele>
        <time>2026-08-30T16:51:17Z</time>
      </trkpt>
      <trkpt lat="48.827512" lon="10.172471">
        <ele>651.2</ele>
        <time>2026-08-30T16:51:18Z</time>
      </trkpt>
      <trkpt lat="48.827487" lon="10.172574">
        <ele>650.8</ele>
        <time>2026-08-30T16:51:19Z</time>
      </trkpt>
      <trkpt lat="48.827460" lon="10.172675">
        <ele>650.6</ele>
        <time>2026-08-30T16:51:20Z</time>
      </trkpt>
      <trkpt lat="48.827434" lon="10.172785">
        <ele>650.4</ele>
        <time>2026-08-30T16:51:21Z</time>
      </trkpt>
      <trkpt lat="48.827405" lon="10.172895">
        <ele>650.2</ele>
        <time>2026-08-30T16:51:22Z</time>
      </trkpt>
      <trkpt lat="48.827374" lon="10.173000">
        <ele>650</ele>
        <time>2026-08-30T16:51:23Z</time>
      </trkpt>
      <trkpt lat="48.827341" lon="10.173105">
        <ele>649.8</ele>
        <time>2026-08-30T16:51:24Z</time>
      </trkpt>
      <trkpt lat="48.827306" lon="10.173210">
        <ele>649.4</ele>
        <time>2026-08-30T16:51:25Z</time>
      </trkpt>
      <trkpt lat="48.827269" lon="10.173309">
        <ele>649.2</ele>
        <time>2026-08-30T16:51:26Z</time>
      </trkpt>
      <trkpt lat="48.827232" lon="10.173406">
        <ele>649</ele>
        <time>2026-08-30T16:51:27Z</time>
      </trkpt>
      <trkpt lat="48.827195" lon="10.173501">
        <ele>648.8</ele>
        <time>2026-08-30T16:51:28Z</time>
      </trkpt>
      <trkpt lat="48.827153" lon="10.173593">
        <ele>648.4</ele>
        <time>2026-08-30T16:51:29Z</time>
      </trkpt>
      <trkpt lat="48.827108" lon="10.173682">
        <ele>648.2</ele>
        <time>2026-08-30T16:51:30Z</time>
      </trkpt>
      <trkpt lat="48.827061" lon="10.173771">
        <ele>647.8</ele>
        <time>2026-08-30T16:51:31Z</time>
      </trkpt>
      <trkpt lat="48.827012" lon="10.173861">
        <ele>647.6</ele>
        <time>2026-08-30T16:51:32Z</time>
      </trkpt>
      <trkpt lat="48.826963" lon="10.173951">
        <ele>647.4</ele>
        <time>2026-08-30T16:51:33Z</time>
      </trkpt>
      <trkpt lat="48.826912" lon="10.174044">
        <ele>647</ele>
        <time>2026-08-30T16:51:34Z</time>
      </trkpt>
      <trkpt lat="48.826861" lon="10.174134">
        <ele>646.6</ele>
        <time>2026-08-30T16:51:35Z</time>
      </trkpt>
      <trkpt lat="48.826809" lon="10.174227">
        <ele>646.2</ele>
        <time>2026-08-30T16:51:36Z</time>
      </trkpt>
      <trkpt lat="48.826756" lon="10.174322">
        <ele>645.8</ele>
        <time>2026-08-30T16:51:37Z</time>
      </trkpt>
      <trkpt lat="48.826701" lon="10.174419">
        <ele>645.4</ele>
        <time>2026-08-30T16:51:38Z</time>
      </trkpt>
      <trkpt lat="48.826644" lon="10.174522">
        <ele>645</ele>
        <time>2026-08-30T16:51:39Z</time>
      </trkpt>
      <trkpt lat="48.826584" lon="10.174622">
        <ele>644.4</ele>
        <time>2026-08-30T16:51:40Z</time>
      </trkpt>
      <trkpt lat="48.826522" lon="10.174724">
        <ele>644</ele>
        <time>2026-08-30T16:51:41Z</time>
      </trkpt>
      <trkpt lat="48.826460" lon="10.174827">
        <ele>643.6</ele>
        <time>2026-08-30T16:51:42Z</time>
      </trkpt>
      <trkpt lat="48.826400" lon="10.174927">
        <ele>643.2</ele>
        <time>2026-08-30T16:51:43Z</time>
      </trkpt>
      <trkpt lat="48.826338" lon="10.175025">
        <ele>642.4</ele>
        <time>2026-08-30T16:51:44Z</time>
      </trkpt>
      <trkpt lat="48.826277" lon="10.175123">
        <ele>642</ele>
        <time>2026-08-30T16:51:45Z</time>
      </trkpt>
      <trkpt lat="48.826219" lon="10.175226">
        <ele>641.6</ele>
        <time>2026-08-30T16:51:46Z</time>
      </trkpt>
      <trkpt lat="48.826163" lon="10.175332">
        <ele>641</ele>
        <time>2026-08-30T16:51:47Z</time>
      </trkpt>
      <trkpt lat="48.826110" lon="10.175442">
        <ele>640.6</ele>
        <time>2026-08-30T16:51:48Z</time>
      </trkpt>
      <trkpt lat="48.826062" lon="10.175552">
        <ele>640</ele>
        <time>2026-08-30T16:51:49Z</time>
      </trkpt>
      <trkpt lat="48.826017" lon="10.175659">
        <ele>639.6</ele>
        <time>2026-08-30T16:51:50Z</time>
      </trkpt>
      <trkpt lat="48.825977" lon="10.175768">
        <ele>639.4</ele>
        <time>2026-08-30T16:51:51Z</time>
      </trkpt>
      <trkpt lat="48.825938" lon="10.175879">
        <ele>639</ele>
        <time>2026-08-30T16:51:52Z</time>
      </trkpt>
      <trkpt lat="48.825899" lon="10.175989">
        <ele>638.6</ele>
        <time>2026-08-30T16:51:53Z</time>
      </trkpt>
      <trkpt lat="48.825857" lon="10.176093">
        <ele>638.4</ele>
        <time>2026-08-30T16:51:54Z</time>
      </trkpt>
      <trkpt lat="48.825813" lon="10.176192">
        <ele>638.2</ele>
        <time>2026-08-30T16:51:55Z</time>
      </trkpt>
      <trkpt lat="48.825767" lon="10.176297">
        <ele>638</ele>
        <time>2026-08-30T16:51:56Z</time>
      </trkpt>
      <trkpt lat="48.825721" lon="10.176396">
        <ele>637.8</ele>
        <time>2026-08-30T16:51:57Z</time>
      </trkpt>
      <trkpt lat="48.825674" lon="10.176494">
        <ele>637.6</ele>
        <time>2026-08-30T16:51:58Z</time>
      </trkpt>
      <trkpt lat="48.825631" lon="10.176591">
        <ele>637.4</ele>
        <time>2026-08-30T16:51:59Z</time>
      </trkpt>
      <trkpt lat="48.825588" lon="10.176690">
        <ele>637.2</ele>
        <time>2026-08-30T16:52:00Z</time>
      </trkpt>
      <trkpt lat="48.825546" lon="10.176789">
        <ele>637</ele>
        <time>2026-08-30T16:52:01Z</time>
      </trkpt>
      <trkpt lat="48.825513" lon="10.176886">
        <ele>637</ele>
        <time>2026-08-30T16:52:02Z</time>
      </trkpt>
      <trkpt lat="48.825486" lon="10.176994">
        <ele>636.6</ele>
        <time>2026-08-30T16:52:03Z</time>
      </trkpt>
      <trkpt lat="48.825465" lon="10.177102">
        <ele>636.4</ele>
        <time>2026-08-30T16:52:04Z</time>
      </trkpt>
      <trkpt lat="48.825450" lon="10.177213">
        <ele>636.2</ele>
        <time>2026-08-30T16:52:05Z</time>
      </trkpt>
      <trkpt lat="48.825439" lon="10.177321">
        <ele>636.2</ele>
        <time>2026-08-30T16:52:06Z</time>
      </trkpt>
      <trkpt lat="48.825430" lon="10.177428">
        <ele>636</ele>
        <time>2026-08-30T16:52:07Z</time>
      </trkpt>
      <trkpt lat="48.825425" lon="10.177541">
        <ele>635.8</ele>
        <time>2026-08-30T16:52:08Z</time>
      </trkpt>
      <trkpt lat="48.825422" lon="10.177650">
        <ele>635.6</ele>
        <time>2026-08-30T16:52:09Z</time>
      </trkpt>
      <trkpt lat="48.825424" lon="10.177755">
        <ele>635.4</ele>
        <time>2026-08-30T16:52:10Z</time>
      </trkpt>
      <trkpt lat="48.825429" lon="10.177858">
        <ele>635.2</ele>
        <time>2026-08-30T16:52:11Z</time>
      </trkpt>
      <trkpt lat="48.825433" lon="10.177964">
        <ele>635.2</ele>
        <time>2026-08-30T16:52:12Z</time>
      </trkpt>
      <trkpt lat="48.825433" lon="10.178073">
        <ele>635</ele>
        <time>2026-08-30T16:52:13Z</time>
      </trkpt>
      <trkpt lat="48.825434" lon="10.178179">
        <ele>634.8</ele>
        <time>2026-08-30T16:52:14Z</time>
      </trkpt>
      <trkpt lat="48.825438" lon="10.178289">
        <ele>634.8</ele>
        <time>2026-08-30T16:52:15Z</time>
      </trkpt>
      <trkpt lat="48.825446" lon="10.178399">
        <ele>634.6</ele>
        <time>2026-08-30T16:52:16Z</time>
      </trkpt>
      <trkpt lat="48.825449" lon="10.178509">
        <ele>634.4</ele>
        <time>2026-08-30T16:52:17Z</time>
      </trkpt>
      <trkpt lat="48.825451" lon="10.178619">
        <ele>634.4</ele>
        <time>2026-08-30T16:52:18Z</time>
      </trkpt>
      <trkpt lat="48.825459" lon="10.178732">
        <ele>634.2</ele>
        <time>2026-08-30T16:52:19Z</time>
      </trkpt>
      <trkpt lat="48.825466" lon="10.178844">
        <ele>634</ele>
        <time>2026-08-30T16:52:20Z</time>
      </trkpt>
      <trkpt lat="48.825473" lon="10.178958">
        <ele>633.8</ele>
        <time>2026-08-30T16:52:21Z</time>
      </trkpt>
      <trkpt lat="48.825482" lon="10.179072">
        <ele>633.8</ele>
        <time>2026-08-30T16:52:22Z</time>
      </trkpt>
      <trkpt lat="48.825487" lon="10.179157">
        <ele>633.6</ele>
        <time>2026-08-30T16:52:23Z</time>
      </trkpt>
      <trkpt lat="48.825492" lon="10.179242">
        <ele>633.4</ele>
        <time>2026-08-30T16:52:24Z</time>
      </trkpt>
      <trkpt lat="48.825501" lon="10.179413">
        <ele>633.2</ele>
        <time>2026-08-30T16:52:25Z</time>
      </trkpt>
      <trkpt lat="48.825505" lon="10.179527">
        <ele>633.2</ele>
        <time>2026-08-30T16:52:26Z</time>
      </trkpt>
      <trkpt lat="48.825517" lon="10.179641">
        <ele>633</ele>
        <time>2026-08-30T16:52:27Z</time>
      </trkpt>
      <trkpt lat="48.825537" lon="10.179753">
        <ele>632.8</ele>
        <time>2026-08-30T16:52:28Z</time>
      </trkpt>
      <trkpt lat="48.825563" lon="10.179861">
        <ele>632.8</ele>
        <time>2026-08-30T16:52:29Z</time>
      </trkpt>
      <trkpt lat="48.825593" lon="10.179965">
        <ele>632.6</ele>
        <time>2026-08-30T16:52:30Z</time>
      </trkpt>
      <trkpt lat="48.825622" lon="10.180068">
        <ele>632.6</ele>
        <time>2026-08-30T16:52:31Z</time>
      </trkpt>
      <trkpt lat="48.825647" lon="10.180172">
        <ele>632.4</ele>
        <time>2026-08-30T16:52:32Z</time>
      </trkpt>
      <trkpt lat="48.825670" lon="10.180273">
        <ele>632.2</ele>
        <time>2026-08-30T16:52:33Z</time>
      </trkpt>
      <trkpt lat="48.825698" lon="10.180372">
        <ele>632.2</ele>
        <time>2026-08-30T16:52:34Z</time>
      </trkpt>
      <trkpt lat="48.825730" lon="10.180466">
        <ele>632</ele>
        <time>2026-08-30T16:52:35Z</time>
      </trkpt>
      <trkpt lat="48.825766" lon="10.180555">
        <ele>632</ele>
        <time>2026-08-30T16:52:36Z</time>
      </trkpt>
      <trkpt lat="48.825801" lon="10.180641">
        <ele>632</ele>
        <time>2026-08-30T16:52:37Z</time>
      </trkpt>
      <trkpt lat="48.825834" lon="10.180729">
        <ele>631.8</ele>
        <time>2026-08-30T16:52:38Z</time>
      </trkpt>
      <trkpt lat="48.825869" lon="10.180815">
        <ele>631.8</ele>
        <time>2026-08-30T16:52:39Z</time>
      </trkpt>
      <trkpt lat="48.825903" lon="10.180902">
        <ele>631.8</ele>
        <time>2026-08-30T16:52:40Z</time>
      </trkpt>
      <trkpt lat="48.825935" lon="10.180990">
        <ele>631.8</ele>
        <time>2026-08-30T16:52:41Z</time>
      </trkpt>
      <trkpt lat="48.825965" lon="10.181079">
        <ele>631.8</ele>
        <time>2026-08-30T16:52:42Z</time>
      </trkpt>
      <trkpt lat="48.825995" lon="10.181167">
        <ele>631.8</ele>
        <time>2026-08-30T16:52:43Z</time>
      </trkpt>
      <trkpt lat="48.826025" lon="10.181258">
        <ele>631.6</ele>
        <time>2026-08-30T16:52:44Z</time>
      </trkpt>
      <trkpt lat="48.826053" lon="10.181346">
        <ele>631.6</ele>
        <time>2026-08-30T16:52:45Z</time>
      </trkpt>
      <trkpt lat="48.826082" lon="10.181437">
        <ele>631.6</ele>
        <time>2026-08-30T16:52:46Z</time>
      </trkpt>
      <trkpt lat="48.826110" lon="10.181524">
        <ele>631.6</ele>
        <time>2026-08-30T16:52:47Z</time>
      </trkpt>
      <trkpt lat="48.826139" lon="10.181610">
        <ele>631.4</ele>
        <time>2026-08-30T16:52:48Z</time>
      </trkpt>
      <trkpt lat="48.826168" lon="10.181701">
        <ele>631.4</ele>
        <time>2026-08-30T16:52:49Z</time>
      </trkpt>
      <trkpt lat="48.826197" lon="10.181789">
        <ele>631.2</ele>
        <time>2026-08-30T16:52:50Z</time>
      </trkpt>
      <trkpt lat="48.826225" lon="10.181881">
        <ele>631.2</ele>
        <time>2026-08-30T16:52:51Z</time>
      </trkpt>
      <trkpt lat="48.826254" lon="10.181971">
        <ele>631.2</ele>
        <time>2026-08-30T16:52:52Z</time>
      </trkpt>
      <trkpt lat="48.826283" lon="10.182064">
        <ele>631</ele>
        <time>2026-08-30T16:52:53Z</time>
      </trkpt>
      <trkpt lat="48.826309" lon="10.182163">
        <ele>631</ele>
        <time>2026-08-30T16:52:54Z</time>
      </trkpt>
      <trkpt lat="48.826336" lon="10.182260">
        <ele>630.8</ele>
        <time>2026-08-30T16:52:55Z</time>
      </trkpt>
      <trkpt lat="48.826362" lon="10.182359">
        <ele>630.6</ele>
        <time>2026-08-30T16:52:56Z</time>
      </trkpt>
      <trkpt lat="48.826385" lon="10.182459">
        <ele>630.6</ele>
        <time>2026-08-30T16:52:57Z</time>
      </trkpt>
      <trkpt lat="48.826405" lon="10.182556">
        <ele>630.4</ele>
        <time>2026-08-30T16:52:58Z</time>
      </trkpt>
      <trkpt lat="48.826425" lon="10.182659">
        <ele>630.2</ele>
        <time>2026-08-30T16:52:59Z</time>
      </trkpt>
      <trkpt lat="48.826443" lon="10.182761">
        <ele>630</ele>
        <time>2026-08-30T16:53:00Z</time>
      </trkpt>
      <trkpt lat="48.826460" lon="10.182867">
        <ele>630</ele>
        <time>2026-08-30T16:53:01Z</time>
      </trkpt>
      <trkpt lat="48.826475" lon="10.182974">
        <ele>629.8</ele>
        <time>2026-08-30T16:53:02Z</time>
      </trkpt>
      <trkpt lat="48.826487" lon="10.183080">
        <ele>629.6</ele>
        <time>2026-08-30T16:53:03Z</time>
      </trkpt>
      <trkpt lat="48.826493" lon="10.183189">
        <ele>629.4</ele>
        <time>2026-08-30T16:53:04Z</time>
      </trkpt>
      <trkpt lat="48.826495" lon="10.183298">
        <ele>629.2</ele>
        <time>2026-08-30T16:53:05Z</time>
      </trkpt>
      <trkpt lat="48.826495" lon="10.183406">
        <ele>629</ele>
        <time>2026-08-30T16:53:06Z</time>
      </trkpt>
      <trkpt lat="48.826492" lon="10.183513">
        <ele>628.8</ele>
        <time>2026-08-30T16:53:07Z</time>
      </trkpt>
      <trkpt lat="48.826490" lon="10.183621">
        <ele>628.6</ele>
        <time>2026-08-30T16:53:08Z</time>
      </trkpt>
      <trkpt lat="48.826491" lon="10.183729">
        <ele>628.4</ele>
        <time>2026-08-30T16:53:09Z</time>
      </trkpt>
      <trkpt lat="48.826494" lon="10.183835">
        <ele>628.2</ele>
        <time>2026-08-30T16:53:10Z</time>
      </trkpt>
      <trkpt lat="48.826497" lon="10.183941">
        <ele>628.2</ele>
        <time>2026-08-30T16:53:11Z</time>
      </trkpt>
      <trkpt lat="48.826502" lon="10.184046">
        <ele>628</ele>
        <time>2026-08-30T16:53:12Z</time>
      </trkpt>
      <trkpt lat="48.826503" lon="10.184151">
        <ele>627.8</ele>
        <time>2026-08-30T16:53:13Z</time>
      </trkpt>
      <trkpt lat="48.826498" lon="10.184258">
        <ele>627.8</ele>
        <time>2026-08-30T16:53:14Z</time>
      </trkpt>
      <trkpt lat="48.826489" lon="10.184364">
        <ele>627.6</ele>
        <time>2026-08-30T16:53:15Z</time>
      </trkpt>
      <trkpt lat="48.826477" lon="10.184467">
        <ele>627.6</ele>
        <time>2026-08-30T16:53:16Z</time>
      </trkpt>
      <trkpt lat="48.826464" lon="10.184570">
        <ele>627.4</ele>
        <time>2026-08-30T16:53:17Z</time>
      </trkpt>
      <trkpt lat="48.826448" lon="10.184676">
        <ele>627.2</ele>
        <time>2026-08-30T16:53:18Z</time>
      </trkpt>
      <trkpt lat="48.826431" lon="10.184781">
        <ele>627.2</ele>
        <time>2026-08-30T16:53:19Z</time>
      </trkpt>
      <trkpt lat="48.826414" lon="10.184883">
        <ele>627.2</ele>
        <time>2026-08-30T16:53:20Z</time>
      </trkpt>
      <trkpt lat="48.826395" lon="10.184985">
        <ele>627</ele>
        <time>2026-08-30T16:53:21Z</time>
      </trkpt>
      <trkpt lat="48.826375" lon="10.185088">
        <ele>627</ele>
        <time>2026-08-30T16:53:22Z</time>
      </trkpt>
      <trkpt lat="48.826352" lon="10.185186">
        <ele>626.8</ele>
        <time>2026-08-30T16:53:23Z</time>
      </trkpt>
      <trkpt lat="48.826327" lon="10.185283">
        <ele>626.6</ele>
        <time>2026-08-30T16:53:24Z</time>
      </trkpt>
      <trkpt lat="48.826303" lon="10.185379">
        <ele>626.6</ele>
        <time>2026-08-30T16:53:25Z</time>
      </trkpt>
      <trkpt lat="48.826279" lon="10.185475">
        <ele>626.6</ele>
        <time>2026-08-30T16:53:26Z</time>
      </trkpt>
      <trkpt lat="48.826254" lon="10.185571">
        <ele>626.4</ele>
        <time>2026-08-30T16:53:27Z</time>
      </trkpt>
      <trkpt lat="48.826227" lon="10.185667">
        <ele>626.4</ele>
        <time>2026-08-30T16:53:28Z</time>
      </trkpt>
      <trkpt lat="48.826201" lon="10.185763">
        <ele>626.2</ele>
        <time>2026-08-30T16:53:29Z</time>
      </trkpt>
      <trkpt lat="48.826180" lon="10.185854">
        <ele>626.2</ele>
        <time>2026-08-30T16:53:30Z</time>
      </trkpt>
      <trkpt lat="48.826162" lon="10.185926">
        <ele>626.2</ele>
        <time>2026-08-30T16:53:31Z</time>
      </trkpt>
      <trkpt lat="48.826146" lon="10.185972">
        <ele>626</ele>
        <time>2026-08-30T16:53:32Z</time>
      </trkpt>
      <trkpt lat="48.826136" lon="10.186003">
        <ele>626</ele>
        <time>2026-08-30T16:53:33Z</time>
      </trkpt>
      <trkpt lat="48.826131" lon="10.186022">
        <ele>626</ele>
        <time>2026-08-30T16:53:34Z</time>
      </trkpt>
      <trkpt lat="48.826130" lon="10.186034">
        <ele>626</ele>
        <time>2026-08-30T16:53:35Z</time>
      </trkpt>
      <trkpt lat="48.826129" lon="10.186033">
        <ele>626</ele>
        <time>2026-08-30T16:53:36Z</time>
      </trkpt>
      <trkpt lat="48.826128" lon="10.186032">
        <ele>626</ele>
        <time>2026-08-30T16:53:37Z</time>
      </trkpt>
      <trkpt lat="48.826128" lon="10.186032">
        <ele>626</ele>
        <time>2026-08-30T16:53:38Z</time>
      </trkpt>
      <trkpt lat="48.826128" lon="10.186032">
        <ele>626</ele>
        <time>2026-08-30T16:53:39Z</time>
      </trkpt>
      <trkpt lat="48.826128" lon="10.186032">
        <ele>626</ele>
        <time>2026-08-30T16:53:40Z</time>
      </trkpt>
      <trkpt lat="48.826128" lon="10.186032">
        <ele>626</ele>
        <time>2026-08-30T16:53:41Z</time>
      </trkpt>
      <trkpt lat="48.826128" lon="10.186032">
        <ele>626</ele>
        <time>2026-08-30T16:53:42Z</time>
      </trkpt>
      <trkpt lat="48.826128" lon="10.186032">
        <ele>626</ele>
        <time>2026-08-30T16:53:43Z</time>
      </trkpt>
      <trkpt lat="48.826128" lon="10.186032">
        <ele>626</ele>
        <time>2026-08-30T16:53:44Z</time>
      </trkpt>
      <trkpt lat="48.826128" lon="10.186032">
        <ele>626</ele>
        <time>2026-08-30T16:53:45Z</time>
      </trkpt>
      <trkpt lat="48.826128" lon="10.186032">
        <ele>625.8</ele>
        <time>2026-08-30T16:53:46Z</time>
      </trkpt>
      <trkpt lat="48.826128" lon="10.186032">
        <ele>625.8</ele>
        <time>2026-08-30T16:53:47Z</time>
      </trkpt>
      <trkpt lat="48.826128" lon="10.186032">
        <ele>625.8</ele>
        <time>2026-08-30T16:53:48Z</time>
      </trkpt>
      <trkpt lat="48.826128" lon="10.186032">
        <ele>625.6</ele>
        <time>2026-08-30T16:53:49Z</time>
      </trkpt>
      <trkpt lat="48.826128" lon="10.186032">
        <ele>625.6</ele>
        <time>2026-08-30T16:53:50Z</time>
      </trkpt>
      <trkpt lat="48.826128" lon="10.186032">
        <ele>625.6</ele>
        <time>2026-08-30T16:53:51Z</time>
      </trkpt>
      <trkpt lat="48.826128" lon="10.186032">
        <ele>625.6</ele>
        <time>2026-08-30T16:53:52Z</time>
      </trkpt>
      <trkpt lat="48.826128" lon="10.186032">
        <ele>625.6</ele>
        <time>2026-08-30T16:53:53Z</time>
      </trkpt>
      <trkpt lat="48.826128" lon="10.186033">
        <ele>625.6</ele>
        <time>2026-08-30T16:53:54Z</time>
      </trkpt>
      <trkpt lat="48.826120" lon="10.186056">
        <ele>625.6</ele>
        <time>2026-08-30T16:53:55Z</time>
      </trkpt>
      <trkpt lat="48.826117" lon="10.186077">
        <ele>625.6</ele>
        <time>2026-08-30T16:53:56Z</time>
      </trkpt>
      <trkpt lat="48.826115" lon="10.186105">
        <ele>625.6</ele>
        <time>2026-08-30T16:53:57Z</time>
      </trkpt>
      <trkpt lat="48.826111" lon="10.186137">
        <ele>625.6</ele>
        <time>2026-08-30T16:53:58Z</time>
      </trkpt>
      <trkpt lat="48.826101" lon="10.186170">
        <ele>625.6</ele>
        <time>2026-08-30T16:53:59Z</time>
      </trkpt>
      <trkpt lat="48.826091" lon="10.186212">
        <ele>625.4</ele>
        <time>2026-08-30T16:54:00Z</time>
      </trkpt>
      <trkpt lat="48.826081" lon="10.186255">
        <ele>625.4</ele>
        <time>2026-08-30T16:54:01Z</time>
      </trkpt>
      <trkpt lat="48.826070" lon="10.186308">
        <ele>625.4</ele>
        <time>2026-08-30T16:54:02Z</time>
      </trkpt>
      <trkpt lat="48.826053" lon="10.186356">
        <ele>625.2</ele>
        <time>2026-08-30T16:54:03Z</time>
      </trkpt>
      <trkpt lat="48.826033" lon="10.186405">
        <ele>625.2</ele>
        <time>2026-08-30T16:54:04Z</time>
      </trkpt>
      <trkpt lat="48.826016" lon="10.186464">
        <ele>625</ele>
        <time>2026-08-30T16:54:05Z</time>
      </trkpt>
      <trkpt lat="48.826000" lon="10.186528">
        <ele>625</ele>
        <time>2026-08-30T16:54:06Z</time>
      </trkpt>
      <trkpt lat="48.825983" lon="10.186587">
        <ele>625</ele>
        <time>2026-08-30T16:54:07Z</time>
      </trkpt>
      <trkpt lat="48.825965" lon="10.186650">
        <ele>624.8</ele>
        <time>2026-08-30T16:54:08Z</time>
      </trkpt>
      <trkpt lat="48.825947" lon="10.186719">
        <ele>624.8</ele>
        <time>2026-08-30T16:54:09Z</time>
      </trkpt>
      <trkpt lat="48.825926" lon="10.186787">
        <ele>624.8</ele>
        <time>2026-08-30T16:54:10Z</time>
      </trkpt>
      <trkpt lat="48.825906" lon="10.186861">
        <ele>624.8</ele>
        <time>2026-08-30T16:54:11Z</time>
      </trkpt>
      <trkpt lat="48.825885" lon="10.186936">
        <ele>624.6</ele>
        <time>2026-08-30T16:54:12Z</time>
      </trkpt>
      <trkpt lat="48.825865" lon="10.187013">
        <ele>624.6</ele>
        <time>2026-08-30T16:54:13Z</time>
      </trkpt>
      <trkpt lat="48.825843" lon="10.187092">
        <ele>624.6</ele>
        <time>2026-08-30T16:54:14Z</time>
      </trkpt>
      <trkpt lat="48.825822" lon="10.187172">
        <ele>624.6</ele>
        <time>2026-08-30T16:54:15Z</time>
      </trkpt>
      <trkpt lat="48.825802" lon="10.187252">
        <ele>624.4</ele>
        <time>2026-08-30T16:54:16Z</time>
      </trkpt>
      <trkpt lat="48.825781" lon="10.187333">
        <ele>624.4</ele>
        <time>2026-08-30T16:54:17Z</time>
      </trkpt>
      <trkpt lat="48.825758" lon="10.187411">
        <ele>624.4</ele>
        <time>2026-08-30T16:54:18Z</time>
      </trkpt>
      <trkpt lat="48.825735" lon="10.187491">
        <ele>624.2</ele>
        <time>2026-08-30T16:54:19Z</time>
      </trkpt>
      <trkpt lat="48.825712" lon="10.187569">
        <ele>624.2</ele>
        <time>2026-08-30T16:54:20Z</time>
      </trkpt>
      <trkpt lat="48.825691" lon="10.187646">
        <ele>624.2</ele>
        <time>2026-08-30T16:54:21Z</time>
      </trkpt>
      <trkpt lat="48.825671" lon="10.187725">
        <ele>624.2</ele>
        <time>2026-08-30T16:54:22Z</time>
      </trkpt>
      <trkpt lat="48.825651" lon="10.187803">
        <ele>624</ele>
        <time>2026-08-30T16:54:23Z</time>
      </trkpt>
      <trkpt lat="48.825628" lon="10.187878">
        <ele>624</ele>
        <time>2026-08-30T16:54:24Z</time>
      </trkpt>
      <trkpt lat="48.825606" lon="10.187954">
        <ele>624</ele>
        <time>2026-08-30T16:54:25Z</time>
      </trkpt>
      <trkpt lat="48.825585" lon="10.188032">
        <ele>624</ele>
        <time>2026-08-30T16:54:26Z</time>
      </trkpt>
      <trkpt lat="48.825565" lon="10.188111">
        <ele>624</ele>
        <time>2026-08-30T16:54:27Z</time>
      </trkpt>
      <trkpt lat="48.825546" lon="10.188194">
        <ele>624</ele>
        <time>2026-08-30T16:54:28Z</time>
      </trkpt>
      <trkpt lat="48.825524" lon="10.188276">
        <ele>624</ele>
        <time>2026-08-30T16:54:29Z</time>
      </trkpt>
      <trkpt lat="48.825498" lon="10.188357">
        <ele>624</ele>
        <time>2026-08-30T16:54:30Z</time>
      </trkpt>
      <trkpt lat="48.825475" lon="10.188436">
        <ele>624</ele>
        <time>2026-08-30T16:54:31Z</time>
      </trkpt>
      <trkpt lat="48.825454" lon="10.188521">
        <ele>623.8</ele>
        <time>2026-08-30T16:54:32Z</time>
      </trkpt>
      <trkpt lat="48.825433" lon="10.188607">
        <ele>623.8</ele>
        <time>2026-08-30T16:54:33Z</time>
      </trkpt>
      <trkpt lat="48.825410" lon="10.188692">
        <ele>623.8</ele>
        <time>2026-08-30T16:54:34Z</time>
      </trkpt>
      <trkpt lat="48.825387" lon="10.188775">
        <ele>623.8</ele>
        <time>2026-08-30T16:54:35Z</time>
      </trkpt>
      <trkpt lat="48.825362" lon="10.188857">
        <ele>623.8</ele>
        <time>2026-08-30T16:54:36Z</time>
      </trkpt>
      <trkpt lat="48.825339" lon="10.188941">
        <ele>623.8</ele>
        <time>2026-08-30T16:54:37Z</time>
      </trkpt>
      <trkpt lat="48.825321" lon="10.189030">
        <ele>623.6</ele>
        <time>2026-08-30T16:54:38Z</time>
      </trkpt>
      <trkpt lat="48.825301" lon="10.189116">
        <ele>623.6</ele>
        <time>2026-08-30T16:54:39Z</time>
      </trkpt>
      <trkpt lat="48.825279" lon="10.189198">
        <ele>623.6</ele>
        <time>2026-08-30T16:54:40Z</time>
      </trkpt>
      <trkpt lat="48.825260" lon="10.189281">
        <ele>623.6</ele>
        <time>2026-08-30T16:54:41Z</time>
      </trkpt>
      <trkpt lat="48.825242" lon="10.189369">
        <ele>623.6</ele>
        <time>2026-08-30T16:54:42Z</time>
      </trkpt>
      <trkpt lat="48.825228" lon="10.189458">
        <ele>623.6</ele>
        <time>2026-08-30T16:54:43Z</time>
      </trkpt>
      <trkpt lat="48.825212" lon="10.189550">
        <ele>623.4</ele>
        <time>2026-08-30T16:54:44Z</time>
      </trkpt>
      <trkpt lat="48.825194" lon="10.189639">
        <ele>623.4</ele>
        <time>2026-08-30T16:54:45Z</time>
      </trkpt>
      <trkpt lat="48.825173" lon="10.189726">
        <ele>623.4</ele>
        <time>2026-08-30T16:54:46Z</time>
      </trkpt>
      <trkpt lat="48.825156" lon="10.189815">
        <ele>623.4</ele>
        <time>2026-08-30T16:54:47Z</time>
      </trkpt>
      <trkpt lat="48.825139" lon="10.189903">
        <ele>623.2</ele>
        <time>2026-08-30T16:54:48Z</time>
      </trkpt>
      <trkpt lat="48.825121" lon="10.189992">
        <ele>623.2</ele>
        <time>2026-08-30T16:54:49Z</time>
      </trkpt>
      <trkpt lat="48.825105" lon="10.190084">
        <ele>623.2</ele>
        <time>2026-08-30T16:54:50Z</time>
      </trkpt>
      <trkpt lat="48.825087" lon="10.190172">
        <ele>623</ele>
        <time>2026-08-30T16:54:51Z</time>
      </trkpt>
      <trkpt lat="48.825071" lon="10.190263">
        <ele>623</ele>
        <time>2026-08-30T16:54:52Z</time>
      </trkpt>
      <trkpt lat="48.825057" lon="10.190356">
        <ele>623</ele>
        <time>2026-08-30T16:54:53Z</time>
      </trkpt>
      <trkpt lat="48.825039" lon="10.190447">
        <ele>623</ele>
        <time>2026-08-30T16:54:54Z</time>
      </trkpt>
      <trkpt lat="48.825023" lon="10.190535">
        <ele>622.8</ele>
        <time>2026-08-30T16:54:55Z</time>
      </trkpt>
      <trkpt lat="48.825008" lon="10.190623">
        <ele>622.8</ele>
        <time>2026-08-30T16:54:56Z</time>
      </trkpt>
      <trkpt lat="48.824992" lon="10.190710">
        <ele>622.8</ele>
        <time>2026-08-30T16:54:57Z</time>
      </trkpt>
      <trkpt lat="48.824976" lon="10.190798">
        <ele>622.6</ele>
        <time>2026-08-30T16:54:58Z</time>
      </trkpt>
      <trkpt lat="48.824959" lon="10.190885">
        <ele>622.6</ele>
        <time>2026-08-30T16:54:59Z</time>
      </trkpt>
      <trkpt lat="48.824942" lon="10.190971">
        <ele>622.6</ele>
        <time>2026-08-30T16:55:00Z</time>
      </trkpt>
      <trkpt lat="48.824924" lon="10.191057">
        <ele>622.6</ele>
        <time>2026-08-30T16:55:01Z</time>
      </trkpt>
      <trkpt lat="48.824909" lon="10.191144">
        <ele>622.4</ele>
        <time>2026-08-30T16:55:02Z</time>
      </trkpt>
      <trkpt lat="48.824896" lon="10.191236">
        <ele>622.4</ele>
        <time>2026-08-30T16:55:03Z</time>
      </trkpt>
      <trkpt lat="48.824882" lon="10.191325">
        <ele>622.4</ele>
        <time>2026-08-30T16:55:04Z</time>
      </trkpt>
      <trkpt lat="48.824867" lon="10.191412">
        <ele>622.2</ele>
        <time>2026-08-30T16:55:05Z</time>
      </trkpt>
      <trkpt lat="48.824847" lon="10.191498">
        <ele>622.2</ele>
        <time>2026-08-30T16:55:06Z</time>
      </trkpt>
      <trkpt lat="48.824829" lon="10.191581">
        <ele>622.2</ele>
        <time>2026-08-30T16:55:07Z</time>
      </trkpt>
      <trkpt lat="48.824814" lon="10.191666">
        <ele>622.2</ele>
        <time>2026-08-30T16:55:08Z</time>
      </trkpt>
      <trkpt lat="48.824802" lon="10.191754">
        <ele>622</ele>
        <time>2026-08-30T16:55:09Z</time>
      </trkpt>
      <trkpt lat="48.824788" lon="10.191834">
        <ele>622</ele>
        <time>2026-08-30T16:55:10Z</time>
      </trkpt>
      <trkpt lat="48.824773" lon="10.191910">
        <ele>622</ele>
        <time>2026-08-30T16:55:11Z</time>
      </trkpt>
      <trkpt lat="48.824758" lon="10.191987">
        <ele>622</ele>
        <time>2026-08-30T16:55:12Z</time>
      </trkpt>
      <trkpt lat="48.824742" lon="10.192067">
        <ele>622</ele>
        <time>2026-08-30T16:55:13Z</time>
      </trkpt>
      <trkpt lat="48.824726" lon="10.192145">
        <ele>622</ele>
        <time>2026-08-30T16:55:14Z</time>
      </trkpt>
      <trkpt lat="48.824711" lon="10.192226">
        <ele>622</ele>
        <time>2026-08-30T16:55:15Z</time>
      </trkpt>
      <trkpt lat="48.824701" lon="10.192310">
        <ele>622</ele>
        <time>2026-08-30T16:55:16Z</time>
      </trkpt>
      <trkpt lat="48.824693" lon="10.192391">
        <ele>622</ele>
        <time>2026-08-30T16:55:17Z</time>
      </trkpt>
      <trkpt lat="48.824678" lon="10.192471">
        <ele>622</ele>
        <time>2026-08-30T16:55:18Z</time>
      </trkpt>
      <trkpt lat="48.824654" lon="10.192542">
        <ele>622</ele>
        <time>2026-08-30T16:55:19Z</time>
      </trkpt>
      <trkpt lat="48.824623" lon="10.192600">
        <ele>622</ele>
        <time>2026-08-30T16:55:20Z</time>
      </trkpt>
      <trkpt lat="48.824584" lon="10.192646">
        <ele>622</ele>
        <time>2026-08-30T16:55:21Z</time>
      </trkpt>
      <trkpt lat="48.824544" lon="10.192699">
        <ele>621.8</ele>
        <time>2026-08-30T16:55:22Z</time>
      </trkpt>
      <trkpt lat="48.824519" lon="10.192771">
        <ele>621.8</ele>
        <time>2026-08-30T16:55:23Z</time>
      </trkpt>
      <trkpt lat="48.824506" lon="10.192849">
        <ele>621.8</ele>
        <time>2026-08-30T16:55:24Z</time>
      </trkpt>
      <trkpt lat="48.824508" lon="10.192923">
        <ele>621.8</ele>
        <time>2026-08-30T16:55:25Z</time>
      </trkpt>
      <trkpt lat="48.824523" lon="10.192989">
        <ele>621.8</ele>
        <time>2026-08-30T16:55:26Z</time>
      </trkpt>
      <trkpt lat="48.824538" lon="10.193061">
        <ele>621.8</ele>
        <time>2026-08-30T16:55:27Z</time>
      </trkpt>
      <trkpt lat="48.824545" lon="10.193133">
        <ele>621.8</ele>
        <time>2026-08-30T16:55:28Z</time>
      </trkpt>
      <trkpt lat="48.824542" lon="10.193199">
        <ele>621.8</ele>
        <time>2026-08-30T16:55:29Z</time>
      </trkpt>
      <trkpt lat="48.824531" lon="10.193261">
        <ele>621.8</ele>
        <time>2026-08-30T16:55:30Z</time>
      </trkpt>
      <trkpt lat="48.824514" lon="10.193317">
        <ele>621.8</ele>
        <time>2026-08-30T16:55:31Z</time>
      </trkpt>
      <trkpt lat="48.824499" lon="10.193375">
        <ele>621.8</ele>
        <time>2026-08-30T16:55:32Z</time>
      </trkpt>
      <trkpt lat="48.824487" lon="10.193439">
        <ele>621.6</ele>
        <time>2026-08-30T16:55:33Z</time>
      </trkpt>
      <trkpt lat="48.824480" lon="10.193505">
        <ele>621.6</ele>
        <time>2026-08-30T16:55:34Z</time>
      </trkpt>
      <trkpt lat="48.824471" lon="10.193568">
        <ele>621.6</ele>
        <time>2026-08-30T16:55:35Z</time>
      </trkpt>
      <trkpt lat="48.824457" lon="10.193630">
        <ele>621.6</ele>
        <time>2026-08-30T16:55:36Z</time>
      </trkpt>
      <trkpt lat="48.824445" lon="10.193689">
        <ele>621.4</ele>
        <time>2026-08-30T16:55:37Z</time>
      </trkpt>
      <trkpt lat="48.824431" lon="10.193755">
        <ele>621.4</ele>
        <time>2026-08-30T16:55:38Z</time>
      </trkpt>
      <trkpt lat="48.824416" lon="10.193821">
        <ele>621.4</ele>
        <time>2026-08-30T16:55:39Z</time>
      </trkpt>
      <trkpt lat="48.824407" lon="10.193890">
        <ele>621.4</ele>
        <time>2026-08-30T16:55:40Z</time>
      </trkpt>
      <trkpt lat="48.824400" lon="10.193961">
        <ele>621.2</ele>
        <time>2026-08-30T16:55:41Z</time>
      </trkpt>
      <trkpt lat="48.824393" lon="10.194028">
        <ele>621.2</ele>
        <time>2026-08-30T16:55:42Z</time>
      </trkpt>
      <trkpt lat="48.824380" lon="10.194091">
        <ele>621.2</ele>
        <time>2026-08-30T16:55:43Z</time>
      </trkpt>
      <trkpt lat="48.824366" lon="10.194152">
        <ele>621.2</ele>
        <time>2026-08-30T16:55:44Z</time>
      </trkpt>
      <trkpt lat="48.824352" lon="10.194211">
        <ele>621</ele>
        <time>2026-08-30T16:55:45Z</time>
      </trkpt>
      <trkpt lat="48.824341" lon="10.194270">
        <ele>621</ele>
        <time>2026-08-30T16:55:46Z</time>
      </trkpt>
      <trkpt lat="48.824332" lon="10.194329">
        <ele>621</ele>
        <time>2026-08-30T16:55:47Z</time>
      </trkpt>
      <trkpt lat="48.824322" lon="10.194390">
        <ele>621</ele>
        <time>2026-08-30T16:55:48Z</time>
      </trkpt>
      <trkpt lat="48.824308" lon="10.194451">
        <ele>620.8</ele>
        <time>2026-08-30T16:55:49Z</time>
      </trkpt>
      <trkpt lat="48.824296" lon="10.194511">
        <ele>620.8</ele>
        <time>2026-08-30T16:55:50Z</time>
      </trkpt>
      <trkpt lat="48.824287" lon="10.194573">
        <ele>620.8</ele>
        <time>2026-08-30T16:55:51Z</time>
      </trkpt>
      <trkpt lat="48.824276" lon="10.194636">
        <ele>620.8</ele>
        <time>2026-08-30T16:55:52Z</time>
      </trkpt>
      <trkpt lat="48.824256" lon="10.194696">
        <ele>620.6</ele>
        <time>2026-08-30T16:55:53Z</time>
      </trkpt>
      <trkpt lat="48.824224" lon="10.194736">
        <ele>620.6</ele>
        <time>2026-08-30T16:55:54Z</time>
      </trkpt>
      <trkpt lat="48.824184" lon="10.194760">
        <ele>620.6</ele>
        <time>2026-08-30T16:55:55Z</time>
      </trkpt>
      <trkpt lat="48.824140" lon="10.194770">
        <ele>620.4</ele>
        <time>2026-08-30T16:55:56Z</time>
      </trkpt>
      <trkpt lat="48.824096" lon="10.194774">
        <ele>620.4</ele>
        <time>2026-08-30T16:55:57Z</time>
      </trkpt>
      <trkpt lat="48.824051" lon="10.194777">
        <ele>620.2</ele>
        <time>2026-08-30T16:55:58Z</time>
      </trkpt>
      <trkpt lat="48.824004" lon="10.194782">
        <ele>620.2</ele>
        <time>2026-08-30T16:55:59Z</time>
      </trkpt>
      <trkpt lat="48.823956" lon="10.194788">
        <ele>620.2</ele>
        <time>2026-08-30T16:56:00Z</time>
      </trkpt>
      <trkpt lat="48.823908" lon="10.194791">
        <ele>620.2</ele>
        <time>2026-08-30T16:56:01Z</time>
      </trkpt>
      <trkpt lat="48.823861" lon="10.194798">
        <ele>620</ele>
        <time>2026-08-30T16:56:02Z</time>
      </trkpt>
      <trkpt lat="48.823813" lon="10.194808">
        <ele>620</ele>
        <time>2026-08-30T16:56:03Z</time>
      </trkpt>
      <trkpt lat="48.823768" lon="10.194829">
        <ele>619.8</ele>
        <time>2026-08-30T16:56:04Z</time>
      </trkpt>
      <trkpt lat="48.823726" lon="10.194865">
        <ele>619.8</ele>
        <time>2026-08-30T16:56:05Z</time>
      </trkpt>
      <trkpt lat="48.823682" lon="10.194904">
        <ele>619.6</ele>
        <time>2026-08-30T16:56:06Z</time>
      </trkpt>
      <trkpt lat="48.823635" lon="10.194940">
        <ele>619.4</ele>
        <time>2026-08-30T16:56:07Z</time>
      </trkpt>
      <trkpt lat="48.823588" lon="10.194980">
        <ele>619.4</ele>
        <time>2026-08-30T16:56:08Z</time>
      </trkpt>
      <trkpt lat="48.823546" lon="10.195028">
        <ele>619.2</ele>
        <time>2026-08-30T16:56:09Z</time>
      </trkpt>
      <trkpt lat="48.823506" lon="10.195082">
        <ele>619</ele>
        <time>2026-08-30T16:56:10Z</time>
      </trkpt>
      <trkpt lat="48.823468" lon="10.195138">
        <ele>618.8</ele>
        <time>2026-08-30T16:56:11Z</time>
      </trkpt>
      <trkpt lat="48.823430" lon="10.195198">
        <ele>618.6</ele>
        <time>2026-08-30T16:56:12Z</time>
      </trkpt>
      <trkpt lat="48.823397" lon="10.195261">
        <ele>618.4</ele>
        <time>2026-08-30T16:56:13Z</time>
      </trkpt>
      <trkpt lat="48.823369" lon="10.195333">
        <ele>618.2</ele>
        <time>2026-08-30T16:56:14Z</time>
      </trkpt>
      <trkpt lat="48.823344" lon="10.195409">
        <ele>618.2</ele>
        <time>2026-08-30T16:56:15Z</time>
      </trkpt>
      <trkpt lat="48.823325" lon="10.195489">
        <ele>618</ele>
        <time>2026-08-30T16:56:16Z</time>
      </trkpt>
      <trkpt lat="48.823306" lon="10.195571">
        <ele>617.8</ele>
        <time>2026-08-30T16:56:17Z</time>
      </trkpt>
      <trkpt lat="48.823283" lon="10.195649">
        <ele>617.8</ele>
        <time>2026-08-30T16:56:18Z</time>
      </trkpt>
      <trkpt lat="48.823259" lon="10.195726">
        <ele>617.6</ele>
        <time>2026-08-30T16:56:19Z</time>
      </trkpt>
      <trkpt lat="48.823240" lon="10.195809">
        <ele>617.4</ele>
        <time>2026-08-30T16:56:20Z</time>
      </trkpt>
      <trkpt lat="48.823223" lon="10.195893">
        <ele>617.4</ele>
        <time>2026-08-30T16:56:21Z</time>
      </trkpt>
      <trkpt lat="48.823210" lon="10.195978">
        <ele>617.2</ele>
        <time>2026-08-30T16:56:22Z</time>
      </trkpt>
      <trkpt lat="48.823195" lon="10.196062">
        <ele>617</ele>
        <time>2026-08-30T16:56:23Z</time>
      </trkpt>
      <trkpt lat="48.823177" lon="10.196142">
        <ele>617</ele>
        <time>2026-08-30T16:56:24Z</time>
      </trkpt>
      <trkpt lat="48.823160" lon="10.196223">
        <ele>616.8</ele>
        <time>2026-08-30T16:56:25Z</time>
      </trkpt>
      <trkpt lat="48.823144" lon="10.196305">
        <ele>616.8</ele>
        <time>2026-08-30T16:56:26Z</time>
      </trkpt>
      <trkpt lat="48.823129" lon="10.196391">
        <ele>616.6</ele>
        <time>2026-08-30T16:56:27Z</time>
      </trkpt>
      <trkpt lat="48.823114" lon="10.196475">
        <ele>616.6</ele>
        <time>2026-08-30T16:56:28Z</time>
      </trkpt>
      <trkpt lat="48.823098" lon="10.196555">
        <ele>616.4</ele>
        <time>2026-08-30T16:56:29Z</time>
      </trkpt>
      <trkpt lat="48.823080" lon="10.196630">
        <ele>616.2</ele>
        <time>2026-08-30T16:56:30Z</time>
      </trkpt>
      <trkpt lat="48.823064" lon="10.196709">
        <ele>616.2</ele>
        <time>2026-08-30T16:56:31Z</time>
      </trkpt>
      <trkpt lat="48.823051" lon="10.196788">
        <ele>616</ele>
        <time>2026-08-30T16:56:32Z</time>
      </trkpt>
      <trkpt lat="48.823042" lon="10.196870">
        <ele>616</ele>
        <time>2026-08-30T16:56:33Z</time>
      </trkpt>
      <trkpt lat="48.823028" lon="10.196945">
        <ele>616</ele>
        <time>2026-08-30T16:56:34Z</time>
      </trkpt>
      <trkpt lat="48.823013" lon="10.197016">
        <ele>615.8</ele>
        <time>2026-08-30T16:56:35Z</time>
      </trkpt>
      <trkpt lat="48.822996" lon="10.197089">
        <ele>615.8</ele>
        <time>2026-08-30T16:56:36Z</time>
      </trkpt>
      <trkpt lat="48.822980" lon="10.197160">
        <ele>615.8</ele>
        <time>2026-08-30T16:56:37Z</time>
      </trkpt>
      <trkpt lat="48.822960" lon="10.197229">
        <ele>615.6</ele>
        <time>2026-08-30T16:56:38Z</time>
      </trkpt>
      <trkpt lat="48.822944" lon="10.197298">
        <ele>615.6</ele>
        <time>2026-08-30T16:56:39Z</time>
      </trkpt>
      <trkpt lat="48.822933" lon="10.197371">
        <ele>615.4</ele>
        <time>2026-08-30T16:56:40Z</time>
      </trkpt>
      <trkpt lat="48.822925" lon="10.197445">
        <ele>615.4</ele>
        <time>2026-08-30T16:56:41Z</time>
      </trkpt>
      <trkpt lat="48.822909" lon="10.197521">
        <ele>615.4</ele>
        <time>2026-08-30T16:56:42Z</time>
      </trkpt>
      <trkpt lat="48.822888" lon="10.197595">
        <ele>615.2</ele>
        <time>2026-08-30T16:56:43Z</time>
      </trkpt>
      <trkpt lat="48.822869" lon="10.197674">
        <ele>615.2</ele>
        <time>2026-08-30T16:56:44Z</time>
      </trkpt>
      <trkpt lat="48.822856" lon="10.197757">
        <ele>615</ele>
        <time>2026-08-30T16:56:45Z</time>
      </trkpt>
      <trkpt lat="48.822839" lon="10.197836">
        <ele>615</ele>
        <time>2026-08-30T16:56:46Z</time>
      </trkpt>
      <trkpt lat="48.822816" lon="10.197912">
        <ele>614.8</ele>
        <time>2026-08-30T16:56:47Z</time>
      </trkpt>
      <trkpt lat="48.822793" lon="10.197989">
        <ele>614.8</ele>
        <time>2026-08-30T16:56:48Z</time>
      </trkpt>
      <trkpt lat="48.822773" lon="10.198071">
        <ele>614.8</ele>
        <time>2026-08-30T16:56:49Z</time>
      </trkpt>
      <trkpt lat="48.822754" lon="10.198155">
        <ele>614.6</ele>
        <time>2026-08-30T16:56:50Z</time>
      </trkpt>
      <trkpt lat="48.822733" lon="10.198237">
        <ele>614.6</ele>
        <time>2026-08-30T16:56:51Z</time>
      </trkpt>
      <trkpt lat="48.822712" lon="10.198318">
        <ele>614.6</ele>
        <time>2026-08-30T16:56:52Z</time>
      </trkpt>
      <trkpt lat="48.822688" lon="10.198399">
        <ele>614.6</ele>
        <time>2026-08-30T16:56:53Z</time>
      </trkpt>
      <trkpt lat="48.822664" lon="10.198478">
        <ele>614.6</ele>
        <time>2026-08-30T16:56:54Z</time>
      </trkpt>
      <trkpt lat="48.822634" lon="10.198551">
        <ele>614.4</ele>
        <time>2026-08-30T16:56:55Z</time>
      </trkpt>
      <trkpt lat="48.822604" lon="10.198618">
        <ele>614.4</ele>
        <time>2026-08-30T16:56:56Z</time>
      </trkpt>
      <trkpt lat="48.822572" lon="10.198688">
        <ele>614.4</ele>
        <time>2026-08-30T16:56:57Z</time>
      </trkpt>
      <trkpt lat="48.822540" lon="10.198758">
        <ele>614.4</ele>
        <time>2026-08-30T16:56:58Z</time>
      </trkpt>
      <trkpt lat="48.822511" lon="10.198830">
        <ele>614.2</ele>
        <time>2026-08-30T16:56:59Z</time>
      </trkpt>
      <trkpt lat="48.822479" lon="10.198902">
        <ele>614.2</ele>
        <time>2026-08-30T16:57:00Z</time>
      </trkpt>
      <trkpt lat="48.822442" lon="10.198971">
        <ele>614.2</ele>
        <time>2026-08-30T16:57:01Z</time>
      </trkpt>
      <trkpt lat="48.822404" lon="10.199039">
        <ele>614.2</ele>
        <time>2026-08-30T16:57:02Z</time>
      </trkpt>
      <trkpt lat="48.822365" lon="10.199106">
        <ele>614.2</ele>
        <time>2026-08-30T16:57:03Z</time>
      </trkpt>
      <trkpt lat="48.822327" lon="10.199174">
        <ele>614</ele>
        <time>2026-08-30T16:57:04Z</time>
      </trkpt>
      <trkpt lat="48.822290" lon="10.199240">
        <ele>614</ele>
        <time>2026-08-30T16:57:05Z</time>
      </trkpt>
      <trkpt lat="48.822253" lon="10.199310">
        <ele>614</ele>
        <time>2026-08-30T16:57:06Z</time>
      </trkpt>
      <trkpt lat="48.822215" lon="10.199378">
        <ele>614</ele>
        <time>2026-08-30T16:57:07Z</time>
      </trkpt>
      <trkpt lat="48.822177" lon="10.199444">
        <ele>614</ele>
        <time>2026-08-30T16:57:08Z</time>
      </trkpt>
      <trkpt lat="48.822143" lon="10.199515">
        <ele>614</ele>
        <time>2026-08-30T16:57:09Z</time>
      </trkpt>
      <trkpt lat="48.822113" lon="10.199588">
        <ele>614</ele>
        <time>2026-08-30T16:57:10Z</time>
      </trkpt>
      <trkpt lat="48.822085" lon="10.199667">
        <ele>613.8</ele>
        <time>2026-08-30T16:57:11Z</time>
      </trkpt>
    </trkseg>
  </trk>
</gpx>